<?xml version="1.0" encoding="UTF-8" standalone="no" ?>
<gpx xmlns="http://www.topografix.com/GPX/1/1" xmlns:xsi="http://www.w3.org/2001/XMLSchema-instance" xsi:schemaLocation="http://www.topografix.com/GPX/1/1 http://www.topografix.com/GPX/1/1/gpx.xsd" version="1.1" creator="VisuGPX - https://www.visugpx.com">
  <metadata>
    <name>Eddimo Norvège à vélo 2019 Trondheim à Bodo</name>
    <desc><![CDATA[

]]></desc>
  </metadata>
  <wpt lat="63.95742" lon="10.22191">
    <ele>1.9</ele>
    <name><![CDATA[Arnes Juin 2019]]></name>
    <type><![CDATA[bivouacls3]]></type>
  </wpt>
  <wpt lat="64.87218" lon="11.59013">
    <ele>40.9</ele>
    <name><![CDATA[Kolvereid Juin 2019]]></name>
    <type><![CDATA[bivouacls3]]></type>
  </wpt>
  <wpt lat="64.47489" lon="11.57778">
    <ele>2</ele>
    <name><![CDATA[Namsos Juin 2019]]></name>
    <type><![CDATA[bivouacls3]]></type>
  </wpt>
  <wpt lat="64.30073" lon="10.5005">
    <ele>3</ele>
    <name><![CDATA[Osen Juin 2019]]></name>
    <type><![CDATA[bivouacls3]]></type>
  </wpt>
  <wpt lat="65.21545" lon="12.04273">
    <ele>4.3</ele>
    <name><![CDATA[Vennesund Juin 2019]]></name>
    <type><![CDATA[bivouacls3]]></type>
  </wpt>
  <wpt lat="65.85504" lon="12.42052">
    <ele>7.9</ele>
    <name><![CDATA[Tjotta Juin 2019]]></name>
    <type><![CDATA[bivouacls0]]></type>
  </wpt>
  <wpt lat="66.20304" lon="13.02333">
    <ele>3</ele>
    <name><![CDATA[Nesna Juin 2019]]></name>
    <type><![CDATA[bivouacls3]]></type>
  </wpt>
  <wpt lat="66.62033" lon="13.29826">
    <ele>48.8</ele>
    <name><![CDATA[Jektvika juin 2019]]></name>
    <type><![CDATA[bivouacls3]]></type>
  </wpt>
  <wpt lat="67.23564" lon="14.61883">
    <ele>27.2</ele>
    <name><![CDATA[Salstraumen Juillet 2019]]></name>
    <type><![CDATA[bivouacls3]]></type>
  </wpt>
  <wpt lat="66.91459" lon="13.62878">
    <ele>13.5</ele>
    <name><![CDATA[Reipa  Juillet 2019]]></name>
    <cmt><![CDATA[{\"rate\":4.0}]]></cmt>
    <type><![CDATA[bivouacls3]]></type>
  </wpt>
  <wpt lat="67.90076" lon="13.05325">
    <ele>13.4</ele>
    <name><![CDATA[Moskenes Juillet 2019]]></name>
    <type><![CDATA[bivouacls3]]></type>
  </wpt>
  <trk>
    <name><![CDATA[Eddimo Norvège à vélo 2019 Trondheim à Bodo]]></name>
    <extensions>
      <line xmlns="http://www.topografix.com/GPX/gpx_style/0/2">
        <color>FFFF00</color>
        <width>4</width>
      </line>
    </extensions>
    <trkseg>
      <trkpt lat="63.50939" lon="10.13913">
        <ele>6</ele>
        <time>2019-06-22T08:01:40Z</time>
      </trkpt>
      <trkpt lat="63.50956" lon="10.13833">
        <ele>8</ele>
        <time>2019-06-22T08:01:45Z</time>
      </trkpt>
      <trkpt lat="63.50909" lon="10.13535">
        <ele>10</ele>
        <time>2019-06-22T08:01:57Z</time>
      </trkpt>
      <trkpt lat="63.50812" lon="10.13295">
        <ele>12</ele>
        <time>2019-06-22T08:02:11Z</time>
      </trkpt>
      <trkpt lat="63.50802" lon="10.13212">
        <ele>14</ele>
        <time>2019-06-22T08:02:32Z</time>
      </trkpt>
      <trkpt lat="63.50675" lon="10.13112">
        <ele>16</ele>
        <time>2019-06-22T08:02:54Z</time>
      </trkpt>
      <trkpt lat="63.50477" lon="10.13016">
        <ele>18</ele>
        <time>2019-06-22T08:03:03Z</time>
      </trkpt>
      <trkpt lat="63.50378" lon="10.12904">
        <ele>20</ele>
        <time>2019-06-22T08:03:29Z</time>
      </trkpt>
      <trkpt lat="63.50052" lon="10.12128">
        <ele>22</ele>
        <time>2019-06-22T08:03:39Z</time>
      </trkpt>
      <trkpt lat="63.4972" lon="10.10648">
        <ele>23</ele>
        <time>2019-06-22T08:03:50Z</time>
      </trkpt>
      <trkpt lat="63.49665" lon="10.10031">
        <ele>41</ele>
        <time>2019-06-22T08:04:13Z</time>
      </trkpt>
      <trkpt lat="63.49728" lon="10.09522">
        <ele>59</ele>
        <time>2019-06-22T08:05:27Z</time>
      </trkpt>
      <trkpt lat="63.49784" lon="10.0871">
        <ele>77</ele>
        <time>2019-06-22T08:05:41Z</time>
      </trkpt>
      <trkpt lat="63.49943" lon="10.08232">
        <ele>95</ele>
        <time>2019-06-22T08:05:57Z</time>
      </trkpt>
      <trkpt lat="63.49986" lon="10.07376">
        <ele>113</ele>
        <time>2019-06-22T08:06:15Z</time>
      </trkpt>
      <trkpt lat="63.50022" lon="10.07121">
        <ele>131</ele>
        <time>2019-06-22T08:06:25Z</time>
      </trkpt>
      <trkpt lat="63.50135" lon="10.06745">
        <ele>149</ele>
        <time>2019-06-22T08:06:30Z</time>
      </trkpt>
      <trkpt lat="63.50431" lon="10.0605">
        <ele>162</ele>
        <time>2019-06-22T08:06:45Z</time>
      </trkpt>
      <trkpt lat="63.50474" lon="10.05883">
        <ele>152</ele>
        <time>2019-06-22T08:07:12Z</time>
      </trkpt>
      <trkpt lat="63.50537" lon="10.05438">
        <ele>142</ele>
        <time>2019-06-22T08:07:48Z</time>
      </trkpt>
      <trkpt lat="63.50581" lon="10.04833">
        <ele>132</ele>
        <time>2019-06-22T08:08:04Z</time>
      </trkpt>
      <trkpt lat="63.50735" lon="10.04072">
        <ele>122</ele>
        <time>2019-06-22T08:08:36Z</time>
      </trkpt>
      <trkpt lat="63.5073" lon="10.03736">
        <ele>112</ele>
        <time>2019-06-22T08:08:53Z</time>
      </trkpt>
      <trkpt lat="63.50755" lon="10.0355">
        <ele>102</ele>
        <time>2019-06-22T08:09:12Z</time>
      </trkpt>
      <trkpt lat="63.50901" lon="10.03221">
        <ele>92</ele>
        <time>2019-06-22T08:10:11Z</time>
      </trkpt>
      <trkpt lat="63.50919" lon="10.03052">
        <ele>82</ele>
        <time>2019-06-22T08:10:41Z</time>
      </trkpt>
      <trkpt lat="63.50997" lon="10.02778">
        <ele>81</ele>
        <time>2019-06-22T08:11:01Z</time>
      </trkpt>
      <trkpt lat="63.5106" lon="10.02415">
        <ele>73</ele>
        <time>2019-06-22T08:11:13Z</time>
      </trkpt>
      <trkpt lat="63.51191" lon="10.01978">
        <ele>66</ele>
        <time>2019-06-22T08:12:03Z</time>
      </trkpt>
      <trkpt lat="63.51095" lon="10.01847">
        <ele>58</ele>
        <time>2019-06-22T08:12:27Z</time>
      </trkpt>
      <trkpt lat="63.51037" lon="10.01686">
        <ele>50</ele>
        <time>2019-06-22T08:12:34Z</time>
      </trkpt>
      <trkpt lat="63.5096" lon="10.01772">
        <ele>42</ele>
        <time>2019-06-22T08:13:02Z</time>
      </trkpt>
      <trkpt lat="63.50858" lon="10.01775">
        <ele>35</ele>
        <time>2019-06-22T08:13:08Z</time>
      </trkpt>
      <trkpt lat="63.50829" lon="10.01935">
        <ele>27</ele>
        <time>2019-06-22T08:13:23Z</time>
      </trkpt>
      <trkpt lat="63.50853" lon="10.01774">
        <ele>23</ele>
        <time>2019-06-22T08:13:52Z</time>
      </trkpt>
      <trkpt lat="63.50528" lon="10.01115">
        <ele>21</ele>
        <time>2019-06-22T08:14:03Z</time>
      </trkpt>
      <trkpt lat="63.50368" lon="10.0092">
        <ele>19</ele>
        <time>2019-06-22T08:14:13Z</time>
      </trkpt>
      <trkpt lat="63.50139" lon="10.00763">
        <ele>16</ele>
        <time>2019-06-22T08:14:21Z</time>
      </trkpt>
      <trkpt lat="63.49907" lon="10.00853">
        <ele>14</ele>
        <time>2019-06-22T08:14:47Z</time>
      </trkpt>
      <trkpt lat="63.498" lon="10.00863">
        <ele>12</ele>
        <time>2019-06-22T08:14:59Z</time>
      </trkpt>
      <trkpt lat="63.49755" lon="10.0084">
        <ele>10</ele>
        <time>2019-06-22T08:15:04Z</time>
      </trkpt>
      <trkpt lat="63.49724" lon="10.01152">
        <ele>8</ele>
        <time>2019-06-22T08:15:11Z</time>
      </trkpt>
      <trkpt lat="63.49612" lon="10.0128">
        <ele>6</ele>
        <time>2019-06-22T08:15:35Z</time>
      </trkpt>
      <trkpt lat="63.4954" lon="10.01523">
        <ele>7</ele>
        <time>2019-06-22T08:34:05Z</time>
      </trkpt>
      <trkpt lat="63.49523" lon="10.01521">
        <ele>8</ele>
        <time>2019-06-22T08:34:19Z</time>
      </trkpt>
      <trkpt lat="63.49556" lon="10.01597">
        <ele>9</ele>
        <time>2019-06-22T08:34:37Z</time>
      </trkpt>
      <trkpt lat="63.49559" lon="10.01711">
        <ele>10</ele>
        <time>2019-06-22T08:34:47Z</time>
      </trkpt>
      <trkpt lat="63.49606" lon="10.01538">
        <ele>11</ele>
        <time>2019-06-22T08:34:58Z</time>
      </trkpt>
      <trkpt lat="63.49625" lon="10.01263">
        <ele>12</ele>
        <time>2019-06-22T08:35:28Z</time>
      </trkpt>
      <trkpt lat="63.4969" lon="10.01248">
        <ele>12</ele>
        <time>2019-06-22T08:35:41Z</time>
      </trkpt>
      <trkpt lat="63.49743" lon="10.00973">
        <ele>13</ele>
        <time>2019-06-22T08:35:48Z</time>
      </trkpt>
      <trkpt lat="63.4983" lon="9.99377">
        <ele>14</ele>
        <time>2019-06-22T08:35:56Z</time>
      </trkpt>
      <trkpt lat="63.50016" lon="9.9822">
        <ele>25</ele>
        <time>2019-06-22T08:36:15Z</time>
      </trkpt>
      <trkpt lat="63.50053" lon="9.96469">
        <ele>36</ele>
        <time>2019-06-22T08:36:32Z</time>
      </trkpt>
      <trkpt lat="63.50032" lon="9.95834">
        <ele>47</ele>
        <time>2019-06-22T08:36:40Z</time>
      </trkpt>
      <trkpt lat="63.5005" lon="9.95455">
        <ele>58</ele>
        <time>2019-06-22T08:37:02Z</time>
      </trkpt>
      <trkpt lat="63.50101" lon="9.95167">
        <ele>69</ele>
        <time>2019-06-22T08:37:11Z</time>
      </trkpt>
      <trkpt lat="63.50429" lon="9.94008">
        <ele>80</ele>
        <time>2019-06-22T08:37:22Z</time>
      </trkpt>
      <trkpt lat="63.50602" lon="9.93624">
        <ele>90</ele>
        <time>2019-06-22T08:37:57Z</time>
      </trkpt>
      <trkpt lat="63.50673" lon="9.93557">
        <ele>97</ele>
        <time>2019-06-22T08:38:10Z</time>
      </trkpt>
      <trkpt lat="63.50887" lon="9.93501">
        <ele>101</ele>
        <time>2019-06-22T08:38:22Z</time>
      </trkpt>
      <trkpt lat="63.51014" lon="9.93436">
        <ele>105</ele>
        <time>2019-06-22T08:38:29Z</time>
      </trkpt>
      <trkpt lat="63.51186" lon="9.93313">
        <ele>108</ele>
        <time>2019-06-22T08:38:45Z</time>
      </trkpt>
      <trkpt lat="63.51395" lon="9.92918">
        <ele>112</ele>
        <time>2019-06-22T08:39:52Z</time>
      </trkpt>
      <trkpt lat="63.51538" lon="9.92811">
        <ele>116</ele>
        <time>2019-06-22T08:40:02Z</time>
      </trkpt>
      <trkpt lat="63.51655" lon="9.92784">
        <ele>120</ele>
        <time>2019-06-22T08:40:07Z</time>
      </trkpt>
      <trkpt lat="63.51817" lon="9.92691">
        <ele>123</ele>
        <time>2019-06-22T08:40:28Z</time>
      </trkpt>
      <trkpt lat="63.51894" lon="9.9269">
        <ele>127</ele>
        <time>2019-06-22T08:40:50Z</time>
      </trkpt>
      <trkpt lat="63.51965" lon="9.92734">
        <ele>128</ele>
        <time>2019-06-22T08:40:56Z</time>
      </trkpt>
      <trkpt lat="63.52108" lon="9.92923">
        <ele>129</ele>
        <time>2019-06-22T08:41:16Z</time>
      </trkpt>
      <trkpt lat="63.5225" lon="9.93053">
        <ele>131</ele>
        <time>2019-06-22T08:41:28Z</time>
      </trkpt>
      <trkpt lat="63.52484" lon="9.93357">
        <ele>132</ele>
        <time>2019-06-22T08:41:35Z</time>
      </trkpt>
      <trkpt lat="63.52574" lon="9.93366">
        <ele>133</ele>
        <time>2019-06-22T08:42:06Z</time>
      </trkpt>
      <trkpt lat="63.53097" lon="9.92667">
        <ele>134</ele>
        <time>2019-06-22T08:42:16Z</time>
      </trkpt>
      <trkpt lat="63.53205" lon="9.92625">
        <ele>135</ele>
        <time>2019-06-22T08:42:26Z</time>
      </trkpt>
      <trkpt lat="63.53315" lon="9.9265">
        <ele>137</ele>
        <time>2019-06-22T08:43:57Z</time>
      </trkpt>
      <trkpt lat="63.53309" lon="9.92679">
        <ele>137</ele>
        <time>2019-06-22T08:44:26Z</time>
      </trkpt>
      <trkpt lat="63.53317" lon="9.92647">
        <ele>121</ele>
        <time>2019-06-22T08:44:49Z</time>
      </trkpt>
      <trkpt lat="63.53677" lon="9.92641">
        <ele>105</ele>
        <time>2019-06-22T08:44:56Z</time>
      </trkpt>
      <trkpt lat="63.53842" lon="9.9259">
        <ele>88</ele>
        <time>2019-06-22T08:45:18Z</time>
      </trkpt>
      <trkpt lat="63.54018" lon="9.92591">
        <ele>72</ele>
        <time>2019-06-22T08:45:27Z</time>
      </trkpt>
      <trkpt lat="63.54116" lon="9.92628">
        <ele>56</ele>
        <time>2019-06-22T08:45:35Z</time>
      </trkpt>
      <trkpt lat="63.54341" lon="9.92649">
        <ele>40</ele>
        <time>2019-06-22T08:46:01Z</time>
      </trkpt>
      <trkpt lat="63.54555" lon="9.92621">
        <ele>24</ele>
        <time>2019-06-22T08:46:10Z</time>
      </trkpt>
      <trkpt lat="63.55388" lon="9.9244">
        <ele>12</ele>
        <time>2019-06-22T08:46:23Z</time>
      </trkpt>
      <trkpt lat="63.56339" lon="9.92129">
        <ele>12</ele>
        <time>2019-06-22T08:46:32Z</time>
      </trkpt>
      <trkpt lat="63.56381" lon="9.92201">
        <ele>11</ele>
        <time>2019-06-22T08:46:58Z</time>
      </trkpt>
      <trkpt lat="63.56447" lon="9.92513">
        <ele>11</ele>
        <time>2019-06-22T08:47:11Z</time>
      </trkpt>
      <trkpt lat="63.56466" lon="9.92514">
        <ele>10</ele>
        <time>2019-06-22T08:47:21Z</time>
      </trkpt>
      <trkpt lat="63.56675" lon="9.92863">
        <ele>10</ele>
        <time>2019-06-22T08:47:28Z</time>
      </trkpt>
      <trkpt lat="63.56787" lon="9.9315">
        <ele>9</ele>
        <time>2019-06-22T08:47:51Z</time>
      </trkpt>
      <trkpt lat="63.57023" lon="9.93252">
        <ele>9</ele>
        <time>2019-06-22T08:48:08Z</time>
      </trkpt>
      <trkpt lat="63.57018" lon="9.93222">
        <ele>8</ele>
        <time>2019-06-22T08:48:15Z</time>
      </trkpt>
      <trkpt lat="63.57064" lon="9.93266">
        <ele>8</ele>
        <time>2019-06-22T08:49:20Z</time>
      </trkpt>
      <trkpt lat="63.58001" lon="9.93634">
        <ele>11</ele>
        <time>2019-06-22T08:49:43Z</time>
      </trkpt>
      <trkpt lat="63.58051" lon="9.93753">
        <ele>13</ele>
        <time>2019-06-22T08:49:54Z</time>
      </trkpt>
      <trkpt lat="63.58344" lon="9.95496">
        <ele>16</ele>
        <time>2019-06-22T08:50:29Z</time>
      </trkpt>
      <trkpt lat="63.5854" lon="9.96423">
        <ele>18</ele>
        <time>2019-06-22T08:50:38Z</time>
      </trkpt>
      <trkpt lat="63.58626" lon="9.96473">
        <ele>21</ele>
        <time>2019-06-22T08:50:59Z</time>
      </trkpt>
      <trkpt lat="63.58629" lon="9.96489">
        <ele>23</ele>
        <time>2019-06-22T08:51:08Z</time>
      </trkpt>
      <trkpt lat="63.58617" lon="9.96451">
        <ele>26</ele>
        <time>2019-06-22T08:51:30Z</time>
      </trkpt>
      <trkpt lat="63.5861" lon="9.96737">
        <ele>27</ele>
        <time>2019-06-22T08:51:51Z</time>
      </trkpt>
      <trkpt lat="63.58915" lon="9.98114">
        <ele>30</ele>
        <time>2019-06-22T08:52:04Z</time>
      </trkpt>
      <trkpt lat="63.59053" lon="9.9835">
        <ele>33</ele>
        <time>2019-06-22T08:52:25Z</time>
      </trkpt>
      <trkpt lat="63.59432" lon="9.98812">
        <ele>36</ele>
        <time>2019-06-22T08:52:36Z</time>
      </trkpt>
      <trkpt lat="63.59534" lon="9.99001">
        <ele>39</ele>
        <time>2019-06-22T08:52:49Z</time>
      </trkpt>
      <trkpt lat="63.5984" lon="9.99797">
        <ele>42</ele>
        <time>2019-06-22T08:53:21Z</time>
      </trkpt>
      <trkpt lat="63.60121" lon="10.00241">
        <ele>45</ele>
        <time>2019-06-22T08:54:45Z</time>
      </trkpt>
      <trkpt lat="63.6058" lon="10.01431">
        <ele>48</ele>
        <time>2019-06-22T08:55:05Z</time>
      </trkpt>
      <trkpt lat="63.61354" lon="10.02869">
        <ele>50</ele>
        <time>2019-06-22T08:55:11Z</time>
      </trkpt>
      <trkpt lat="63.62034" lon="10.04034">
        <ele>49</ele>
        <time>2019-06-22T08:55:24Z</time>
      </trkpt>
      <trkpt lat="63.6225" lon="10.04201">
        <ele>48</ele>
        <time>2019-06-22T08:55:33Z</time>
      </trkpt>
      <trkpt lat="63.62333" lon="10.0433">
        <ele>47</ele>
        <time>2019-06-22T08:55:39Z</time>
      </trkpt>
      <trkpt lat="63.62649" lon="10.04995">
        <ele>46</ele>
        <time>2019-06-22T08:55:44Z</time>
      </trkpt>
      <trkpt lat="63.63034" lon="10.05959">
        <ele>45</ele>
        <time>2019-06-22T08:55:55Z</time>
      </trkpt>
      <trkpt lat="63.63208" lon="10.06649">
        <ele>44</ele>
        <time>2019-06-22T08:56:06Z</time>
      </trkpt>
      <trkpt lat="63.63332" lon="10.07033">
        <ele>43</ele>
        <time>2019-06-22T08:56:12Z</time>
      </trkpt>
      <trkpt lat="63.63511" lon="10.0784">
        <ele>42</ele>
        <time>2019-06-22T08:56:37Z</time>
      </trkpt>
      <trkpt lat="63.6367" lon="10.08401">
        <ele>42</ele>
        <time>2019-06-22T08:56:48Z</time>
      </trkpt>
      <trkpt lat="63.6402" lon="10.09211">
        <ele>45</ele>
        <time>2019-06-22T08:56:59Z</time>
      </trkpt>
      <trkpt lat="63.64316" lon="10.10093">
        <ele>48</ele>
        <time>2019-06-22T08:57:11Z</time>
      </trkpt>
      <trkpt lat="63.64369" lon="10.10531">
        <ele>51</ele>
        <time>2019-06-22T08:57:14Z</time>
      </trkpt>
      <trkpt lat="63.64345" lon="10.11509">
        <ele>54</ele>
        <time>2019-06-22T08:57:19Z</time>
      </trkpt>
      <trkpt lat="63.64402" lon="10.11689">
        <ele>57</ele>
        <time>2019-06-22T08:57:22Z</time>
      </trkpt>
      <trkpt lat="63.64592" lon="10.11995">
        <ele>60</ele>
        <time>2019-06-22T08:57:28Z</time>
      </trkpt>
      <trkpt lat="63.64756" lon="10.12655">
        <ele>63</ele>
        <time>2019-06-22T08:57:41Z</time>
      </trkpt>
      <trkpt lat="63.65028" lon="10.13535">
        <ele>64</ele>
        <time>2019-06-22T08:57:48Z</time>
      </trkpt>
      <trkpt lat="63.65168" lon="10.14515">
        <ele>62</ele>
        <time>2019-06-22T08:57:58Z</time>
      </trkpt>
      <trkpt lat="63.65371" lon="10.15067">
        <ele>60</ele>
        <time>2019-06-22T08:58:03Z</time>
      </trkpt>
      <trkpt lat="63.65628" lon="10.15572">
        <ele>58</ele>
        <time>2019-06-22T08:58:09Z</time>
      </trkpt>
      <trkpt lat="63.65932" lon="10.16345">
        <ele>56</ele>
        <time>2019-06-22T08:58:20Z</time>
      </trkpt>
      <trkpt lat="63.66209" lon="10.16873">
        <ele>54</ele>
        <time>2019-06-22T08:58:26Z</time>
      </trkpt>
      <trkpt lat="63.66291" lon="10.17356">
        <ele>51</ele>
        <time>2019-06-22T08:58:36Z</time>
      </trkpt>
      <trkpt lat="63.66466" lon="10.17911">
        <ele>49</ele>
        <time>2019-06-22T08:58:40Z</time>
      </trkpt>
      <trkpt lat="63.66552" lon="10.18073">
        <ele>47</ele>
        <time>2019-06-22T08:58:52Z</time>
      </trkpt>
      <trkpt lat="63.66584" lon="10.18195">
        <ele>51</ele>
        <time>2019-06-22T08:58:58Z</time>
      </trkpt>
      <trkpt lat="63.66631" lon="10.19008">
        <ele>54</ele>
        <time>2019-06-22T08:59:02Z</time>
      </trkpt>
      <trkpt lat="63.66682" lon="10.1925">
        <ele>58</ele>
        <time>2019-06-22T08:59:04Z</time>
      </trkpt>
      <trkpt lat="63.67104" lon="10.20492">
        <ele>61</ele>
        <time>2019-06-22T08:59:11Z</time>
      </trkpt>
      <trkpt lat="63.67248" lon="10.20854">
        <ele>64</ele>
        <time>2019-06-22T08:59:19Z</time>
      </trkpt>
      <trkpt lat="63.67318" lon="10.21269">
        <ele>68</ele>
        <time>2019-06-22T08:59:21Z</time>
      </trkpt>
      <trkpt lat="63.67439" lon="10.2143">
        <ele>71</ele>
        <time>2019-06-22T08:59:27Z</time>
      </trkpt>
      <trkpt lat="63.6753" lon="10.21633">
        <ele>75</ele>
        <time>2019-06-22T08:59:29Z</time>
      </trkpt>
      <trkpt lat="63.67708" lon="10.22212">
        <ele>76</ele>
        <time>2019-06-22T08:59:34Z</time>
      </trkpt>
      <trkpt lat="63.67986" lon="10.22919">
        <ele>97</ele>
        <time>2019-06-22T08:59:48Z</time>
      </trkpt>
      <trkpt lat="63.68287" lon="10.23891">
        <ele>118</ele>
        <time>2019-06-22T08:59:53Z</time>
      </trkpt>
      <trkpt lat="63.68425" lon="10.24144">
        <ele>139</ele>
        <time>2019-06-22T09:00:00Z</time>
      </trkpt>
      <trkpt lat="63.68549" lon="10.24278">
        <ele>160</ele>
        <time>2019-06-22T09:00:03Z</time>
      </trkpt>
      <trkpt lat="63.68772" lon="10.24426">
        <ele>182</ele>
        <time>2019-06-22T09:00:17Z</time>
      </trkpt>
      <trkpt lat="63.68975" lon="10.24493">
        <ele>203</ele>
        <time>2019-06-22T09:00:35Z</time>
      </trkpt>
      <trkpt lat="63.69129" lon="10.2449">
        <ele>224</ele>
        <time>2019-06-22T09:00:47Z</time>
      </trkpt>
      <trkpt lat="63.69659" lon="10.24266">
        <ele>238</ele>
        <time>2019-06-22T09:01:05Z</time>
      </trkpt>
      <trkpt lat="63.69895" lon="10.23927">
        <ele>237</ele>
        <time>2019-06-22T09:01:18Z</time>
      </trkpt>
      <trkpt lat="63.70608" lon="10.23542">
        <ele>237</ele>
        <time>2019-06-22T09:01:26Z</time>
      </trkpt>
      <trkpt lat="63.70784" lon="10.23514">
        <ele>236</ele>
        <time>2019-06-22T09:14:45Z</time>
      </trkpt>
      <trkpt lat="63.70971" lon="10.23599">
        <ele>235</ele>
        <time>2019-06-22T09:14:52Z</time>
      </trkpt>
      <trkpt lat="63.71044" lon="10.23586">
        <ele>235</ele>
        <time>2019-06-22T09:15:11Z</time>
      </trkpt>
      <trkpt lat="63.71212" lon="10.23682">
        <ele>234</ele>
        <time>2019-06-22T09:15:24Z</time>
      </trkpt>
      <trkpt lat="63.71661" lon="10.23486">
        <ele>233</ele>
        <time>2019-06-22T09:16:13Z</time>
      </trkpt>
      <trkpt lat="63.71788" lon="10.23408">
        <ele>233</ele>
        <time>2019-06-22T09:16:23Z</time>
      </trkpt>
      <trkpt lat="63.7193" lon="10.23247">
        <ele>233</ele>
        <time>2019-06-22T09:16:41Z</time>
      </trkpt>
      <trkpt lat="63.72055" lon="10.23234">
        <ele>222</ele>
        <time>2019-06-22T09:16:49Z</time>
      </trkpt>
      <trkpt lat="63.7218" lon="10.23269">
        <ele>212</ele>
        <time>2019-06-22T09:17:31Z</time>
      </trkpt>
      <trkpt lat="63.72387" lon="10.23418">
        <ele>201</ele>
        <time>2019-06-22T09:18:07Z</time>
      </trkpt>
      <trkpt lat="63.72837" lon="10.23534">
        <ele>191</ele>
        <time>2019-06-22T09:18:23Z</time>
      </trkpt>
      <trkpt lat="63.73022" lon="10.23457">
        <ele>180</ele>
        <time>2019-06-22T09:18:46Z</time>
      </trkpt>
      <trkpt lat="63.734" lon="10.23431">
        <ele>170</ele>
        <time>2019-06-22T09:19:07Z</time>
      </trkpt>
      <trkpt lat="63.73555" lon="10.23351">
        <ele>159</ele>
        <time>2019-06-22T09:19:35Z</time>
      </trkpt>
      <trkpt lat="63.73688" lon="10.23332">
        <ele>155</ele>
        <time>2019-06-22T09:20:25Z</time>
      </trkpt>
      <trkpt lat="63.73842" lon="10.23483">
        <ele>152</ele>
        <time>2019-06-22T09:20:32Z</time>
      </trkpt>
      <trkpt lat="63.73935" lon="10.23629">
        <ele>150</ele>
        <time>2019-06-22T09:20:46Z</time>
      </trkpt>
      <trkpt lat="63.74162" lon="10.23641">
        <ele>147</ele>
        <time>2019-06-22T09:21:05Z</time>
      </trkpt>
      <trkpt lat="63.74275" lon="10.23759">
        <ele>145</ele>
        <time>2019-06-22T09:21:40Z</time>
      </trkpt>
      <trkpt lat="63.74559" lon="10.23837">
        <ele>142</ele>
        <time>2019-06-22T09:22:17Z</time>
      </trkpt>
      <trkpt lat="63.74701" lon="10.23726">
        <ele>139</ele>
        <time>2019-06-22T09:22:22Z</time>
      </trkpt>
      <trkpt lat="63.74869" lon="10.23735">
        <ele>137</ele>
        <time>2019-06-22T09:22:44Z</time>
      </trkpt>
      <trkpt lat="63.75063" lon="10.23698">
        <ele>135</ele>
        <time>2019-06-22T09:22:52Z</time>
      </trkpt>
      <trkpt lat="63.75384" lon="10.23733">
        <ele>135</ele>
        <time>2019-06-22T09:23:04Z</time>
      </trkpt>
      <trkpt lat="63.75573" lon="10.23698">
        <ele>135</ele>
        <time>2019-06-22T09:23:36Z</time>
      </trkpt>
      <trkpt lat="63.75679" lon="10.23728">
        <ele>135</ele>
        <time>2019-06-22T09:23:39Z</time>
      </trkpt>
      <trkpt lat="63.75882" lon="10.23853">
        <ele>135</ele>
        <time>2019-06-22T09:23:47Z</time>
      </trkpt>
      <trkpt lat="63.75945" lon="10.23926">
        <ele>136</ele>
        <time>2019-06-22T09:23:57Z</time>
      </trkpt>
      <trkpt lat="63.76012" lon="10.23932">
        <ele>136</ele>
        <time>2019-06-22T09:32:06Z</time>
      </trkpt>
      <trkpt lat="63.76062" lon="10.23896">
        <ele>136</ele>
        <time>2019-06-22T09:32:13Z</time>
      </trkpt>
      <trkpt lat="63.76201" lon="10.23894">
        <ele>136</ele>
        <time>2019-06-22T09:32:23Z</time>
      </trkpt>
      <trkpt lat="63.76553" lon="10.23993">
        <ele>136</ele>
        <time>2019-06-22T09:32:27Z</time>
      </trkpt>
      <trkpt lat="63.76661" lon="10.23991">
        <ele>137</ele>
        <time>2019-06-22T09:36:16Z</time>
      </trkpt>
      <trkpt lat="63.7675" lon="10.23926">
        <ele>138</ele>
        <time>2019-06-22T09:36:36Z</time>
      </trkpt>
      <trkpt lat="63.76856" lon="10.23763">
        <ele>139</ele>
        <time>2019-06-22T09:36:40Z</time>
      </trkpt>
      <trkpt lat="63.76934" lon="10.23694">
        <ele>140</ele>
        <time>2019-06-22T09:36:51Z</time>
      </trkpt>
      <trkpt lat="63.7706" lon="10.23663">
        <ele>142</ele>
        <time>2019-06-22T09:37:06Z</time>
      </trkpt>
      <trkpt lat="63.77304" lon="10.23672">
        <ele>143</ele>
        <time>2019-06-22T09:37:21Z</time>
      </trkpt>
      <trkpt lat="63.77407" lon="10.23646">
        <ele>144</ele>
        <time>2019-06-22T09:37:59Z</time>
      </trkpt>
      <trkpt lat="63.77529" lon="10.23587">
        <ele>144</ele>
        <time>2019-06-22T09:38:04Z</time>
      </trkpt>
      <trkpt lat="63.7762" lon="10.2344">
        <ele>141</ele>
        <time>2019-06-22T09:38:15Z</time>
      </trkpt>
      <trkpt lat="63.77692" lon="10.23255">
        <ele>138</ele>
        <time>2019-06-22T09:38:25Z</time>
      </trkpt>
      <trkpt lat="63.77757" lon="10.22131">
        <ele>134</ele>
        <time>2019-06-22T09:39:06Z</time>
      </trkpt>
      <trkpt lat="63.7784" lon="10.21865">
        <ele>131</ele>
        <time>2019-06-22T09:39:31Z</time>
      </trkpt>
      <trkpt lat="63.77953" lon="10.21785">
        <ele>127</ele>
        <time>2019-06-22T09:39:36Z</time>
      </trkpt>
      <trkpt lat="63.77997" lon="10.21788">
        <ele>124</ele>
        <time>2019-06-22T09:39:58Z</time>
      </trkpt>
      <trkpt lat="63.78109" lon="10.21905">
        <ele>120</ele>
        <time>2019-06-22T09:40:03Z</time>
      </trkpt>
      <trkpt lat="63.7821" lon="10.22058">
        <ele>117</ele>
        <time>2019-06-22T09:40:29Z</time>
      </trkpt>
      <trkpt lat="63.78514" lon="10.22794">
        <ele>116</ele>
        <time>2019-06-22T09:41:19Z</time>
      </trkpt>
      <trkpt lat="63.78714" lon="10.23152">
        <ele>115</ele>
        <time>2019-06-22T09:41:27Z</time>
      </trkpt>
      <trkpt lat="63.78917" lon="10.23186">
        <ele>114</ele>
        <time>2019-06-22T09:41:47Z</time>
      </trkpt>
      <trkpt lat="63.79067" lon="10.23357">
        <ele>113</ele>
        <time>2019-06-22T09:42:09Z</time>
      </trkpt>
      <trkpt lat="63.79377" lon="10.2326">
        <ele>112</ele>
        <time>2019-06-22T09:43:10Z</time>
      </trkpt>
      <trkpt lat="63.79496" lon="10.23263">
        <ele>111</ele>
        <time>2019-06-22T09:43:48Z</time>
      </trkpt>
      <trkpt lat="63.79713" lon="10.23312">
        <ele>110</ele>
        <time>2019-06-22T09:43:53Z</time>
      </trkpt>
      <trkpt lat="63.79901" lon="10.23156">
        <ele>109</ele>
        <time>2019-06-22T09:44:07Z</time>
      </trkpt>
      <trkpt lat="63.80021" lon="10.23122">
        <ele>108</ele>
        <time>2019-06-22T09:44:43Z</time>
      </trkpt>
      <trkpt lat="63.80156" lon="10.23133">
        <ele>109</ele>
        <time>2019-06-22T09:45:20Z</time>
      </trkpt>
      <trkpt lat="63.8023" lon="10.22994">
        <ele>110</ele>
        <time>2019-06-22T09:45:38Z</time>
      </trkpt>
      <trkpt lat="63.80313" lon="10.22731">
        <ele>111</ele>
        <time>2019-06-22T09:46:18Z</time>
      </trkpt>
      <trkpt lat="63.80351" lon="10.22687">
        <ele>112</ele>
        <time>2019-06-22T09:46:38Z</time>
      </trkpt>
      <trkpt lat="63.80414" lon="10.22936">
        <ele>113</ele>
        <time>2019-06-22T09:46:54Z</time>
      </trkpt>
      <trkpt lat="63.8044" lon="10.23252">
        <ele>114</ele>
        <time>2019-06-22T09:47:18Z</time>
      </trkpt>
      <trkpt lat="63.8058" lon="10.23482">
        <ele>115</ele>
        <time>2019-06-22T09:47:30Z</time>
      </trkpt>
      <trkpt lat="63.80689" lon="10.23404">
        <ele>115</ele>
        <time>2019-06-22T09:47:49Z</time>
      </trkpt>
      <trkpt lat="63.8095" lon="10.23508">
        <ele>117</ele>
        <time>2019-06-22T09:48:00Z</time>
      </trkpt>
      <trkpt lat="63.81233" lon="10.23573">
        <ele>119</ele>
        <time>2019-06-22T09:48:34Z</time>
      </trkpt>
      <trkpt lat="63.81682" lon="10.23459">
        <ele>121</ele>
        <time>2019-06-22T09:49:25Z</time>
      </trkpt>
      <trkpt lat="63.81899" lon="10.23295">
        <ele>122</ele>
        <time>2019-06-22T09:49:40Z</time>
      </trkpt>
      <trkpt lat="63.82055" lon="10.2303">
        <ele>124</ele>
        <time>2019-06-22T09:50:17Z</time>
      </trkpt>
      <trkpt lat="63.82417" lon="10.2305">
        <ele>126</ele>
        <time>2019-06-22T09:50:30Z</time>
      </trkpt>
      <trkpt lat="63.82557" lon="10.23014">
        <ele>128</ele>
        <time>2019-06-22T09:50:49Z</time>
      </trkpt>
      <trkpt lat="63.82935" lon="10.22817">
        <ele>129</ele>
        <time>2019-06-22T09:51:30Z</time>
      </trkpt>
      <trkpt lat="63.83339" lon="10.23067">
        <ele>133</ele>
        <time>2019-06-22T09:51:41Z</time>
      </trkpt>
      <trkpt lat="63.83427" lon="10.23083">
        <ele>137</ele>
        <time>2019-06-22T09:52:00Z</time>
      </trkpt>
      <trkpt lat="63.8351" lon="10.23056">
        <ele>141</ele>
        <time>2019-06-22T09:52:11Z</time>
      </trkpt>
      <trkpt lat="63.83765" lon="10.22869">
        <ele>144</ele>
        <time>2019-06-22T09:52:36Z</time>
      </trkpt>
      <trkpt lat="63.83872" lon="10.22873">
        <ele>148</ele>
        <time>2019-06-22T09:52:43Z</time>
      </trkpt>
      <trkpt lat="63.84012" lon="10.22928">
        <ele>152</ele>
        <time>2019-06-22T09:52:55Z</time>
      </trkpt>
      <trkpt lat="63.84191" lon="10.22922">
        <ele>155</ele>
        <time>2019-06-22T09:53:00Z</time>
      </trkpt>
      <trkpt lat="63.8443" lon="10.22701">
        <ele>159</ele>
        <time>2019-06-22T09:53:19Z</time>
      </trkpt>
      <trkpt lat="63.8488" lon="10.22484">
        <ele>160</ele>
        <time>2019-06-22T09:59:24Z</time>
      </trkpt>
      <trkpt lat="63.85291" lon="10.22456">
        <ele>161</ele>
        <time>2019-06-22T09:59:30Z</time>
      </trkpt>
      <trkpt lat="63.85498" lon="10.22622">
        <ele>162</ele>
        <time>2019-06-22T09:59:50Z</time>
      </trkpt>
      <trkpt lat="63.85679" lon="10.22672">
        <ele>162</ele>
        <time>2019-06-22T09:59:57Z</time>
      </trkpt>
      <trkpt lat="63.85743" lon="10.22647">
        <ele>163</ele>
        <time>2019-06-22T10:00:08Z</time>
      </trkpt>
      <trkpt lat="63.86086" lon="10.22364">
        <ele>164</ele>
        <time>2019-06-22T10:00:40Z</time>
      </trkpt>
      <trkpt lat="63.86406" lon="10.22299">
        <ele>165</ele>
        <time>2019-06-22T10:00:49Z</time>
      </trkpt>
      <trkpt lat="63.86601" lon="10.2212">
        <ele>165</ele>
        <time>2019-06-22T10:01:02Z</time>
      </trkpt>
      <trkpt lat="63.86791" lon="10.22054">
        <ele>166</ele>
        <time>2019-06-22T10:01:11Z</time>
      </trkpt>
      <trkpt lat="63.86979" lon="10.21886">
        <ele>167</ele>
        <time>2019-06-22T10:01:38Z</time>
      </trkpt>
      <trkpt lat="63.8723" lon="10.21846">
        <ele>167</ele>
        <time>2019-06-22T10:01:59Z</time>
      </trkpt>
      <trkpt lat="63.87382" lon="10.21776">
        <ele>168</ele>
        <time>2019-06-22T10:02:07Z</time>
      </trkpt>
      <trkpt lat="63.87636" lon="10.21607">
        <ele>169</ele>
        <time>2019-06-22T10:02:27Z</time>
      </trkpt>
      <trkpt lat="63.87692" lon="10.2159">
        <ele>170</ele>
        <time>2019-06-22T10:02:39Z</time>
      </trkpt>
      <trkpt lat="63.88072" lon="10.21654">
        <ele>171</ele>
        <time>2019-06-22T10:02:53Z</time>
      </trkpt>
      <trkpt lat="63.883" lon="10.21574">
        <ele>172</ele>
        <time>2019-06-22T10:03:24Z</time>
      </trkpt>
      <trkpt lat="63.88564" lon="10.21593">
        <ele>173</ele>
        <time>2019-06-22T10:03:34Z</time>
      </trkpt>
      <trkpt lat="63.88694" lon="10.21539">
        <ele>173</ele>
        <time>2019-06-22T10:03:48Z</time>
      </trkpt>
      <trkpt lat="63.88998" lon="10.21521">
        <ele>163</ele>
        <time>2019-06-22T10:04:04Z</time>
      </trkpt>
      <trkpt lat="63.8908" lon="10.21582">
        <ele>153</ele>
        <time>2019-06-22T10:04:43Z</time>
      </trkpt>
      <trkpt lat="63.89227" lon="10.22039">
        <ele>142</ele>
        <time>2019-06-22T10:04:54Z</time>
      </trkpt>
      <trkpt lat="63.89541" lon="10.22707">
        <ele>132</ele>
        <time>2019-06-22T10:05:13Z</time>
      </trkpt>
      <trkpt lat="63.89668" lon="10.22822">
        <ele>122</ele>
        <time>2019-06-22T10:05:25Z</time>
      </trkpt>
      <trkpt lat="63.89795" lon="10.22837">
        <ele>112</ele>
        <time>2019-06-22T10:05:55Z</time>
      </trkpt>
      <trkpt lat="63.89917" lon="10.22944">
        <ele>102</ele>
        <time>2019-06-22T10:06:20Z</time>
      </trkpt>
      <trkpt lat="63.90015" lon="10.23116">
        <ele>97</ele>
        <time>2019-06-22T10:06:28Z</time>
      </trkpt>
      <trkpt lat="63.90094" lon="10.2317">
        <ele>90</ele>
        <time>2019-06-22T10:06:52Z</time>
      </trkpt>
      <trkpt lat="63.90205" lon="10.23128">
        <ele>82</ele>
        <time>2019-06-22T10:07:01Z</time>
      </trkpt>
      <trkpt lat="63.90294" lon="10.23146">
        <ele>74</ele>
        <time>2019-06-22T10:07:12Z</time>
      </trkpt>
      <trkpt lat="63.90391" lon="10.2345">
        <ele>67</ele>
        <time>2019-06-22T10:07:54Z</time>
      </trkpt>
      <trkpt lat="63.90391" lon="10.24019">
        <ele>59</ele>
        <time>2019-06-22T10:08:01Z</time>
      </trkpt>
      <trkpt lat="63.9042" lon="10.24238">
        <ele>52</ele>
        <time>2019-06-22T10:08:16Z</time>
      </trkpt>
      <trkpt lat="63.90932" lon="10.2505">
        <ele>44</ele>
        <time>2019-06-22T10:08:25Z</time>
      </trkpt>
      <trkpt lat="63.90982" lon="10.25066">
        <ele>38</ele>
        <time>2019-06-22T10:08:50Z</time>
      </trkpt>
      <trkpt lat="63.9105" lon="10.25016">
        <ele>41</ele>
        <time>2019-06-22T10:09:05Z</time>
      </trkpt>
      <trkpt lat="63.91105" lon="10.24849">
        <ele>44</ele>
        <time>2019-06-22T10:09:14Z</time>
      </trkpt>
      <trkpt lat="63.91079" lon="10.24025">
        <ele>47</ele>
        <time>2019-06-22T10:09:43Z</time>
      </trkpt>
      <trkpt lat="63.91012" lon="10.23682">
        <ele>50</ele>
        <time>2019-06-22T10:09:53Z</time>
      </trkpt>
      <trkpt lat="63.91043" lon="10.23428">
        <ele>53</ele>
        <time>2019-06-22T10:10:03Z</time>
      </trkpt>
      <trkpt lat="63.91363" lon="10.23">
        <ele>56</ele>
        <time>2019-06-22T10:10:39Z</time>
      </trkpt>
      <trkpt lat="63.91502" lon="10.23062">
        <ele>59</ele>
        <time>2019-06-22T10:10:46Z</time>
      </trkpt>
      <trkpt lat="63.91593" lon="10.23141">
        <ele>62</ele>
        <time>2019-06-22T10:10:57Z</time>
      </trkpt>
      <trkpt lat="63.9167" lon="10.2314">
        <ele>63</ele>
        <time>2019-06-22T10:11:09Z</time>
      </trkpt>
      <trkpt lat="63.91955" lon="10.22965">
        <ele>57</ele>
        <time>2019-06-22T10:11:46Z</time>
      </trkpt>
      <trkpt lat="63.92046" lon="10.22867">
        <ele>51</ele>
        <time>2019-06-22T10:11:56Z</time>
      </trkpt>
      <trkpt lat="63.92083" lon="10.22768">
        <ele>44</ele>
        <time>2019-06-22T10:12:10Z</time>
      </trkpt>
      <trkpt lat="63.92105" lon="10.22584">
        <ele>38</ele>
        <time>2019-06-22T10:12:23Z</time>
      </trkpt>
      <trkpt lat="63.92097" lon="10.22152">
        <ele>32</ele>
        <time>2019-06-22T10:12:51Z</time>
      </trkpt>
      <trkpt lat="63.9204" lon="10.21585">
        <ele>26</ele>
        <time>2019-06-22T10:13:20Z</time>
      </trkpt>
      <trkpt lat="63.92051" lon="10.21547">
        <ele>20</ele>
        <time>2019-06-22T10:13:36Z</time>
      </trkpt>
      <trkpt lat="63.92117" lon="10.21491">
        <ele>16</ele>
        <time>2019-06-22T10:14:08Z</time>
      </trkpt>
      <trkpt lat="63.92351" lon="10.21632">
        <ele>15</ele>
        <time>2019-06-22T10:14:25Z</time>
      </trkpt>
      <trkpt lat="63.92476" lon="10.21841">
        <ele>14</ele>
        <time>2019-06-22T10:14:37Z</time>
      </trkpt>
      <trkpt lat="63.92763" lon="10.22494">
        <ele>13</ele>
        <time>2019-06-22T10:15:20Z</time>
      </trkpt>
      <trkpt lat="63.9285" lon="10.22554">
        <ele>12</ele>
        <time>2019-06-22T10:15:32Z</time>
      </trkpt>
      <trkpt lat="63.93102" lon="10.22539">
        <ele>11</ele>
        <time>2019-06-22T10:15:50Z</time>
      </trkpt>
      <trkpt lat="63.9315" lon="10.22512">
        <ele>10</ele>
        <time>2019-06-22T10:16:02Z</time>
      </trkpt>
      <trkpt lat="63.93286" lon="10.22178">
        <ele>9</ele>
        <time>2019-06-22T10:16:30Z</time>
      </trkpt>
      <trkpt lat="63.9339" lon="10.22175">
        <ele>8</ele>
        <time>2019-06-22T10:16:55Z</time>
      </trkpt>
      <trkpt lat="63.93502" lon="10.22197">
        <ele>8</ele>
        <time>2019-06-22T10:17:08Z</time>
      </trkpt>
      <trkpt lat="63.93735" lon="10.22347">
        <ele>7</ele>
        <time>2019-06-22T10:17:35Z</time>
      </trkpt>
      <trkpt lat="63.93788" lon="10.22359">
        <ele>7</ele>
        <time>2019-06-22T10:17:48Z</time>
      </trkpt>
      <trkpt lat="63.9399" lon="10.22238">
        <ele>6</ele>
        <time>2019-06-22T10:18:14Z</time>
      </trkpt>
      <trkpt lat="63.94211" lon="10.2228">
        <ele>6</ele>
        <time>2019-06-22T10:18:55Z</time>
      </trkpt>
      <trkpt lat="63.94984" lon="10.2266">
        <ele>5</ele>
        <time>2019-06-22T10:19:01Z</time>
      </trkpt>
      <trkpt lat="63.95878" lon="10.22716">
        <ele>5</ele>
        <time>2019-06-22T10:19:06Z</time>
      </trkpt>
      <trkpt lat="63.95985" lon="10.2259">
        <ele>5</ele>
        <time>2019-06-22T10:19:14Z</time>
      </trkpt>
      <trkpt lat="63.95955" lon="10.22638">
        <ele>4</ele>
        <time>2019-06-22T10:19:55Z</time>
      </trkpt>
      <trkpt lat="63.95865" lon="10.22549">
        <ele>4</ele>
        <time>2019-06-22T10:20:05Z</time>
      </trkpt>
      <trkpt lat="63.95697" lon="10.22085">
        <ele>4</ele>
        <time>2019-06-22T10:20:30Z</time>
      </trkpt>
      <trkpt lat="63.95682" lon="10.22111">
        <ele>4</ele>
        <time>2019-06-22T10:20:41Z</time>
      </trkpt>
      <trkpt lat="63.95713" lon="10.22186">
        <ele>4</ele>
        <time>2019-06-22T10:21:20Z</time>
      </trkpt>
      <trkpt lat="63.95668" lon="10.22013">
        <ele>3</ele>
        <time>2019-06-22T10:21:47Z</time>
      </trkpt>
      <trkpt lat="63.95785" lon="10.22286">
        <ele>3</ele>
        <time>2019-06-22T10:21:53Z</time>
      </trkpt>
      <trkpt lat="63.95915" lon="10.22709">
        <ele>3</ele>
        <time>2019-06-22T10:22:25Z</time>
      </trkpt>
      <trkpt lat="63.96179" lon="10.22332">
        <ele>3</ele>
        <time>2019-06-22T10:22:35Z</time>
      </trkpt>
      <trkpt lat="63.96506" lon="10.22009">
        <ele>9</ele>
        <time>2019-06-22T10:22:50Z</time>
      </trkpt>
      <trkpt lat="63.96567" lon="10.22056">
        <ele>16</ele>
        <time>2019-06-22T10:23:35Z</time>
      </trkpt>
      <trkpt lat="63.96657" lon="10.22468">
        <ele>22</ele>
        <time>2019-06-22T10:23:43Z</time>
      </trkpt>
      <trkpt lat="63.96757" lon="10.22552">
        <ele>28</ele>
        <time>2019-06-22T10:28:13Z</time>
      </trkpt>
      <trkpt lat="63.96983" lon="10.22539">
        <ele>34</ele>
        <time>2019-06-22T10:28:33Z</time>
      </trkpt>
      <trkpt lat="63.97083" lon="10.2266">
        <ele>41</ele>
        <time>2019-06-22T10:29:00Z</time>
      </trkpt>
      <trkpt lat="63.97659" lon="10.23857">
        <ele>47</ele>
        <time>2019-06-22T10:29:18Z</time>
      </trkpt>
      <trkpt lat="63.9806" lon="10.25188">
        <ele>53</ele>
        <time>2019-06-22T10:29:24Z</time>
      </trkpt>
      <trkpt lat="63.9812" lon="10.25591">
        <ele>54</ele>
        <time>2019-06-22T10:29:35Z</time>
      </trkpt>
      <trkpt lat="63.98422" lon="10.26819">
        <ele>53</ele>
        <time>2019-06-22T10:29:40Z</time>
      </trkpt>
      <trkpt lat="63.98607" lon="10.27372">
        <ele>53</ele>
        <time>2019-06-22T10:29:44Z</time>
      </trkpt>
      <trkpt lat="63.98774" lon="10.27786">
        <ele>53</ele>
        <time>2019-06-22T10:30:00Z</time>
      </trkpt>
      <trkpt lat="63.99223" lon="10.29445">
        <ele>53</ele>
        <time>2019-06-22T10:30:05Z</time>
      </trkpt>
      <trkpt lat="63.99314" lon="10.29617">
        <ele>53</ele>
        <time>2019-06-22T10:30:08Z</time>
      </trkpt>
      <trkpt lat="63.99484" lon="10.29829">
        <ele>52</ele>
        <time>2019-06-22T10:30:14Z</time>
      </trkpt>
      <trkpt lat="63.99567" lon="10.29992">
        <ele>52</ele>
        <time>2019-06-22T10:30:26Z</time>
      </trkpt>
      <trkpt lat="63.99642" lon="10.30554">
        <ele>52</ele>
        <time>2019-06-22T10:30:29Z</time>
      </trkpt>
      <trkpt lat="63.9987" lon="10.31461">
        <ele>61</ele>
        <time>2019-06-22T10:30:32Z</time>
      </trkpt>
      <trkpt lat="64.00034" lon="10.31803">
        <ele>70</ele>
        <time>2019-06-22T10:30:34Z</time>
      </trkpt>
      <trkpt lat="64.0052" lon="10.33396">
        <ele>78</ele>
        <time>2019-06-22T10:30:39Z</time>
      </trkpt>
      <trkpt lat="64.00681" lon="10.33682">
        <ele>87</ele>
        <time>2019-06-22T10:30:46Z</time>
      </trkpt>
      <trkpt lat="64.00833" lon="10.34163">
        <ele>96</ele>
        <time>2019-06-22T10:30:50Z</time>
      </trkpt>
      <trkpt lat="64.01031" lon="10.34551">
        <ele>105</ele>
        <time>2019-06-22T10:30:58Z</time>
      </trkpt>
      <trkpt lat="64.01225" lon="10.35086">
        <ele>114</ele>
        <time>2019-06-22T10:31:00Z</time>
      </trkpt>
      <trkpt lat="64.0141" lon="10.35485">
        <ele>121</ele>
        <time>2019-06-22T10:31:03Z</time>
      </trkpt>
      <trkpt lat="64.01788" lon="10.36601">
        <ele>126</ele>
        <time>2019-06-22T10:31:10Z</time>
      </trkpt>
      <trkpt lat="64.01901" lon="10.37239">
        <ele>131</ele>
        <time>2019-06-22T10:31:12Z</time>
      </trkpt>
      <trkpt lat="64.01957" lon="10.37355">
        <ele>136</ele>
        <time>2019-06-22T10:33:08Z</time>
      </trkpt>
      <trkpt lat="64.02161" lon="10.37597">
        <ele>141</ele>
        <time>2019-06-22T10:33:13Z</time>
      </trkpt>
      <trkpt lat="64.02254" lon="10.37891">
        <ele>146</ele>
        <time>2019-06-22T10:33:24Z</time>
      </trkpt>
      <trkpt lat="64.02412" lon="10.38209">
        <ele>151</ele>
        <time>2019-06-22T10:33:30Z</time>
      </trkpt>
      <trkpt lat="64.02551" lon="10.38593">
        <ele>157</ele>
        <time>2019-06-22T10:33:33Z</time>
      </trkpt>
      <trkpt lat="64.0268" lon="10.3909">
        <ele>162</ele>
        <time>2019-06-22T10:33:38Z</time>
      </trkpt>
      <trkpt lat="64.03989" lon="10.42477">
        <ele>163</ele>
        <time>2019-06-22T10:33:42Z</time>
      </trkpt>
      <trkpt lat="64.04078" lon="10.42664">
        <ele>159</ele>
        <time>2019-06-22T10:33:46Z</time>
      </trkpt>
      <trkpt lat="64.04319" lon="10.43038">
        <ele>156</ele>
        <time>2019-06-22T10:34:32Z</time>
      </trkpt>
      <trkpt lat="64.0464" lon="10.43862">
        <ele>152</ele>
        <time>2019-06-22T10:34:36Z</time>
      </trkpt>
      <trkpt lat="64.04914" lon="10.44466">
        <ele>149</ele>
        <time>2019-06-22T10:35:04Z</time>
      </trkpt>
      <trkpt lat="64.04967" lon="10.44526">
        <ele>146</ele>
        <time>2019-06-22T10:35:21Z</time>
      </trkpt>
      <trkpt lat="64.05205" lon="10.44634">
        <ele>142</ele>
        <time>2019-06-22T10:36:16Z</time>
      </trkpt>
      <trkpt lat="64.05422" lon="10.44997">
        <ele>139</ele>
        <time>2019-06-22T10:36:27Z</time>
      </trkpt>
      <trkpt lat="64.05661" lon="10.45324">
        <ele>137</ele>
        <time>2019-06-22T10:36:59Z</time>
      </trkpt>
      <trkpt lat="64.06272" lon="10.46006">
        <ele>148</ele>
        <time>2019-06-22T10:37:11Z</time>
      </trkpt>
      <trkpt lat="64.06274" lon="10.45967">
        <ele>159</ele>
        <time>2019-06-22T10:37:47Z</time>
      </trkpt>
      <trkpt lat="64.06272" lon="10.46006">
        <ele>169</ele>
        <time>2019-06-22T10:38:25Z</time>
      </trkpt>
      <trkpt lat="64.06418" lon="10.46189">
        <ele>180</ele>
        <time>2019-06-22T10:38:35Z</time>
      </trkpt>
      <trkpt lat="64.06733" lon="10.46682">
        <ele>191</ele>
        <time>2019-06-22T10:39:08Z</time>
      </trkpt>
      <trkpt lat="64.07034" lon="10.47315">
        <ele>201</ele>
        <time>2019-06-22T10:39:19Z</time>
      </trkpt>
      <trkpt lat="64.07314" lon="10.47698">
        <ele>212</ele>
        <time>2019-06-22T10:39:36Z</time>
      </trkpt>
      <trkpt lat="64.0756" lon="10.48136">
        <ele>222</ele>
        <time>2019-06-22T10:40:23Z</time>
      </trkpt>
      <trkpt lat="64.07738" lon="10.48552">
        <ele>223</ele>
        <time>2019-06-22T10:40:40Z</time>
      </trkpt>
      <trkpt lat="64.0786" lon="10.48769">
        <ele>223</ele>
        <time>2019-06-22T10:41:00Z</time>
      </trkpt>
      <trkpt lat="64.07988" lon="10.49215">
        <ele>224</ele>
        <time>2019-06-22T10:41:22Z</time>
      </trkpt>
      <trkpt lat="64.08065" lon="10.49386">
        <ele>225</ele>
        <time>2019-06-22T10:41:45Z</time>
      </trkpt>
      <trkpt lat="64.08143" lon="10.49477">
        <ele>226</ele>
        <time>2019-06-22T10:41:58Z</time>
      </trkpt>
      <trkpt lat="64.0827" lon="10.49527">
        <ele>227</ele>
        <time>2019-06-22T10:42:06Z</time>
      </trkpt>
      <trkpt lat="64.08356" lon="10.49508">
        <ele>227</ele>
        <time>2019-06-22T10:42:15Z</time>
      </trkpt>
      <trkpt lat="64.08425" lon="10.49533">
        <ele>228</ele>
        <time>2019-06-22T10:42:24Z</time>
      </trkpt>
      <trkpt lat="64.08508" lon="10.49617">
        <ele>229</ele>
        <time>2019-06-22T10:42:58Z</time>
      </trkpt>
      <trkpt lat="64.08678" lon="10.49914">
        <ele>232</ele>
        <time>2019-06-22T10:44:25Z</time>
      </trkpt>
      <trkpt lat="64.08829" lon="10.5034">
        <ele>234</ele>
        <time>2019-06-22T10:44:32Z</time>
      </trkpt>
      <trkpt lat="64.08914" lon="10.50464">
        <ele>237</ele>
        <time>2019-06-22T10:44:35Z</time>
      </trkpt>
      <trkpt lat="64.09048" lon="10.50545">
        <ele>240</ele>
        <time>2019-06-22T10:44:48Z</time>
      </trkpt>
      <trkpt lat="64.09107" lon="10.50617">
        <ele>243</ele>
        <time>2019-06-22T10:50:38Z</time>
      </trkpt>
      <trkpt lat="64.09218" lon="10.5086">
        <ele>246</ele>
        <time>2019-06-22T10:50:44Z</time>
      </trkpt>
      <trkpt lat="64.09283" lon="10.50947">
        <ele>249</ele>
        <time>2019-06-22T10:51:02Z</time>
      </trkpt>
      <trkpt lat="64.09339" lon="10.50984">
        <ele>251</ele>
        <time>2019-06-22T10:51:10Z</time>
      </trkpt>
      <trkpt lat="64.09455" lon="10.50979">
        <ele>250</ele>
        <time>2019-06-22T10:51:59Z</time>
      </trkpt>
      <trkpt lat="64.09555" lon="10.50926">
        <ele>249</ele>
        <time>2019-06-22T10:52:12Z</time>
      </trkpt>
      <trkpt lat="64.09621" lon="10.5093">
        <ele>248</ele>
        <time>2019-06-22T10:52:17Z</time>
      </trkpt>
      <trkpt lat="64.09714" lon="10.51011">
        <ele>246</ele>
        <time>2019-06-22T10:52:30Z</time>
      </trkpt>
      <trkpt lat="64.09766" lon="10.51284">
        <ele>245</ele>
        <time>2019-06-22T10:52:34Z</time>
      </trkpt>
      <trkpt lat="64.09751" lon="10.51396">
        <ele>244</ele>
        <time>2019-06-22T10:52:46Z</time>
      </trkpt>
      <trkpt lat="64.09601" lon="10.51832">
        <ele>243</ele>
        <time>2019-06-22T10:53:08Z</time>
      </trkpt>
      <trkpt lat="64.09574" lon="10.52036">
        <ele>241</ele>
        <time>2019-06-22T10:53:15Z</time>
      </trkpt>
      <trkpt lat="64.09593" lon="10.52237">
        <ele>241</ele>
        <time>2019-06-22T10:53:57Z</time>
      </trkpt>
      <trkpt lat="64.0964" lon="10.52384">
        <ele>249</ele>
        <time>2019-06-22T10:54:03Z</time>
      </trkpt>
      <trkpt lat="64.09708" lon="10.52493">
        <ele>256</ele>
        <time>2019-06-22T10:56:44Z</time>
      </trkpt>
      <trkpt lat="64.10938" lon="10.5397">
        <ele>264</ele>
        <time>2019-06-22T10:57:02Z</time>
      </trkpt>
      <trkpt lat="64.11478" lon="10.54703">
        <ele>272</ele>
        <time>2019-06-22T10:57:26Z</time>
      </trkpt>
      <trkpt lat="64.11772" lon="10.54588">
        <ele>279</ele>
        <time>2019-06-22T10:58:04Z</time>
      </trkpt>
      <trkpt lat="64.11904" lon="10.5459">
        <ele>287</ele>
        <time>2019-06-22T10:58:13Z</time>
      </trkpt>
      <trkpt lat="64.12277" lon="10.54457">
        <ele>294</ele>
        <time>2019-06-22T10:58:23Z</time>
      </trkpt>
      <trkpt lat="64.12576" lon="10.54474">
        <ele>297</ele>
        <time>2019-06-22T10:59:06Z</time>
      </trkpt>
      <trkpt lat="64.12694" lon="10.54449">
        <ele>299</ele>
        <time>2019-06-22T10:59:21Z</time>
      </trkpt>
      <trkpt lat="64.13069" lon="10.54553">
        <ele>302</ele>
        <time>2019-06-22T10:59:41Z</time>
      </trkpt>
      <trkpt lat="64.13201" lon="10.54524">
        <ele>304</ele>
        <time>2019-06-22T11:00:00Z</time>
      </trkpt>
      <trkpt lat="64.13372" lon="10.54423">
        <ele>306</ele>
        <time>2019-06-22T11:00:31Z</time>
      </trkpt>
      <trkpt lat="64.13834" lon="10.54346">
        <ele>308</ele>
        <time>2019-06-22T11:00:40Z</time>
      </trkpt>
      <trkpt lat="64.14246" lon="10.54066">
        <ele>310</ele>
        <time>2019-06-22T11:00:58Z</time>
      </trkpt>
      <trkpt lat="64.14362" lon="10.54041">
        <ele>313</ele>
        <time>2019-06-22T11:01:03Z</time>
      </trkpt>
      <trkpt lat="64.14407" lon="10.54066">
        <ele>314</ele>
        <time>2019-06-22T11:01:50Z</time>
      </trkpt>
      <trkpt lat="64.1456" lon="10.54257">
        <ele>306</ele>
        <time>2019-06-22T11:02:28Z</time>
      </trkpt>
      <trkpt lat="64.14666" lon="10.54332">
        <ele>299</ele>
        <time>2019-06-22T11:02:42Z</time>
      </trkpt>
      <trkpt lat="64.14738" lon="10.54342">
        <ele>291</ele>
        <time>2019-06-22T11:03:09Z</time>
      </trkpt>
      <trkpt lat="64.1484" lon="10.54297">
        <ele>283</ele>
        <time>2019-06-22T11:03:27Z</time>
      </trkpt>
      <trkpt lat="64.15222" lon="10.53931">
        <ele>275</ele>
        <time>2019-06-22T11:03:47Z</time>
      </trkpt>
      <trkpt lat="64.1538" lon="10.53503">
        <ele>268</ele>
        <time>2019-06-22T11:04:42Z</time>
      </trkpt>
      <trkpt lat="64.15404" lon="10.5321">
        <ele>260</ele>
        <time>2019-06-22T11:04:51Z</time>
      </trkpt>
      <trkpt lat="64.15441" lon="10.53262">
        <ele>252</ele>
        <time>2019-06-22T11:05:09Z</time>
      </trkpt>
      <trkpt lat="64.15457" lon="10.53232">
        <ele>251</ele>
        <time>2019-06-22T11:05:24Z</time>
      </trkpt>
      <trkpt lat="64.15447" lon="10.53262">
        <ele>232</ele>
        <time>2019-06-22T11:06:01Z</time>
      </trkpt>
      <trkpt lat="64.1539" lon="10.53167">
        <ele>213</ele>
        <time>2019-06-22T11:06:23Z</time>
      </trkpt>
      <trkpt lat="64.15305" lon="10.526">
        <ele>194</ele>
        <time>2019-06-22T11:06:34Z</time>
      </trkpt>
      <trkpt lat="64.15308" lon="10.52448">
        <ele>176</ele>
        <time>2019-06-22T11:07:01Z</time>
      </trkpt>
      <trkpt lat="64.15406" lon="10.51779">
        <ele>157</ele>
        <time>2019-06-22T11:07:15Z</time>
      </trkpt>
      <trkpt lat="64.15559" lon="10.51355">
        <ele>138</ele>
        <time>2019-06-22T11:07:29Z</time>
      </trkpt>
      <trkpt lat="64.15827" lon="10.5079">
        <ele>119</ele>
        <time>2019-06-22T11:08:26Z</time>
      </trkpt>
      <trkpt lat="64.15925" lon="10.50418">
        <ele>110</ele>
        <time>2019-06-22T11:08:38Z</time>
      </trkpt>
      <trkpt lat="64.16066" lon="10.50173">
        <ele>106</ele>
        <time>2019-06-22T11:08:47Z</time>
      </trkpt>
      <trkpt lat="64.16107" lon="10.50038">
        <ele>102</ele>
        <time>2019-06-22T11:09:04Z</time>
      </trkpt>
      <trkpt lat="64.16198" lon="10.49145">
        <ele>99</ele>
        <time>2019-06-22T11:09:19Z</time>
      </trkpt>
      <trkpt lat="64.163" lon="10.48708">
        <ele>95</ele>
        <time>2019-06-22T11:09:28Z</time>
      </trkpt>
      <trkpt lat="64.16295" lon="10.48294">
        <ele>91</ele>
        <time>2019-06-22T11:09:36Z</time>
      </trkpt>
      <trkpt lat="64.16353" lon="10.4796">
        <ele>88</ele>
        <time>2019-06-22T11:09:42Z</time>
      </trkpt>
      <trkpt lat="64.16434" lon="10.47782">
        <ele>84</ele>
        <time>2019-06-22T11:10:48Z</time>
      </trkpt>
      <trkpt lat="64.16573" lon="10.47654">
        <ele>81</ele>
        <time>2019-06-22T11:11:00Z</time>
      </trkpt>
      <trkpt lat="64.16628" lon="10.47655">
        <ele>90</ele>
        <time>2019-06-22T11:11:04Z</time>
      </trkpt>
      <trkpt lat="64.16764" lon="10.47726">
        <ele>100</ele>
        <time>2019-06-22T11:11:17Z</time>
      </trkpt>
      <trkpt lat="64.16835" lon="10.47688">
        <ele>110</ele>
        <time>2019-06-22T11:11:19Z</time>
      </trkpt>
      <trkpt lat="64.17141" lon="10.47125">
        <ele>120</ele>
        <time>2019-06-22T11:40:47Z</time>
      </trkpt>
      <trkpt lat="64.17318" lon="10.46977">
        <ele>129</ele>
        <time>2019-06-22T11:41:27Z</time>
      </trkpt>
      <trkpt lat="64.17451" lon="10.47057">
        <ele>139</ele>
        <time>2019-06-22T11:41:40Z</time>
      </trkpt>
      <trkpt lat="64.17516" lon="10.46929">
        <ele>149</ele>
        <time>2019-06-22T11:41:50Z</time>
      </trkpt>
      <trkpt lat="64.17499" lon="10.46656">
        <ele>158</ele>
        <time>2019-06-22T11:42:08Z</time>
      </trkpt>
      <trkpt lat="64.17557" lon="10.46361">
        <ele>161</ele>
        <time>2019-06-22T11:42:41Z</time>
      </trkpt>
      <trkpt lat="64.17346" lon="10.45325">
        <ele>148</ele>
        <time>2019-06-22T11:43:03Z</time>
      </trkpt>
      <trkpt lat="64.17332" lon="10.45021">
        <ele>136</ele>
        <time>2019-06-22T11:43:18Z</time>
      </trkpt>
      <trkpt lat="64.17352" lon="10.4478">
        <ele>124</ele>
        <time>2019-06-22T11:43:56Z</time>
      </trkpt>
      <trkpt lat="64.17446" lon="10.44426">
        <ele>112</ele>
        <time>2019-06-22T11:44:06Z</time>
      </trkpt>
      <trkpt lat="64.17487" lon="10.4431">
        <ele>100</ele>
        <time>2019-06-22T11:44:23Z</time>
      </trkpt>
      <trkpt lat="64.17651" lon="10.44071">
        <ele>88</ele>
        <time>2019-06-22T11:45:39Z</time>
      </trkpt>
      <trkpt lat="64.17785" lon="10.43961">
        <ele>76</ele>
        <time>2019-06-22T11:45:54Z</time>
      </trkpt>
      <trkpt lat="64.17901" lon="10.43922">
        <ele>69</ele>
        <time>2019-06-22T11:46:05Z</time>
      </trkpt>
      <trkpt lat="64.17961" lon="10.43852">
        <ele>72</ele>
        <time>2019-06-22T11:46:22Z</time>
      </trkpt>
      <trkpt lat="64.18364" lon="10.43153">
        <ele>74</ele>
        <time>2019-06-22T11:46:40Z</time>
      </trkpt>
      <trkpt lat="64.18452" lon="10.4273">
        <ele>77</ele>
        <time>2019-06-22T11:46:46Z</time>
      </trkpt>
      <trkpt lat="64.18591" lon="10.42388">
        <ele>80</ele>
        <time>2019-06-22T11:46:54Z</time>
      </trkpt>
      <trkpt lat="64.18805" lon="10.42023">
        <ele>82</ele>
        <time>2019-06-22T11:46:58Z</time>
      </trkpt>
      <trkpt lat="64.19067" lon="10.41693">
        <ele>85</ele>
        <time>2019-06-22T11:47:08Z</time>
      </trkpt>
      <trkpt lat="64.19133" lon="10.415">
        <ele>88</ele>
        <time>2019-06-22T11:47:21Z</time>
      </trkpt>
      <trkpt lat="64.19277" lon="10.40713">
        <ele>90</ele>
        <time>2019-06-22T11:47:27Z</time>
      </trkpt>
      <trkpt lat="64.19379" lon="10.40536">
        <ele>91</ele>
        <time>2019-06-22T11:47:37Z</time>
      </trkpt>
      <trkpt lat="64.19443" lon="10.4051">
        <ele>92</ele>
        <time>2019-06-22T11:47:43Z</time>
      </trkpt>
      <trkpt lat="64.1954" lon="10.40524">
        <ele>93</ele>
        <time>2019-06-22T11:47:53Z</time>
      </trkpt>
      <trkpt lat="64.19716" lon="10.40574">
        <ele>94</ele>
        <time>2019-06-22T11:48:31Z</time>
      </trkpt>
      <trkpt lat="64.19791" lon="10.40637">
        <ele>95</ele>
        <time>2019-06-22T11:48:37Z</time>
      </trkpt>
      <trkpt lat="64.19837" lon="10.40793">
        <ele>96</ele>
        <time>2019-06-22T11:48:49Z</time>
      </trkpt>
      <trkpt lat="64.19869" lon="10.4117">
        <ele>97</ele>
        <time>2019-06-22T11:49:08Z</time>
      </trkpt>
      <trkpt lat="64.19933" lon="10.41501">
        <ele>98</ele>
        <time>2019-06-22T11:50:11Z</time>
      </trkpt>
      <trkpt lat="64.19978" lon="10.41631">
        <ele>98</ele>
        <time>2019-06-22T11:50:27Z</time>
      </trkpt>
      <trkpt lat="64.20101" lon="10.41821">
        <ele>115</ele>
        <time>2019-06-22T11:50:35Z</time>
      </trkpt>
      <trkpt lat="64.20151" lon="10.41839">
        <ele>131</ele>
        <time>2019-06-22T11:50:57Z</time>
      </trkpt>
      <trkpt lat="64.20249" lon="10.41792">
        <ele>148</ele>
        <time>2019-06-22T11:51:07Z</time>
      </trkpt>
      <trkpt lat="64.20421" lon="10.42051">
        <ele>165</ele>
        <time>2019-06-22T11:51:18Z</time>
      </trkpt>
      <trkpt lat="64.20498" lon="10.42106">
        <ele>181</ele>
        <time>2019-06-22T11:51:51Z</time>
      </trkpt>
      <trkpt lat="64.20647" lon="10.42126">
        <ele>198</ele>
        <time>2019-06-22T11:52:09Z</time>
      </trkpt>
      <trkpt lat="64.20753" lon="10.42283">
        <ele>215</ele>
        <time>2019-06-22T11:52:16Z</time>
      </trkpt>
      <trkpt lat="64.20964" lon="10.42513">
        <ele>227</ele>
        <time>2019-06-22T11:52:29Z</time>
      </trkpt>
      <trkpt lat="64.21065" lon="10.42589">
        <ele>222</ele>
        <time>2019-06-22T11:53:14Z</time>
      </trkpt>
      <trkpt lat="64.21217" lon="10.426">
        <ele>218</ele>
        <time>2019-06-22T11:53:30Z</time>
      </trkpt>
      <trkpt lat="64.21377" lon="10.42553">
        <ele>214</ele>
        <time>2019-06-22T11:53:43Z</time>
      </trkpt>
      <trkpt lat="64.21646" lon="10.42348">
        <ele>210</ele>
        <time>2019-06-22T11:53:54Z</time>
      </trkpt>
      <trkpt lat="64.21735" lon="10.42114">
        <ele>205</ele>
        <time>2019-06-22T11:54:22Z</time>
      </trkpt>
      <trkpt lat="64.22269" lon="10.41041">
        <ele>201</ele>
        <time>2019-06-22T11:54:36Z</time>
      </trkpt>
      <trkpt lat="64.22388" lon="10.40689">
        <ele>197</ele>
        <time>2019-06-22T11:54:43Z</time>
      </trkpt>
      <trkpt lat="64.22391" lon="10.40269">
        <ele>193</ele>
        <time>2019-06-22T11:55:02Z</time>
      </trkpt>
      <trkpt lat="64.22446" lon="10.40119">
        <ele>192</ele>
        <time>2019-06-22T11:55:18Z</time>
      </trkpt>
      <trkpt lat="64.22529" lon="10.4012">
        <ele>183</ele>
        <time>2019-06-22T11:55:27Z</time>
      </trkpt>
      <trkpt lat="64.22611" lon="10.40062">
        <ele>173</ele>
        <time>2019-06-22T11:57:43Z</time>
      </trkpt>
      <trkpt lat="64.22749" lon="10.40162">
        <ele>164</ele>
        <time>2019-06-22T11:58:02Z</time>
      </trkpt>
      <trkpt lat="64.22859" lon="10.40145">
        <ele>154</ele>
        <time>2019-06-22T11:58:22Z</time>
      </trkpt>
      <trkpt lat="64.22987" lon="10.40161">
        <ele>145</ele>
        <time>2019-06-22T11:58:48Z</time>
      </trkpt>
      <trkpt lat="64.23236" lon="10.40294">
        <ele>135</ele>
        <time>2019-06-22T11:59:21Z</time>
      </trkpt>
      <trkpt lat="64.23395" lon="10.40267">
        <ele>125</ele>
        <time>2019-06-22T11:59:40Z</time>
      </trkpt>
      <trkpt lat="64.23664" lon="10.4017">
        <ele>121</ele>
        <time>2019-06-22T12:00:01Z</time>
      </trkpt>
      <trkpt lat="64.23725" lon="10.40113">
        <ele>121</ele>
        <time>2019-06-22T12:00:50Z</time>
      </trkpt>
      <trkpt lat="64.2396" lon="10.40204">
        <ele>121</ele>
        <time>2019-06-22T12:01:06Z</time>
      </trkpt>
      <trkpt lat="64.2408" lon="10.40189">
        <ele>121</ele>
        <time>2019-06-22T12:01:22Z</time>
      </trkpt>
      <trkpt lat="64.24153" lon="10.40143">
        <ele>120</ele>
        <time>2019-06-22T12:01:59Z</time>
      </trkpt>
      <trkpt lat="64.24203" lon="10.40139">
        <ele>120</ele>
        <time>2019-06-22T12:02:07Z</time>
      </trkpt>
      <trkpt lat="64.24317" lon="10.40243">
        <ele>120</ele>
        <time>2019-06-22T12:02:11Z</time>
      </trkpt>
      <trkpt lat="64.24481" lon="10.4028">
        <ele>120</ele>
        <time>2019-06-22T12:02:17Z</time>
      </trkpt>
      <trkpt lat="64.24626" lon="10.40375">
        <ele>120</ele>
        <time>2019-06-22T12:02:34Z</time>
      </trkpt>
      <trkpt lat="64.25045" lon="10.40423">
        <ele>109</ele>
        <time>2019-06-22T12:02:38Z</time>
      </trkpt>
      <trkpt lat="64.25143" lon="10.40532">
        <ele>98</ele>
        <time>2019-06-22T12:02:42Z</time>
      </trkpt>
      <trkpt lat="64.25292" lon="10.41064">
        <ele>87</ele>
        <time>2019-06-22T12:02:46Z</time>
      </trkpt>
      <trkpt lat="64.25295" lon="10.41715">
        <ele>76</ele>
        <time>2019-06-22T12:03:03Z</time>
      </trkpt>
      <trkpt lat="64.25257" lon="10.42161">
        <ele>65</ele>
        <time>2019-06-22T12:03:39Z</time>
      </trkpt>
      <trkpt lat="64.25277" lon="10.42458">
        <ele>54</ele>
        <time>2019-06-22T12:03:55Z</time>
      </trkpt>
      <trkpt lat="64.2532" lon="10.42572">
        <ele>44</ele>
        <time>2019-06-22T12:04:20Z</time>
      </trkpt>
      <trkpt lat="64.25568" lon="10.42723">
        <ele>33</ele>
        <time>2019-06-22T12:04:29Z</time>
      </trkpt>
      <trkpt lat="64.25657" lon="10.42701">
        <ele>30</ele>
        <time>2019-06-22T12:04:38Z</time>
      </trkpt>
      <trkpt lat="64.25724" lon="10.42577">
        <ele>32</ele>
        <time>2019-06-22T12:05:42Z</time>
      </trkpt>
      <trkpt lat="64.25955" lon="10.42286">
        <ele>34</ele>
        <time>2019-06-22T12:05:53Z</time>
      </trkpt>
      <trkpt lat="64.26028" lon="10.4215">
        <ele>36</ele>
        <time>2019-06-22T12:06:09Z</time>
      </trkpt>
      <trkpt lat="64.26082" lon="10.42125">
        <ele>39</ele>
        <time>2019-06-22T12:06:22Z</time>
      </trkpt>
      <trkpt lat="64.26192" lon="10.42276">
        <ele>41</ele>
        <time>2019-06-22T12:07:01Z</time>
      </trkpt>
      <trkpt lat="64.26328" lon="10.42312">
        <ele>43</ele>
        <time>2019-06-22T12:07:19Z</time>
      </trkpt>
      <trkpt lat="64.26373" lon="10.42274">
        <ele>45</ele>
        <time>2019-06-22T12:07:34Z</time>
      </trkpt>
      <trkpt lat="64.26439" lon="10.42024">
        <ele>46</ele>
        <time>2019-06-22T12:07:59Z</time>
      </trkpt>
      <trkpt lat="64.2644" lon="10.41641">
        <ele>41</ele>
        <time>2019-06-22T12:08:07Z</time>
      </trkpt>
      <trkpt lat="64.26524" lon="10.41367">
        <ele>36</ele>
        <time>2019-06-22T12:08:15Z</time>
      </trkpt>
      <trkpt lat="64.26535" lon="10.41121">
        <ele>31</ele>
        <time>2019-06-22T12:09:02Z</time>
      </trkpt>
      <trkpt lat="64.26605" lon="10.40978">
        <ele>26</ele>
        <time>2019-06-22T12:09:30Z</time>
      </trkpt>
      <trkpt lat="64.26696" lon="10.40866">
        <ele>21</ele>
        <time>2019-06-22T12:09:42Z</time>
      </trkpt>
      <trkpt lat="64.26868" lon="10.40795">
        <ele>16</ele>
        <time>2019-06-22T12:10:10Z</time>
      </trkpt>
      <trkpt lat="64.2695" lon="10.40786">
        <ele>11</ele>
        <time>2019-06-22T12:10:57Z</time>
      </trkpt>
      <trkpt lat="64.27027" lon="10.40887">
        <ele>6</ele>
        <time>2019-06-22T12:11:09Z</time>
      </trkpt>
      <trkpt lat="64.27182" lon="10.41451">
        <ele>7</ele>
        <time>2019-06-22T12:11:17Z</time>
      </trkpt>
      <trkpt lat="64.27272" lon="10.41635">
        <ele>7</ele>
        <time>2019-06-22T12:11:28Z</time>
      </trkpt>
      <trkpt lat="64.273" lon="10.41649">
        <ele>8</ele>
        <time>2019-06-22T12:12:02Z</time>
      </trkpt>
      <trkpt lat="64.27359" lon="10.41631">
        <ele>8</ele>
        <time>2019-06-22T12:12:35Z</time>
      </trkpt>
      <trkpt lat="64.27836" lon="10.40751">
        <ele>9</ele>
        <time>2019-06-22T12:12:53Z</time>
      </trkpt>
      <trkpt lat="64.27911" lon="10.40655">
        <ele>10</ele>
        <time>2019-06-22T12:13:18Z</time>
      </trkpt>
      <trkpt lat="64.28128" lon="10.40609">
        <ele>10</ele>
        <time>2019-06-22T12:13:29Z</time>
      </trkpt>
      <trkpt lat="64.28179" lon="10.40621">
        <ele>11</ele>
        <time>2019-06-22T12:13:44Z</time>
      </trkpt>
      <trkpt lat="64.28327" lon="10.40828">
        <ele>11</ele>
        <time>2019-06-22T12:23:48Z</time>
      </trkpt>
      <trkpt lat="64.2837" lon="10.40872">
        <ele>17</ele>
        <time>2019-06-22T12:24:00Z</time>
      </trkpt>
      <trkpt lat="64.28399" lon="10.40861">
        <ele>23</ele>
        <time>2019-06-22T12:24:08Z</time>
      </trkpt>
      <trkpt lat="64.28464" lon="10.40488">
        <ele>30</ele>
        <time>2019-06-22T12:24:23Z</time>
      </trkpt>
      <trkpt lat="64.28557" lon="10.40283">
        <ele>36</ele>
        <time>2019-06-22T12:24:56Z</time>
      </trkpt>
      <trkpt lat="64.28616" lon="10.40248">
        <ele>42</ele>
        <time>2019-06-22T12:25:07Z</time>
      </trkpt>
      <trkpt lat="64.28871" lon="10.41047">
        <ele>49</ele>
        <time>2019-06-22T12:25:22Z</time>
      </trkpt>
      <trkpt lat="64.2893" lon="10.41407">
        <ele>55</ele>
        <time>2019-06-22T12:25:37Z</time>
      </trkpt>
      <trkpt lat="64.28858" lon="10.42438">
        <ele>59</ele>
        <time>2019-06-22T12:26:01Z</time>
      </trkpt>
      <trkpt lat="64.28846" lon="10.43303">
        <ele>53</ele>
        <time>2019-06-22T12:26:08Z</time>
      </trkpt>
      <trkpt lat="64.28953" lon="10.44527">
        <ele>48</ele>
        <time>2019-06-22T12:26:45Z</time>
      </trkpt>
      <trkpt lat="64.29093" lon="10.4508">
        <ele>42</ele>
        <time>2019-06-22T12:26:58Z</time>
      </trkpt>
      <trkpt lat="64.29152" lon="10.45097">
        <ele>36</ele>
        <time>2019-06-22T12:27:02Z</time>
      </trkpt>
      <trkpt lat="64.29207" lon="10.45022">
        <ele>30</ele>
        <time>2019-06-22T12:27:13Z</time>
      </trkpt>
      <trkpt lat="64.29301" lon="10.44635">
        <ele>25</ele>
        <time>2019-06-22T12:27:40Z</time>
      </trkpt>
      <trkpt lat="64.29479" lon="10.44523">
        <ele>19</ele>
        <time>2019-06-22T12:27:50Z</time>
      </trkpt>
      <trkpt lat="64.29534" lon="10.44519">
        <ele>13</ele>
        <time>2019-06-22T12:28:17Z</time>
      </trkpt>
      <trkpt lat="64.29658" lon="10.44617">
        <ele>13</ele>
        <time>2019-06-22T12:28:27Z</time>
      </trkpt>
      <trkpt lat="64.29791" lon="10.44798">
        <ele>12</ele>
        <time>2019-06-22T12:28:53Z</time>
      </trkpt>
      <trkpt lat="64.29752" lon="10.45247">
        <ele>11</ele>
        <time>2019-06-22T12:29:09Z</time>
      </trkpt>
      <trkpt lat="64.29763" lon="10.45373">
        <ele>10</ele>
        <time>2019-06-22T12:29:19Z</time>
      </trkpt>
      <trkpt lat="64.29856" lon="10.45455">
        <ele>9</ele>
        <time>2019-06-22T12:29:40Z</time>
      </trkpt>
      <trkpt lat="64.30063" lon="10.45511">
        <ele>8</ele>
        <time>2019-06-22T12:29:52Z</time>
      </trkpt>
      <trkpt lat="64.30345" lon="10.45892">
        <ele>7</ele>
        <time>2019-06-22T12:29:58Z</time>
      </trkpt>
      <trkpt lat="64.30431" lon="10.46049">
        <ele>7</ele>
        <time>2019-06-22T12:30:37Z</time>
      </trkpt>
      <trkpt lat="64.30563" lon="10.46559">
        <ele>6</ele>
        <time>2019-06-22T12:30:45Z</time>
      </trkpt>
      <trkpt lat="64.30583" lon="10.46925">
        <ele>12</ele>
        <time>2019-06-22T12:30:52Z</time>
      </trkpt>
      <trkpt lat="64.30403" lon="10.47096">
        <ele>17</ele>
        <time>2019-06-22T12:31:04Z</time>
      </trkpt>
      <trkpt lat="64.30296" lon="10.47124">
        <ele>23</ele>
        <time>2019-06-22T12:31:18Z</time>
      </trkpt>
      <trkpt lat="64.30181" lon="10.47228">
        <ele>29</ele>
        <time>2019-06-22T12:31:36Z</time>
      </trkpt>
      <trkpt lat="64.30093" lon="10.47446">
        <ele>34</ele>
        <time>2019-06-22T12:31:50Z</time>
      </trkpt>
      <trkpt lat="64.30084" lon="10.47834">
        <ele>40</ele>
        <time>2019-06-22T12:32:07Z</time>
      </trkpt>
      <trkpt lat="64.30102" lon="10.48013">
        <ele>46</ele>
        <time>2019-06-22T12:32:27Z</time>
      </trkpt>
      <trkpt lat="64.30253" lon="10.48565">
        <ele>50</ele>
        <time>2019-06-22T12:32:40Z</time>
      </trkpt>
      <trkpt lat="64.30505" lon="10.49158">
        <ele>45</ele>
        <time>2019-06-22T12:33:05Z</time>
      </trkpt>
      <trkpt lat="64.30642" lon="10.50548">
        <ele>40</ele>
        <time>2019-06-22T12:33:17Z</time>
      </trkpt>
      <trkpt lat="64.3064" lon="10.51104">
        <ele>36</ele>
        <time>2019-06-22T12:33:22Z</time>
      </trkpt>
      <trkpt lat="64.30568" lon="10.51344">
        <ele>31</ele>
        <time>2019-06-22T12:33:28Z</time>
      </trkpt>
      <trkpt lat="64.30499" lon="10.51401">
        <ele>26</ele>
        <time>2019-06-22T12:33:49Z</time>
      </trkpt>
      <trkpt lat="64.30452" lon="10.51406">
        <ele>22</ele>
        <time>2019-06-22T12:33:53Z</time>
      </trkpt>
      <trkpt lat="64.30191" lon="10.51281">
        <ele>17</ele>
        <time>2019-06-22T12:33:57Z</time>
      </trkpt>
      <trkpt lat="64.29951" lon="10.51127">
        <ele>12</ele>
        <time>2019-06-22T12:34:10Z</time>
      </trkpt>
      <trkpt lat="64.29824" lon="10.51151">
        <ele>11</ele>
        <time>2019-06-22T12:34:32Z</time>
      </trkpt>
      <trkpt lat="64.29768" lon="10.51075">
        <ele>10</ele>
        <time>2019-06-22T12:34:46Z</time>
      </trkpt>
      <trkpt lat="64.29757" lon="10.5087">
        <ele>8</ele>
        <time>2019-06-22T12:35:08Z</time>
      </trkpt>
      <trkpt lat="64.2988" lon="10.50552">
        <ele>7</ele>
        <time>2019-06-22T12:35:41Z</time>
      </trkpt>
      <trkpt lat="64.29929" lon="10.50189">
        <ele>5</ele>
        <time>2019-06-22T12:35:50Z</time>
      </trkpt>
      <trkpt lat="64.29935" lon="10.49813">
        <ele>4</ele>
        <time>2019-06-22T12:35:58Z</time>
      </trkpt>
      <trkpt lat="64.29959" lon="10.49795">
        <ele>2</ele>
        <time>2019-06-22T12:36:25Z</time>
      </trkpt>
      <trkpt lat="64.3005" lon="10.49923">
        <ele>1</ele>
        <time>2019-06-22T12:36:38Z</time>
      </trkpt>
      <trkpt lat="64.30063" lon="10.49882">
        <ele>2.5</ele>
        <time>2019-06-22T12:36:48Z</time>
      </trkpt>
      <trkpt lat="64.30036" lon="10.49944">
        <ele>3</ele>
        <time>2019-06-22T12:37:37Z</time>
      </trkpt>
      <trkpt lat="64.30066" lon="10.50047">
        <ele>1</ele>
        <time>2019-06-22T12:38:10Z</time>
      </trkpt>
      <trkpt lat="64.30051" lon="10.49932">
        <ele>1</ele>
        <time>2019-06-22T12:38:42Z</time>
      </trkpt>
      <trkpt lat="64.29938" lon="10.49803">
        <ele>2</ele>
        <time>2019-06-22T12:39:03Z</time>
      </trkpt>
      <trkpt lat="64.29919" lon="10.49831">
        <ele>2</ele>
        <time>2019-06-22T12:39:32Z</time>
      </trkpt>
      <trkpt lat="64.29931" lon="10.50066">
        <ele>3</ele>
        <time>2019-06-22T12:39:53Z</time>
      </trkpt>
      <trkpt lat="64.29871" lon="10.50583">
        <ele>3</ele>
        <time>2019-06-22T12:40:10Z</time>
      </trkpt>
      <trkpt lat="64.29758" lon="10.5085">
        <ele>4</ele>
        <time>2019-06-22T12:40:44Z</time>
      </trkpt>
      <trkpt lat="64.29754" lon="10.51042">
        <ele>7</ele>
        <time>2019-06-22T12:41:48Z</time>
      </trkpt>
      <trkpt lat="64.29627" lon="10.51218">
        <ele>10</ele>
        <time>2019-06-22T12:42:00Z</time>
      </trkpt>
      <trkpt lat="64.29645" lon="10.51231">
        <ele>14</ele>
        <time>2019-06-22T12:42:05Z</time>
      </trkpt>
      <trkpt lat="64.29609" lon="10.51392">
        <ele>17</ele>
        <time>2019-06-22T12:42:59Z</time>
      </trkpt>
      <trkpt lat="64.29423" lon="10.51641">
        <ele>20</ele>
        <time>2019-06-22T12:43:07Z</time>
      </trkpt>
      <trkpt lat="64.29314" lon="10.51901">
        <ele>23</ele>
        <time>2019-06-22T12:43:24Z</time>
      </trkpt>
      <trkpt lat="64.29144" lon="10.52918">
        <ele>27</ele>
        <time>2019-06-22T12:43:37Z</time>
      </trkpt>
      <trkpt lat="64.29094" lon="10.53403">
        <ele>30</ele>
        <time>2019-06-22T12:44:02Z</time>
      </trkpt>
      <trkpt lat="64.29163" lon="10.53703">
        <ele>31</ele>
        <time>2019-06-22T12:44:26Z</time>
      </trkpt>
      <trkpt lat="64.29175" lon="10.5387">
        <ele>30</ele>
        <time>2019-06-22T12:44:44Z</time>
      </trkpt>
      <trkpt lat="64.29114" lon="10.54946">
        <ele>29</ele>
        <time>2019-06-22T12:45:08Z</time>
      </trkpt>
      <trkpt lat="64.29033" lon="10.55676">
        <ele>28</ele>
        <time>2019-06-22T12:45:29Z</time>
      </trkpt>
      <trkpt lat="64.29007" lon="10.5572">
        <ele>26</ele>
        <time>2019-06-22T12:45:44Z</time>
      </trkpt>
      <trkpt lat="64.2903" lon="10.55697">
        <ele>25</ele>
        <time>2019-06-22T12:46:13Z</time>
      </trkpt>
      <trkpt lat="64.2898" lon="10.55932">
        <ele>24</ele>
        <time>2019-06-22T12:46:33Z</time>
      </trkpt>
      <trkpt lat="64.28957" lon="10.56032">
        <ele>23</ele>
        <time>2019-06-22T12:46:38Z</time>
      </trkpt>
      <trkpt lat="64.28868" lon="10.5618">
        <ele>23</ele>
        <time>2019-06-22T12:46:52Z</time>
      </trkpt>
      <trkpt lat="64.28817" lon="10.56338">
        <ele>26</ele>
        <time>2019-06-22T12:47:13Z</time>
      </trkpt>
      <trkpt lat="64.28806" lon="10.56465">
        <ele>30</ele>
        <time>2019-06-22T12:47:31Z</time>
      </trkpt>
      <trkpt lat="64.28849" lon="10.5678">
        <ele>33</ele>
        <time>2019-06-22T12:47:51Z</time>
      </trkpt>
      <trkpt lat="64.28834" lon="10.56875">
        <ele>37</ele>
        <time>2019-06-22T12:48:06Z</time>
      </trkpt>
      <trkpt lat="64.2877" lon="10.56988">
        <ele>40</ele>
        <time>2019-06-22T12:48:25Z</time>
      </trkpt>
      <trkpt lat="64.28714" lon="10.57166">
        <ele>44</ele>
        <time>2019-06-22T12:48:41Z</time>
      </trkpt>
      <trkpt lat="64.28668" lon="10.57195">
        <ele>47</ele>
        <time>2019-06-22T12:49:08Z</time>
      </trkpt>
      <trkpt lat="64.28587" lon="10.57198">
        <ele>51</ele>
        <time>2019-06-22T12:51:19Z</time>
      </trkpt>
      <trkpt lat="64.28501" lon="10.57302">
        <ele>51</ele>
        <time>2019-06-22T12:51:29Z</time>
      </trkpt>
      <trkpt lat="64.28392" lon="10.57499">
        <ele>55</ele>
        <time>2019-06-22T12:51:42Z</time>
      </trkpt>
      <trkpt lat="64.28364" lon="10.57518">
        <ele>59</ele>
        <time>2019-06-22T12:52:22Z</time>
      </trkpt>
      <trkpt lat="64.2825" lon="10.57489">
        <ele>63</ele>
        <time>2019-06-22T12:52:34Z</time>
      </trkpt>
      <trkpt lat="64.28172" lon="10.57495">
        <ele>67</ele>
        <time>2019-06-22T12:52:42Z</time>
      </trkpt>
      <trkpt lat="64.28062" lon="10.57559">
        <ele>71</ele>
        <time>2019-06-22T12:52:55Z</time>
      </trkpt>
      <trkpt lat="64.27967" lon="10.57713">
        <ele>76</ele>
        <time>2019-06-22T12:53:24Z</time>
      </trkpt>
      <trkpt lat="64.27911" lon="10.57971">
        <ele>80</ele>
        <time>2019-06-22T12:53:39Z</time>
      </trkpt>
      <trkpt lat="64.27885" lon="10.58392">
        <ele>81</ele>
        <time>2019-06-22T12:53:53Z</time>
      </trkpt>
      <trkpt lat="64.27627" lon="10.59204">
        <ele>76</ele>
        <time>2019-06-22T12:54:16Z</time>
      </trkpt>
      <trkpt lat="64.27497" lon="10.59439">
        <ele>71</ele>
        <time>2019-06-22T12:54:23Z</time>
      </trkpt>
      <trkpt lat="64.27312" lon="10.59999">
        <ele>67</ele>
        <time>2019-06-22T12:54:29Z</time>
      </trkpt>
      <trkpt lat="64.27193" lon="10.60842">
        <ele>62</ele>
        <time>2019-06-22T12:54:55Z</time>
      </trkpt>
      <trkpt lat="64.27155" lon="10.60954">
        <ele>57</ele>
        <time>2019-06-22T12:55:13Z</time>
      </trkpt>
      <trkpt lat="64.27097" lon="10.61048">
        <ele>52</ele>
        <time>2019-06-22T12:55:20Z</time>
      </trkpt>
      <trkpt lat="64.26856" lon="10.6123">
        <ele>47</ele>
        <time>2019-06-22T12:55:27Z</time>
      </trkpt>
      <trkpt lat="64.26766" lon="10.61245">
        <ele>43</ele>
        <time>2019-06-22T12:55:44Z</time>
      </trkpt>
      <trkpt lat="64.26602" lon="10.61363">
        <ele>43</ele>
        <time>2019-06-22T12:56:02Z</time>
      </trkpt>
      <trkpt lat="64.26356" lon="10.61634">
        <ele>43</ele>
        <time>2019-06-22T12:56:15Z</time>
      </trkpt>
      <trkpt lat="64.2623" lon="10.61904">
        <ele>42</ele>
        <time>2019-06-22T12:56:30Z</time>
      </trkpt>
      <trkpt lat="64.26161" lon="10.61971">
        <ele>42</ele>
        <time>2019-06-22T12:56:42Z</time>
      </trkpt>
      <trkpt lat="64.26042" lon="10.6246">
        <ele>41</ele>
        <time>2019-06-22T12:56:50Z</time>
      </trkpt>
      <trkpt lat="64.25903" lon="10.62879">
        <ele>41</ele>
        <time>2019-06-22T12:57:14Z</time>
      </trkpt>
      <trkpt lat="64.25817" lon="10.62926">
        <ele>41</ele>
        <time>2019-06-22T12:57:22Z</time>
      </trkpt>
      <trkpt lat="64.25709" lon="10.62819">
        <ele>40</ele>
        <time>2019-06-22T12:57:28Z</time>
      </trkpt>
      <trkpt lat="64.25633" lon="10.62803">
        <ele>40</ele>
        <time>2019-06-22T12:57:33Z</time>
      </trkpt>
      <trkpt lat="64.25596" lon="10.62823">
        <ele>42</ele>
        <time>2019-06-22T01:02:35Z</time>
      </trkpt>
      <trkpt lat="64.25507" lon="10.62985">
        <ele>45</ele>
        <time>2019-06-22T01:02:40Z</time>
      </trkpt>
      <trkpt lat="64.25411" lon="10.63267">
        <ele>47</ele>
        <time>2019-06-22T01:02:52Z</time>
      </trkpt>
      <trkpt lat="64.25339" lon="10.6333">
        <ele>49</ele>
        <time>2019-06-22T01:03:05Z</time>
      </trkpt>
      <trkpt lat="64.25126" lon="10.63343">
        <ele>51</ele>
        <time>2019-06-22T01:03:28Z</time>
      </trkpt>
      <trkpt lat="64.24902" lon="10.63516">
        <ele>54</ele>
        <time>2019-06-22T01:03:43Z</time>
      </trkpt>
      <trkpt lat="64.24759" lon="10.63848">
        <ele>56</ele>
        <time>2019-06-22T01:03:51Z</time>
      </trkpt>
      <trkpt lat="64.24603" lon="10.64086">
        <ele>57</ele>
        <time>2019-06-22T01:04:05Z</time>
      </trkpt>
      <trkpt lat="64.2423" lon="10.64481">
        <ele>59</ele>
        <time>2019-06-22T01:04:14Z</time>
      </trkpt>
      <trkpt lat="64.24052" lon="10.64631">
        <ele>61</ele>
        <time>2019-06-22T01:04:21Z</time>
      </trkpt>
      <trkpt lat="64.23979" lon="10.64766">
        <ele>63</ele>
        <time>2019-06-22T01:04:51Z</time>
      </trkpt>
      <trkpt lat="64.23936" lon="10.64989">
        <ele>64</ele>
        <time>2019-06-22T01:05:02Z</time>
      </trkpt>
      <trkpt lat="64.23934" lon="10.65523">
        <ele>66</ele>
        <time>2019-06-22T01:05:12Z</time>
      </trkpt>
      <trkpt lat="64.23885" lon="10.65694">
        <ele>68</ele>
        <time>2019-06-22T01:05:29Z</time>
      </trkpt>
      <trkpt lat="64.23752" lon="10.65956">
        <ele>70</ele>
        <time>2019-06-22T01:05:43Z</time>
      </trkpt>
      <trkpt lat="64.23805" lon="10.6622">
        <ele>71</ele>
        <time>2019-06-22T01:06:07Z</time>
      </trkpt>
      <trkpt lat="64.23903" lon="10.6645">
        <ele>80</ele>
        <time>2019-06-22T01:06:18Z</time>
      </trkpt>
      <trkpt lat="64.2391" lon="10.67503">
        <ele>88</ele>
        <time>2019-06-22T01:06:44Z</time>
      </trkpt>
      <trkpt lat="64.24012" lon="10.6792">
        <ele>96</ele>
        <time>2019-06-22T01:07:04Z</time>
      </trkpt>
      <trkpt lat="64.24187" lon="10.69035">
        <ele>104</ele>
        <time>2019-06-22T01:07:16Z</time>
      </trkpt>
      <trkpt lat="64.24255" lon="10.71426">
        <ele>113</ele>
        <time>2019-06-22T01:07:43Z</time>
      </trkpt>
      <trkpt lat="64.24152" lon="10.71945">
        <ele>121</ele>
        <time>2019-06-22T01:08:01Z</time>
      </trkpt>
      <trkpt lat="64.23919" lon="10.72369">
        <ele>129</ele>
        <time>2019-06-22T01:08:04Z</time>
      </trkpt>
      <trkpt lat="64.23872" lon="10.72662">
        <ele>137</ele>
        <time>2019-06-22T01:08:12Z</time>
      </trkpt>
      <trkpt lat="64.23848" lon="10.73072">
        <ele>139</ele>
        <time>2019-06-22T01:08:55Z</time>
      </trkpt>
      <trkpt lat="64.23925" lon="10.73405">
        <ele>142</ele>
        <time>2019-06-22T01:09:02Z</time>
      </trkpt>
      <trkpt lat="64.24077" lon="10.73635">
        <ele>144</ele>
        <time>2019-06-22T01:09:10Z</time>
      </trkpt>
      <trkpt lat="64.24106" lon="10.73792">
        <ele>146</ele>
        <time>2019-06-22T01:11:40Z</time>
      </trkpt>
      <trkpt lat="64.24026" lon="10.74396">
        <ele>149</ele>
        <time>2019-06-22T01:12:06Z</time>
      </trkpt>
      <trkpt lat="64.24025" lon="10.74622">
        <ele>151</ele>
        <time>2019-06-22T01:12:25Z</time>
      </trkpt>
      <trkpt lat="64.24103" lon="10.74938">
        <ele>154</ele>
        <time>2019-06-22T01:12:41Z</time>
      </trkpt>
      <trkpt lat="64.24063" lon="10.75773">
        <ele>156</ele>
        <time>2019-06-22T01:12:58Z</time>
      </trkpt>
      <trkpt lat="64.24122" lon="10.76037">
        <ele>158</ele>
        <time>2019-06-22T01:13:17Z</time>
      </trkpt>
      <trkpt lat="64.24132" lon="10.76568">
        <ele>156</ele>
        <time>2019-06-22T01:13:24Z</time>
      </trkpt>
      <trkpt lat="64.24171" lon="10.76822">
        <ele>154</ele>
        <time>2019-06-22T01:13:52Z</time>
      </trkpt>
      <trkpt lat="64.24255" lon="10.76994">
        <ele>152</ele>
        <time>2019-06-22T01:14:03Z</time>
      </trkpt>
      <trkpt lat="64.24344" lon="10.77498">
        <ele>150</ele>
        <time>2019-06-22T01:14:16Z</time>
      </trkpt>
      <trkpt lat="64.2438" lon="10.78139">
        <ele>148</ele>
        <time>2019-06-22T01:14:34Z</time>
      </trkpt>
      <trkpt lat="64.24259" lon="10.78408">
        <ele>146</ele>
        <time>2019-06-22T01:14:44Z</time>
      </trkpt>
      <trkpt lat="64.24215" lon="10.78419">
        <ele>144</ele>
        <time>2019-06-22T01:15:03Z</time>
      </trkpt>
      <trkpt lat="64.24081" lon="10.78573">
        <ele>143</ele>
        <time>2019-06-22T01:15:16Z</time>
      </trkpt>
      <trkpt lat="64.23856" lon="10.78591">
        <ele>147</ele>
        <time>2019-06-22T01:17:01Z</time>
      </trkpt>
      <trkpt lat="64.23796" lon="10.78625">
        <ele>152</ele>
        <time>2019-06-22T01:17:13Z</time>
      </trkpt>
      <trkpt lat="64.23564" lon="10.78823">
        <ele>156</ele>
        <time>2019-06-22T01:17:22Z</time>
      </trkpt>
      <trkpt lat="64.23384" lon="10.79125">
        <ele>161</ele>
        <time>2019-06-22T01:17:45Z</time>
      </trkpt>
      <trkpt lat="64.22987" lon="10.79146">
        <ele>166</ele>
        <time>2019-06-22T01:17:58Z</time>
      </trkpt>
      <trkpt lat="64.22718" lon="10.79347">
        <ele>170</ele>
        <time>2019-06-22T01:18:07Z</time>
      </trkpt>
      <trkpt lat="64.22655" lon="10.7944">
        <ele>175</ele>
        <time>2019-06-22T01:18:17Z</time>
      </trkpt>
      <trkpt lat="64.22623" lon="10.79652">
        <ele>179</ele>
        <time>2019-06-22T01:18:51Z</time>
      </trkpt>
      <trkpt lat="64.22654" lon="10.80085">
        <ele>181</ele>
        <time>2019-06-22T01:19:01Z</time>
      </trkpt>
      <trkpt lat="64.22728" lon="10.80555">
        <ele>183</ele>
        <time>2019-06-22T01:19:07Z</time>
      </trkpt>
      <trkpt lat="64.22781" lon="10.8127">
        <ele>184</ele>
        <time>2019-06-22T01:19:19Z</time>
      </trkpt>
      <trkpt lat="64.22861" lon="10.81715">
        <ele>186</ele>
        <time>2019-06-22T01:19:40Z</time>
      </trkpt>
      <trkpt lat="64.22982" lon="10.82056">
        <ele>188</ele>
        <time>2019-06-22T01:19:59Z</time>
      </trkpt>
      <trkpt lat="64.23147" lon="10.82649">
        <ele>190</ele>
        <time>2019-06-22T01:20:10Z</time>
      </trkpt>
      <trkpt lat="64.23172" lon="10.82789">
        <ele>192</ele>
        <time>2019-06-22T01:20:23Z</time>
      </trkpt>
      <trkpt lat="64.23158" lon="10.83051">
        <ele>193</ele>
        <time>2019-06-22T01:20:35Z</time>
      </trkpt>
      <trkpt lat="64.23188" lon="10.83326">
        <ele>195</ele>
        <time>2019-06-22T01:20:41Z</time>
      </trkpt>
      <trkpt lat="64.23369" lon="10.8429">
        <ele>200</ele>
        <time>2019-06-22T01:21:08Z</time>
      </trkpt>
      <trkpt lat="64.23389" lon="10.84495">
        <ele>205</ele>
        <time>2019-06-22T01:21:20Z</time>
      </trkpt>
      <trkpt lat="64.23375" lon="10.84699">
        <ele>211</ele>
        <time>2019-06-22T01:21:27Z</time>
      </trkpt>
      <trkpt lat="64.23217" lon="10.85102">
        <ele>216</ele>
        <time>2019-06-22T01:21:40Z</time>
      </trkpt>
      <trkpt lat="64.23117" lon="10.8573">
        <ele>221</ele>
        <time>2019-06-22T01:21:55Z</time>
      </trkpt>
      <trkpt lat="64.22998" lon="10.86056">
        <ele>227</ele>
        <time>2019-06-22T01:22:30Z</time>
      </trkpt>
      <trkpt lat="64.22985" lon="10.86181">
        <ele>232</ele>
        <time>2019-06-22T01:22:40Z</time>
      </trkpt>
      <trkpt lat="64.23009" lon="10.86805">
        <ele>237</ele>
        <time>2019-06-22T01:25:22Z</time>
      </trkpt>
      <trkpt lat="64.23072" lon="10.87167">
        <ele>238</ele>
        <time>2019-06-22T01:25:42Z</time>
      </trkpt>
      <trkpt lat="64.23083" lon="10.87384">
        <ele>238</ele>
        <time>2019-06-22T01:25:50Z</time>
      </trkpt>
      <trkpt lat="64.23022" lon="10.8786">
        <ele>238</ele>
        <time>2019-06-22T01:27:41Z</time>
      </trkpt>
      <trkpt lat="64.2302" lon="10.88319">
        <ele>238</ele>
        <time>2019-06-22T01:28:00Z</time>
      </trkpt>
      <trkpt lat="64.23302" lon="10.90248">
        <ele>238</ele>
        <time>2019-06-22T01:28:10Z</time>
      </trkpt>
      <trkpt lat="64.2335" lon="10.90435">
        <ele>238</ele>
        <time>2019-06-22T01:28:25Z</time>
      </trkpt>
      <trkpt lat="64.23557" lon="10.90889">
        <ele>238</ele>
        <time>2019-06-22T01:29:21Z</time>
      </trkpt>
      <trkpt lat="64.23731" lon="10.92025">
        <ele>238</ele>
        <time>2019-06-22T01:29:40Z</time>
      </trkpt>
      <trkpt lat="64.23727" lon="10.92202">
        <ele>238</ele>
        <time>2019-06-22T01:30:02Z</time>
      </trkpt>
      <trkpt lat="64.2363" lon="10.92912">
        <ele>226</ele>
        <time>2019-06-22T01:30:33Z</time>
      </trkpt>
      <trkpt lat="64.23448" lon="10.93792">
        <ele>213</ele>
        <time>2019-06-22T01:31:10Z</time>
      </trkpt>
      <trkpt lat="64.23389" lon="10.94903">
        <ele>201</ele>
        <time>2019-06-22T01:31:54Z</time>
      </trkpt>
      <trkpt lat="64.23209" lon="10.95385">
        <ele>188</ele>
        <time>2019-06-22T01:32:12Z</time>
      </trkpt>
      <trkpt lat="64.23046" lon="10.96313">
        <ele>176</ele>
        <time>2019-06-22T01:32:34Z</time>
      </trkpt>
      <trkpt lat="64.22946" lon="10.96689">
        <ele>163</ele>
        <time>2019-06-22T01:33:00Z</time>
      </trkpt>
      <trkpt lat="64.2291" lon="10.97424">
        <ele>151</ele>
        <time>2019-06-22T01:33:07Z</time>
      </trkpt>
      <trkpt lat="64.22832" lon="10.97602">
        <ele>141</ele>
        <time>2019-06-22T01:33:54Z</time>
      </trkpt>
      <trkpt lat="64.22703" lon="10.9764">
        <ele>139</ele>
        <time>2019-06-22T01:34:49Z</time>
      </trkpt>
      <trkpt lat="64.22554" lon="10.97882">
        <ele>137</ele>
        <time>2019-06-22T01:35:04Z</time>
      </trkpt>
      <trkpt lat="64.22473" lon="10.98144">
        <ele>135</ele>
        <time>2019-06-22T01:35:32Z</time>
      </trkpt>
      <trkpt lat="64.22444" lon="10.98372">
        <ele>133</ele>
        <time>2019-06-22T01:36:00Z</time>
      </trkpt>
      <trkpt lat="64.22436" lon="10.98999">
        <ele>132</ele>
        <time>2019-06-22T01:36:30Z</time>
      </trkpt>
      <trkpt lat="64.22473" lon="10.99374">
        <ele>130</ele>
        <time>2019-06-22T01:36:43Z</time>
      </trkpt>
      <trkpt lat="64.22609" lon="10.99561">
        <ele>128</ele>
        <time>2019-06-22T01:37:02Z</time>
      </trkpt>
      <trkpt lat="64.22698" lon="10.9976">
        <ele>126</ele>
        <time>2019-06-22T01:37:11Z</time>
      </trkpt>
      <trkpt lat="64.22785" lon="11.00171">
        <ele>126</ele>
        <time>2019-06-22T01:37:17Z</time>
      </trkpt>
      <trkpt lat="64.22806" lon="11.00408">
        <ele>124</ele>
        <time>2019-06-22T01:37:35Z</time>
      </trkpt>
      <trkpt lat="64.22716" lon="11.0228">
        <ele>123</ele>
        <time>2019-06-22T01:37:57Z</time>
      </trkpt>
      <trkpt lat="64.22706" lon="11.02249">
        <ele>121</ele>
        <time>2019-06-22T01:38:05Z</time>
      </trkpt>
      <trkpt lat="64.22717" lon="11.02696">
        <ele>119</ele>
        <time>2019-06-22T01:38:11Z</time>
      </trkpt>
      <trkpt lat="64.23317" lon="11.04869">
        <ele>118</ele>
        <time>2019-06-22T01:38:25Z</time>
      </trkpt>
      <trkpt lat="64.23617" lon="11.05408">
        <ele>116</ele>
        <time>2019-06-22T01:38:28Z</time>
      </trkpt>
      <trkpt lat="64.23773" lon="11.05843">
        <ele>114</ele>
        <time>2019-06-22T01:38:31Z</time>
      </trkpt>
      <trkpt lat="64.23907" lon="11.05806">
        <ele>113</ele>
        <time>2019-06-22T01:38:36Z</time>
      </trkpt>
      <trkpt lat="64.23993" lon="11.0589">
        <ele>117</ele>
        <time>2019-06-22T01:38:44Z</time>
      </trkpt>
      <trkpt lat="64.24017" lon="11.05964">
        <ele>121</ele>
        <time>2019-06-22T01:39:01Z</time>
      </trkpt>
      <trkpt lat="64.2441" lon="11.08286">
        <ele>124</ele>
        <time>2019-06-22T01:39:12Z</time>
      </trkpt>
      <trkpt lat="64.2464" lon="11.08958">
        <ele>128</ele>
        <time>2019-06-22T01:39:23Z</time>
      </trkpt>
      <trkpt lat="64.24737" lon="11.09118">
        <ele>131</ele>
        <time>2019-06-22T01:39:28Z</time>
      </trkpt>
      <trkpt lat="64.24957" lon="11.09388">
        <ele>135</ele>
        <time>2019-06-22T01:39:31Z</time>
      </trkpt>
      <trkpt lat="64.25117" lon="11.09806">
        <ele>139</ele>
        <time>2019-06-22T01:39:43Z</time>
      </trkpt>
      <trkpt lat="64.25465" lon="11.11757">
        <ele>142</ele>
        <time>2019-06-22T01:39:48Z</time>
      </trkpt>
      <trkpt lat="64.25484" lon="11.12589">
        <ele>130</ele>
        <time>2019-06-22T01:39:54Z</time>
      </trkpt>
      <trkpt lat="64.25425" lon="11.12805">
        <ele>118</ele>
        <time>2019-06-22T01:39:56Z</time>
      </trkpt>
      <trkpt lat="64.2531" lon="11.12974">
        <ele>106</ele>
        <time>2019-06-22T01:40:05Z</time>
      </trkpt>
      <trkpt lat="64.25181" lon="11.13766">
        <ele>94</ele>
        <time>2019-06-22T01:40:22Z</time>
      </trkpt>
      <trkpt lat="64.2517" lon="11.14288">
        <ele>82</ele>
        <time>2019-06-22T01:40:29Z</time>
      </trkpt>
      <trkpt lat="64.25251" lon="11.14583">
        <ele>70</ele>
        <time>2019-06-22T01:40:50Z</time>
      </trkpt>
      <trkpt lat="64.25269" lon="11.14759">
        <ele>58</ele>
        <time>2019-06-22T01:41:03Z</time>
      </trkpt>
      <trkpt lat="64.25121" lon="11.15912">
        <ele>46</ele>
        <time>2019-06-22T01:41:18Z</time>
      </trkpt>
      <trkpt lat="64.25105" lon="11.1623">
        <ele>43</ele>
        <time>2019-06-22T01:41:42Z</time>
      </trkpt>
      <trkpt lat="64.25219" lon="11.17002">
        <ele>42</ele>
        <time>2019-06-22T01:42:01Z</time>
      </trkpt>
      <trkpt lat="64.25225" lon="11.17279">
        <ele>40</ele>
        <time>2019-06-22T01:42:13Z</time>
      </trkpt>
      <trkpt lat="64.25191" lon="11.17486">
        <ele>39</ele>
        <time>2019-06-22T01:42:15Z</time>
      </trkpt>
      <trkpt lat="64.25015" lon="11.18013">
        <ele>38</ele>
        <time>2019-06-22T01:42:40Z</time>
      </trkpt>
      <trkpt lat="64.2498" lon="11.18349">
        <ele>37</ele>
        <time>2019-06-22T01:43:00Z</time>
      </trkpt>
      <trkpt lat="64.2503" lon="11.1864">
        <ele>36</ele>
        <time>2019-06-22T01:43:10Z</time>
      </trkpt>
      <trkpt lat="64.25117" lon="11.18755">
        <ele>35</ele>
        <time>2019-06-22T01:43:21Z</time>
      </trkpt>
      <trkpt lat="64.2534" lon="11.18761">
        <ele>34</ele>
        <time>2019-06-22T01:43:41Z</time>
      </trkpt>
      <trkpt lat="64.25461" lon="11.18832">
        <ele>31</ele>
        <time>2019-06-22T01:44:11Z</time>
      </trkpt>
      <trkpt lat="64.25546" lon="11.18839">
        <ele>28</ele>
        <time>2019-06-22T01:44:15Z</time>
      </trkpt>
      <trkpt lat="64.25662" lon="11.18762">
        <ele>25</ele>
        <time>2019-06-22T01:44:38Z</time>
      </trkpt>
      <trkpt lat="64.25773" lon="11.1891">
        <ele>22</ele>
        <time>2019-06-22T01:44:53Z</time>
      </trkpt>
      <trkpt lat="64.25847" lon="11.1897">
        <ele>19</ele>
        <time>2019-06-22T01:45:06Z</time>
      </trkpt>
      <trkpt lat="64.26" lon="11.19019">
        <ele>16</ele>
        <time>2019-06-22T01:45:37Z</time>
      </trkpt>
      <trkpt lat="64.26044" lon="11.19071">
        <ele>12</ele>
        <time>2019-06-22T01:45:52Z</time>
      </trkpt>
      <trkpt lat="64.26108" lon="11.19234">
        <ele>9</ele>
        <time>2019-06-22T01:45:59Z</time>
      </trkpt>
      <trkpt lat="64.26136" lon="11.19753">
        <ele>9</ele>
        <time>2019-06-22T01:46:07Z</time>
      </trkpt>
      <trkpt lat="64.26148" lon="11.19724">
        <ele>9</ele>
        <time>2019-06-22T01:46:17Z</time>
      </trkpt>
      <trkpt lat="64.26248" lon="11.19744">
        <ele>9</ele>
        <time>2019-06-22T01:46:26Z</time>
      </trkpt>
      <trkpt lat="64.27161" lon="11.1932">
        <ele>8</ele>
        <time>2019-06-22T01:46:30Z</time>
      </trkpt>
      <trkpt lat="64.2739" lon="11.19316">
        <ele>8</ele>
        <time>2019-06-22T01:46:54Z</time>
      </trkpt>
      <trkpt lat="64.27708" lon="11.19383">
        <ele>7</ele>
        <time>2019-06-22T01:47:03Z</time>
      </trkpt>
      <trkpt lat="64.27941" lon="11.19497">
        <ele>7</ele>
        <time>2019-06-22T01:47:08Z</time>
      </trkpt>
      <trkpt lat="64.28144" lon="11.19498">
        <ele>7</ele>
        <time>2019-06-22T01:47:49Z</time>
      </trkpt>
      <trkpt lat="64.28527" lon="11.19436">
        <ele>7</ele>
        <time>2019-06-22T01:47:59Z</time>
      </trkpt>
      <trkpt lat="64.28695" lon="11.19505">
        <ele>8</ele>
        <time>2019-06-22T01:48:03Z</time>
      </trkpt>
      <trkpt lat="64.28804" lon="11.19609">
        <ele>9</ele>
        <time>2019-06-22T01:48:40Z</time>
      </trkpt>
      <trkpt lat="64.2926" lon="11.19923">
        <ele>11</ele>
        <time>2019-06-22T01:49:31Z</time>
      </trkpt>
      <trkpt lat="64.294" lon="11.20058">
        <ele>12</ele>
        <time>2019-06-22T01:49:56Z</time>
      </trkpt>
      <trkpt lat="64.29834" lon="11.20944">
        <ele>14</ele>
        <time>2019-06-22T01:50:06Z</time>
      </trkpt>
      <trkpt lat="64.30059" lon="11.21277">
        <ele>15</ele>
        <time>2019-06-22T01:50:12Z</time>
      </trkpt>
      <trkpt lat="64.31197" lon="11.22681">
        <ele>16</ele>
        <time>2019-06-22T01:50:19Z</time>
      </trkpt>
      <trkpt lat="64.31463" lon="11.23431">
        <ele>17</ele>
        <time>2019-06-22T01:50:41Z</time>
      </trkpt>
      <trkpt lat="64.31603" lon="11.23659">
        <ele>18</ele>
        <time>2019-06-22T01:50:58Z</time>
      </trkpt>
      <trkpt lat="64.31889" lon="11.23896">
        <ele>18</ele>
        <time>2019-06-22T01:51:14Z</time>
      </trkpt>
      <trkpt lat="64.32096" lon="11.23956">
        <ele>18</ele>
        <time>2019-06-22T01:51:24Z</time>
      </trkpt>
      <trkpt lat="64.32237" lon="11.24191">
        <ele>18</ele>
        <time>2019-06-22T01:51:35Z</time>
      </trkpt>
      <trkpt lat="64.32517" lon="11.24531">
        <ele>18</ele>
        <time>2019-06-22T01:52:06Z</time>
      </trkpt>
      <trkpt lat="64.32635" lon="11.24835">
        <ele>19</ele>
        <time>2019-06-22T01:52:22Z</time>
      </trkpt>
      <trkpt lat="64.32771" lon="11.24947">
        <ele>19</ele>
        <time>2019-06-22T01:52:31Z</time>
      </trkpt>
      <trkpt lat="64.33007" lon="11.25054">
        <ele>19</ele>
        <time>2019-06-22T01:52:44Z</time>
      </trkpt>
      <trkpt lat="64.33371" lon="11.25089">
        <ele>19</ele>
        <time>2019-06-22T01:53:00Z</time>
      </trkpt>
      <trkpt lat="64.33438" lon="11.25145">
        <ele>23</ele>
        <time>2019-06-22T01:53:26Z</time>
      </trkpt>
      <trkpt lat="64.33508" lon="11.25297">
        <ele>27</ele>
        <time>2019-06-22T01:53:33Z</time>
      </trkpt>
      <trkpt lat="64.33623" lon="11.25666">
        <ele>31</ele>
        <time>2019-06-22T01:53:50Z</time>
      </trkpt>
      <trkpt lat="64.33768" lon="11.2589">
        <ele>35</ele>
        <time>2019-06-22T01:54:08Z</time>
      </trkpt>
      <trkpt lat="64.33889" lon="11.26583">
        <ele>39</ele>
        <time>2019-06-22T01:54:12Z</time>
      </trkpt>
      <trkpt lat="64.34008" lon="11.27568">
        <ele>43</ele>
        <time>2019-06-22T01:54:42Z</time>
      </trkpt>
      <trkpt lat="64.33991" lon="11.28341">
        <ele>47</ele>
        <time>2019-06-22T01:54:54Z</time>
      </trkpt>
      <trkpt lat="64.3416" lon="11.28758">
        <ele>49</ele>
        <time>2019-06-22T01:55:04Z</time>
      </trkpt>
      <trkpt lat="64.34265" lon="11.28913">
        <ele>51</ele>
        <time>2019-06-22T01:55:09Z</time>
      </trkpt>
      <trkpt lat="64.34363" lon="11.28935">
        <ele>52</ele>
        <time>2019-06-22T01:55:41Z</time>
      </trkpt>
      <trkpt lat="64.34554" lon="11.28908">
        <ele>54</ele>
        <time>2019-06-22T01:55:50Z</time>
      </trkpt>
      <trkpt lat="64.34706" lon="11.28938">
        <ele>56</ele>
        <time>2019-06-22T01:56:05Z</time>
      </trkpt>
      <trkpt lat="64.34836" lon="11.2906">
        <ele>57</ele>
        <time>2019-06-22T01:56:14Z</time>
      </trkpt>
      <trkpt lat="64.35068" lon="11.2941">
        <ele>59</ele>
        <time>2019-06-22T01:56:30Z</time>
      </trkpt>
      <trkpt lat="64.35538" lon="11.29661">
        <ele>61</ele>
        <time>2019-06-22T01:56:52Z</time>
      </trkpt>
      <trkpt lat="64.35653" lon="11.29756">
        <ele>62</ele>
        <time>2019-06-22T01:57:10Z</time>
      </trkpt>
      <trkpt lat="64.35779" lon="11.30037">
        <ele>59</ele>
        <time>2019-06-22T01:57:27Z</time>
      </trkpt>
      <trkpt lat="64.36113" lon="11.31181">
        <ele>57</ele>
        <time>2019-06-22T01:57:41Z</time>
      </trkpt>
      <trkpt lat="64.36503" lon="11.3184">
        <ele>54</ele>
        <time>2019-06-22T01:57:58Z</time>
      </trkpt>
      <trkpt lat="64.36564" lon="11.32013">
        <ele>51</ele>
        <time>2019-06-22T02:00:03Z</time>
      </trkpt>
      <trkpt lat="64.36616" lon="11.32574">
        <ele>48</ele>
        <time>2019-06-22T02:00:10Z</time>
      </trkpt>
      <trkpt lat="64.36577" lon="11.32952">
        <ele>45</ele>
        <time>2019-06-22T02:00:15Z</time>
      </trkpt>
      <trkpt lat="64.36428" lon="11.33505">
        <ele>42</ele>
        <time>2019-06-22T02:00:19Z</time>
      </trkpt>
      <trkpt lat="64.36415" lon="11.33811">
        <ele>40</ele>
        <time>2019-06-22T02:00:27Z</time>
      </trkpt>
      <trkpt lat="64.36431" lon="11.34262">
        <ele>39</ele>
        <time>2019-06-22T02:00:37Z</time>
      </trkpt>
      <trkpt lat="64.36469" lon="11.34469">
        <ele>35</ele>
        <time>2019-06-22T02:00:40Z</time>
      </trkpt>
      <trkpt lat="64.3711" lon="11.36261">
        <ele>30</ele>
        <time>2019-06-22T02:00:46Z</time>
      </trkpt>
      <trkpt lat="64.37418" lon="11.37054">
        <ele>26</ele>
        <time>2019-06-22T02:00:52Z</time>
      </trkpt>
      <trkpt lat="64.37679" lon="11.37588">
        <ele>22</ele>
        <time>2019-06-22T02:00:58Z</time>
      </trkpt>
      <trkpt lat="64.37725" lon="11.37635">
        <ele>17</ele>
        <time>2019-06-22T02:01:33Z</time>
      </trkpt>
      <trkpt lat="64.37882" lon="11.37675">
        <ele>13</ele>
        <time>2019-06-22T02:01:41Z</time>
      </trkpt>
      <trkpt lat="64.37944" lon="11.37737">
        <ele>9</ele>
        <time>2019-06-22T02:02:03Z</time>
      </trkpt>
      <trkpt lat="64.37996" lon="11.37864">
        <ele>6</ele>
        <time>2019-06-22T02:02:13Z</time>
      </trkpt>
      <trkpt lat="64.38057" lon="11.38394">
        <ele>7</ele>
        <time>2019-06-22T02:02:36Z</time>
      </trkpt>
      <trkpt lat="64.38092" lon="11.38978">
        <ele>8</ele>
        <time>2019-06-22T02:02:57Z</time>
      </trkpt>
      <trkpt lat="64.38124" lon="11.39154">
        <ele>9</ele>
        <time>2019-06-22T02:03:06Z</time>
      </trkpt>
      <trkpt lat="64.38244" lon="11.3953">
        <ele>11</ele>
        <time>2019-06-22T02:03:29Z</time>
      </trkpt>
      <trkpt lat="64.38384" lon="11.39861">
        <ele>12</ele>
        <time>2019-06-22T02:03:50Z</time>
      </trkpt>
      <trkpt lat="64.38554" lon="11.39964">
        <ele>13</ele>
        <time>2019-06-22T02:04:21Z</time>
      </trkpt>
      <trkpt lat="64.38606" lon="11.39929">
        <ele>14</ele>
        <time>2019-06-22T02:04:56Z</time>
      </trkpt>
      <trkpt lat="64.39199" lon="11.40057">
        <ele>15</ele>
        <time>2019-06-22T02:05:30Z</time>
      </trkpt>
      <trkpt lat="64.39208" lon="11.40007">
        <ele>15</ele>
        <time>2019-06-22T02:05:42Z</time>
      </trkpt>
      <trkpt lat="64.39201" lon="11.40083">
        <ele>20</ele>
        <time>2019-06-22T02:05:52Z</time>
      </trkpt>
      <trkpt lat="64.39572" lon="11.40338">
        <ele>24</ele>
        <time>2019-06-22T02:06:42Z</time>
      </trkpt>
      <trkpt lat="64.3977" lon="11.40589">
        <ele>28</ele>
        <time>2019-06-22T02:06:54Z</time>
      </trkpt>
      <trkpt lat="64.39959" lon="11.40908">
        <ele>32</ele>
        <time>2019-06-22T02:07:01Z</time>
      </trkpt>
      <trkpt lat="64.40012" lon="11.41137">
        <ele>36</ele>
        <time>2019-06-22T02:07:11Z</time>
      </trkpt>
      <trkpt lat="64.40013" lon="11.41594">
        <ele>40</ele>
        <time>2019-06-22T02:07:38Z</time>
      </trkpt>
      <trkpt lat="64.4004" lon="11.41854">
        <ele>44</ele>
        <time>2019-06-22T02:07:59Z</time>
      </trkpt>
      <trkpt lat="64.40214" lon="11.4281">
        <ele>46</ele>
        <time>2019-06-22T02:08:15Z</time>
      </trkpt>
      <trkpt lat="64.40397" lon="11.436">
        <ele>47</ele>
        <time>2019-06-22T02:08:36Z</time>
      </trkpt>
      <trkpt lat="64.40518" lon="11.44413">
        <ele>48</ele>
        <time>2019-06-22T02:11:24Z</time>
      </trkpt>
      <trkpt lat="64.40572" lon="11.45973">
        <ele>50</ele>
        <time>2019-06-22T02:11:45Z</time>
      </trkpt>
      <trkpt lat="64.40561" lon="11.46553">
        <ele>51</ele>
        <time>2019-06-22T02:12:31Z</time>
      </trkpt>
      <trkpt lat="64.40635" lon="11.46936">
        <ele>52</ele>
        <time>2019-06-22T02:12:36Z</time>
      </trkpt>
      <trkpt lat="64.40894" lon="11.47744">
        <ele>53</ele>
        <time>2019-06-22T02:12:44Z</time>
      </trkpt>
      <trkpt lat="64.41239" lon="11.48343">
        <ele>55</ele>
        <time>2019-06-22T02:12:48Z</time>
      </trkpt>
      <trkpt lat="64.4158" lon="11.4883">
        <ele>56</ele>
        <time>2019-06-22T02:13:12Z</time>
      </trkpt>
      <trkpt lat="64.41751" lon="11.48962">
        <ele>51</ele>
        <time>2019-06-22T02:13:22Z</time>
      </trkpt>
      <trkpt lat="64.42071" lon="11.48962">
        <ele>47</ele>
        <time>2019-06-22T02:13:29Z</time>
      </trkpt>
      <trkpt lat="64.42268" lon="11.4908">
        <ele>43</ele>
        <time>2019-06-22T02:13:39Z</time>
      </trkpt>
      <trkpt lat="64.42789" lon="11.48888">
        <ele>38</ele>
        <time>2019-06-22T02:13:51Z</time>
      </trkpt>
      <trkpt lat="64.42865" lon="11.48947">
        <ele>34</ele>
        <time>2019-06-22T02:14:05Z</time>
      </trkpt>
      <trkpt lat="64.42972" lon="11.49083">
        <ele>30</ele>
        <time>2019-06-22T02:14:10Z</time>
      </trkpt>
      <trkpt lat="64.43208" lon="11.49622">
        <ele>25</ele>
        <time>2019-06-22T02:14:22Z</time>
      </trkpt>
      <trkpt lat="64.43261" lon="11.4969">
        <ele>21</ele>
        <time>2019-06-22T02:14:34Z</time>
      </trkpt>
      <trkpt lat="64.43335" lon="11.49922">
        <ele>21</ele>
        <time>2019-06-22T02:14:48Z</time>
      </trkpt>
      <trkpt lat="64.43701" lon="11.50452">
        <ele>19</ele>
        <time>2019-06-22T02:16:25Z</time>
      </trkpt>
      <trkpt lat="64.43904" lon="11.51083">
        <ele>18</ele>
        <time>2019-06-22T02:16:39Z</time>
      </trkpt>
      <trkpt lat="64.44062" lon="11.51745">
        <ele>17</ele>
        <time>2019-06-22T02:16:49Z</time>
      </trkpt>
      <trkpt lat="64.44336" lon="11.52144">
        <ele>16</ele>
        <time>2019-06-22T02:17:01Z</time>
      </trkpt>
      <trkpt lat="64.44463" lon="11.52096">
        <ele>15</ele>
        <time>2019-06-22T02:17:35Z</time>
      </trkpt>
      <trkpt lat="64.44535" lon="11.52013">
        <ele>14</ele>
        <time>2019-06-22T02:18:04Z</time>
      </trkpt>
      <trkpt lat="64.44585" lon="11.52208">
        <ele>13</ele>
        <time>2019-06-22T02:18:19Z</time>
      </trkpt>
      <trkpt lat="64.4472" lon="11.52311">
        <ele>12</ele>
        <time>2019-06-22T02:18:43Z</time>
      </trkpt>
      <trkpt lat="64.44627" lon="11.52225">
        <ele>14</ele>
        <time>2019-06-22T02:18:49Z</time>
      </trkpt>
      <trkpt lat="64.44615" lon="11.52284">
        <ele>15</ele>
        <time>2019-06-22T02:19:10Z</time>
      </trkpt>
      <trkpt lat="64.44773" lon="11.52569">
        <ele>17</ele>
        <time>2019-06-22T02:19:43Z</time>
      </trkpt>
      <trkpt lat="64.44877" lon="11.52935">
        <ele>19</ele>
        <time>2019-06-22T02:19:48Z</time>
      </trkpt>
      <trkpt lat="64.45058" lon="11.53256">
        <ele>20</ele>
        <time>2019-06-22T02:19:59Z</time>
      </trkpt>
      <trkpt lat="64.45425" lon="11.54102">
        <ele>22</ele>
        <time>2019-06-22T02:20:07Z</time>
      </trkpt>
      <trkpt lat="64.45514" lon="11.54236">
        <ele>23</ele>
        <time>2019-06-22T02:20:46Z</time>
      </trkpt>
      <trkpt lat="64.45837" lon="11.54882">
        <ele>25</ele>
        <time>2019-06-22T02:21:02Z</time>
      </trkpt>
      <trkpt lat="64.45939" lon="11.54875">
        <ele>24</ele>
        <time>2019-06-22T02:21:13Z</time>
      </trkpt>
      <trkpt lat="64.46881" lon="11.54316">
        <ele>24</ele>
        <time>2019-06-22T02:21:26Z</time>
      </trkpt>
      <trkpt lat="64.46955" lon="11.54229">
        <ele>24</ele>
        <time>2019-06-22T02:21:43Z</time>
      </trkpt>
      <trkpt lat="64.47034" lon="11.54076">
        <ele>24</ele>
        <time>2019-06-22T02:22:09Z</time>
      </trkpt>
      <trkpt lat="64.47044" lon="11.54358">
        <ele>23</ele>
        <time>2019-06-22T02:22:18Z</time>
      </trkpt>
      <trkpt lat="64.47097" lon="11.54683">
        <ele>23</ele>
        <time>2019-06-22T02:22:37Z</time>
      </trkpt>
      <trkpt lat="64.47081" lon="11.55101">
        <ele>23</ele>
        <time>2019-06-22T02:22:52Z</time>
      </trkpt>
      <trkpt lat="64.47122" lon="11.55455">
        <ele>22</ele>
        <time>2019-06-22T02:23:09Z</time>
      </trkpt>
      <trkpt lat="64.47383" lon="11.56576">
        <ele>22</ele>
        <time>2019-06-22T02:23:55Z</time>
      </trkpt>
      <trkpt lat="64.47405" lon="11.56771">
        <ele>20</ele>
        <time>2019-06-22T02:24:12Z</time>
      </trkpt>
      <trkpt lat="64.4733" lon="11.56883">
        <ele>18</ele>
        <time>2019-06-22T02:24:21Z</time>
      </trkpt>
      <trkpt lat="64.47318" lon="11.56954">
        <ele>17</ele>
        <time>2019-06-22T02:24:36Z</time>
      </trkpt>
      <trkpt lat="64.47344" lon="11.57327">
        <ele>15</ele>
        <time>2019-06-22T02:25:20Z</time>
      </trkpt>
      <trkpt lat="64.47302" lon="11.57492">
        <ele>13</ele>
        <time>2019-06-22T02:25:58Z</time>
      </trkpt>
      <trkpt lat="64.47372" lon="11.57761">
        <ele>11</ele>
        <time>2019-06-22T02:26:13Z</time>
      </trkpt>
      <trkpt lat="64.47471" lon="11.57874">
        <ele>9</ele>
        <time>2019-06-22T02:27:29Z</time>
      </trkpt>
      <trkpt lat="64.47501" lon="11.57833">
        <ele>8</ele>
        <time>2019-06-22T02:27:42Z</time>
      </trkpt>
      <trkpt lat="64.47482" lon="11.5776">
        <ele>9</ele>
        <time>2019-06-22T02:28:07Z</time>
      </trkpt>
      <trkpt lat="64.47479" lon="11.57892">
        <ele>10</ele>
        <time>2019-06-22T02:29:04Z</time>
      </trkpt>
      <trkpt lat="64.47401" lon="11.57818">
        <ele>12</ele>
        <time>2019-06-22T02:29:23Z</time>
      </trkpt>
      <trkpt lat="64.47312" lon="11.57549">
        <ele>13</ele>
        <time>2019-06-22T02:29:51Z</time>
      </trkpt>
      <trkpt lat="64.47293" lon="11.57422">
        <ele>14</ele>
        <time>2019-06-22T02:30:12Z</time>
      </trkpt>
      <trkpt lat="64.47347" lon="11.57305">
        <ele>16</ele>
        <time>2019-06-22T02:31:16Z</time>
      </trkpt>
      <trkpt lat="64.47318" lon="11.56981">
        <ele>17</ele>
        <time>2019-06-22T02:31:36Z</time>
      </trkpt>
      <trkpt lat="64.47359" lon="11.56838">
        <ele>19</ele>
        <time>2019-06-22T02:31:57Z</time>
      </trkpt>
      <trkpt lat="64.47411" lon="11.56759">
        <ele>17</ele>
        <time>2019-06-22T02:32:12Z</time>
      </trkpt>
      <trkpt lat="64.47082" lon="11.55302">
        <ele>15</ele>
        <time>2019-06-22T02:32:43Z</time>
      </trkpt>
      <trkpt lat="64.47092" lon="11.54664">
        <ele>14</ele>
        <time>2019-06-22T02:33:13Z</time>
      </trkpt>
      <trkpt lat="64.4705" lon="11.54477">
        <ele>12</ele>
        <time>2019-06-22T02:33:25Z</time>
      </trkpt>
      <trkpt lat="64.47027" lon="11.54178">
        <ele>10</ele>
        <time>2019-06-22T02:33:47Z</time>
      </trkpt>
      <trkpt lat="64.47139" lon="11.53647">
        <ele>9</ele>
        <time>2019-06-22T02:34:11Z</time>
      </trkpt>
      <trkpt lat="64.47183" lon="11.52641">
        <ele>7</ele>
        <time>2019-06-22T02:34:18Z</time>
      </trkpt>
      <trkpt lat="64.47019" lon="11.52194">
        <ele>6</ele>
        <time>2019-06-22T02:35:22Z</time>
      </trkpt>
      <trkpt lat="64.46861" lon="11.51065">
        <ele>5</ele>
        <time>2019-06-22T02:35:38Z</time>
      </trkpt>
      <trkpt lat="64.46889" lon="11.50871">
        <ele>5</ele>
        <time>2019-06-22T02:35:47Z</time>
      </trkpt>
      <trkpt lat="64.4687" lon="11.5013">
        <ele>5</ele>
        <time>2019-06-22T02:35:58Z</time>
      </trkpt>
      <trkpt lat="64.46772" lon="11.49598">
        <ele>5</ele>
        <time>2019-06-22T02:36:24Z</time>
      </trkpt>
      <trkpt lat="64.46879" lon="11.48968">
        <ele>5</ele>
        <time>2019-06-22T02:36:44Z</time>
      </trkpt>
      <trkpt lat="64.46774" lon="11.48898">
        <ele>5</ele>
        <time>2019-06-22T02:36:50Z</time>
      </trkpt>
      <trkpt lat="64.46739" lon="11.49018">
        <ele>4</ele>
        <time>2019-06-22T02:37:19Z</time>
      </trkpt>
      <trkpt lat="64.46669" lon="11.49051">
        <ele>4</ele>
        <time>2019-06-22T02:37:28Z</time>
      </trkpt>
      <trkpt lat="64.46651" lon="11.49224">
        <ele>4</ele>
        <time>2019-06-22T02:37:39Z</time>
      </trkpt>
      <trkpt lat="64.46603" lon="11.4918">
        <ele>5</ele>
        <time>2019-06-22T02:38:23Z</time>
      </trkpt>
      <trkpt lat="64.46491" lon="11.49219">
        <ele>5</ele>
        <time>2019-06-22T02:38:29Z</time>
      </trkpt>
      <trkpt lat="64.46502" lon="11.49197">
        <ele>5</ele>
        <time>2019-06-22T02:38:43Z</time>
      </trkpt>
      <trkpt lat="64.46441" lon="11.49384">
        <ele>6</ele>
        <time>2019-06-22T02:38:56Z</time>
      </trkpt>
      <trkpt lat="64.46435" lon="11.49494">
        <ele>6</ele>
        <time>2019-06-22T02:41:19Z</time>
      </trkpt>
      <trkpt lat="64.466" lon="11.49613">
        <ele>6</ele>
        <time>2019-06-22T02:41:27Z</time>
      </trkpt>
      <trkpt lat="64.46628" lon="11.49601">
        <ele>7</ele>
        <time>2019-06-22T02:41:38Z</time>
      </trkpt>
      <trkpt lat="64.46666" lon="11.49531">
        <ele>7</ele>
        <time>2019-06-22T02:41:56Z</time>
      </trkpt>
      <trkpt lat="64.46648" lon="11.49563">
        <ele>7</ele>
        <time>2019-06-22T02:42:44Z</time>
      </trkpt>
      <trkpt lat="64.46612" lon="11.49471">
        <ele>13</ele>
        <time>2019-06-22T02:43:18Z</time>
      </trkpt>
      <trkpt lat="64.46674" lon="11.49532">
        <ele>19</ele>
        <time>2019-06-22T02:43:26Z</time>
      </trkpt>
      <trkpt lat="64.46653" lon="11.49539">
        <ele>25</ele>
        <time>2019-06-22T02:43:56Z</time>
      </trkpt>
      <trkpt lat="64.46705" lon="11.49281">
        <ele>31</ele>
        <time>2019-06-22T02:44:14Z</time>
      </trkpt>
      <trkpt lat="64.46849" lon="11.49153">
        <ele>37</ele>
        <time>2019-06-22T02:44:23Z</time>
      </trkpt>
      <trkpt lat="64.46954" lon="11.48448">
        <ele>43</ele>
        <time>2019-06-22T02:45:00Z</time>
      </trkpt>
      <trkpt lat="64.46978" lon="11.47656">
        <ele>49</ele>
        <time>2019-06-22T02:45:07Z</time>
      </trkpt>
      <trkpt lat="64.47076" lon="11.47312">
        <ele>52</ele>
        <time>2019-06-22T02:45:21Z</time>
      </trkpt>
      <trkpt lat="64.47116" lon="11.47059">
        <ele>51</ele>
        <time>2019-06-22T02:45:32Z</time>
      </trkpt>
      <trkpt lat="64.47323" lon="11.46646">
        <ele>49</ele>
        <time>2019-06-22T02:45:51Z</time>
      </trkpt>
      <trkpt lat="64.47341" lon="11.46663">
        <ele>48</ele>
        <time>2019-06-22T02:46:11Z</time>
      </trkpt>
      <trkpt lat="64.47488" lon="11.46628">
        <ele>46</ele>
        <time>2019-06-22T02:46:20Z</time>
      </trkpt>
      <trkpt lat="64.47655" lon="11.46763">
        <ele>45</ele>
        <time>2019-06-22T02:46:36Z</time>
      </trkpt>
      <trkpt lat="64.47787" lon="11.46963">
        <ele>43</ele>
        <time>2019-06-22T02:47:33Z</time>
      </trkpt>
      <trkpt lat="64.47895" lon="11.47056">
        <ele>42</ele>
        <time>2019-06-22T02:47:54Z</time>
      </trkpt>
      <trkpt lat="64.47956" lon="11.47149">
        <ele>41</ele>
        <time>2019-06-22T02:48:27Z</time>
      </trkpt>
      <trkpt lat="64.48048" lon="11.47466">
        <ele>40</ele>
        <time>2019-06-22T02:48:36Z</time>
      </trkpt>
      <trkpt lat="64.48187" lon="11.47664">
        <ele>40</ele>
        <time>2019-06-22T02:48:52Z</time>
      </trkpt>
      <trkpt lat="64.48273" lon="11.47858">
        <ele>39</ele>
        <time>2019-06-22T02:49:00Z</time>
      </trkpt>
      <trkpt lat="64.48321" lon="11.47918">
        <ele>39</ele>
        <time>2019-06-22T02:49:31Z</time>
      </trkpt>
      <trkpt lat="64.48476" lon="11.47991">
        <ele>39</ele>
        <time>2019-06-22T02:49:55Z</time>
      </trkpt>
      <trkpt lat="64.48485" lon="11.48016">
        <ele>38</ele>
        <time>2019-06-22T02:50:06Z</time>
      </trkpt>
      <trkpt lat="64.4863" lon="11.47866">
        <ele>38</ele>
        <time>2019-06-22T02:50:22Z</time>
      </trkpt>
      <trkpt lat="64.488" lon="11.47759">
        <ele>38</ele>
        <time>2019-06-22T02:50:56Z</time>
      </trkpt>
      <trkpt lat="64.48933" lon="11.47621">
        <ele>38</ele>
        <time>2019-06-22T02:51:37Z</time>
      </trkpt>
      <trkpt lat="64.49042" lon="11.4741">
        <ele>36</ele>
        <time>2019-06-22T02:51:52Z</time>
      </trkpt>
      <trkpt lat="64.49059" lon="11.4712">
        <ele>34</ele>
        <time>2019-06-22T02:52:22Z</time>
      </trkpt>
      <trkpt lat="64.49109" lon="11.46962">
        <ele>32</ele>
        <time>2019-06-22T02:52:32Z</time>
      </trkpt>
      <trkpt lat="64.49184" lon="11.46923">
        <ele>30</ele>
        <time>2019-06-22T02:52:37Z</time>
      </trkpt>
      <trkpt lat="64.49664" lon="11.46971">
        <ele>28</ele>
        <time>2019-06-22T02:53:21Z</time>
      </trkpt>
      <trkpt lat="64.50152" lon="11.47074">
        <ele>26</ele>
        <time>2019-06-22T02:53:34Z</time>
      </trkpt>
      <trkpt lat="64.50261" lon="11.47171">
        <ele>24</ele>
        <time>2019-06-22T02:53:47Z</time>
      </trkpt>
      <trkpt lat="64.50375" lon="11.47418">
        <ele>23</ele>
        <time>2019-06-22T02:54:01Z</time>
      </trkpt>
      <trkpt lat="64.50566" lon="11.48308">
        <ele>21</ele>
        <time>2019-06-22T02:54:42Z</time>
      </trkpt>
      <trkpt lat="64.50637" lon="11.48504">
        <ele>20</ele>
        <time>2019-06-22T02:55:04Z</time>
      </trkpt>
      <trkpt lat="64.50861" lon="11.48807">
        <ele>19</ele>
        <time>2019-06-22T02:55:13Z</time>
      </trkpt>
      <trkpt lat="64.50957" lon="11.48782">
        <ele>17</ele>
        <time>2019-06-22T02:55:34Z</time>
      </trkpt>
      <trkpt lat="64.51119" lon="11.4868">
        <ele>16</ele>
        <time>2019-06-22T02:55:37Z</time>
      </trkpt>
      <trkpt lat="64.51272" lon="11.48487">
        <ele>15</ele>
        <time>2019-06-22T02:55:43Z</time>
      </trkpt>
      <trkpt lat="64.5136" lon="11.48458">
        <ele>14</ele>
        <time>2019-06-22T02:56:01Z</time>
      </trkpt>
      <trkpt lat="64.5143" lon="11.48537">
        <ele>12</ele>
        <time>2019-06-22T02:56:18Z</time>
      </trkpt>
      <trkpt lat="64.51604" lon="11.49041">
        <ele>11</ele>
        <time>2019-06-22T02:56:50Z</time>
      </trkpt>
      <trkpt lat="64.51675" lon="11.49726">
        <ele>11</ele>
        <time>2019-06-22T02:56:58Z</time>
      </trkpt>
      <trkpt lat="64.51641" lon="11.50011">
        <ele>10</ele>
        <time>2019-06-22T02:57:42Z</time>
      </trkpt>
      <trkpt lat="64.51583" lon="11.50245">
        <ele>9</ele>
        <time>2019-06-22T02:58:12Z</time>
      </trkpt>
      <trkpt lat="64.51391" lon="11.50712">
        <ele>8</ele>
        <time>2019-06-22T02:58:29Z</time>
      </trkpt>
      <trkpt lat="64.51304" lon="11.51161">
        <ele>7</ele>
        <time>2019-06-22T02:58:43Z</time>
      </trkpt>
      <trkpt lat="64.51356" lon="11.51494">
        <ele>6</ele>
        <time>2019-06-22T02:59:08Z</time>
      </trkpt>
      <trkpt lat="64.51489" lon="11.51934">
        <ele>6</ele>
        <time>2019-06-22T02:59:24Z</time>
      </trkpt>
      <trkpt lat="64.5151" lon="11.51966">
        <ele>5</ele>
        <time>2019-06-22T02:59:32Z</time>
      </trkpt>
      <trkpt lat="64.5162" lon="11.52016">
        <ele>5</ele>
        <time>2019-06-22T02:59:47Z</time>
      </trkpt>
      <trkpt lat="64.51741" lon="11.52342">
        <ele>4</ele>
        <time>2019-06-22T02:59:50Z</time>
      </trkpt>
      <trkpt lat="64.51745" lon="11.52699">
        <ele>3</ele>
        <time>2019-06-22T02:59:55Z</time>
      </trkpt>
      <trkpt lat="64.51699" lon="11.53121">
        <ele>3</ele>
        <time>2019-06-22T03:00:10Z</time>
      </trkpt>
      <trkpt lat="64.51787" lon="11.53763">
        <ele>2</ele>
        <time>2019-06-22T03:00:15Z</time>
      </trkpt>
      <trkpt lat="64.51891" lon="11.53863">
        <ele>1</ele>
        <time>2019-06-22T03:00:20Z</time>
      </trkpt>
      <trkpt lat="64.52095" lon="11.5361">
        <ele>1</ele>
        <time>2019-06-22T03:00:24Z</time>
      </trkpt>
      <trkpt lat="64.52133" lon="11.53607">
        <ele>6.2</ele>
        <time>2019-06-22T03:00:37Z</time>
      </trkpt>
      <trkpt lat="64.52321" lon="11.53936">
        <ele>3</ele>
        <time>2019-06-22T03:00:54Z</time>
      </trkpt>
      <trkpt lat="64.52471" lon="11.53819">
        <ele>7</ele>
        <time>2019-06-22T03:00:59Z</time>
      </trkpt>
      <trkpt lat="64.5256" lon="11.53822">
        <ele>10</ele>
        <time>2019-06-22T03:01:11Z</time>
      </trkpt>
      <trkpt lat="64.53035" lon="11.5406">
        <ele>13</ele>
        <time>2019-06-22T03:01:15Z</time>
      </trkpt>
      <trkpt lat="64.53122" lon="11.5407">
        <ele>16</ele>
        <time>2019-06-22T03:01:23Z</time>
      </trkpt>
      <trkpt lat="64.53279" lon="11.53983">
        <ele>19</ele>
        <time>2019-06-22T03:01:34Z</time>
      </trkpt>
      <trkpt lat="64.53379" lon="11.54">
        <ele>23</ele>
        <time>2019-06-22T03:01:37Z</time>
      </trkpt>
      <trkpt lat="64.53483" lon="11.54042">
        <ele>26</ele>
        <time>2019-06-22T03:01:44Z</time>
      </trkpt>
      <trkpt lat="64.53569" lon="11.54137">
        <ele>26</ele>
        <time>2019-06-22T03:01:49Z</time>
      </trkpt>
      <trkpt lat="64.53716" lon="11.54185">
        <ele>23</ele>
        <time>2019-06-22T03:02:03Z</time>
      </trkpt>
      <trkpt lat="64.53849" lon="11.54078">
        <ele>19</ele>
        <time>2019-06-22T03:02:08Z</time>
      </trkpt>
      <trkpt lat="64.53938" lon="11.54037">
        <ele>16</ele>
        <time>2019-06-22T03:02:11Z</time>
      </trkpt>
      <trkpt lat="64.54029" lon="11.54041">
        <ele>13</ele>
        <time>2019-06-22T03:02:14Z</time>
      </trkpt>
      <trkpt lat="64.54305" lon="11.53843">
        <ele>9</ele>
        <time>2019-06-22T03:02:21Z</time>
      </trkpt>
      <trkpt lat="64.54425" lon="11.53838">
        <ele>6</ele>
        <time>2019-06-22T03:02:27Z</time>
      </trkpt>
      <trkpt lat="64.54561" lon="11.53933">
        <ele>3</ele>
        <time>2019-06-22T03:02:30Z</time>
      </trkpt>
      <trkpt lat="64.54748" lon="11.53758">
        <ele>1</ele>
        <time>2019-06-22T03:02:38Z</time>
      </trkpt>
      <trkpt lat="64.54939" lon="11.53077">
        <ele>1</ele>
        <time>2019-06-22T03:02:41Z</time>
      </trkpt>
      <trkpt lat="64.55042" lon="11.52835">
        <ele>1</ele>
        <time>2019-06-22T03:02:47Z</time>
      </trkpt>
      <trkpt lat="64.55107" lon="11.52738">
        <ele>1</ele>
        <time>2019-06-22T03:03:00Z</time>
      </trkpt>
      <trkpt lat="64.55179" lon="11.5269">
        <ele>1</ele>
        <time>2019-06-22T03:03:05Z</time>
      </trkpt>
      <trkpt lat="64.5549" lon="11.52615">
        <ele>1</ele>
        <time>2019-06-22T03:06:06Z</time>
      </trkpt>
      <trkpt lat="64.55535" lon="11.52546">
        <ele>1</ele>
        <time>2019-06-22T03:06:25Z</time>
      </trkpt>
      <trkpt lat="64.55579" lon="11.52365">
        <ele>1</ele>
        <time>2019-06-22T03:06:37Z</time>
      </trkpt>
      <trkpt lat="64.55666" lon="11.52207">
        <ele>1</ele>
        <time>2019-06-22T03:06:51Z</time>
      </trkpt>
      <trkpt lat="64.55752" lon="11.51966">
        <ele>2</ele>
        <time>2019-06-22T03:06:55Z</time>
      </trkpt>
      <trkpt lat="64.55889" lon="11.51852">
        <ele>4</ele>
        <time>2019-06-22T03:07:02Z</time>
      </trkpt>
      <trkpt lat="64.55933" lon="11.51785">
        <ele>5</ele>
        <time>2019-06-22T03:07:05Z</time>
      </trkpt>
      <trkpt lat="64.56001" lon="11.51416">
        <ele>6</ele>
        <time>2019-06-22T03:07:11Z</time>
      </trkpt>
      <trkpt lat="64.5611" lon="11.51077">
        <ele>7</ele>
        <time>2019-06-22T03:07:23Z</time>
      </trkpt>
      <trkpt lat="64.56085" lon="11.50684">
        <ele>8</ele>
        <time>2019-06-22T03:07:28Z</time>
      </trkpt>
      <trkpt lat="64.56112" lon="11.50588">
        <ele>9</ele>
        <time>2019-06-22T03:07:43Z</time>
      </trkpt>
      <trkpt lat="64.56208" lon="11.50439">
        <ele>10</ele>
        <time>2019-06-22T03:07:56Z</time>
      </trkpt>
      <trkpt lat="64.56257" lon="11.50314">
        <ele>10</ele>
        <time>2019-06-22T03:08:27Z</time>
      </trkpt>
      <trkpt lat="64.56265" lon="11.50139">
        <ele>10</ele>
        <time>2019-06-22T03:08:38Z</time>
      </trkpt>
      <trkpt lat="64.56187" lon="11.49823">
        <ele>11</ele>
        <time>2019-06-22T03:08:46Z</time>
      </trkpt>
      <trkpt lat="64.56161" lon="11.49771">
        <ele>11</ele>
        <time>2019-06-22T03:08:58Z</time>
      </trkpt>
      <trkpt lat="64.55937" lon="11.49564">
        <ele>11</ele>
        <time>2019-06-22T03:09:18Z</time>
      </trkpt>
      <trkpt lat="64.55845" lon="11.49323">
        <ele>11</ele>
        <time>2019-06-22T03:09:51Z</time>
      </trkpt>
      <trkpt lat="64.55659" lon="11.49215">
        <ele>12</ele>
        <time>2019-06-22T03:10:11Z</time>
      </trkpt>
      <trkpt lat="64.55589" lon="11.49069">
        <ele>12</ele>
        <time>2019-06-22T03:10:44Z</time>
      </trkpt>
      <trkpt lat="64.55474" lon="11.48919">
        <ele>12</ele>
        <time>2019-06-22T03:11:03Z</time>
      </trkpt>
      <trkpt lat="64.55442" lon="11.48781">
        <ele>17</ele>
        <time>2019-06-22T03:11:20Z</time>
      </trkpt>
      <trkpt lat="64.55414" lon="11.4836">
        <ele>21</ele>
        <time>2019-06-22T03:11:46Z</time>
      </trkpt>
      <trkpt lat="64.55375" lon="11.48251">
        <ele>26</ele>
        <time>2019-06-22T03:11:58Z</time>
      </trkpt>
      <trkpt lat="64.5531" lon="11.48135">
        <ele>31</ele>
        <time>2019-06-22T03:12:08Z</time>
      </trkpt>
      <trkpt lat="64.55096" lon="11.47925">
        <ele>36</ele>
        <time>2019-06-22T03:12:19Z</time>
      </trkpt>
      <trkpt lat="64.55039" lon="11.47763">
        <ele>41</ele>
        <time>2019-06-22T03:12:51Z</time>
      </trkpt>
      <trkpt lat="64.55022" lon="11.47559">
        <ele>45</ele>
        <time>2019-06-22T03:13:02Z</time>
      </trkpt>
      <trkpt lat="64.55037" lon="11.473">
        <ele>49</ele>
        <time>2019-06-22T03:13:07Z</time>
      </trkpt>
      <trkpt lat="64.54985" lon="11.46593">
        <ele>54</ele>
        <time>2019-06-22T03:13:22Z</time>
      </trkpt>
      <trkpt lat="64.55085" lon="11.46141">
        <ele>58</ele>
        <time>2019-06-22T03:13:29Z</time>
      </trkpt>
      <trkpt lat="64.55174" lon="11.46018">
        <ele>62</ele>
        <time>2019-06-22T03:13:55Z</time>
      </trkpt>
      <trkpt lat="64.5523" lon="11.46013">
        <ele>66</ele>
        <time>2019-06-22T03:14:32Z</time>
      </trkpt>
      <trkpt lat="64.5544" lon="11.46163">
        <ele>70</ele>
        <time>2019-06-22T03:14:39Z</time>
      </trkpt>
      <trkpt lat="64.55638" lon="11.46091">
        <ele>74</ele>
        <time>2019-06-22T03:14:49Z</time>
      </trkpt>
      <trkpt lat="64.55782" lon="11.46081">
        <ele>78</ele>
        <time>2019-06-22T03:14:56Z</time>
      </trkpt>
      <trkpt lat="64.55963" lon="11.4599">
        <ele>82</ele>
        <time>2019-06-22T03:15:50Z</time>
      </trkpt>
      <trkpt lat="64.56155" lon="11.45948">
        <ele>83</ele>
        <time>2019-06-22T03:16:05Z</time>
      </trkpt>
      <trkpt lat="64.56263" lon="11.45989">
        <ele>79</ele>
        <time>2019-06-22T03:16:18Z</time>
      </trkpt>
      <trkpt lat="64.56631" lon="11.46049">
        <ele>75</ele>
        <time>2019-06-22T03:16:32Z</time>
      </trkpt>
      <trkpt lat="64.56747" lon="11.46014">
        <ele>71</ele>
        <time>2019-06-22T03:16:56Z</time>
      </trkpt>
      <trkpt lat="64.56894" lon="11.46029">
        <ele>67</ele>
        <time>2019-06-22T03:17:27Z</time>
      </trkpt>
      <trkpt lat="64.56973" lon="11.4607">
        <ele>63</ele>
        <time>2019-06-22T03:17:31Z</time>
      </trkpt>
      <trkpt lat="64.57283" lon="11.46044">
        <ele>59</ele>
        <time>2019-06-22T03:17:48Z</time>
      </trkpt>
      <trkpt lat="64.57654" lon="11.46311">
        <ele>55</ele>
        <time>2019-06-22T03:18:01Z</time>
      </trkpt>
      <trkpt lat="64.57782" lon="11.46317">
        <ele>52</ele>
        <time>2019-06-22T03:18:25Z</time>
      </trkpt>
      <trkpt lat="64.58178" lon="11.46418">
        <ele>48</ele>
        <time>2019-06-22T03:19:08Z</time>
      </trkpt>
      <trkpt lat="64.5836" lon="11.46526">
        <ele>44</ele>
        <time>2019-06-22T03:19:17Z</time>
      </trkpt>
      <trkpt lat="64.58457" lon="11.46506">
        <ele>39</ele>
        <time>2019-06-22T03:19:34Z</time>
      </trkpt>
      <trkpt lat="64.58567" lon="11.46545">
        <ele>35</ele>
        <time>2019-06-22T03:19:47Z</time>
      </trkpt>
      <trkpt lat="64.58693" lon="11.4654">
        <ele>31</ele>
        <time>2019-06-22T03:20:11Z</time>
      </trkpt>
      <trkpt lat="64.58916" lon="11.46331">
        <ele>26</ele>
        <time>2019-06-22T03:20:31Z</time>
      </trkpt>
      <trkpt lat="64.59051" lon="11.46132">
        <ele>22</ele>
        <time>2019-06-22T03:20:38Z</time>
      </trkpt>
      <trkpt lat="64.5931" lon="11.45222">
        <ele>18</ele>
        <time>2019-06-22T03:21:03Z</time>
      </trkpt>
      <trkpt lat="64.59294" lon="11.44957">
        <ele>17</ele>
        <time>2019-06-22T03:21:19Z</time>
      </trkpt>
      <trkpt lat="64.59251" lon="11.44773">
        <ele>15</ele>
        <time>2019-06-22T03:21:32Z</time>
      </trkpt>
      <trkpt lat="64.59265" lon="11.44496">
        <ele>14</ele>
        <time>2019-06-22T03:23:51Z</time>
      </trkpt>
      <trkpt lat="64.59345" lon="11.44319">
        <ele>13</ele>
        <time>2019-06-22T03:23:59Z</time>
      </trkpt>
      <trkpt lat="64.59366" lon="11.44393">
        <ele>12</ele>
        <time>2019-06-22T03:24:23Z</time>
      </trkpt>
      <trkpt lat="64.5935" lon="11.44292">
        <ele>11</ele>
        <time>2019-06-22T03:25:02Z</time>
      </trkpt>
      <trkpt lat="64.59483" lon="11.44065">
        <ele>10</ele>
        <time>2019-06-22T03:25:38Z</time>
      </trkpt>
      <trkpt lat="64.595" lon="11.43936">
        <ele>9</ele>
        <time>2019-06-22T03:25:49Z</time>
      </trkpt>
      <trkpt lat="64.59585" lon="11.43819">
        <ele>8</ele>
        <time>2019-06-22T03:25:54Z</time>
      </trkpt>
      <trkpt lat="64.59702" lon="11.43797">
        <ele>18</ele>
        <time>2019-06-22T03:25:59Z</time>
      </trkpt>
      <trkpt lat="64.59821" lon="11.43681">
        <ele>27</ele>
        <time>2019-06-22T03:26:09Z</time>
      </trkpt>
      <trkpt lat="64.6011" lon="11.43608">
        <ele>36</ele>
        <time>2019-06-22T03:26:24Z</time>
      </trkpt>
      <trkpt lat="64.60172" lon="11.43568">
        <ele>45</ele>
        <time>2019-06-22T03:26:29Z</time>
      </trkpt>
      <trkpt lat="64.60491" lon="11.42888">
        <ele>54</ele>
        <time>2019-06-22T03:26:48Z</time>
      </trkpt>
      <trkpt lat="64.60469" lon="11.42729">
        <ele>63</ele>
        <time>2019-06-22T03:26:57Z</time>
      </trkpt>
      <trkpt lat="64.60559" lon="11.42486">
        <ele>72</ele>
        <time>2019-06-22T03:27:51Z</time>
      </trkpt>
      <trkpt lat="64.60639" lon="11.42455">
        <ele>79</ele>
        <time>2019-06-22T03:28:23Z</time>
      </trkpt>
      <trkpt lat="64.60729" lon="11.42476">
        <ele>73</ele>
        <time>2019-06-22T03:29:15Z</time>
      </trkpt>
      <trkpt lat="64.60855" lon="11.42399">
        <ele>67</ele>
        <time>2019-06-22T03:29:23Z</time>
      </trkpt>
      <trkpt lat="64.60879" lon="11.42407">
        <ele>62</ele>
        <time>2019-06-22T03:29:33Z</time>
      </trkpt>
      <trkpt lat="64.6121" lon="11.42924">
        <ele>56</ele>
        <time>2019-06-22T03:29:43Z</time>
      </trkpt>
      <trkpt lat="64.61241" lon="11.42924">
        <ele>50</ele>
        <time>2019-06-22T03:30:03Z</time>
      </trkpt>
      <trkpt lat="64.61403" lon="11.42807">
        <ele>45</ele>
        <time>2019-06-22T03:30:11Z</time>
      </trkpt>
      <trkpt lat="64.61532" lon="11.42761">
        <ele>39</ele>
        <time>2019-06-22T03:30:32Z</time>
      </trkpt>
      <trkpt lat="64.61724" lon="11.4286">
        <ele>33</ele>
        <time>2019-06-22T03:30:40Z</time>
      </trkpt>
      <trkpt lat="64.61828" lon="11.42868">
        <ele>33</ele>
        <time>2019-06-22T03:30:49Z</time>
      </trkpt>
      <trkpt lat="64.61913" lon="11.42909">
        <ele>37</ele>
        <time>2019-06-22T03:31:16Z</time>
      </trkpt>
      <trkpt lat="64.62048" lon="11.4318">
        <ele>41</ele>
        <time>2019-06-22T03:31:28Z</time>
      </trkpt>
      <trkpt lat="64.62104" lon="11.43404">
        <ele>45</ele>
        <time>2019-06-22T03:31:37Z</time>
      </trkpt>
      <trkpt lat="64.62095" lon="11.4363">
        <ele>49</ele>
        <time>2019-06-22T03:31:51Z</time>
      </trkpt>
      <trkpt lat="64.61858" lon="11.44081">
        <ele>53</ele>
        <time>2019-06-22T03:32:42Z</time>
      </trkpt>
      <trkpt lat="64.6182" lon="11.44278">
        <ele>58</ele>
        <time>2019-06-22T03:32:49Z</time>
      </trkpt>
      <trkpt lat="64.61777" lon="11.44805">
        <ele>62</ele>
        <time>2019-06-22T03:33:04Z</time>
      </trkpt>
      <trkpt lat="64.61725" lon="11.4496">
        <ele>64</ele>
        <time>2019-06-22T03:33:13Z</time>
      </trkpt>
      <trkpt lat="64.61629" lon="11.45101">
        <ele>67</ele>
        <time>2019-06-22T03:33:37Z</time>
      </trkpt>
      <trkpt lat="64.61558" lon="11.45313">
        <ele>71</ele>
        <time>2019-06-22T03:34:00Z</time>
      </trkpt>
      <trkpt lat="64.61555" lon="11.45397">
        <ele>75</ele>
        <time>2019-06-22T03:34:04Z</time>
      </trkpt>
      <trkpt lat="64.61586" lon="11.45567">
        <ele>79</ele>
        <time>2019-06-22T03:37:40Z</time>
      </trkpt>
      <trkpt lat="64.61702" lon="11.45687">
        <ele>82</ele>
        <time>2019-06-22T03:37:54Z</time>
      </trkpt>
      <trkpt lat="64.61757" lon="11.45832">
        <ele>86</ele>
        <time>2019-06-22T03:38:02Z</time>
      </trkpt>
      <trkpt lat="64.61839" lon="11.4628">
        <ele>90</ele>
        <time>2019-06-22T03:38:36Z</time>
      </trkpt>
      <trkpt lat="64.61915" lon="11.46447">
        <ele>93</ele>
        <time>2019-06-22T03:38:41Z</time>
      </trkpt>
      <trkpt lat="64.61963" lon="11.46504">
        <ele>91</ele>
        <time>2019-06-22T03:38:50Z</time>
      </trkpt>
      <trkpt lat="64.6202" lon="11.46517">
        <ele>89</ele>
        <time>2019-06-22T03:38:53Z</time>
      </trkpt>
      <trkpt lat="64.62292" lon="11.46492">
        <ele>87</ele>
        <time>2019-06-22T03:39:02Z</time>
      </trkpt>
      <trkpt lat="64.62494" lon="11.46416">
        <ele>86</ele>
        <time>2019-06-22T03:39:12Z</time>
      </trkpt>
      <trkpt lat="64.62842" lon="11.46225">
        <ele>84</ele>
        <time>2019-06-22T03:39:17Z</time>
      </trkpt>
      <trkpt lat="64.62982" lon="11.46049">
        <ele>82</ele>
        <time>2019-06-22T03:39:32Z</time>
      </trkpt>
      <trkpt lat="64.63259" lon="11.45537">
        <ele>80</ele>
        <time>2019-06-22T03:39:48Z</time>
      </trkpt>
      <trkpt lat="64.63532" lon="11.45301">
        <ele>78</ele>
        <time>2019-06-22T03:40:05Z</time>
      </trkpt>
      <trkpt lat="64.63637" lon="11.45061">
        <ele>77</ele>
        <time>2019-06-22T03:40:48Z</time>
      </trkpt>
      <trkpt lat="64.63785" lon="11.44851">
        <ele>87</ele>
        <time>2019-06-22T03:41:02Z</time>
      </trkpt>
      <trkpt lat="64.63846" lon="11.44833">
        <ele>97</ele>
        <time>2019-06-22T03:41:11Z</time>
      </trkpt>
      <trkpt lat="64.63992" lon="11.44842">
        <ele>106</ele>
        <time>2019-06-22T03:41:20Z</time>
      </trkpt>
      <trkpt lat="64.64173" lon="11.44753">
        <ele>116</ele>
        <time>2019-06-22T03:41:44Z</time>
      </trkpt>
      <trkpt lat="64.64286" lon="11.44769">
        <ele>125</ele>
        <time>2019-06-22T03:41:57Z</time>
      </trkpt>
      <trkpt lat="64.64311" lon="11.44805">
        <ele>135</ele>
        <time>2019-06-22T03:42:09Z</time>
      </trkpt>
      <trkpt lat="64.6439" lon="11.44828">
        <ele>145</ele>
        <time>2019-06-22T03:42:16Z</time>
      </trkpt>
      <trkpt lat="64.6482" lon="11.44651">
        <ele>150</ele>
        <time>2019-06-22T03:42:36Z</time>
      </trkpt>
      <trkpt lat="64.65053" lon="11.44477">
        <ele>145</ele>
        <time>2019-06-22T03:42:51Z</time>
      </trkpt>
      <trkpt lat="64.65228" lon="11.44579">
        <ele>140</ele>
        <time>2019-06-22T03:43:38Z</time>
      </trkpt>
      <trkpt lat="64.65356" lon="11.4459">
        <ele>135</ele>
        <time>2019-06-22T03:44:05Z</time>
      </trkpt>
      <trkpt lat="64.65591" lon="11.4473">
        <ele>131</ele>
        <time>2019-06-22T03:44:13Z</time>
      </trkpt>
      <trkpt lat="64.65639" lon="11.4479">
        <ele>126</ele>
        <time>2019-06-22T03:44:27Z</time>
      </trkpt>
      <trkpt lat="64.65741" lon="11.44856">
        <ele>121</ele>
        <time>2019-06-22T03:44:52Z</time>
      </trkpt>
      <trkpt lat="64.65826" lon="11.4487">
        <ele>116</ele>
        <time>2019-06-22T03:44:59Z</time>
      </trkpt>
      <trkpt lat="64.66036" lon="11.44832">
        <ele>111</ele>
        <time>2019-06-22T03:45:05Z</time>
      </trkpt>
      <trkpt lat="64.66206" lon="11.44727">
        <ele>104</ele>
        <time>2019-06-22T03:45:10Z</time>
      </trkpt>
      <trkpt lat="64.66377" lon="11.44581">
        <ele>96</ele>
        <time>2019-06-22T03:45:17Z</time>
      </trkpt>
      <trkpt lat="64.66652" lon="11.44414">
        <ele>89</ele>
        <time>2019-06-22T03:45:28Z</time>
      </trkpt>
      <trkpt lat="64.6705" lon="11.44315">
        <ele>81</ele>
        <time>2019-06-22T03:45:35Z</time>
      </trkpt>
      <trkpt lat="64.6709" lon="11.44279">
        <ele>74</ele>
        <time>2019-06-22T03:46:37Z</time>
      </trkpt>
      <trkpt lat="64.6716" lon="11.44085">
        <ele>66</ele>
        <time>2019-06-22T03:46:41Z</time>
      </trkpt>
      <trkpt lat="64.67221" lon="11.43656">
        <ele>59</ele>
        <time>2019-06-22T03:46:54Z</time>
      </trkpt>
      <trkpt lat="64.67335" lon="11.43442">
        <ele>51</ele>
        <time>2019-06-22T03:47:26Z</time>
      </trkpt>
      <trkpt lat="64.67449" lon="11.43389">
        <ele>49</ele>
        <time>2019-06-22T03:47:32Z</time>
      </trkpt>
      <trkpt lat="64.67518" lon="11.43422">
        <ele>50</ele>
        <time>2019-06-22T03:47:42Z</time>
      </trkpt>
      <trkpt lat="64.67775" lon="11.43729">
        <ele>52</ele>
        <time>2019-06-22T03:48:00Z</time>
      </trkpt>
      <trkpt lat="64.67818" lon="11.43731">
        <ele>53</ele>
        <time>2019-06-22T03:48:59Z</time>
      </trkpt>
      <trkpt lat="64.67892" lon="11.43687">
        <ele>55</ele>
        <time>2019-06-22T03:49:24Z</time>
      </trkpt>
      <trkpt lat="64.68056" lon="11.43402">
        <ele>56</ele>
        <time>2019-06-22T03:53:29Z</time>
      </trkpt>
      <trkpt lat="64.68141" lon="11.43312">
        <ele>58</ele>
        <time>2019-06-22T03:53:33Z</time>
      </trkpt>
      <trkpt lat="64.68221" lon="11.43293">
        <ele>60</ele>
        <time>2019-06-22T03:53:56Z</time>
      </trkpt>
      <trkpt lat="64.68312" lon="11.43331">
        <ele>61</ele>
        <time>2019-06-23T07:43:04Z</time>
      </trkpt>
      <trkpt lat="64.68436" lon="11.43346">
        <ele>55</ele>
        <time>2019-06-23T07:43:25Z</time>
      </trkpt>
      <trkpt lat="64.68616" lon="11.43205">
        <ele>49</ele>
        <time>2019-06-23T07:43:46Z</time>
      </trkpt>
      <trkpt lat="64.68683" lon="11.43238">
        <ele>43</ele>
        <time>2019-06-23T07:43:53Z</time>
      </trkpt>
      <trkpt lat="64.68842" lon="11.43631">
        <ele>37</ele>
        <time>2019-06-23T07:44:17Z</time>
      </trkpt>
      <trkpt lat="64.69093" lon="11.43977">
        <ele>31</ele>
        <time>2019-06-23T07:45:00Z</time>
      </trkpt>
      <trkpt lat="64.69248" lon="11.445">
        <ele>25</ele>
        <time>2019-06-23T07:45:21Z</time>
      </trkpt>
      <trkpt lat="64.69553" lon="11.45206">
        <ele>20</ele>
        <time>2019-06-23T07:45:41Z</time>
      </trkpt>
      <trkpt lat="64.697" lon="11.45218">
        <ele>14</ele>
        <time>2019-06-23T07:45:59Z</time>
      </trkpt>
      <trkpt lat="64.69832" lon="11.4496">
        <ele>13</ele>
        <time>2019-06-23T07:46:29Z</time>
      </trkpt>
      <trkpt lat="64.6997" lon="11.44927">
        <ele>18</ele>
        <time>2019-06-23T07:46:49Z</time>
      </trkpt>
      <trkpt lat="64.70034" lon="11.44847">
        <ele>22</ele>
        <time>2019-06-23T07:46:58Z</time>
      </trkpt>
      <trkpt lat="64.70085" lon="11.44757">
        <ele>27</ele>
        <time>2019-06-23T07:47:13Z</time>
      </trkpt>
      <trkpt lat="64.70152" lon="11.44433">
        <ele>31</ele>
        <time>2019-06-23T07:47:29Z</time>
      </trkpt>
      <trkpt lat="64.70323" lon="11.44182">
        <ele>35</ele>
        <time>2019-06-23T07:47:45Z</time>
      </trkpt>
      <trkpt lat="64.70369" lon="11.44136">
        <ele>40</ele>
        <time>2019-06-23T07:48:26Z</time>
      </trkpt>
      <trkpt lat="64.70413" lon="11.44138">
        <ele>44</ele>
        <time>2019-06-23T07:48:36Z</time>
      </trkpt>
      <trkpt lat="64.70472" lon="11.44237">
        <ele>46</ele>
        <time>2019-06-23T07:48:47Z</time>
      </trkpt>
      <trkpt lat="64.70555" lon="11.44542">
        <ele>45</ele>
        <time>2019-06-23T07:49:01Z</time>
      </trkpt>
      <trkpt lat="64.70706" lon="11.4548">
        <ele>44</ele>
        <time>2019-06-23T07:49:52Z</time>
      </trkpt>
      <trkpt lat="64.70823" lon="11.45973">
        <ele>43</ele>
        <time>2019-06-23T07:49:58Z</time>
      </trkpt>
      <trkpt lat="64.70961" lon="11.46225">
        <ele>42</ele>
        <time>2019-06-23T07:50:22Z</time>
      </trkpt>
      <trkpt lat="64.71183" lon="11.46551">
        <ele>41</ele>
        <time>2019-06-23T07:50:30Z</time>
      </trkpt>
      <trkpt lat="64.71311" lon="11.46889">
        <ele>40</ele>
        <time>2019-06-23T07:50:54Z</time>
      </trkpt>
      <trkpt lat="64.7143" lon="11.47127">
        <ele>39</ele>
        <time>2019-06-23T07:51:25Z</time>
      </trkpt>
      <trkpt lat="64.71819" lon="11.47616">
        <ele>38</ele>
        <time>2019-06-23T07:51:33Z</time>
      </trkpt>
      <trkpt lat="64.72071" lon="11.48305">
        <ele>36</ele>
        <time>2019-06-23T07:51:46Z</time>
      </trkpt>
      <trkpt lat="64.72247" lon="11.49453">
        <ele>33</ele>
        <time>2019-06-23T07:51:54Z</time>
      </trkpt>
      <trkpt lat="64.72312" lon="11.4975">
        <ele>30</ele>
        <time>2019-06-23T07:52:12Z</time>
      </trkpt>
      <trkpt lat="64.72551" lon="11.50763">
        <ele>27</ele>
        <time>2019-06-23T07:52:42Z</time>
      </trkpt>
      <trkpt lat="64.72696" lon="11.51245">
        <ele>24</ele>
        <time>2019-06-23T07:52:52Z</time>
      </trkpt>
      <trkpt lat="64.72806" lon="11.51831">
        <ele>21</ele>
        <time>2019-06-23T07:53:20Z</time>
      </trkpt>
      <trkpt lat="64.72914" lon="11.52152">
        <ele>18</ele>
        <time>2019-06-23T07:53:29Z</time>
      </trkpt>
      <trkpt lat="64.73069" lon="11.52465">
        <ele>16</ele>
        <time>2019-06-23T07:53:50Z</time>
      </trkpt>
      <trkpt lat="64.73204" lon="11.52546">
        <ele>15</ele>
        <time>2019-06-23T07:54:17Z</time>
      </trkpt>
      <trkpt lat="64.73359" lon="11.52435">
        <ele>19</ele>
        <time>2019-06-23T07:54:26Z</time>
      </trkpt>
      <trkpt lat="64.73477" lon="11.52427">
        <ele>22</ele>
        <time>2019-06-23T07:54:51Z</time>
      </trkpt>
      <trkpt lat="64.73648" lon="11.52893">
        <ele>25</ele>
        <time>2019-06-23T07:55:08Z</time>
      </trkpt>
      <trkpt lat="64.73899" lon="11.53751">
        <ele>29</ele>
        <time>2019-06-23T07:55:16Z</time>
      </trkpt>
      <trkpt lat="64.74108" lon="11.5416">
        <ele>32</ele>
        <time>2019-06-23T07:55:50Z</time>
      </trkpt>
      <trkpt lat="64.74163" lon="11.54208">
        <ele>36</ele>
        <time>2019-06-23T07:55:56Z</time>
      </trkpt>
      <trkpt lat="64.74382" lon="11.54286">
        <ele>39</ele>
        <time>2019-06-23T07:56:04Z</time>
      </trkpt>
      <trkpt lat="64.74451" lon="11.54291">
        <ele>41</ele>
        <time>2019-06-23T07:56:14Z</time>
      </trkpt>
      <trkpt lat="64.7462" lon="11.54198">
        <ele>39</ele>
        <time>2019-06-23T07:56:45Z</time>
      </trkpt>
      <trkpt lat="64.74758" lon="11.54258">
        <ele>37</ele>
        <time>2019-06-23T07:56:55Z</time>
      </trkpt>
      <trkpt lat="64.75056" lon="11.54449">
        <ele>35</ele>
        <time>2019-06-23T07:58:34Z</time>
      </trkpt>
      <trkpt lat="64.75256" lon="11.54804">
        <ele>33</ele>
        <time>2019-06-23T07:59:01Z</time>
      </trkpt>
      <trkpt lat="64.75289" lon="11.54941">
        <ele>31</ele>
        <time>2019-06-23T07:59:31Z</time>
      </trkpt>
      <trkpt lat="64.75006" lon="11.55989">
        <ele>29</ele>
        <time>2019-06-23T07:59:58Z</time>
      </trkpt>
      <trkpt lat="64.74959" lon="11.56089">
        <ele>27</ele>
        <time>2019-06-23T08:00:09Z</time>
      </trkpt>
      <trkpt lat="64.74892" lon="11.56442">
        <ele>25</ele>
        <time>2019-06-23T08:00:35Z</time>
      </trkpt>
      <trkpt lat="64.74895" lon="11.56534">
        <ele>24</ele>
        <time>2019-06-23T08:00:51Z</time>
      </trkpt>
      <trkpt lat="64.75067" lon="11.56928">
        <ele>22</ele>
        <time>2019-06-23T08:01:14Z</time>
      </trkpt>
      <trkpt lat="64.75235" lon="11.57157">
        <ele>21</ele>
        <time>2019-06-23T08:01:44Z</time>
      </trkpt>
      <trkpt lat="64.75425" lon="11.57499">
        <ele>19</ele>
        <time>2019-06-23T08:01:52Z</time>
      </trkpt>
      <trkpt lat="64.75326" lon="11.57318">
        <ele>18</ele>
        <time>2019-06-23T08:02:07Z</time>
      </trkpt>
      <trkpt lat="64.75424" lon="11.57509">
        <ele>17</ele>
        <time>2019-06-23T08:02:14Z</time>
      </trkpt>
      <trkpt lat="64.75476" lon="11.57683">
        <ele>15</ele>
        <time>2019-06-23T08:02:30Z</time>
      </trkpt>
      <trkpt lat="64.75699" lon="11.58012">
        <ele>14</ele>
        <time>2019-06-23T08:03:10Z</time>
      </trkpt>
      <trkpt lat="64.75748" lon="11.58125">
        <ele>13</ele>
        <time>2019-06-23T08:03:29Z</time>
      </trkpt>
      <trkpt lat="64.75806" lon="11.58662">
        <ele>18</ele>
        <time>2019-06-23T08:03:58Z</time>
      </trkpt>
      <trkpt lat="64.75871" lon="11.59002">
        <ele>22</ele>
        <time>2019-06-23T08:04:14Z</time>
      </trkpt>
      <trkpt lat="64.76066" lon="11.59528">
        <ele>26</ele>
        <time>2019-06-23T08:04:32Z</time>
      </trkpt>
      <trkpt lat="64.76138" lon="11.59829">
        <ele>31</ele>
        <time>2019-06-23T08:05:35Z</time>
      </trkpt>
      <trkpt lat="64.76395" lon="11.60574">
        <ele>35</ele>
        <time>2019-06-23T08:05:52Z</time>
      </trkpt>
      <trkpt lat="64.76431" lon="11.60635">
        <ele>40</ele>
        <time>2019-06-23T08:06:11Z</time>
      </trkpt>
      <trkpt lat="64.76585" lon="11.60757">
        <ele>44</ele>
        <time>2019-06-23T08:06:20Z</time>
      </trkpt>
      <trkpt lat="64.76686" lon="11.60983">
        <ele>47</ele>
        <time>2019-06-23T08:07:09Z</time>
      </trkpt>
      <trkpt lat="64.76758" lon="11.61414">
        <ele>42</ele>
        <time>2019-06-23T08:07:28Z</time>
      </trkpt>
      <trkpt lat="64.76755" lon="11.6207">
        <ele>37</ele>
        <time>2019-06-23T08:07:42Z</time>
      </trkpt>
      <trkpt lat="64.76814" lon="11.62348">
        <ele>32</ele>
        <time>2019-06-23T08:07:46Z</time>
      </trkpt>
      <trkpt lat="64.76837" lon="11.62285">
        <ele>27</ele>
        <time>2019-06-23T08:08:07Z</time>
      </trkpt>
      <trkpt lat="64.82751" lon="11.61397">
        <ele>22</ele>
        <time>2019-06-23T08:08:53Z</time>
      </trkpt>
      <trkpt lat="64.82775" lon="11.60896">
        <ele>17</ele>
        <time>2019-06-23T08:09:03Z</time>
      </trkpt>
      <trkpt lat="64.82574" lon="11.593">
        <ele>12</ele>
        <time>2019-06-23T08:09:14Z</time>
      </trkpt>
      <trkpt lat="64.82486" lon="11.58099">
        <ele>7</ele>
        <time>2019-06-23T08:09:20Z</time>
      </trkpt>
      <trkpt lat="64.82257" lon="11.56397">
        <ele>7</ele>
        <time>2019-06-23T08:09:45Z</time>
      </trkpt>
      <trkpt lat="64.82153" lon="11.55851">
        <ele>12</ele>
        <time>2019-06-23T08:10:15Z</time>
      </trkpt>
      <trkpt lat="64.82142" lon="11.54823">
        <ele>18</ele>
        <time>2019-06-23T08:10:26Z</time>
      </trkpt>
      <trkpt lat="64.81966" lon="11.53975">
        <ele>23</ele>
        <time>2019-06-23T08:10:49Z</time>
      </trkpt>
      <trkpt lat="64.81873" lon="11.5323">
        <ele>28</ele>
        <time>2019-06-23T08:11:01Z</time>
      </trkpt>
      <trkpt lat="64.81871" lon="11.52792">
        <ele>33</ele>
        <time>2019-06-23T08:11:29Z</time>
      </trkpt>
      <trkpt lat="64.81945" lon="11.52093">
        <ele>39</ele>
        <time>2019-06-23T08:12:02Z</time>
      </trkpt>
      <trkpt lat="64.81979" lon="11.51298">
        <ele>44</ele>
        <time>2019-06-23T08:12:19Z</time>
      </trkpt>
      <trkpt lat="64.82349" lon="11.49702">
        <ele>46</ele>
        <time>2019-06-23T08:12:30Z</time>
      </trkpt>
      <trkpt lat="64.82424" lon="11.49754">
        <ele>46</ele>
        <time>2019-06-23T08:12:35Z</time>
      </trkpt>
      <trkpt lat="64.82567" lon="11.49928">
        <ele>47</ele>
        <time>2019-06-23T08:12:38Z</time>
      </trkpt>
      <trkpt lat="64.82965" lon="11.50595">
        <ele>47</ele>
        <time>2019-06-23T08:13:25Z</time>
      </trkpt>
      <trkpt lat="64.83189" lon="11.50759">
        <ele>48</ele>
        <time>2019-06-23T08:13:46Z</time>
      </trkpt>
      <trkpt lat="64.83304" lon="11.50944">
        <ele>48</ele>
        <time>2019-06-23T08:13:55Z</time>
      </trkpt>
      <trkpt lat="64.83411" lon="11.51201">
        <ele>48</ele>
        <time>2019-06-23T08:14:11Z</time>
      </trkpt>
      <trkpt lat="64.83913" lon="11.51628">
        <ele>49</ele>
        <time>2019-06-23T08:15:06Z</time>
      </trkpt>
      <trkpt lat="64.8401" lon="11.51851">
        <ele>49</ele>
        <time>2019-06-23T08:15:16Z</time>
      </trkpt>
      <trkpt lat="64.84064" lon="11.51891">
        <ele>44</ele>
        <time>2019-06-23T08:15:32Z</time>
      </trkpt>
      <trkpt lat="64.8411" lon="11.51862">
        <ele>39</ele>
        <time>2019-06-23T08:15:40Z</time>
      </trkpt>
      <trkpt lat="64.84302" lon="11.51554">
        <ele>35</ele>
        <time>2019-06-23T08:16:02Z</time>
      </trkpt>
      <trkpt lat="64.8439" lon="11.5155">
        <ele>30</ele>
        <time>2019-06-23T08:16:33Z</time>
      </trkpt>
      <trkpt lat="64.84642" lon="11.51723">
        <ele>25</ele>
        <time>2019-06-23T08:16:51Z</time>
      </trkpt>
      <trkpt lat="64.8471" lon="11.52412">
        <ele>20</ele>
        <time>2019-06-23T08:17:21Z</time>
      </trkpt>
      <trkpt lat="64.84859" lon="11.53207">
        <ele>15</ele>
        <time>2019-06-23T08:17:31Z</time>
      </trkpt>
      <trkpt lat="64.85077" lon="11.5337">
        <ele>11</ele>
        <time>2019-06-23T08:17:38Z</time>
      </trkpt>
      <trkpt lat="64.85209" lon="11.53516">
        <ele>10</ele>
        <time>2019-06-23T08:18:16Z</time>
      </trkpt>
      <trkpt lat="64.85257" lon="11.53654">
        <ele>10</ele>
        <time>2019-06-23T08:18:24Z</time>
      </trkpt>
      <trkpt lat="64.85416" lon="11.53942">
        <ele>10</ele>
        <time>2019-06-23T08:18:38Z</time>
      </trkpt>
      <trkpt lat="64.855" lon="11.54345">
        <ele>10</ele>
        <time>2019-06-23T08:18:49Z</time>
      </trkpt>
      <trkpt lat="64.85631" lon="11.54739">
        <ele>10</ele>
        <time>2019-06-23T08:19:10Z</time>
      </trkpt>
      <trkpt lat="64.85752" lon="11.54913">
        <ele>10</ele>
        <time>2019-06-23T08:19:27Z</time>
      </trkpt>
      <trkpt lat="64.86105" lon="11.56317">
        <ele>10</ele>
        <time>2019-06-23T08:19:38Z</time>
      </trkpt>
      <trkpt lat="64.86385" lon="11.56931">
        <ele>10</ele>
        <time>2019-06-23T08:19:56Z</time>
      </trkpt>
      <trkpt lat="64.86442" lon="11.56972">
        <ele>10</ele>
        <time>2019-06-23T08:20:04Z</time>
      </trkpt>
      <trkpt lat="64.86521" lon="11.57093">
        <ele>15</ele>
        <time>2019-06-23T08:20:09Z</time>
      </trkpt>
      <trkpt lat="64.86661" lon="11.57825">
        <ele>20</ele>
        <time>2019-06-23T08:20:49Z</time>
      </trkpt>
      <trkpt lat="64.86771" lon="11.58726">
        <ele>25</ele>
        <time>2019-06-23T08:20:54Z</time>
      </trkpt>
      <trkpt lat="64.87044" lon="11.5876">
        <ele>30</ele>
        <time>2019-06-23T08:21:03Z</time>
      </trkpt>
      <trkpt lat="64.8715" lon="11.59072">
        <ele>35</ele>
        <time>2019-06-23T08:21:14Z</time>
      </trkpt>
      <trkpt lat="64.87216" lon="11.58925">
        <ele>40</ele>
        <time>2019-06-23T08:21:58Z</time>
      </trkpt>
      <trkpt lat="64.87218" lon="11.59002">
        <ele>46</ele>
        <time>2019-06-23T08:22:14Z</time>
      </trkpt>
      <trkpt lat="64.87216" lon="11.58983">
        <ele>50</ele>
        <time>2019-06-23T08:22:30Z</time>
      </trkpt>
      <trkpt lat="64.87133" lon="11.59054">
        <ele>53</ele>
        <time>2019-06-23T08:22:45Z</time>
      </trkpt>
      <trkpt lat="64.87105" lon="11.58882">
        <ele>56</ele>
        <time>2019-06-23T08:23:10Z</time>
      </trkpt>
      <trkpt lat="64.86971" lon="11.5875">
        <ele>58</ele>
        <time>2019-06-23T08:23:30Z</time>
      </trkpt>
      <trkpt lat="64.86823" lon="11.5873">
        <ele>61</ele>
        <time>2019-06-23T08:23:40Z</time>
      </trkpt>
      <trkpt lat="64.86771" lon="11.58757">
        <ele>64</ele>
        <time>2019-06-23T08:24:04Z</time>
      </trkpt>
      <trkpt lat="64.8676" lon="11.58976">
        <ele>67</ele>
        <time>2019-06-23T08:24:15Z</time>
      </trkpt>
      <trkpt lat="64.86677" lon="11.59493">
        <ele>69</ele>
        <time>2019-06-23T08:24:35Z</time>
      </trkpt>
      <trkpt lat="64.86569" lon="11.59694">
        <ele>72</ele>
        <time>2019-06-23T08:25:05Z</time>
      </trkpt>
      <trkpt lat="64.86596" lon="11.59648">
        <ele>73</ele>
        <time>2019-06-23T08:25:16Z</time>
      </trkpt>
      <trkpt lat="64.8657" lon="11.59622">
        <ele>72</ele>
        <time>2019-06-23T08:25:24Z</time>
      </trkpt>
      <trkpt lat="64.86503" lon="11.59851">
        <ele>71</ele>
        <time>2019-06-23T08:25:35Z</time>
      </trkpt>
      <trkpt lat="64.8651" lon="11.60149">
        <ele>70</ele>
        <time>2019-06-23T08:25:57Z</time>
      </trkpt>
      <trkpt lat="64.86593" lon="11.60424">
        <ele>69</ele>
        <time>2019-06-23T08:26:12Z</time>
      </trkpt>
      <trkpt lat="64.86491" lon="11.60511">
        <ele>68</ele>
        <time>2019-06-23T08:26:27Z</time>
      </trkpt>
      <trkpt lat="64.86456" lon="11.60506">
        <ele>67</ele>
        <time>2019-06-23T08:26:56Z</time>
      </trkpt>
      <trkpt lat="64.86444" lon="11.6054">
        <ele>66</ele>
        <time>2019-06-23T08:27:05Z</time>
      </trkpt>
      <trkpt lat="64.86493" lon="11.60473">
        <ele>65</ele>
        <time>2019-06-23T08:27:14Z</time>
      </trkpt>
      <trkpt lat="64.86495" lon="11.60504">
        <ele>68</ele>
        <time>2019-06-23T08:28:06Z</time>
      </trkpt>
      <trkpt lat="64.8665" lon="11.6044">
        <ele>71</ele>
        <time>2019-06-23T08:28:17Z</time>
      </trkpt>
      <trkpt lat="64.8671" lon="11.6048">
        <ele>75</ele>
        <time>2019-06-23T08:28:29Z</time>
      </trkpt>
      <trkpt lat="64.86748" lon="11.60573">
        <ele>78</ele>
        <time>2019-06-23T08:28:46Z</time>
      </trkpt>
      <trkpt lat="64.86802" lon="11.60955">
        <ele>81</ele>
        <time>2019-06-23T08:30:44Z</time>
      </trkpt>
      <trkpt lat="64.86941" lon="11.61203">
        <ele>84</ele>
        <time>2019-06-23T08:31:01Z</time>
      </trkpt>
      <trkpt lat="64.87034" lon="11.6157">
        <ele>88</ele>
        <time>2019-06-23T08:31:29Z</time>
      </trkpt>
      <trkpt lat="64.8715" lon="11.61837">
        <ele>91</ele>
        <time>2019-06-23T08:31:37Z</time>
      </trkpt>
      <trkpt lat="64.87183" lon="11.62471">
        <ele>89</ele>
        <time>2019-06-23T08:32:02Z</time>
      </trkpt>
      <trkpt lat="64.87346" lon="11.62919">
        <ele>87</ele>
        <time>2019-06-23T08:32:41Z</time>
      </trkpt>
      <trkpt lat="64.87564" lon="11.63365">
        <ele>85</ele>
        <time>2019-06-23T08:32:46Z</time>
      </trkpt>
      <trkpt lat="64.87727" lon="11.63879">
        <ele>82</ele>
        <time>2019-06-23T08:32:53Z</time>
      </trkpt>
      <trkpt lat="64.87819" lon="11.64042">
        <ele>80</ele>
        <time>2019-06-23T08:32:55Z</time>
      </trkpt>
      <trkpt lat="64.87852" lon="11.64275">
        <ele>78</ele>
        <time>2019-06-23T08:32:59Z</time>
      </trkpt>
      <trkpt lat="64.87828" lon="11.64451">
        <ele>76</ele>
        <time>2019-06-23T08:33:09Z</time>
      </trkpt>
      <trkpt lat="64.87684" lon="11.6471">
        <ele>74</ele>
        <time>2019-06-23T08:33:11Z</time>
      </trkpt>
      <trkpt lat="64.8765" lon="11.64902">
        <ele>73</ele>
        <time>2019-06-23T08:33:13Z</time>
      </trkpt>
      <trkpt lat="64.87741" lon="11.65842">
        <ele>72</ele>
        <time>2019-06-23T08:33:16Z</time>
      </trkpt>
      <trkpt lat="64.8786" lon="11.66137">
        <ele>71</ele>
        <time>2019-06-23T08:33:21Z</time>
      </trkpt>
      <trkpt lat="64.88213" lon="11.66605">
        <ele>69</ele>
        <time>2019-06-23T08:33:25Z</time>
      </trkpt>
      <trkpt lat="64.88432" lon="11.66954">
        <ele>68</ele>
        <time>2019-06-23T08:33:32Z</time>
      </trkpt>
      <trkpt lat="64.88829" lon="11.67363">
        <ele>67</ele>
        <time>2019-06-23T08:33:51Z</time>
      </trkpt>
      <trkpt lat="64.88966" lon="11.6737">
        <ele>66</ele>
        <time>2019-06-23T08:34:01Z</time>
      </trkpt>
      <trkpt lat="64.89047" lon="11.67407">
        <ele>64</ele>
        <time>2019-06-23T08:34:07Z</time>
      </trkpt>
      <trkpt lat="64.89378" lon="11.67774">
        <ele>63</ele>
        <time>2019-06-23T08:34:37Z</time>
      </trkpt>
      <trkpt lat="64.89442" lon="11.67882">
        <ele>56</ele>
        <time>2019-06-23T08:34:46Z</time>
      </trkpt>
      <trkpt lat="64.89625" lon="11.68533">
        <ele>48</ele>
        <time>2019-06-23T08:34:56Z</time>
      </trkpt>
      <trkpt lat="64.89681" lon="11.69101">
        <ele>40</ele>
        <time>2019-06-23T08:35:10Z</time>
      </trkpt>
      <trkpt lat="64.89807" lon="11.69923">
        <ele>32</ele>
        <time>2019-06-23T08:35:56Z</time>
      </trkpt>
      <trkpt lat="64.89886" lon="11.70341">
        <ele>25</ele>
        <time>2019-06-23T08:36:11Z</time>
      </trkpt>
      <trkpt lat="64.90017" lon="11.70671">
        <ele>17</ele>
        <time>2019-06-23T08:36:38Z</time>
      </trkpt>
      <trkpt lat="64.90104" lon="11.70976">
        <ele>9</ele>
        <time>2019-06-23T08:37:01Z</time>
      </trkpt>
      <trkpt lat="64.90316" lon="11.72222">
        <ele>1</ele>
        <time>2019-06-23T08:37:28Z</time>
      </trkpt>
      <trkpt lat="64.90581" lon="11.72826">
        <ele>1</ele>
        <time>2019-06-23T08:37:48Z</time>
      </trkpt>
      <trkpt lat="64.90762" lon="11.7352">
        <ele>1</ele>
        <time>2019-06-23T08:38:04Z</time>
      </trkpt>
      <trkpt lat="64.90814" lon="11.73459">
        <ele>1</ele>
        <time>2019-06-23T08:38:29Z</time>
      </trkpt>
      <trkpt lat="64.90805" lon="11.73189">
        <ele>2</ele>
        <time>2019-06-23T08:38:36Z</time>
      </trkpt>
      <trkpt lat="64.90902" lon="11.72986">
        <ele>2</ele>
        <time>2019-06-23T08:38:44Z</time>
      </trkpt>
      <trkpt lat="64.90901" lon="11.7289">
        <ele>2</ele>
        <time>2019-06-23T08:39:18Z</time>
      </trkpt>
      <trkpt lat="64.90784" lon="11.72141">
        <ele>3</ele>
        <time>2019-06-23T08:39:35Z</time>
      </trkpt>
      <trkpt lat="64.90799" lon="11.71323">
        <ele>3</ele>
        <time>2019-06-23T08:39:50Z</time>
      </trkpt>
      <trkpt lat="64.90713" lon="11.70812">
        <ele>3</ele>
        <time>2019-06-23T08:40:12Z</time>
      </trkpt>
      <trkpt lat="64.90716" lon="11.70587">
        <ele>5</ele>
        <time>2019-06-23T08:40:34Z</time>
      </trkpt>
      <trkpt lat="64.90782" lon="11.70113">
        <ele>6</ele>
        <time>2019-06-23T08:40:42Z</time>
      </trkpt>
      <trkpt lat="64.9086" lon="11.69937">
        <ele>7</ele>
        <time>2019-06-23T08:40:48Z</time>
      </trkpt>
      <trkpt lat="64.90913" lon="11.69919">
        <ele>9</ele>
        <time>2019-06-23T08:40:59Z</time>
      </trkpt>
      <trkpt lat="64.91018" lon="11.69937">
        <ele>10</ele>
        <time>2019-06-23T08:41:06Z</time>
      </trkpt>
      <trkpt lat="64.91046" lon="11.69971">
        <ele>12</ele>
        <time>2019-06-23T08:41:13Z</time>
      </trkpt>
      <trkpt lat="64.91206" lon="11.70517">
        <ele>13</ele>
        <time>2019-06-23T08:41:34Z</time>
      </trkpt>
      <trkpt lat="64.91463" lon="11.71119">
        <ele>15</ele>
        <time>2019-06-23T08:41:44Z</time>
      </trkpt>
      <trkpt lat="64.91655" lon="11.71484">
        <ele>17</ele>
        <time>2019-06-23T08:41:51Z</time>
      </trkpt>
      <trkpt lat="64.91729" lon="11.71546">
        <ele>19</ele>
        <time>2019-06-23T08:42:08Z</time>
      </trkpt>
      <trkpt lat="64.91978" lon="11.71888">
        <ele>21</ele>
        <time>2019-06-23T08:42:40Z</time>
      </trkpt>
      <trkpt lat="64.92109" lon="11.72233">
        <ele>23</ele>
        <time>2019-06-23T08:42:47Z</time>
      </trkpt>
      <trkpt lat="64.92216" lon="11.72342">
        <ele>25</ele>
        <time>2019-06-23T08:42:55Z</time>
      </trkpt>
      <trkpt lat="64.92374" lon="11.72915">
        <ele>28</ele>
        <time>2019-06-23T08:43:02Z</time>
      </trkpt>
      <trkpt lat="64.92433" lon="11.73315">
        <ele>30</ele>
        <time>2019-06-23T08:43:22Z</time>
      </trkpt>
      <trkpt lat="64.92564" lon="11.73841">
        <ele>32</ele>
        <time>2019-06-23T08:43:42Z</time>
      </trkpt>
      <trkpt lat="64.92642" lon="11.74047">
        <ele>32</ele>
        <time>2019-06-23T08:43:54Z</time>
      </trkpt>
      <trkpt lat="64.92765" lon="11.74644">
        <ele>36</ele>
        <time>2019-06-23T08:44:18Z</time>
      </trkpt>
      <trkpt lat="64.92813" lon="11.74786">
        <ele>39</ele>
        <time>2019-06-23T08:44:32Z</time>
      </trkpt>
      <trkpt lat="64.93002" lon="11.75136">
        <ele>42</ele>
        <time>2019-06-23T08:45:37Z</time>
      </trkpt>
      <trkpt lat="64.9314" lon="11.7551">
        <ele>46</ele>
        <time>2019-06-23T08:46:26Z</time>
      </trkpt>
      <trkpt lat="64.93264" lon="11.75741">
        <ele>49</ele>
        <time>2019-06-23T08:46:34Z</time>
      </trkpt>
      <trkpt lat="64.93434" lon="11.76337">
        <ele>52</ele>
        <time>2019-06-23T08:46:54Z</time>
      </trkpt>
      <trkpt lat="64.93617" lon="11.76658">
        <ele>56</ele>
        <time>2019-06-23T08:47:13Z</time>
      </trkpt>
      <trkpt lat="64.94073" lon="11.7682">
        <ele>58</ele>
        <time>2019-06-23T08:47:36Z</time>
      </trkpt>
      <trkpt lat="64.94281" lon="11.76728">
        <ele>60</ele>
        <time>2019-06-23T08:47:58Z</time>
      </trkpt>
      <trkpt lat="64.94445" lon="11.76796">
        <ele>62</ele>
        <time>2019-06-23T08:48:19Z</time>
      </trkpt>
      <trkpt lat="64.94562" lon="11.76803">
        <ele>64</ele>
        <time>2019-06-23T08:48:42Z</time>
      </trkpt>
      <trkpt lat="64.94607" lon="11.76874">
        <ele>67</ele>
        <time>2019-06-23T08:48:51Z</time>
      </trkpt>
      <trkpt lat="64.94689" lon="11.77227">
        <ele>69</ele>
        <time>2019-06-23T08:49:06Z</time>
      </trkpt>
      <trkpt lat="64.94846" lon="11.77666">
        <ele>71</ele>
        <time>2019-06-23T08:49:46Z</time>
      </trkpt>
      <trkpt lat="64.94992" lon="11.77894">
        <ele>74</ele>
        <time>2019-06-23T08:49:58Z</time>
      </trkpt>
      <trkpt lat="64.95131" lon="11.77982">
        <ele>76</ele>
        <time>2019-06-23T08:50:09Z</time>
      </trkpt>
      <trkpt lat="64.95328" lon="11.78306">
        <ele>75</ele>
        <time>2019-06-23T08:50:26Z</time>
      </trkpt>
      <trkpt lat="64.9536" lon="11.78321">
        <ele>74</ele>
        <time>2019-06-23T08:50:52Z</time>
      </trkpt>
      <trkpt lat="64.95407" lon="11.78232">
        <ele>74</ele>
        <time>2019-06-23T08:51:10Z</time>
      </trkpt>
      <trkpt lat="64.95434" lon="11.78051">
        <ele>73</ele>
        <time>2019-06-23T08:51:23Z</time>
      </trkpt>
      <trkpt lat="64.95579" lon="11.78048">
        <ele>73</ele>
        <time>2019-06-23T08:51:33Z</time>
      </trkpt>
      <trkpt lat="64.95878" lon="11.78328">
        <ele>72</ele>
        <time>2019-06-23T08:52:35Z</time>
      </trkpt>
      <trkpt lat="64.95992" lon="11.78535">
        <ele>71</ele>
        <time>2019-06-23T08:52:56Z</time>
      </trkpt>
      <trkpt lat="64.96096" lon="11.78611">
        <ele>71</ele>
        <time>2019-06-23T08:53:03Z</time>
      </trkpt>
      <trkpt lat="64.96217" lon="11.78845">
        <ele>70</ele>
        <time>2019-06-23T08:53:14Z</time>
      </trkpt>
      <trkpt lat="64.96371" lon="11.79456">
        <ele>71</ele>
        <time>2019-06-23T08:53:22Z</time>
      </trkpt>
      <trkpt lat="64.96501" lon="11.79784">
        <ele>71</ele>
        <time>2019-06-23T08:53:29Z</time>
      </trkpt>
      <trkpt lat="64.9679" lon="11.80983">
        <ele>71</ele>
        <time>2019-06-23T08:54:10Z</time>
      </trkpt>
      <trkpt lat="64.9693" lon="11.811">
        <ele>71</ele>
        <time>2019-06-23T08:54:17Z</time>
      </trkpt>
      <trkpt lat="64.96959" lon="11.81104">
        <ele>71</ele>
        <time>2019-06-23T08:54:27Z</time>
      </trkpt>
      <trkpt lat="64.97003" lon="11.81005">
        <ele>71</ele>
        <time>2019-06-23T08:54:38Z</time>
      </trkpt>
      <trkpt lat="64.97018" lon="11.80807">
        <ele>71</ele>
        <time>2019-06-23T08:55:20Z</time>
      </trkpt>
      <trkpt lat="64.97079" lon="11.80649">
        <ele>71</ele>
        <time>2019-06-23T08:55:46Z</time>
      </trkpt>
      <trkpt lat="64.97238" lon="11.80481">
        <ele>64</ele>
        <time>2019-06-23T08:56:03Z</time>
      </trkpt>
      <trkpt lat="64.97402" lon="11.80162">
        <ele>57</ele>
        <time>2019-06-23T08:56:22Z</time>
      </trkpt>
      <trkpt lat="64.97437" lon="11.79856">
        <ele>49</ele>
        <time>2019-06-23T08:56:34Z</time>
      </trkpt>
      <trkpt lat="64.97522" lon="11.79792">
        <ele>42</ele>
        <time>2019-06-23T08:56:45Z</time>
      </trkpt>
      <trkpt lat="64.97665" lon="11.79797">
        <ele>35</ele>
        <time>2019-06-23T08:57:23Z</time>
      </trkpt>
      <trkpt lat="64.97838" lon="11.7996">
        <ele>27</ele>
        <time>2019-06-23T08:57:38Z</time>
      </trkpt>
      <trkpt lat="64.97948" lon="11.79956">
        <ele>20</ele>
        <time>2019-06-23T08:57:47Z</time>
      </trkpt>
      <trkpt lat="64.98086" lon="11.80002">
        <ele>13</ele>
        <time>2019-06-23T08:58:02Z</time>
      </trkpt>
      <trkpt lat="64.98256" lon="11.79645">
        <ele>13</ele>
        <time>2019-06-23T08:58:36Z</time>
      </trkpt>
      <trkpt lat="64.98268" lon="11.79557">
        <ele>11</ele>
        <time>2019-06-23T08:58:44Z</time>
      </trkpt>
      <trkpt lat="64.98186" lon="11.78863">
        <ele>9</ele>
        <time>2019-06-23T08:59:00Z</time>
      </trkpt>
      <trkpt lat="64.98183" lon="11.7846">
        <ele>8</ele>
        <time>2019-06-23T08:59:22Z</time>
      </trkpt>
      <trkpt lat="64.98042" lon="11.77685">
        <ele>6</ele>
        <time>2019-06-23T08:59:58Z</time>
      </trkpt>
      <trkpt lat="64.98001" lon="11.77236">
        <ele>5</ele>
        <time>2019-06-23T09:00:29Z</time>
      </trkpt>
      <trkpt lat="64.98091" lon="11.76887">
        <ele>3</ele>
        <time>2019-06-23T09:00:53Z</time>
      </trkpt>
      <trkpt lat="64.98243" lon="11.7661">
        <ele>2</ele>
        <time>2019-06-23T09:01:07Z</time>
      </trkpt>
      <trkpt lat="64.9842" lon="11.75892">
        <ele>1</ele>
        <time>2019-06-23T09:01:15Z</time>
      </trkpt>
      <trkpt lat="64.9848" lon="11.7585">
        <ele>11</ele>
        <time>2019-06-23T09:01:18Z</time>
      </trkpt>
      <trkpt lat="64.98587" lon="11.75845">
        <ele>20</ele>
        <time>2019-06-23T09:09:53Z</time>
      </trkpt>
      <trkpt lat="64.9863" lon="11.75876">
        <ele>29</ele>
        <time>2019-06-23T09:10:00Z</time>
      </trkpt>
      <trkpt lat="64.98671" lon="11.76006">
        <ele>39</ele>
        <time>2019-06-23T09:10:06Z</time>
      </trkpt>
      <trkpt lat="64.98699" lon="11.76346">
        <ele>48</ele>
        <time>2019-06-23T09:10:34Z</time>
      </trkpt>
      <trkpt lat="64.98841" lon="11.76662">
        <ele>57</ele>
        <time>2019-06-23T09:10:56Z</time>
      </trkpt>
      <trkpt lat="64.99064" lon="11.77736">
        <ele>67</ele>
        <time>2019-06-23T09:11:08Z</time>
      </trkpt>
      <trkpt lat="64.99101" lon="11.78056">
        <ele>74</ele>
        <time>2019-06-23T09:11:27Z</time>
      </trkpt>
      <trkpt lat="64.99041" lon="11.78733">
        <ele>68</ele>
        <time>2019-06-23T09:12:02Z</time>
      </trkpt>
      <trkpt lat="64.99062" lon="11.78854">
        <ele>61</ele>
        <time>2019-06-23T09:12:24Z</time>
      </trkpt>
      <trkpt lat="64.99251" lon="11.79355">
        <ele>55</ele>
        <time>2019-06-23T09:12:32Z</time>
      </trkpt>
      <trkpt lat="64.99292" lon="11.79442">
        <ele>49</ele>
        <time>2019-06-23T09:13:09Z</time>
      </trkpt>
      <trkpt lat="64.99363" lon="11.79498">
        <ele>42</ele>
        <time>2019-06-23T09:13:20Z</time>
      </trkpt>
      <trkpt lat="64.9955" lon="11.79775">
        <ele>36</ele>
        <time>2019-06-23T09:13:27Z</time>
      </trkpt>
      <trkpt lat="64.99676" lon="11.79884">
        <ele>30</ele>
        <time>2019-06-23T09:13:42Z</time>
      </trkpt>
      <trkpt lat="64.99854" lon="11.79911">
        <ele>24</ele>
        <time>2019-06-23T09:14:27Z</time>
      </trkpt>
      <trkpt lat="64.99931" lon="11.79882">
        <ele>23</ele>
        <time>2019-06-23T09:14:39Z</time>
      </trkpt>
      <trkpt lat="65.00124" lon="11.79725">
        <ele>22</ele>
        <time>2019-06-23T09:14:48Z</time>
      </trkpt>
      <trkpt lat="65.00251" lon="11.79853">
        <ele>22</ele>
        <time>2019-06-23T09:14:59Z</time>
      </trkpt>
      <trkpt lat="65.00331" lon="11.79765">
        <ele>22</ele>
        <time>2019-06-23T09:15:08Z</time>
      </trkpt>
      <trkpt lat="65.00411" lon="11.79746">
        <ele>22</ele>
        <time>2019-06-23T09:15:16Z</time>
      </trkpt>
      <trkpt lat="65.00526" lon="11.79909">
        <ele>22</ele>
        <time>2019-06-23T09:15:28Z</time>
      </trkpt>
      <trkpt lat="65.00794" lon="11.80389">
        <ele>22</ele>
        <time>2019-06-23T09:16:02Z</time>
      </trkpt>
      <trkpt lat="65.00957" lon="11.80602">
        <ele>22</ele>
        <time>2019-06-23T09:16:14Z</time>
      </trkpt>
      <trkpt lat="65.01036" lon="11.8067">
        <ele>22</ele>
        <time>2019-06-23T09:16:27Z</time>
      </trkpt>
      <trkpt lat="65.0128" lon="11.8159">
        <ele>22</ele>
        <time>2019-06-23T09:17:14Z</time>
      </trkpt>
      <trkpt lat="65.01473" lon="11.82083">
        <ele>22</ele>
        <time>2019-06-23T09:17:31Z</time>
      </trkpt>
      <trkpt lat="65.01726" lon="11.82866">
        <ele>23</ele>
        <time>2019-06-23T09:17:45Z</time>
      </trkpt>
      <trkpt lat="65.01775" lon="11.83415">
        <ele>23</ele>
        <time>2019-06-23T09:18:06Z</time>
      </trkpt>
      <trkpt lat="65.01982" lon="11.84008">
        <ele>23</ele>
        <time>2019-06-23T09:18:22Z</time>
      </trkpt>
      <trkpt lat="65.02066" lon="11.84183">
        <ele>23</ele>
        <time>2019-06-23T09:18:49Z</time>
      </trkpt>
      <trkpt lat="65.02202" lon="11.8438">
        <ele>24</ele>
        <time>2019-06-23T09:19:12Z</time>
      </trkpt>
      <trkpt lat="65.03469" lon="11.86865">
        <ele>24</ele>
        <time>2019-06-23T09:19:37Z</time>
      </trkpt>
      <trkpt lat="65.03637" lon="11.87436">
        <ele>27</ele>
        <time>2019-06-23T09:19:59Z</time>
      </trkpt>
      <trkpt lat="65.04182" lon="11.88852">
        <ele>30</ele>
        <time>2019-06-23T09:20:16Z</time>
      </trkpt>
      <trkpt lat="65.04315" lon="11.89099">
        <ele>34</ele>
        <time>2019-06-23T09:20:59Z</time>
      </trkpt>
      <trkpt lat="65.04398" lon="11.89313">
        <ele>37</ele>
        <time>2019-06-23T09:21:27Z</time>
      </trkpt>
      <trkpt lat="65.04461" lon="11.89336">
        <ele>40</ele>
        <time>2019-06-23T09:21:42Z</time>
      </trkpt>
      <trkpt lat="65.04587" lon="11.89289">
        <ele>44</ele>
        <time>2019-06-23T09:21:57Z</time>
      </trkpt>
      <trkpt lat="65.04646" lon="11.89368">
        <ele>47</ele>
        <time>2019-06-23T09:22:38Z</time>
      </trkpt>
      <trkpt lat="65.04815" lon="11.89895">
        <ele>50</ele>
        <time>2019-06-23T09:22:46Z</time>
      </trkpt>
      <trkpt lat="65.05058" lon="11.90821">
        <ele>51</ele>
        <time>2019-06-23T09:23:01Z</time>
      </trkpt>
      <trkpt lat="65.05297" lon="11.91334">
        <ele>49</ele>
        <time>2019-06-23T09:23:12Z</time>
      </trkpt>
      <trkpt lat="65.05462" lon="11.91814">
        <ele>47</ele>
        <time>2019-06-23T09:23:37Z</time>
      </trkpt>
      <trkpt lat="65.05662" lon="11.92296">
        <ele>45</ele>
        <time>2019-06-23T09:23:56Z</time>
      </trkpt>
      <trkpt lat="65.05651" lon="11.93159">
        <ele>43</ele>
        <time>2019-06-23T09:24:13Z</time>
      </trkpt>
      <trkpt lat="65.05724" lon="11.93477">
        <ele>40</ele>
        <time>2019-06-23T09:24:39Z</time>
      </trkpt>
      <trkpt lat="65.05879" lon="11.93826">
        <ele>38</ele>
        <time>2019-06-23T09:24:48Z</time>
      </trkpt>
      <trkpt lat="65.05914" lon="11.94423">
        <ele>36</ele>
        <time>2019-06-23T09:25:01Z</time>
      </trkpt>
      <trkpt lat="65.05891" lon="11.94981">
        <ele>35</ele>
        <time>2019-06-23T09:25:46Z</time>
      </trkpt>
      <trkpt lat="65.05935" lon="11.95134">
        <ele>32</ele>
        <time>2019-06-23T09:25:55Z</time>
      </trkpt>
      <trkpt lat="65.06041" lon="11.95297">
        <ele>29</ele>
        <time>2019-06-23T09:26:05Z</time>
      </trkpt>
      <trkpt lat="65.0635" lon="11.95448">
        <ele>26</ele>
        <time>2019-06-23T09:26:19Z</time>
      </trkpt>
      <trkpt lat="65.0645" lon="11.95394">
        <ele>23</ele>
        <time>2019-06-23T09:26:39Z</time>
      </trkpt>
      <trkpt lat="65.06836" lon="11.95086">
        <ele>20</ele>
        <time>2019-06-23T09:27:02Z</time>
      </trkpt>
      <trkpt lat="65.07038" lon="11.95022">
        <ele>17</ele>
        <time>2019-06-23T09:27:16Z</time>
      </trkpt>
      <trkpt lat="65.07076" lon="11.95033">
        <ele>14</ele>
        <time>2019-06-23T09:27:29Z</time>
      </trkpt>
      <trkpt lat="65.07193" lon="11.95218">
        <ele>11</ele>
        <time>2019-06-23T09:27:43Z</time>
      </trkpt>
      <trkpt lat="65.07417" lon="11.95353">
        <ele>11</ele>
        <time>2019-06-23T09:27:51Z</time>
      </trkpt>
      <trkpt lat="65.07456" lon="11.95423">
        <ele>15</ele>
        <time>2019-06-23T09:28:12Z</time>
      </trkpt>
      <trkpt lat="65.07488" lon="11.95564">
        <ele>19</ele>
        <time>2019-06-23T09:28:26Z</time>
      </trkpt>
      <trkpt lat="65.07515" lon="11.95948">
        <ele>23</ele>
        <time>2019-06-23T09:28:36Z</time>
      </trkpt>
      <trkpt lat="65.07745" lon="11.96772">
        <ele>28</ele>
        <time>2019-06-23T09:28:43Z</time>
      </trkpt>
      <trkpt lat="65.0863" lon="12.01108">
        <ele>32</ele>
        <time>2019-06-23T09:30:48Z</time>
      </trkpt>
      <trkpt lat="65.08716" lon="12.0163">
        <ele>36</ele>
        <time>2019-06-23T09:30:55Z</time>
      </trkpt>
      <trkpt lat="65.08727" lon="12.01873">
        <ele>40</ele>
        <time>2019-06-23T09:31:06Z</time>
      </trkpt>
      <trkpt lat="65.08706" lon="12.02142">
        <ele>42</ele>
        <time>2019-06-23T09:31:26Z</time>
      </trkpt>
      <trkpt lat="65.08544" lon="12.03128">
        <ele>38</ele>
        <time>2019-06-23T09:31:53Z</time>
      </trkpt>
      <trkpt lat="65.08403" lon="12.03348">
        <ele>33</ele>
        <time>2019-06-23T09:32:15Z</time>
      </trkpt>
      <trkpt lat="65.08012" lon="12.03538">
        <ele>29</ele>
        <time>2019-06-23T09:32:39Z</time>
      </trkpt>
      <trkpt lat="65.07864" lon="12.03826">
        <ele>25</ele>
        <time>2019-06-23T09:33:04Z</time>
      </trkpt>
      <trkpt lat="65.07793" lon="12.03877">
        <ele>20</ele>
        <time>2019-06-23T09:33:16Z</time>
      </trkpt>
      <trkpt lat="65.07632" lon="12.0392">
        <ele>16</ele>
        <time>2019-06-23T09:33:25Z</time>
      </trkpt>
      <trkpt lat="65.07587" lon="12.0405">
        <ele>12</ele>
        <time>2019-06-23T09:34:05Z</time>
      </trkpt>
      <trkpt lat="65.0755" lon="12.04353">
        <ele>9</ele>
        <time>2019-06-23T09:34:26Z</time>
      </trkpt>
      <trkpt lat="65.07548" lon="12.04862">
        <ele>11</ele>
        <time>2019-06-23T09:34:41Z</time>
      </trkpt>
      <trkpt lat="65.07588" lon="12.05373">
        <ele>13</ele>
        <time>2019-06-23T09:34:56Z</time>
      </trkpt>
      <trkpt lat="65.07597" lon="12.05956">
        <ele>16</ele>
        <time>2019-06-23T09:35:20Z</time>
      </trkpt>
      <trkpt lat="65.07631" lon="12.0627">
        <ele>18</ele>
        <time>2019-06-23T09:35:58Z</time>
      </trkpt>
      <trkpt lat="65.07711" lon="12.06533">
        <ele>21</ele>
        <time>2019-06-23T09:36:17Z</time>
      </trkpt>
      <trkpt lat="65.07765" lon="12.06879">
        <ele>23</ele>
        <time>2019-06-23T09:36:36Z</time>
      </trkpt>
      <trkpt lat="65.07774" lon="12.07308">
        <ele>25</ele>
        <time>2019-06-23T09:36:46Z</time>
      </trkpt>
      <trkpt lat="65.07659" lon="12.07862">
        <ele>28</ele>
        <time>2019-06-23T09:36:58Z</time>
      </trkpt>
      <trkpt lat="65.07594" lon="12.08674">
        <ele>28</ele>
        <time>2019-06-23T09:37:35Z</time>
      </trkpt>
      <trkpt lat="65.07705" lon="12.09095">
        <ele>39</ele>
        <time>2019-06-23T09:37:55Z</time>
      </trkpt>
      <trkpt lat="65.0776" lon="12.09216">
        <ele>49</ele>
        <time>2019-06-23T09:38:07Z</time>
      </trkpt>
      <trkpt lat="65.07829" lon="12.0925">
        <ele>60</ele>
        <time>2019-06-23T09:38:15Z</time>
      </trkpt>
      <trkpt lat="65.07868" lon="12.09244">
        <ele>70</ele>
        <time>2019-06-23T09:38:48Z</time>
      </trkpt>
      <trkpt lat="65.07999" lon="12.09145">
        <ele>81</ele>
        <time>2019-06-23T09:39:02Z</time>
      </trkpt>
      <trkpt lat="65.0819" lon="12.08903">
        <ele>91</ele>
        <time>2019-06-23T09:39:11Z</time>
      </trkpt>
      <trkpt lat="65.08347" lon="12.08862">
        <ele>102</ele>
        <time>2019-06-23T09:39:23Z</time>
      </trkpt>
      <trkpt lat="65.08329" lon="12.08861">
        <ele>107</ele>
        <time>2019-06-23T09:39:45Z</time>
      </trkpt>
      <trkpt lat="65.08349" lon="12.08896">
        <ele>116</ele>
        <time>2019-06-23T09:40:05Z</time>
      </trkpt>
      <trkpt lat="65.08432" lon="12.08834">
        <ele>125</ele>
        <time>2019-06-23T09:40:19Z</time>
      </trkpt>
      <trkpt lat="65.08528" lon="12.08713">
        <ele>135</ele>
        <time>2019-06-23T09:40:43Z</time>
      </trkpt>
      <trkpt lat="65.08641" lon="12.08623">
        <ele>144</ele>
        <time>2019-06-23T09:40:49Z</time>
      </trkpt>
      <trkpt lat="65.08757" lon="12.08373">
        <ele>153</ele>
        <time>2019-06-23T09:41:28Z</time>
      </trkpt>
      <trkpt lat="65.08859" lon="12.08312">
        <ele>163</ele>
        <time>2019-06-23T09:42:07Z</time>
      </trkpt>
      <trkpt lat="65.08937" lon="12.08353">
        <ele>172</ele>
        <time>2019-06-23T09:42:22Z</time>
      </trkpt>
      <trkpt lat="65.09192" lon="12.08622">
        <ele>180</ele>
        <time>2019-06-23T09:42:31Z</time>
      </trkpt>
      <trkpt lat="65.09688" lon="12.08746">
        <ele>170</ele>
        <time>2019-06-23T09:42:45Z</time>
      </trkpt>
      <trkpt lat="65.09766" lon="12.08816">
        <ele>159</ele>
        <time>2019-06-23T09:43:11Z</time>
      </trkpt>
      <trkpt lat="65.09914" lon="12.09104">
        <ele>149</ele>
        <time>2019-06-23T09:43:40Z</time>
      </trkpt>
      <trkpt lat="65.09992" lon="12.09209">
        <ele>139</ele>
        <time>2019-06-23T09:44:06Z</time>
      </trkpt>
      <trkpt lat="65.10056" lon="12.09252">
        <ele>129</ele>
        <time>2019-06-23T09:44:20Z</time>
      </trkpt>
      <trkpt lat="65.10405" lon="12.09271">
        <ele>118</ele>
        <time>2019-06-23T09:44:27Z</time>
      </trkpt>
      <trkpt lat="65.10449" lon="12.09233">
        <ele>108</ele>
        <time>2019-06-23T09:44:30Z</time>
      </trkpt>
      <trkpt lat="65.10546" lon="12.09045">
        <ele>98</ele>
        <time>2019-06-23T09:45:16Z</time>
      </trkpt>
      <trkpt lat="65.10576" lon="12.0902">
        <ele>96</ele>
        <time>2019-06-23T09:45:29Z</time>
      </trkpt>
      <trkpt lat="65.10634" lon="12.09044">
        <ele>86</ele>
        <time>2019-06-23T09:45:38Z</time>
      </trkpt>
      <trkpt lat="65.10695" lon="12.09228">
        <ele>77</ele>
        <time>2019-06-23T09:45:45Z</time>
      </trkpt>
      <trkpt lat="65.10797" lon="12.09915">
        <ele>68</ele>
        <time>2019-06-23T09:46:26Z</time>
      </trkpt>
      <trkpt lat="65.10831" lon="12.10003">
        <ele>59</ele>
        <time>2019-06-23T09:46:31Z</time>
      </trkpt>
      <trkpt lat="65.10983" lon="12.10279">
        <ele>50</ele>
        <time>2019-06-23T09:46:39Z</time>
      </trkpt>
      <trkpt lat="65.11257" lon="12.10666">
        <ele>41</ele>
        <time>2019-06-23T09:46:59Z</time>
      </trkpt>
      <trkpt lat="65.11426" lon="12.1103">
        <ele>32</ele>
        <time>2019-06-23T09:47:28Z</time>
      </trkpt>
      <trkpt lat="65.11543" lon="12.11381">
        <ele>27</ele>
        <time>2019-06-23T09:47:46Z</time>
      </trkpt>
      <trkpt lat="65.11645" lon="12.11931">
        <ele>24</ele>
        <time>2019-06-23T09:48:05Z</time>
      </trkpt>
      <trkpt lat="65.11661" lon="12.12338">
        <ele>22</ele>
        <time>2019-06-23T09:48:27Z</time>
      </trkpt>
      <trkpt lat="65.11968" lon="12.13387">
        <ele>20</ele>
        <time>2019-06-23T09:48:49Z</time>
      </trkpt>
      <trkpt lat="65.12076" lon="12.1365">
        <ele>18</ele>
        <time>2019-06-23T09:48:53Z</time>
      </trkpt>
      <trkpt lat="65.12192" lon="12.14112">
        <ele>15</ele>
        <time>2019-06-23T09:49:34Z</time>
      </trkpt>
      <trkpt lat="65.1221" lon="12.14287">
        <ele>13</ele>
        <time>2019-06-23T09:49:50Z</time>
      </trkpt>
      <trkpt lat="65.12165" lon="12.14805">
        <ele>11</ele>
        <time>2019-06-23T09:49:59Z</time>
      </trkpt>
      <trkpt lat="65.12185" lon="12.1509">
        <ele>9</ele>
        <time>2019-06-23T09:50:40Z</time>
      </trkpt>
      <trkpt lat="65.12176" lon="12.16168">
        <ele>10</ele>
        <time>2019-06-23T09:50:48Z</time>
      </trkpt>
      <trkpt lat="65.12085" lon="12.16817">
        <ele>10</ele>
        <time>2019-06-23T09:51:05Z</time>
      </trkpt>
      <trkpt lat="65.12142" lon="12.16968">
        <ele>11</ele>
        <time>2019-06-23T09:51:11Z</time>
      </trkpt>
      <trkpt lat="65.12231" lon="12.16927">
        <ele>12</ele>
        <time>2019-06-23T09:51:20Z</time>
      </trkpt>
      <trkpt lat="65.12329" lon="12.16724">
        <ele>13</ele>
        <time>2019-06-23T09:51:30Z</time>
      </trkpt>
      <trkpt lat="65.1247" lon="12.16593">
        <ele>13</ele>
        <time>2019-06-23T09:51:39Z</time>
      </trkpt>
      <trkpt lat="65.12512" lon="12.16516">
        <ele>14</ele>
        <time>2019-06-23T09:52:02Z</time>
      </trkpt>
      <trkpt lat="65.12588" lon="12.16134">
        <ele>15</ele>
        <time>2019-06-23T09:52:12Z</time>
      </trkpt>
      <trkpt lat="65.12726" lon="12.15958">
        <ele>15</ele>
        <time>2019-06-23T09:52:15Z</time>
      </trkpt>
      <trkpt lat="65.12756" lon="12.15975">
        <ele>17</ele>
        <time>2019-06-23T09:52:20Z</time>
      </trkpt>
      <trkpt lat="65.12851" lon="12.15657">
        <ele>19</ele>
        <time>2019-06-23T09:52:38Z</time>
      </trkpt>
      <trkpt lat="65.12558" lon="12.1389">
        <ele>20</ele>
        <time>2019-06-23T09:52:45Z</time>
      </trkpt>
      <trkpt lat="65.12527" lon="12.13308">
        <ele>22</ele>
        <time>2019-06-23T09:52:55Z</time>
      </trkpt>
      <trkpt lat="65.12474" lon="12.12925">
        <ele>24</ele>
        <time>2019-06-23T09:53:11Z</time>
      </trkpt>
      <trkpt lat="65.12431" lon="12.12071">
        <ele>26</ele>
        <time>2019-06-23T09:53:31Z</time>
      </trkpt>
      <trkpt lat="65.12446" lon="12.11835">
        <ele>27</ele>
        <time>2019-06-23T09:54:00Z</time>
      </trkpt>
      <trkpt lat="65.12497" lon="12.11711">
        <ele>29</ele>
        <time>2019-06-23T09:54:20Z</time>
      </trkpt>
      <trkpt lat="65.12819" lon="12.11629">
        <ele>27</ele>
        <time>2019-06-23T09:54:53Z</time>
      </trkpt>
      <trkpt lat="65.13005" lon="12.11807">
        <ele>25</ele>
        <time>2019-06-23T09:55:21Z</time>
      </trkpt>
      <trkpt lat="65.13066" lon="12.1183">
        <ele>23</ele>
        <time>2019-06-23T09:55:52Z</time>
      </trkpt>
      <trkpt lat="65.13662" lon="12.11693">
        <ele>21</ele>
        <time>2019-06-23T09:56:38Z</time>
      </trkpt>
      <trkpt lat="65.13836" lon="12.11701">
        <ele>19</ele>
        <time>2019-06-23T09:57:02Z</time>
      </trkpt>
      <trkpt lat="65.14107" lon="12.11791">
        <ele>17</ele>
        <time>2019-06-23T09:57:11Z</time>
      </trkpt>
      <trkpt lat="65.1424" lon="12.11807">
        <ele>15</ele>
        <time>2019-06-23T09:57:28Z</time>
      </trkpt>
      <trkpt lat="65.14492" lon="12.11636">
        <ele>13</ele>
        <time>2019-06-23T09:57:48Z</time>
      </trkpt>
      <trkpt lat="65.14866" lon="12.11569">
        <ele>13</ele>
        <time>2019-06-23T09:58:06Z</time>
      </trkpt>
      <trkpt lat="65.14992" lon="12.11573">
        <ele>14</ele>
        <time>2019-06-23T09:58:18Z</time>
      </trkpt>
      <trkpt lat="65.15541" lon="12.12071">
        <ele>14</ele>
        <time>2019-06-23T09:58:31Z</time>
      </trkpt>
      <trkpt lat="65.15702" lon="12.1212">
        <ele>14</ele>
        <time>2019-06-23T09:58:44Z</time>
      </trkpt>
      <trkpt lat="65.15945" lon="12.11984">
        <ele>15</ele>
        <time>2019-06-23T09:58:55Z</time>
      </trkpt>
      <trkpt lat="65.16024" lon="12.11902">
        <ele>15</ele>
        <time>2019-06-23T09:59:28Z</time>
      </trkpt>
      <trkpt lat="65.16104" lon="12.11872">
        <ele>16</ele>
        <time>2019-06-23T09:59:42Z</time>
      </trkpt>
      <trkpt lat="65.16524" lon="12.11829">
        <ele>16</ele>
        <time>2019-06-23T09:59:51Z</time>
      </trkpt>
      <trkpt lat="65.1674" lon="12.11712">
        <ele>16</ele>
        <time>2019-06-23T09:59:57Z</time>
      </trkpt>
      <trkpt lat="65.16831" lon="12.11715">
        <ele>16</ele>
        <time>2019-06-23T10:00:30Z</time>
      </trkpt>
      <trkpt lat="65.16964" lon="12.1163">
        <ele>15</ele>
        <time>2019-06-23T10:00:38Z</time>
      </trkpt>
      <trkpt lat="65.17348" lon="12.11571">
        <ele>15</ele>
        <time>2019-06-23T10:00:46Z</time>
      </trkpt>
      <trkpt lat="65.18109" lon="12.12369">
        <ele>14</ele>
        <time>2019-06-23T10:00:55Z</time>
      </trkpt>
      <trkpt lat="65.18269" lon="12.12445">
        <ele>14</ele>
        <time>2019-06-23T10:01:13Z</time>
      </trkpt>
      <trkpt lat="65.18345" lon="12.12412">
        <ele>13</ele>
        <time>2019-06-23T10:01:31Z</time>
      </trkpt>
      <trkpt lat="65.18434" lon="12.12248">
        <ele>13</ele>
        <time>2019-06-23T10:01:40Z</time>
      </trkpt>
      <trkpt lat="65.18448" lon="12.12168">
        <ele>12</ele>
        <time>2019-06-23T10:04:27Z</time>
      </trkpt>
      <trkpt lat="65.18411" lon="12.11711">
        <ele>11</ele>
        <time>2019-06-23T10:04:43Z</time>
      </trkpt>
      <trkpt lat="65.18327" lon="12.11384">
        <ele>9</ele>
        <time>2019-06-23T10:04:49Z</time>
      </trkpt>
      <trkpt lat="65.18271" lon="12.1133">
        <ele>8</ele>
        <time>2019-06-23T10:05:30Z</time>
      </trkpt>
      <trkpt lat="65.18229" lon="12.11346">
        <ele>6</ele>
        <time>2019-06-23T10:05:45Z</time>
      </trkpt>
      <trkpt lat="65.18189" lon="12.1126">
        <ele>4</ele>
        <time>2019-06-23T10:05:53Z</time>
      </trkpt>
      <trkpt lat="65.18106" lon="12.11165">
        <ele>3</ele>
        <time>2019-06-23T10:06:06Z</time>
      </trkpt>
      <trkpt lat="65.18083" lon="12.11071">
        <ele>1</ele>
        <time>2019-06-23T10:06:23Z</time>
      </trkpt>
      <trkpt lat="65.18108" lon="12.10764">
        <time>2019-06-23T10:06:42Z</time>
      </trkpt>
      <trkpt lat="65.18231" lon="12.10433">
        <time>2019-06-23T10:06:48Z</time>
      </trkpt>
      <trkpt lat="65.19312" lon="12.08129">
        <time>2019-06-23T10:07:09Z</time>
      </trkpt>
      <trkpt lat="65.20244" lon="12.0567">
        <time>2019-06-23T10:07:24Z</time>
      </trkpt>
      <trkpt lat="65.2041" lon="12.053">
        <time>2019-06-23T10:07:34Z</time>
      </trkpt>
      <trkpt lat="65.20568" lon="12.05009">
        <time>2019-06-23T10:08:06Z</time>
      </trkpt>
      <trkpt lat="65.20815" lon="12.04657">
        <ele>1</ele>
        <time>2019-06-23T10:08:18Z</time>
      </trkpt>
      <trkpt lat="65.2133" lon="12.04218">
        <ele>1</ele>
        <time>2019-06-23T10:08:21Z</time>
      </trkpt>
      <trkpt lat="65.21362" lon="12.04156">
        <ele>1</ele>
        <time>2019-06-23T10:08:28Z</time>
      </trkpt>
      <trkpt lat="65.2147" lon="12.04133">
        <ele>1</ele>
        <time>2019-06-23T10:11:09Z</time>
      </trkpt>
      <trkpt lat="65.21523" lon="12.04046">
        <ele>1</ele>
        <time>2019-06-23T10:11:15Z</time>
      </trkpt>
      <trkpt lat="65.21529" lon="12.04073">
        <ele>2</ele>
        <time>2019-06-23T10:11:20Z</time>
      </trkpt>
      <trkpt lat="65.21619" lon="12.04087">
        <ele>2</ele>
        <time>2019-06-23T10:11:25Z</time>
      </trkpt>
      <trkpt lat="65.21623" lon="12.04105">
        <ele>2</ele>
        <time>2019-06-23T10:11:37Z</time>
      </trkpt>
      <trkpt lat="65.21582" lon="12.04321">
        <ele>2</ele>
        <time>2019-06-23T10:11:52Z</time>
      </trkpt>
      <trkpt lat="65.21574" lon="12.0434">
        <ele>3</ele>
        <time>2019-06-23T10:12:01Z</time>
      </trkpt>
      <trkpt lat="65.21592" lon="12.04159">
        <ele>3</ele>
        <time>2019-06-23T10:12:13Z</time>
      </trkpt>
      <trkpt lat="65.21557" lon="12.04286">
        <ele>3</ele>
        <time>2019-06-23T10:12:21Z</time>
      </trkpt>
      <trkpt lat="65.2146" lon="12.04356">
        <ele>3</ele>
        <time>2019-06-23T10:12:25Z</time>
      </trkpt>
      <trkpt lat="65.21545" lon="12.04382">
        <ele>3</ele>
        <time>2019-06-23T10:12:41Z</time>
      </trkpt>
      <trkpt lat="65.21544" lon="12.04419">
        <ele>4</ele>
        <time>2019-06-23T10:12:55Z</time>
      </trkpt>
      <trkpt lat="65.21522" lon="12.04349">
        <ele>4</ele>
        <time>2019-06-23T10:13:01Z</time>
      </trkpt>
      <trkpt lat="65.21593" lon="12.04203">
        <ele>4</ele>
        <time>2019-06-23T10:13:08Z</time>
      </trkpt>
      <trkpt lat="65.21614" lon="12.04315">
        <ele>4</ele>
        <time>2019-06-23T10:13:14Z</time>
      </trkpt>
      <trkpt lat="65.21796" lon="12.04677">
        <ele>4</ele>
        <time>2019-06-23T10:13:31Z</time>
      </trkpt>
      <trkpt lat="65.21886" lon="12.05">
        <ele>4</ele>
        <time>2019-06-23T10:13:35Z</time>
      </trkpt>
      <trkpt lat="65.22062" lon="12.0516">
        <ele>4</ele>
        <time>2019-06-23T10:13:50Z</time>
      </trkpt>
      <trkpt lat="65.22133" lon="12.05834">
        <ele>6</ele>
        <time>2019-06-23T10:14:03Z</time>
      </trkpt>
      <trkpt lat="65.22257" lon="12.06479">
        <ele>8</ele>
        <time>2019-06-23T10:14:19Z</time>
      </trkpt>
      <trkpt lat="65.2229" lon="12.06525">
        <ele>10</ele>
        <time>2019-06-23T10:15:00Z</time>
      </trkpt>
      <trkpt lat="65.22417" lon="12.06553">
        <ele>11</ele>
        <time>2019-06-23T10:15:26Z</time>
      </trkpt>
      <trkpt lat="65.22602" lon="12.06853">
        <ele>13</ele>
        <time>2019-06-23T10:15:33Z</time>
      </trkpt>
      <trkpt lat="65.22878" lon="12.07525">
        <ele>15</ele>
        <time>2019-06-23T10:16:02Z</time>
      </trkpt>
      <trkpt lat="65.23053" lon="12.07709">
        <ele>17</ele>
        <time>2019-06-23T10:17:05Z</time>
      </trkpt>
      <trkpt lat="65.23136" lon="12.08663">
        <ele>18</ele>
        <time>2019-06-23T10:17:15Z</time>
      </trkpt>
      <trkpt lat="65.2321" lon="12.08932">
        <ele>18</ele>
        <time>2019-06-23T10:17:27Z</time>
      </trkpt>
      <trkpt lat="65.23359" lon="12.0925">
        <ele>17</ele>
        <time>2019-06-23T10:17:35Z</time>
      </trkpt>
      <trkpt lat="65.2346" lon="12.09399">
        <ele>16</ele>
        <time>2019-06-23T10:17:54Z</time>
      </trkpt>
      <trkpt lat="65.23526" lon="12.09651">
        <ele>16</ele>
        <time>2019-06-23T11:48:37Z</time>
      </trkpt>
      <trkpt lat="65.23602" lon="12.10261">
        <ele>15</ele>
        <time>2019-06-23T11:49:12Z</time>
      </trkpt>
      <trkpt lat="65.23708" lon="12.10359">
        <ele>14</ele>
        <time>2019-06-23T11:49:31Z</time>
      </trkpt>
      <trkpt lat="65.23811" lon="12.10569">
        <ele>14</ele>
        <time>2019-06-23T11:49:38Z</time>
      </trkpt>
      <trkpt lat="65.23921" lon="12.11546">
        <ele>13</ele>
        <time>2019-06-23T11:49:45Z</time>
      </trkpt>
      <trkpt lat="65.24215" lon="12.12052">
        <ele>13</ele>
        <time>2019-06-23T11:50:07Z</time>
      </trkpt>
      <trkpt lat="65.24378" lon="12.12226">
        <ele>12</ele>
        <time>2019-06-23T11:50:14Z</time>
      </trkpt>
      <trkpt lat="65.24465" lon="12.12244">
        <ele>10</ele>
        <time>2019-06-23T11:50:17Z</time>
      </trkpt>
      <trkpt lat="65.24796" lon="12.12289">
        <ele>9</ele>
        <time>2019-06-23T11:50:21Z</time>
      </trkpt>
      <trkpt lat="65.24976" lon="12.12213">
        <ele>8</ele>
        <time>2019-06-23T11:50:29Z</time>
      </trkpt>
      <trkpt lat="65.25063" lon="12.12212">
        <ele>6</ele>
        <time>2019-06-23T11:50:35Z</time>
      </trkpt>
      <trkpt lat="65.25415" lon="12.12613">
        <ele>5</ele>
        <time>2019-06-23T11:50:38Z</time>
      </trkpt>
      <trkpt lat="65.25514" lon="12.12735">
        <ele>4</ele>
        <time>2019-06-23T11:50:45Z</time>
      </trkpt>
      <trkpt lat="65.25611" lon="12.13526">
        <ele>3</ele>
        <time>2019-06-23T11:50:50Z</time>
      </trkpt>
      <trkpt lat="65.25657" lon="12.13727">
        <ele>5</ele>
        <time>2019-06-23T11:50:53Z</time>
      </trkpt>
      <trkpt lat="65.25974" lon="12.14048">
        <ele>6</ele>
        <time>2019-06-23T11:51:03Z</time>
      </trkpt>
      <trkpt lat="65.26305" lon="12.14474">
        <ele>7</ele>
        <time>2019-06-23T11:51:09Z</time>
      </trkpt>
      <trkpt lat="65.26401" lon="12.1452">
        <ele>9</ele>
        <time>2019-06-23T11:51:12Z</time>
      </trkpt>
      <trkpt lat="65.26948" lon="12.14586">
        <ele>10</ele>
        <time>2019-06-23T11:51:14Z</time>
      </trkpt>
      <trkpt lat="65.2725" lon="12.14516">
        <ele>12</ele>
        <time>2019-06-23T11:51:26Z</time>
      </trkpt>
      <trkpt lat="65.27852" lon="12.14828">
        <ele>13</ele>
        <time>2019-06-23T11:51:31Z</time>
      </trkpt>
      <trkpt lat="65.28146" lon="12.14944">
        <ele>14</ele>
        <time>2019-06-23T11:51:34Z</time>
      </trkpt>
      <trkpt lat="65.29671" lon="12.16044">
        <ele>14</ele>
        <time>2019-06-23T11:51:38Z</time>
      </trkpt>
      <trkpt lat="65.30691" lon="12.16696">
        <ele>13</ele>
        <time>2019-06-23T11:51:42Z</time>
      </trkpt>
      <trkpt lat="65.30854" lon="12.1674">
        <ele>13</ele>
        <time>2019-06-23T11:51:48Z</time>
      </trkpt>
      <trkpt lat="65.31296" lon="12.16754">
        <ele>12</ele>
        <time>2019-06-23T11:51:52Z</time>
      </trkpt>
      <trkpt lat="65.31598" lon="12.16884">
        <ele>12</ele>
        <time>2019-06-23T11:51:56Z</time>
      </trkpt>
      <trkpt lat="65.32223" lon="12.17288">
        <ele>11</ele>
        <time>2019-06-23T11:51:59Z</time>
      </trkpt>
      <trkpt lat="65.32846" lon="12.1783">
        <ele>11</ele>
        <time>2019-06-23T11:52:02Z</time>
      </trkpt>
      <trkpt lat="65.33474" lon="12.18904">
        <ele>10</ele>
        <time>2019-06-23T11:52:13Z</time>
      </trkpt>
      <trkpt lat="65.34046" lon="12.19636">
        <ele>10</ele>
        <time>2019-06-23T11:52:17Z</time>
      </trkpt>
      <trkpt lat="65.34126" lon="12.19882">
        <ele>9</ele>
        <time>2019-06-23T11:52:22Z</time>
      </trkpt>
      <trkpt lat="65.34124" lon="12.19998">
        <ele>9</ele>
        <time>2019-06-23T11:52:35Z</time>
      </trkpt>
      <trkpt lat="65.33969" lon="12.21203">
        <ele>8</ele>
        <time>2019-06-23T11:52:53Z</time>
      </trkpt>
      <trkpt lat="65.34022" lon="12.21395">
        <ele>7</ele>
        <time>2019-06-23T11:53:58Z</time>
      </trkpt>
      <trkpt lat="65.34274" lon="12.22012">
        <ele>6</ele>
        <time>2019-06-23T11:54:13Z</time>
      </trkpt>
      <trkpt lat="65.34461" lon="12.22359">
        <ele>5</ele>
        <time>2019-06-23T11:54:30Z</time>
      </trkpt>
      <trkpt lat="65.34657" lon="12.22531">
        <ele>4</ele>
        <time>2019-06-23T11:54:35Z</time>
      </trkpt>
      <trkpt lat="65.34887" lon="12.22688">
        <ele>3</ele>
        <time>2019-06-23T11:54:39Z</time>
      </trkpt>
      <trkpt lat="65.34963" lon="12.22673">
        <ele>4</ele>
        <time>2019-06-23T11:54:50Z</time>
      </trkpt>
      <trkpt lat="65.35119" lon="12.22559">
        <ele>4</ele>
        <time>2019-06-23T11:54:53Z</time>
      </trkpt>
      <trkpt lat="65.35218" lon="12.22318">
        <ele>4</ele>
        <time>2019-06-23T11:54:59Z</time>
      </trkpt>
      <trkpt lat="65.35362" lon="12.21702">
        <ele>5</ele>
        <time>2019-06-23T11:55:06Z</time>
      </trkpt>
      <trkpt lat="65.35448" lon="12.21494">
        <ele>5</ele>
        <time>2019-06-23T11:55:32Z</time>
      </trkpt>
      <trkpt lat="65.35648" lon="12.21235">
        <ele>5</ele>
        <time>2019-06-23T11:55:37Z</time>
      </trkpt>
      <trkpt lat="65.35857" lon="12.2124">
        <ele>6</ele>
        <time>2019-06-23T11:55:41Z</time>
      </trkpt>
      <trkpt lat="65.36011" lon="12.21061">
        <ele>6</ele>
        <time>2019-06-23T11:55:46Z</time>
      </trkpt>
      <trkpt lat="65.36232" lon="12.20718">
        <ele>5</ele>
        <time>2019-06-23T11:58:21Z</time>
      </trkpt>
      <trkpt lat="65.36452" lon="12.20171">
        <ele>5</ele>
        <time>2019-06-23T11:58:39Z</time>
      </trkpt>
      <trkpt lat="65.36616" lon="12.19918">
        <ele>4</ele>
        <time>2019-06-23T11:58:48Z</time>
      </trkpt>
      <trkpt lat="65.36702" lon="12.19873">
        <ele>4</ele>
        <time>2019-06-23T11:58:56Z</time>
      </trkpt>
      <trkpt lat="65.36817" lon="12.19698">
        <ele>3</ele>
        <time>2019-06-23T11:59:03Z</time>
      </trkpt>
      <trkpt lat="65.36913" lon="12.19735">
        <ele>3</ele>
        <time>2019-06-23T11:59:08Z</time>
      </trkpt>
      <trkpt lat="65.3692" lon="12.19701">
        <ele>2</ele>
        <time>2019-06-23T11:59:22Z</time>
      </trkpt>
      <trkpt lat="65.36927" lon="12.19752">
        <ele>2</ele>
        <time>2019-06-23T11:59:31Z</time>
      </trkpt>
      <trkpt lat="65.37029" lon="12.19831">
        <ele>2</ele>
        <time>2019-06-23T11:59:42Z</time>
      </trkpt>
      <trkpt lat="65.37487" lon="12.20307">
        <ele>4</ele>
        <time>2019-06-23T11:59:49Z</time>
      </trkpt>
      <trkpt lat="65.37696" lon="12.20376">
        <ele>6</ele>
        <time>2019-06-23T12:00:03Z</time>
      </trkpt>
      <trkpt lat="65.37784" lon="12.20345">
        <ele>7</ele>
        <time>2019-06-23T12:00:13Z</time>
      </trkpt>
      <trkpt lat="65.3783" lon="12.2026">
        <ele>9</ele>
        <time>2019-06-23T12:00:25Z</time>
      </trkpt>
      <trkpt lat="65.38362" lon="12.1852">
        <ele>11</ele>
        <time>2019-06-23T12:00:44Z</time>
      </trkpt>
      <trkpt lat="65.38539" lon="12.18208">
        <ele>13</ele>
        <time>2019-06-23T12:00:59Z</time>
      </trkpt>
      <trkpt lat="65.39052" lon="12.17557">
        <ele>15</ele>
        <time>2019-06-23T12:01:08Z</time>
      </trkpt>
      <trkpt lat="65.39097" lon="12.17529">
        <ele>16</ele>
        <time>2019-06-23T12:02:18Z</time>
      </trkpt>
      <trkpt lat="65.39165" lon="12.17554">
        <ele>17</ele>
        <time>2019-06-23T12:02:26Z</time>
      </trkpt>
      <trkpt lat="65.39887" lon="12.18092">
        <ele>18</ele>
        <time>2019-06-23T12:02:35Z</time>
      </trkpt>
      <trkpt lat="65.40363" lon="12.18491">
        <ele>19</ele>
        <time>2019-06-23T12:02:42Z</time>
      </trkpt>
      <trkpt lat="65.40691" lon="12.18723">
        <ele>21</ele>
        <time>2019-06-23T12:03:17Z</time>
      </trkpt>
      <trkpt lat="65.40944" lon="12.19138">
        <ele>22</ele>
        <time>2019-06-23T12:03:30Z</time>
      </trkpt>
      <trkpt lat="65.41047" lon="12.19399">
        <ele>23</ele>
        <time>2019-06-23T12:03:37Z</time>
      </trkpt>
      <trkpt lat="65.41339" lon="12.20472">
        <ele>24</ele>
        <time>2019-06-23T12:03:41Z</time>
      </trkpt>
      <trkpt lat="65.41484" lon="12.20875">
        <ele>25</ele>
        <time>2019-06-23T12:03:58Z</time>
      </trkpt>
      <trkpt lat="65.417" lon="12.21166">
        <ele>25</ele>
        <time>2019-06-23T12:04:13Z</time>
      </trkpt>
      <trkpt lat="65.4228" lon="12.2221">
        <ele>25</ele>
        <time>2019-06-23T12:04:25Z</time>
      </trkpt>
      <trkpt lat="65.42717" lon="12.23122">
        <ele>26</ele>
        <time>2019-06-23T12:04:43Z</time>
      </trkpt>
      <trkpt lat="65.42845" lon="12.23531">
        <ele>26</ele>
        <time>2019-06-23T12:04:54Z</time>
      </trkpt>
      <trkpt lat="65.4297" lon="12.24166">
        <ele>26</ele>
        <time>2019-06-23T12:05:03Z</time>
      </trkpt>
      <trkpt lat="65.43116" lon="12.24714">
        <ele>26</ele>
        <time>2019-06-23T12:05:35Z</time>
      </trkpt>
      <trkpt lat="65.43463" lon="12.26743">
        <ele>26</ele>
        <time>2019-06-23T12:05:47Z</time>
      </trkpt>
      <trkpt lat="65.43644" lon="12.27563">
        <ele>26</ele>
        <time>2019-06-23T12:05:53Z</time>
      </trkpt>
      <trkpt lat="65.43747" lon="12.2834">
        <ele>26</ele>
        <time>2019-06-23T12:06:04Z</time>
      </trkpt>
      <trkpt lat="65.4433" lon="12.30471">
        <ele>23</ele>
        <time>2019-06-23T12:06:27Z</time>
      </trkpt>
      <trkpt lat="65.44704" lon="12.31321">
        <ele>20</ele>
        <time>2019-06-23T12:06:45Z</time>
      </trkpt>
      <trkpt lat="65.44836" lon="12.31838">
        <ele>17</ele>
        <time>2019-06-23T12:06:54Z</time>
      </trkpt>
      <trkpt lat="65.45095" lon="12.32487">
        <ele>13</ele>
        <time>2019-06-23T12:07:14Z</time>
      </trkpt>
      <trkpt lat="65.45443" lon="12.33115">
        <ele>10</ele>
        <time>2019-06-23T12:07:38Z</time>
      </trkpt>
      <trkpt lat="65.45993" lon="12.34381">
        <ele>7</ele>
        <time>2019-06-23T12:07:46Z</time>
      </trkpt>
      <trkpt lat="65.46068" lon="12.34518">
        <ele>4</ele>
        <time>2019-06-23T12:09:08Z</time>
      </trkpt>
      <trkpt lat="65.46277" lon="12.34747">
        <ele>2</ele>
        <time>2019-06-23T12:09:23Z</time>
      </trkpt>
      <trkpt lat="65.46455" lon="12.35077">
        <ele>8</ele>
        <time>2019-06-23T12:09:39Z</time>
      </trkpt>
      <trkpt lat="65.46604" lon="12.35279">
        <ele>14</ele>
        <time>2019-06-23T12:09:50Z</time>
      </trkpt>
      <trkpt lat="65.4672" lon="12.35492">
        <ele>20</ele>
        <time>2019-06-23T12:10:04Z</time>
      </trkpt>
      <trkpt lat="65.4679" lon="12.35527">
        <ele>26</ele>
        <time>2019-06-23T12:10:07Z</time>
      </trkpt>
      <trkpt lat="65.47439" lon="12.35134">
        <ele>32</ele>
        <time>2019-06-23T12:10:11Z</time>
      </trkpt>
      <trkpt lat="65.47554" lon="12.34806">
        <ele>38</ele>
        <time>2019-06-23T12:10:15Z</time>
      </trkpt>
      <trkpt lat="65.47628" lon="12.34486">
        <ele>45</ele>
        <time>2019-06-23T12:10:24Z</time>
      </trkpt>
      <trkpt lat="65.47654" lon="12.34207">
        <ele>51</ele>
        <time>2019-06-23T12:10:46Z</time>
      </trkpt>
      <trkpt lat="65.47731" lon="12.33817">
        <ele>51</ele>
        <time>2019-06-23T12:11:02Z</time>
      </trkpt>
      <trkpt lat="65.47844" lon="12.33745">
        <ele>47</ele>
        <time>2019-06-23T12:11:24Z</time>
      </trkpt>
      <trkpt lat="65.48175" lon="12.33927">
        <ele>42</ele>
        <time>2019-06-23T12:11:47Z</time>
      </trkpt>
      <trkpt lat="65.48508" lon="12.34212">
        <ele>38</ele>
        <time>2019-06-23T12:12:00Z</time>
      </trkpt>
      <trkpt lat="65.48723" lon="12.34239">
        <ele>33</ele>
        <time>2019-06-23T12:12:45Z</time>
      </trkpt>
      <trkpt lat="65.48895" lon="12.34432">
        <ele>29</ele>
        <time>2019-06-23T12:13:04Z</time>
      </trkpt>
      <trkpt lat="65.49105" lon="12.34445">
        <ele>24</ele>
        <time>2019-06-23T12:13:19Z</time>
      </trkpt>
      <trkpt lat="65.49381" lon="12.34665">
        <ele>20</ele>
        <time>2019-06-23T12:13:35Z</time>
      </trkpt>
      <trkpt lat="65.49664" lon="12.34794">
        <ele>18</ele>
        <time>2019-06-23T12:14:08Z</time>
      </trkpt>
      <trkpt lat="65.49748" lon="12.34777">
        <ele>17</ele>
        <time>2019-06-23T12:14:45Z</time>
      </trkpt>
      <trkpt lat="65.49756" lon="12.34647">
        <ele>16</ele>
        <time>2019-06-23T12:14:59Z</time>
      </trkpt>
      <trkpt lat="65.49727" lon="12.34449">
        <ele>15</ele>
        <time>2019-06-23T12:15:35Z</time>
      </trkpt>
      <trkpt lat="65.49744" lon="12.34328">
        <ele>15</ele>
        <time>2019-06-23T12:15:49Z</time>
      </trkpt>
      <trkpt lat="65.49796" lon="12.34198">
        <ele>14</ele>
        <time>2019-06-23T12:15:57Z</time>
      </trkpt>
      <trkpt lat="65.49936" lon="12.33531">
        <ele>13</ele>
        <time>2019-06-23T12:16:34Z</time>
      </trkpt>
      <trkpt lat="65.50132" lon="12.32966">
        <ele>12</ele>
        <time>2019-06-23T12:16:49Z</time>
      </trkpt>
      <trkpt lat="65.50206" lon="12.32377">
        <ele>11</ele>
        <time>2019-06-23T12:17:09Z</time>
      </trkpt>
      <trkpt lat="65.50542" lon="12.31225">
        <ele>11</ele>
        <time>2019-06-23T12:17:23Z</time>
      </trkpt>
      <trkpt lat="65.50549" lon="12.30351">
        <ele>10</ele>
        <time>2019-06-23T12:18:25Z</time>
      </trkpt>
      <trkpt lat="65.5042" lon="12.29749">
        <ele>9</ele>
        <time>2019-06-23T12:18:42Z</time>
      </trkpt>
      <trkpt lat="65.50254" lon="12.29257">
        <ele>8</ele>
        <time>2019-06-23T12:18:52Z</time>
      </trkpt>
      <trkpt lat="65.50083" lon="12.2903">
        <ele>7</ele>
        <time>2019-06-23T12:19:12Z</time>
      </trkpt>
      <trkpt lat="65.49569" lon="12.27995">
        <ele>6</ele>
        <time>2019-06-23T12:19:41Z</time>
      </trkpt>
      <trkpt lat="65.49291" lon="12.26863">
        <ele>5</ele>
        <time>2019-06-23T12:20:13Z</time>
      </trkpt>
      <trkpt lat="65.49255" lon="12.26347">
        <ele>4</ele>
        <time>2019-06-23T12:20:20Z</time>
      </trkpt>
      <trkpt lat="65.49274" lon="12.263">
        <ele>4</ele>
        <time>2019-06-23T12:20:47Z</time>
      </trkpt>
      <trkpt lat="65.4944" lon="12.26257">
        <ele>4</ele>
        <time>2019-06-23T12:21:02Z</time>
      </trkpt>
      <trkpt lat="65.49514" lon="12.26151">
        <ele>4</ele>
        <time>2019-06-23T12:21:11Z</time>
      </trkpt>
      <trkpt lat="65.49517" lon="12.25445">
        <ele>4</ele>
        <time>2019-06-23T12:21:45Z</time>
      </trkpt>
      <trkpt lat="65.49583" lon="12.24858">
        <ele>4</ele>
        <time>2019-06-23T12:22:10Z</time>
      </trkpt>
      <trkpt lat="65.49488" lon="12.24492">
        <ele>4</ele>
        <time>2019-06-23T12:22:20Z</time>
      </trkpt>
      <trkpt lat="65.492" lon="12.24019">
        <ele>5</ele>
        <time>2019-06-23T12:22:30Z</time>
      </trkpt>
      <trkpt lat="65.49166" lon="12.2406">
        <ele>5</ele>
        <time>2019-06-23T12:22:52Z</time>
      </trkpt>
      <trkpt lat="65.49146" lon="12.24006">
        <ele>5</ele>
        <time>2019-06-23T12:23:16Z</time>
      </trkpt>
      <trkpt lat="65.49147" lon="12.24056">
        <ele>5</ele>
        <time>2019-06-23T12:23:27Z</time>
      </trkpt>
      <trkpt lat="65.49123" lon="12.23956">
        <ele>5</ele>
        <time>2019-06-23T12:23:56Z</time>
      </trkpt>
      <trkpt lat="65.49121" lon="12.24031">
        <ele>5</ele>
        <time>2019-06-23T12:24:09Z</time>
      </trkpt>
      <trkpt lat="65.49151" lon="12.2401">
        <ele>5</ele>
        <time>2019-06-23T12:24:15Z</time>
      </trkpt>
      <trkpt lat="65.49178" lon="12.24098">
        <ele>5</ele>
        <time>2019-06-23T12:24:30Z</time>
      </trkpt>
      <trkpt lat="65.49162" lon="12.2401">
        <ele>5</ele>
        <time>2019-06-23T12:24:38Z</time>
      </trkpt>
      <trkpt lat="65.49143" lon="12.24009">
        <ele>5</ele>
        <time>2019-06-23T12:24:45Z</time>
      </trkpt>
      <trkpt lat="65.49172" lon="12.2404">
        <ele>5</ele>
        <time>2019-06-23T12:25:37Z</time>
      </trkpt>
      <trkpt lat="65.49206" lon="12.24019">
        <ele>6</ele>
        <time>2019-06-23T12:26:10Z</time>
      </trkpt>
      <trkpt lat="65.49505" lon="12.24514">
        <ele>8</ele>
        <time>2019-06-23T12:26:20Z</time>
      </trkpt>
      <trkpt lat="65.49591" lon="12.24782">
        <ele>9</ele>
        <time>2019-06-23T12:26:27Z</time>
      </trkpt>
      <trkpt lat="65.49939" lon="12.2552">
        <ele>10</ele>
        <time>2019-06-23T12:26:35Z</time>
      </trkpt>
      <trkpt lat="65.50266" lon="12.25932">
        <ele>12</ele>
        <time>2019-06-23T12:26:52Z</time>
      </trkpt>
      <trkpt lat="65.5057" lon="12.26438">
        <ele>13</ele>
        <time>2019-06-23T12:27:11Z</time>
      </trkpt>
      <trkpt lat="65.50799" lon="12.26596">
        <ele>14</ele>
        <time>2019-06-23T12:27:22Z</time>
      </trkpt>
      <trkpt lat="65.50949" lon="12.26814">
        <ele>16</ele>
        <time>2019-06-23T12:27:42Z</time>
      </trkpt>
      <trkpt lat="65.51174" lon="12.27078">
        <ele>16</ele>
        <time>2019-06-23T12:30:09Z</time>
      </trkpt>
      <trkpt lat="65.51247" lon="12.27123">
        <ele>15</ele>
        <time>2019-06-23T12:30:11Z</time>
      </trkpt>
      <trkpt lat="65.51352" lon="12.27156">
        <ele>15</ele>
        <time>2019-06-23T12:30:34Z</time>
      </trkpt>
      <trkpt lat="65.51456" lon="12.27121">
        <ele>14</ele>
        <time>2019-06-23T12:30:42Z</time>
      </trkpt>
      <trkpt lat="65.51631" lon="12.27117">
        <ele>13</ele>
        <time>2019-06-23T12:30:51Z</time>
      </trkpt>
      <trkpt lat="65.51854" lon="12.27331">
        <ele>13</ele>
        <time>2019-06-23T12:30:59Z</time>
      </trkpt>
      <trkpt lat="65.51952" lon="12.2747">
        <ele>12</ele>
        <time>2019-06-23T12:31:18Z</time>
      </trkpt>
      <trkpt lat="65.5206" lon="12.27523">
        <ele>11</ele>
        <time>2019-06-23T12:31:37Z</time>
      </trkpt>
      <trkpt lat="65.52167" lon="12.27424">
        <ele>11</ele>
        <time>2019-06-23T12:31:41Z</time>
      </trkpt>
      <trkpt lat="65.52269" lon="12.27401">
        <ele>11</ele>
        <time>2019-06-23T12:32:02Z</time>
      </trkpt>
      <trkpt lat="65.52345" lon="12.27328">
        <ele>12</ele>
        <time>2019-06-23T12:32:10Z</time>
      </trkpt>
      <trkpt lat="65.52633" lon="12.26912">
        <ele>12</ele>
        <time>2019-06-23T12:32:19Z</time>
      </trkpt>
      <trkpt lat="65.52719" lon="12.26874">
        <ele>13</ele>
        <time>2019-06-23T12:32:42Z</time>
      </trkpt>
      <trkpt lat="65.53218" lon="12.26821">
        <ele>13</ele>
        <time>2019-06-23T12:32:52Z</time>
      </trkpt>
      <trkpt lat="65.53741" lon="12.26938">
        <ele>14</ele>
        <time>2019-06-23T12:33:00Z</time>
      </trkpt>
      <trkpt lat="65.54296" lon="12.27125">
        <ele>15</ele>
        <time>2019-06-23T12:33:06Z</time>
      </trkpt>
      <trkpt lat="65.543" lon="12.27155">
        <ele>15</ele>
        <time>2019-06-23T12:33:33Z</time>
      </trkpt>
      <trkpt lat="65.54311" lon="12.27133">
        <ele>15</ele>
        <time>2019-06-23T12:33:41Z</time>
      </trkpt>
      <trkpt lat="65.54436" lon="12.27183">
        <ele>15</ele>
        <time>2019-06-23T12:33:46Z</time>
      </trkpt>
      <trkpt lat="65.5487" lon="12.27454">
        <ele>14</ele>
        <time>2019-06-23T12:33:54Z</time>
      </trkpt>
      <trkpt lat="65.5507" lon="12.27815">
        <ele>13</ele>
        <time>2019-06-23T12:34:16Z</time>
      </trkpt>
      <trkpt lat="65.55151" lon="12.28027">
        <ele>13</ele>
        <time>2019-06-23T12:34:50Z</time>
      </trkpt>
      <trkpt lat="65.55437" lon="12.29202">
        <ele>12</ele>
        <time>2019-06-23T12:34:58Z</time>
      </trkpt>
      <trkpt lat="65.55539" lon="12.29422">
        <ele>11</ele>
        <time>2019-06-23T12:35:13Z</time>
      </trkpt>
      <trkpt lat="65.55615" lon="12.29552">
        <ele>11</ele>
        <time>2019-06-23T12:35:24Z</time>
      </trkpt>
      <trkpt lat="65.55871" lon="12.29858">
        <ele>10</ele>
        <time>2019-06-23T12:35:30Z</time>
      </trkpt>
      <trkpt lat="65.56006" lon="12.30095">
        <ele>10</ele>
        <time>2019-06-23T12:36:56Z</time>
      </trkpt>
      <trkpt lat="65.56163" lon="12.30282">
        <ele>10</ele>
        <time>2019-06-23T12:37:07Z</time>
      </trkpt>
      <trkpt lat="65.56246" lon="12.30469">
        <ele>10</ele>
        <time>2019-06-23T12:37:13Z</time>
      </trkpt>
      <trkpt lat="65.56428" lon="12.30672">
        <ele>10</ele>
        <time>2019-06-23T12:37:21Z</time>
      </trkpt>
      <trkpt lat="65.56709" lon="12.30433">
        <ele>10</ele>
        <time>2019-06-23T12:42:08Z</time>
      </trkpt>
      <trkpt lat="65.568" lon="12.30475">
        <ele>10</ele>
        <time>2019-06-23T12:42:22Z</time>
      </trkpt>
      <trkpt lat="65.56944" lon="12.30695">
        <ele>10</ele>
        <time>2019-06-23T12:42:34Z</time>
      </trkpt>
      <trkpt lat="65.57004" lon="12.3074">
        <ele>10</ele>
        <time>2019-06-23T12:42:54Z</time>
      </trkpt>
      <trkpt lat="65.57048" lon="12.30741">
        <ele>9</ele>
        <time>2019-06-23T12:42:59Z</time>
      </trkpt>
      <trkpt lat="65.5789" lon="12.30042">
        <ele>7</ele>
        <time>2019-06-23T12:43:11Z</time>
      </trkpt>
      <trkpt lat="65.57953" lon="12.30037">
        <ele>6</ele>
        <time>2019-06-23T12:43:40Z</time>
      </trkpt>
      <trkpt lat="65.58161" lon="12.30097">
        <ele>5</ele>
        <time>2019-06-23T12:43:49Z</time>
      </trkpt>
      <trkpt lat="65.58306" lon="12.30169">
        <ele>4</ele>
        <time>2019-06-23T12:44:01Z</time>
      </trkpt>
      <trkpt lat="65.58307" lon="12.30197">
        <ele>3</ele>
        <time>2019-06-23T12:44:07Z</time>
      </trkpt>
      <trkpt lat="65.58317" lon="12.3018">
        <ele>1</ele>
        <time>2019-06-23T12:44:33Z</time>
      </trkpt>
      <trkpt lat="65.58341" lon="12.30323">
        <time>2019-06-23T12:44:43Z</time>
      </trkpt>
      <trkpt lat="65.58446" lon="12.30606">
        <time>2019-06-23T12:44:50Z</time>
      </trkpt>
      <trkpt lat="65.58497" lon="12.31228">
        <time>2019-06-23T12:45:01Z</time>
      </trkpt>
      <trkpt lat="65.58512" lon="12.31847">
        <time>2019-06-23T12:45:15Z</time>
      </trkpt>
      <trkpt lat="65.58478" lon="12.3243">
        <time>2019-06-23T12:45:52Z</time>
      </trkpt>
      <trkpt lat="65.58422" lon="12.329">
        <time>2019-06-23T12:45:59Z</time>
      </trkpt>
      <trkpt lat="65.57668" lon="12.36967">
        <time>2019-06-23T12:46:26Z</time>
      </trkpt>
      <trkpt lat="65.57501" lon="12.38074">
        <time>2019-06-23T12:46:37Z</time>
      </trkpt>
      <trkpt lat="65.57493" lon="12.38827">
        <time>2019-06-23T12:46:43Z</time>
      </trkpt>
      <trkpt lat="65.57621" lon="12.39364">
        <time>2019-06-23T12:47:18Z</time>
      </trkpt>
      <trkpt lat="65.57714" lon="12.39457">
        <ele>2</ele>
        <time>2019-06-23T12:47:24Z</time>
      </trkpt>
      <trkpt lat="65.57783" lon="12.3941">
        <ele>4</ele>
        <time>2019-06-23T12:47:36Z</time>
      </trkpt>
      <trkpt lat="65.57809" lon="12.39301">
        <ele>6</ele>
        <time>2019-06-23T12:47:45Z</time>
      </trkpt>
      <trkpt lat="65.57868" lon="12.38671">
        <ele>9</ele>
        <time>2019-06-23T12:48:04Z</time>
      </trkpt>
      <trkpt lat="65.57931" lon="12.38377">
        <ele>11</ele>
        <time>2019-06-23T12:48:23Z</time>
      </trkpt>
      <trkpt lat="65.58032" lon="12.38289">
        <ele>13</ele>
        <time>2019-06-23T12:48:28Z</time>
      </trkpt>
      <trkpt lat="65.58103" lon="12.38271">
        <ele>16</ele>
        <time>2019-06-23T12:50:56Z</time>
      </trkpt>
      <trkpt lat="65.58145" lon="12.3818">
        <ele>18</ele>
        <time>2019-06-23T12:51:04Z</time>
      </trkpt>
      <trkpt lat="65.58154" lon="12.37799">
        <ele>16</ele>
        <time>2019-06-23T12:51:16Z</time>
      </trkpt>
      <trkpt lat="65.58221" lon="12.37556">
        <ele>15</ele>
        <time>2019-06-23T12:51:39Z</time>
      </trkpt>
      <trkpt lat="65.58238" lon="12.3753">
        <ele>14</ele>
        <time>2019-06-23T12:51:48Z</time>
      </trkpt>
      <trkpt lat="65.5842" lon="12.37527">
        <ele>12</ele>
        <time>2019-06-23T12:52:04Z</time>
      </trkpt>
      <trkpt lat="65.58662" lon="12.37243">
        <ele>11</ele>
        <time>2019-06-23T12:52:12Z</time>
      </trkpt>
      <trkpt lat="65.58731" lon="12.37241">
        <ele>10</ele>
        <time>2019-06-23T12:52:41Z</time>
      </trkpt>
      <trkpt lat="65.58829" lon="12.37387">
        <ele>8</ele>
        <time>2019-06-23T12:52:50Z</time>
      </trkpt>
      <trkpt lat="65.58861" lon="12.37389">
        <ele>7</ele>
        <time>2019-06-23T12:52:58Z</time>
      </trkpt>
      <trkpt lat="65.59026" lon="12.3723">
        <ele>6</ele>
        <time>2019-06-23T12:53:07Z</time>
      </trkpt>
      <trkpt lat="65.59188" lon="12.37185">
        <ele>6</ele>
        <time>2019-06-23T12:53:26Z</time>
      </trkpt>
      <trkpt lat="65.59477" lon="12.37007">
        <ele>5</ele>
        <time>2019-06-23T12:53:48Z</time>
      </trkpt>
      <trkpt lat="65.59563" lon="12.36992">
        <ele>4</ele>
        <time>2019-06-23T12:53:57Z</time>
      </trkpt>
      <trkpt lat="65.59712" lon="12.37036">
        <ele>3</ele>
        <time>2019-06-23T12:54:13Z</time>
      </trkpt>
      <trkpt lat="65.598" lon="12.37166">
        <ele>3</ele>
        <time>2019-06-23T12:54:28Z</time>
      </trkpt>
      <trkpt lat="65.59833" lon="12.37165">
        <ele>2</ele>
        <time>2019-06-23T12:54:36Z</time>
      </trkpt>
      <trkpt lat="65.60019" lon="12.36905">
        <ele>1</ele>
        <time>2019-06-23T12:55:08Z</time>
      </trkpt>
      <trkpt lat="65.60136" lon="12.36825">
        <ele>1</ele>
        <time>2019-06-23T12:55:16Z</time>
      </trkpt>
      <trkpt lat="65.60523" lon="12.36589">
        <ele>1</ele>
        <time>2019-06-23T12:55:33Z</time>
      </trkpt>
      <trkpt lat="65.60752" lon="12.36569">
        <ele>2</ele>
        <time>2019-06-23T12:55:46Z</time>
      </trkpt>
      <trkpt lat="65.60964" lon="12.3657">
        <ele>3</ele>
        <time>2019-06-23T12:56:23Z</time>
      </trkpt>
      <trkpt lat="65.61811" lon="12.36941">
        <ele>3</ele>
        <time>2019-06-23T01:02:04Z</time>
      </trkpt>
      <trkpt lat="65.61923" lon="12.36942">
        <ele>4</ele>
        <time>2019-06-23T01:02:09Z</time>
      </trkpt>
      <trkpt lat="65.62171" lon="12.36729">
        <ele>5</ele>
        <time>2019-06-23T01:02:50Z</time>
      </trkpt>
      <trkpt lat="65.62222" lon="12.3672">
        <ele>5</ele>
        <time>2019-06-23T01:03:07Z</time>
      </trkpt>
      <trkpt lat="65.62839" lon="12.369">
        <ele>6</ele>
        <time>2019-06-23T01:03:22Z</time>
      </trkpt>
      <trkpt lat="65.63744" lon="12.37446">
        <ele>6</ele>
        <time>2019-06-23T01:03:56Z</time>
      </trkpt>
      <trkpt lat="65.64174" lon="12.37761">
        <ele>8</ele>
        <time>2019-06-23T01:04:03Z</time>
      </trkpt>
      <trkpt lat="65.64367" lon="12.37815">
        <ele>9</ele>
        <time>2019-06-23T01:04:21Z</time>
      </trkpt>
      <trkpt lat="65.64965" lon="12.38148">
        <ele>11</ele>
        <time>2019-06-23T01:04:27Z</time>
      </trkpt>
      <trkpt lat="65.65322" lon="12.38282">
        <ele>13</ele>
        <time>2019-06-23T01:06:23Z</time>
      </trkpt>
      <trkpt lat="65.65373" lon="12.38329">
        <ele>14</ele>
        <time>2019-06-23T01:06:40Z</time>
      </trkpt>
      <trkpt lat="65.65997" lon="12.39042">
        <ele>16</ele>
        <time>2019-06-23T01:06:50Z</time>
      </trkpt>
      <trkpt lat="65.66361" lon="12.39603">
        <ele>18</ele>
        <time>2019-06-23T01:07:03Z</time>
      </trkpt>
      <trkpt lat="65.67221" lon="12.40815">
        <ele>18</ele>
        <time>2019-06-23T01:07:17Z</time>
      </trkpt>
      <trkpt lat="65.67264" lon="12.40862">
        <ele>17</ele>
        <time>2019-06-23T01:09:13Z</time>
      </trkpt>
      <trkpt lat="65.6745" lon="12.40911">
        <ele>17</ele>
        <time>2019-06-23T01:09:20Z</time>
      </trkpt>
      <trkpt lat="65.67676" lon="12.409">
        <ele>16</ele>
        <time>2019-06-23T01:09:33Z</time>
      </trkpt>
      <trkpt lat="65.67768" lon="12.40977">
        <ele>15</ele>
        <time>2019-06-23T01:09:38Z</time>
      </trkpt>
      <trkpt lat="65.68114" lon="12.41499">
        <ele>14</ele>
        <time>2019-06-23T01:09:44Z</time>
      </trkpt>
      <trkpt lat="65.68447" lon="12.41893">
        <ele>13</ele>
        <time>2019-06-23T01:10:00Z</time>
      </trkpt>
      <trkpt lat="65.68583" lon="12.42089">
        <ele>12</ele>
        <time>2019-06-23T01:10:03Z</time>
      </trkpt>
      <trkpt lat="65.68827" lon="12.42503">
        <ele>11</ele>
        <time>2019-06-23T01:10:08Z</time>
      </trkpt>
      <trkpt lat="65.69003" lon="12.42717">
        <ele>11</ele>
        <time>2019-06-23T01:10:11Z</time>
      </trkpt>
      <trkpt lat="65.69142" lon="12.42968">
        <ele>10</ele>
        <time>2019-06-23T01:10:18Z</time>
      </trkpt>
      <trkpt lat="65.69353" lon="12.43155">
        <ele>9</ele>
        <time>2019-06-23T01:10:28Z</time>
      </trkpt>
      <trkpt lat="65.69673" lon="12.43535">
        <ele>9</ele>
        <time>2019-06-23T01:10:32Z</time>
      </trkpt>
      <trkpt lat="65.703" lon="12.44512">
        <ele>8</ele>
        <time>2019-06-23T01:10:40Z</time>
      </trkpt>
      <trkpt lat="65.70587" lon="12.45101">
        <ele>7</ele>
        <time>2019-06-23T01:10:42Z</time>
      </trkpt>
      <trkpt lat="65.70832" lon="12.45536">
        <ele>6</ele>
        <time>2019-06-23T01:10:46Z</time>
      </trkpt>
      <trkpt lat="65.70915" lon="12.45637">
        <ele>6</ele>
        <time>2019-06-23T01:11:39Z</time>
      </trkpt>
      <trkpt lat="65.71057" lon="12.45728">
        <ele>6</ele>
        <time>2019-06-23T01:11:44Z</time>
      </trkpt>
      <trkpt lat="65.71267" lon="12.45952">
        <ele>5</ele>
        <time>2019-06-23T01:11:53Z</time>
      </trkpt>
      <trkpt lat="65.71262" lon="12.45916">
        <ele>4</ele>
        <time>2019-06-23T01:11:57Z</time>
      </trkpt>
      <trkpt lat="65.71285" lon="12.45906">
        <ele>3</ele>
        <time>2019-06-23T01:12:07Z</time>
      </trkpt>
      <trkpt lat="65.71327" lon="12.45953">
        <ele>2</ele>
        <time>2019-06-23T01:12:12Z</time>
      </trkpt>
      <trkpt lat="65.71397" lon="12.45785">
        <ele>2</ele>
        <time>2019-06-23T01:12:15Z</time>
      </trkpt>
      <trkpt lat="65.7166" lon="12.45828">
        <ele>1</ele>
        <time>2019-06-23T01:12:17Z</time>
      </trkpt>
      <trkpt lat="65.71899" lon="12.45782">
        <time>2019-06-23T01:12:23Z</time>
      </trkpt>
      <trkpt lat="65.72161" lon="12.45938">
        <time>2019-06-23T01:12:29Z</time>
      </trkpt>
      <trkpt lat="65.72565" lon="12.46236">
        <time>2019-06-23T01:12:32Z</time>
      </trkpt>
      <trkpt lat="65.73782" lon="12.47211">
        <time>2019-06-23T01:12:38Z</time>
      </trkpt>
      <trkpt lat="65.73983" lon="12.47327">
        <time>2019-06-23T01:12:41Z</time>
      </trkpt>
      <trkpt lat="65.75098" lon="12.48135">
        <time>2019-06-23T01:12:50Z</time>
      </trkpt>
      <trkpt lat="65.75664" lon="12.48617">
        <time>2019-06-23T01:13:06Z</time>
      </trkpt>
      <trkpt lat="65.76222" lon="12.4903">
        <time>2019-06-23T01:13:11Z</time>
      </trkpt>
      <trkpt lat="65.76715" lon="12.4946">
        <time>2019-06-23T01:13:20Z</time>
      </trkpt>
      <trkpt lat="65.77055" lon="12.49661">
        <time>2019-06-23T01:13:26Z</time>
      </trkpt>
      <trkpt lat="65.78105" lon="12.50476">
        <time>2019-06-23T01:13:51Z</time>
      </trkpt>
      <trkpt lat="65.78346" lon="12.50652">
        <time>2019-06-23T01:14:17Z</time>
      </trkpt>
      <trkpt lat="65.78686" lon="12.50857">
        <time>2019-06-23T01:14:34Z</time>
      </trkpt>
      <trkpt lat="65.79083" lon="12.50986">
        <time>2019-06-23T01:15:14Z</time>
      </trkpt>
      <trkpt lat="65.79597" lon="12.5111">
        <time>2019-06-23T01:15:28Z</time>
      </trkpt>
      <trkpt lat="65.79839" lon="12.51134">
        <time>2019-06-23T01:15:53Z</time>
      </trkpt>
      <trkpt lat="65.79994" lon="12.51175">
        <time>2019-06-23T01:17:38Z</time>
      </trkpt>
      <trkpt lat="65.80188" lon="12.51184">
        <time>2019-06-23T01:17:48Z</time>
      </trkpt>
      <trkpt lat="65.8026" lon="12.51157">
        <time>2019-06-23T01:17:56Z</time>
      </trkpt>
      <trkpt lat="65.80444" lon="12.50877">
        <time>2019-06-23T01:18:30Z</time>
      </trkpt>
      <trkpt lat="65.80664" lon="12.50118">
        <time>2019-06-23T01:19:28Z</time>
      </trkpt>
      <trkpt lat="65.80752" lon="12.49619">
        <time>2019-06-23T01:19:46Z</time>
      </trkpt>
      <trkpt lat="65.80801" lon="12.49543">
        <time>2019-06-23T01:20:02Z</time>
      </trkpt>
      <trkpt lat="65.80901" lon="12.4883">
        <time>2019-06-23T01:20:09Z</time>
      </trkpt>
      <trkpt lat="65.80998" lon="12.46948">
        <time>2019-06-23T01:20:27Z</time>
      </trkpt>
      <trkpt lat="65.81059" lon="12.44996">
        <time>2019-06-23T01:20:51Z</time>
      </trkpt>
      <trkpt lat="65.81083" lon="12.44616">
        <time>2019-06-23T01:21:04Z</time>
      </trkpt>
      <trkpt lat="65.81181" lon="12.43965">
        <time>2019-06-23T01:21:21Z</time>
      </trkpt>
      <trkpt lat="65.81385" lon="12.43588">
        <ele>1</ele>
        <time>2019-06-23T01:21:34Z</time>
      </trkpt>
      <trkpt lat="65.81612" lon="12.43379">
        <ele>2</ele>
        <time>2019-06-23T01:21:45Z</time>
      </trkpt>
      <trkpt lat="65.81746" lon="12.43316">
        <ele>3</ele>
        <time>2019-06-23T01:22:14Z</time>
      </trkpt>
      <trkpt lat="65.81993" lon="12.43271">
        <ele>4</ele>
        <time>2019-06-23T01:22:26Z</time>
      </trkpt>
      <trkpt lat="65.82166" lon="12.43124">
        <ele>5</ele>
        <time>2019-06-23T01:22:41Z</time>
      </trkpt>
      <trkpt lat="65.82249" lon="12.42911">
        <ele>6</ele>
        <time>2019-06-23T01:22:47Z</time>
      </trkpt>
      <trkpt lat="65.82562" lon="12.41658">
        <ele>7</ele>
        <time>2019-06-23T01:23:05Z</time>
      </trkpt>
      <trkpt lat="65.8294" lon="12.40603">
        <ele>6</ele>
        <time>2019-06-23T01:23:18Z</time>
      </trkpt>
      <trkpt lat="65.83079" lon="12.40353">
        <ele>5</ele>
        <time>2019-06-23T01:23:25Z</time>
      </trkpt>
      <trkpt lat="65.83457" lon="12.39888">
        <ele>5</ele>
        <time>2019-06-23T01:23:43Z</time>
      </trkpt>
      <trkpt lat="65.83644" lon="12.39683">
        <ele>4</ele>
        <time>2019-06-23T01:23:49Z</time>
      </trkpt>
      <trkpt lat="65.8373" lon="12.39635">
        <ele>3</ele>
        <time>2019-06-23T01:23:57Z</time>
      </trkpt>
      <trkpt lat="65.84073" lon="12.39473">
        <ele>2</ele>
        <time>2019-06-23T01:24:15Z</time>
      </trkpt>
      <trkpt lat="65.84262" lon="12.39428">
        <ele>2</ele>
        <time>2019-06-23T01:24:19Z</time>
      </trkpt>
      <trkpt lat="65.84549" lon="12.39568">
        <ele>1</ele>
        <time>2019-06-23T01:24:23Z</time>
      </trkpt>
      <trkpt lat="65.84634" lon="12.39641">
        <ele>1</ele>
        <time>2019-06-23T01:24:27Z</time>
      </trkpt>
      <trkpt lat="65.84784" lon="12.40091">
        <ele>10.8</ele>
        <time>2019-06-23T01:24:40Z</time>
      </trkpt>
      <trkpt lat="65.84908" lon="12.4056">
        <ele>12</ele>
        <time>2019-06-23T01:24:46Z</time>
      </trkpt>
      <trkpt lat="65.85429" lon="12.4208">
        <ele>4.5</ele>
        <time>2019-06-23T01:24:48Z</time>
      </trkpt>
      <trkpt lat="65.85497" lon="12.42047">
        <ele>7.3</ele>
        <time>2019-06-23T01:25:59Z</time>
      </trkpt>
      <trkpt lat="65.8551" lon="12.42084">
        <ele>9.4</ele>
        <time>2019-06-23T01:26:10Z</time>
      </trkpt>
      <trkpt lat="65.85504" lon="12.42058">
        <ele>8.2</ele>
        <time>2019-06-23T01:26:23Z</time>
      </trkpt>
      <trkpt lat="65.85432" lon="12.42092">
        <ele>4.2</ele>
        <time>2019-06-23T01:26:25Z</time>
      </trkpt>
      <trkpt lat="65.85616" lon="12.42381">
        <ele>3.9</ele>
        <time>2019-06-23T01:26:34Z</time>
      </trkpt>
      <trkpt lat="65.85722" lon="12.43061">
        <ele>4.2</ele>
        <time>2019-06-23T01:26:36Z</time>
      </trkpt>
      <trkpt lat="65.85914" lon="12.43399">
        <ele>3.4</ele>
        <time>2019-06-23T01:26:41Z</time>
      </trkpt>
      <trkpt lat="65.86052" lon="12.43724">
        <ele>5</ele>
        <time>2019-06-23T01:26:51Z</time>
      </trkpt>
      <trkpt lat="65.86939" lon="12.4615">
        <ele>6.3</ele>
        <time>2019-06-23T01:26:55Z</time>
      </trkpt>
      <trkpt lat="65.8722" lon="12.47954">
        <ele>6.6</ele>
        <time>2019-06-23T01:27:00Z</time>
      </trkpt>
      <trkpt lat="65.87936" lon="12.50375">
        <ele>5</ele>
        <time>2019-06-23T01:27:02Z</time>
      </trkpt>
      <trkpt lat="65.88421" lon="12.5118">
        <ele>5</ele>
        <time>2019-06-23T01:27:08Z</time>
      </trkpt>
      <trkpt lat="65.88506" lon="12.51274">
        <ele>5</ele>
        <time>2019-06-23T01:27:15Z</time>
      </trkpt>
      <trkpt lat="65.88646" lon="12.51347">
        <ele>1</ele>
        <time>2019-06-23T01:27:18Z</time>
      </trkpt>
      <trkpt lat="65.88865" lon="12.5163">
        <ele>3</ele>
        <time>2019-06-23T01:27:30Z</time>
      </trkpt>
      <trkpt lat="65.89" lon="12.51958">
        <ele>6</ele>
        <time>2019-06-23T01:27:34Z</time>
      </trkpt>
      <trkpt lat="65.89273" lon="12.52876">
        <ele>9</ele>
        <time>2019-06-23T01:27:48Z</time>
      </trkpt>
      <trkpt lat="65.89452" lon="12.53381">
        <ele>12</ele>
        <time>2019-06-23T01:28:15Z</time>
      </trkpt>
      <trkpt lat="65.89532" lon="12.53477">
        <ele>15</ele>
        <time>2019-06-23T01:28:39Z</time>
      </trkpt>
      <trkpt lat="65.89716" lon="12.53629">
        <ele>18</ele>
        <time>2019-06-23T01:28:56Z</time>
      </trkpt>
      <trkpt lat="65.89895" lon="12.53459">
        <ele>21</ele>
        <time>2019-06-23T01:29:11Z</time>
      </trkpt>
      <trkpt lat="65.90124" lon="12.53089">
        <ele>22</ele>
        <time>2019-06-23T01:29:52Z</time>
      </trkpt>
      <trkpt lat="65.90238" lon="12.5236">
        <ele>22</ele>
        <time>2019-06-23T01:30:00Z</time>
      </trkpt>
      <trkpt lat="65.90262" lon="12.5188">
        <ele>21</ele>
        <time>2019-06-23T01:30:17Z</time>
      </trkpt>
      <trkpt lat="65.90203" lon="12.511">
        <ele>21</ele>
        <time>2019-06-23T01:30:29Z</time>
      </trkpt>
      <trkpt lat="65.90196" lon="12.50293">
        <ele>21</ele>
        <time>2019-06-23T01:30:49Z</time>
      </trkpt>
      <trkpt lat="65.90052" lon="12.47981">
        <ele>21</ele>
        <time>2019-06-23T01:31:02Z</time>
      </trkpt>
      <trkpt lat="65.89679" lon="12.46165">
        <ele>20</ele>
        <time>2019-06-23T01:31:07Z</time>
      </trkpt>
      <trkpt lat="65.89698" lon="12.45152">
        <ele>20</ele>
        <time>2019-06-23T01:31:14Z</time>
      </trkpt>
      <trkpt lat="65.8977" lon="12.44589">
        <ele>20</ele>
        <time>2019-06-23T01:31:17Z</time>
      </trkpt>
      <trkpt lat="65.89784" lon="12.44029">
        <ele>21</ele>
        <time>2019-06-23T01:31:40Z</time>
      </trkpt>
      <trkpt lat="65.89708" lon="12.43774">
        <ele>21</ele>
        <time>2019-06-23T01:32:06Z</time>
      </trkpt>
      <trkpt lat="65.89452" lon="12.43297">
        <ele>22</ele>
        <time>2019-06-23T01:32:58Z</time>
      </trkpt>
      <trkpt lat="65.89322" lon="12.4266">
        <ele>23</ele>
        <time>2019-06-23T01:33:11Z</time>
      </trkpt>
      <trkpt lat="65.89223" lon="12.42324">
        <ele>24</ele>
        <time>2019-06-23T01:33:20Z</time>
      </trkpt>
      <trkpt lat="65.89115" lon="12.41607">
        <ele>24</ele>
        <time>2019-06-23T01:33:40Z</time>
      </trkpt>
      <trkpt lat="65.89091" lon="12.41215">
        <ele>25</ele>
        <time>2019-06-23T01:33:52Z</time>
      </trkpt>
      <trkpt lat="65.89129" lon="12.40962">
        <ele>26</ele>
        <time>2019-06-23T01:34:00Z</time>
      </trkpt>
      <trkpt lat="65.89219" lon="12.40778">
        <ele>26</ele>
        <time>2019-06-23T01:34:18Z</time>
      </trkpt>
      <trkpt lat="65.893" lon="12.4073">
        <ele>24</ele>
        <time>2019-06-23T01:34:43Z</time>
      </trkpt>
      <trkpt lat="65.8939" lon="12.40713">
        <ele>22</ele>
        <time>2019-06-23T01:34:51Z</time>
      </trkpt>
      <trkpt lat="65.89578" lon="12.40589">
        <ele>20</ele>
        <time>2019-06-23T01:35:22Z</time>
      </trkpt>
      <trkpt lat="65.89757" lon="12.40366">
        <ele>18</ele>
        <time>2019-06-23T01:35:32Z</time>
      </trkpt>
      <trkpt lat="65.89861" lon="12.40312">
        <ele>16</ele>
        <time>2019-06-23T01:35:46Z</time>
      </trkpt>
      <trkpt lat="65.89941" lon="12.4034">
        <ele>14</ele>
        <time>2019-06-23T01:35:58Z</time>
      </trkpt>
      <trkpt lat="65.90173" lon="12.40562">
        <ele>12</ele>
        <time>2019-06-23T01:37:40Z</time>
      </trkpt>
      <trkpt lat="65.90247" lon="12.40649">
        <ele>11</ele>
        <time>2019-06-23T01:37:56Z</time>
      </trkpt>
      <trkpt lat="65.9064" lon="12.41369">
        <ele>12</ele>
        <time>2019-06-23T01:38:12Z</time>
      </trkpt>
      <trkpt lat="65.90973" lon="12.41864">
        <ele>14</ele>
        <time>2019-06-23T01:38:21Z</time>
      </trkpt>
      <trkpt lat="65.91089" lon="12.42101">
        <ele>16</ele>
        <time>2019-06-23T01:38:49Z</time>
      </trkpt>
      <trkpt lat="65.91253" lon="12.42578">
        <ele>18</ele>
        <time>2019-06-23T01:40:17Z</time>
      </trkpt>
      <trkpt lat="65.91431" lon="12.42882">
        <ele>19</ele>
        <time>2019-06-23T01:40:29Z</time>
      </trkpt>
      <trkpt lat="65.91561" lon="12.43214">
        <ele>21</ele>
        <time>2019-06-23T01:40:41Z</time>
      </trkpt>
      <trkpt lat="65.91838" lon="12.43672">
        <ele>23</ele>
        <time>2019-06-23T01:40:46Z</time>
      </trkpt>
      <trkpt lat="65.91932" lon="12.43996">
        <ele>25</ele>
        <time>2019-06-23T01:40:50Z</time>
      </trkpt>
      <trkpt lat="65.92017" lon="12.44678">
        <ele>22</ele>
        <time>2019-06-23T01:41:13Z</time>
      </trkpt>
      <trkpt lat="65.921" lon="12.45133">
        <ele>19</ele>
        <time>2019-06-23T01:41:21Z</time>
      </trkpt>
      <trkpt lat="65.92175" lon="12.45363">
        <ele>16</ele>
        <time>2019-06-23T01:41:38Z</time>
      </trkpt>
      <trkpt lat="65.92221" lon="12.45459">
        <ele>14</ele>
        <time>2019-06-23T01:41:52Z</time>
      </trkpt>
      <trkpt lat="65.9243" lon="12.45687">
        <ele>11</ele>
        <time>2019-06-23T01:42:49Z</time>
      </trkpt>
      <trkpt lat="65.92754" lon="12.4632">
        <ele>8</ele>
        <time>2019-06-23T01:43:23Z</time>
      </trkpt>
      <trkpt lat="65.92858" lon="12.4645">
        <ele>6</ele>
        <time>2019-06-23T01:43:37Z</time>
      </trkpt>
      <trkpt lat="65.9298" lon="12.46554">
        <ele>3</ele>
        <time>2019-06-23T01:44:26Z</time>
      </trkpt>
      <trkpt lat="65.93057" lon="12.46562">
        <ele>2</ele>
        <time>2019-06-23T01:44:48Z</time>
      </trkpt>
      <trkpt lat="65.93592" lon="12.46462">
        <ele>4</ele>
        <time>2019-06-23T01:45:08Z</time>
      </trkpt>
      <trkpt lat="65.93715" lon="12.46345">
        <ele>6</ele>
        <time>2019-06-23T01:45:29Z</time>
      </trkpt>
      <trkpt lat="65.9395" lon="12.45948">
        <ele>7</ele>
        <time>2019-06-23T01:45:33Z</time>
      </trkpt>
      <trkpt lat="65.94056" lon="12.45838">
        <ele>9</ele>
        <time>2019-06-23T01:45:38Z</time>
      </trkpt>
      <trkpt lat="65.94273" lon="12.45845">
        <ele>11</ele>
        <time>2019-06-23T01:45:52Z</time>
      </trkpt>
      <trkpt lat="65.94408" lon="12.45899">
        <ele>13</ele>
        <time>2019-06-23T01:46:27Z</time>
      </trkpt>
      <trkpt lat="65.94977" lon="12.464">
        <ele>15</ele>
        <time>2019-06-23T01:46:36Z</time>
      </trkpt>
      <trkpt lat="65.95447" lon="12.46907">
        <ele>16</ele>
        <time>2019-06-23T01:46:42Z</time>
      </trkpt>
      <trkpt lat="65.95658" lon="12.47213">
        <ele>21</ele>
        <time>2019-06-23T01:46:46Z</time>
      </trkpt>
      <trkpt lat="65.95839" lon="12.47536">
        <ele>27</ele>
        <time>2019-06-23T01:47:05Z</time>
      </trkpt>
      <trkpt lat="65.96173" lon="12.4795">
        <ele>32</ele>
        <time>2019-06-23T01:47:30Z</time>
      </trkpt>
      <trkpt lat="65.96282" lon="12.48144">
        <ele>37</ele>
        <time>2019-06-23T01:47:42Z</time>
      </trkpt>
      <trkpt lat="65.96508" lon="12.48885">
        <ele>43</ele>
        <time>2019-06-23T01:48:28Z</time>
      </trkpt>
      <trkpt lat="65.96526" lon="12.49332">
        <ele>48</ele>
        <time>2019-06-23T01:48:37Z</time>
      </trkpt>
      <trkpt lat="65.96501" lon="12.49617">
        <ele>53</ele>
        <time>2019-06-23T01:48:48Z</time>
      </trkpt>
      <trkpt lat="65.96578" lon="12.50037">
        <ele>59</ele>
        <time>2019-06-23T01:49:13Z</time>
      </trkpt>
      <trkpt lat="65.96769" lon="12.50472">
        <ele>59</ele>
        <time>2019-06-23T01:49:21Z</time>
      </trkpt>
      <trkpt lat="65.96971" lon="12.51185">
        <ele>65</ele>
        <time>2019-06-23T01:49:32Z</time>
      </trkpt>
      <trkpt lat="65.97763" lon="12.52717">
        <ele>71</ele>
        <time>2019-06-23T01:49:39Z</time>
      </trkpt>
      <trkpt lat="65.98442" lon="12.54643">
        <ele>78</ele>
        <time>2019-06-23T01:50:33Z</time>
      </trkpt>
      <trkpt lat="65.98677" lon="12.55102">
        <ele>84</ele>
        <time>2019-06-23T01:51:14Z</time>
      </trkpt>
      <trkpt lat="65.99018" lon="12.56077">
        <ele>90</ele>
        <time>2019-06-23T01:51:27Z</time>
      </trkpt>
      <trkpt lat="65.99312" lon="12.567">
        <ele>96</ele>
        <time>2019-06-23T01:52:00Z</time>
      </trkpt>
      <trkpt lat="65.99582" lon="12.5758">
        <ele>102</ele>
        <time>2019-06-23T01:52:10Z</time>
      </trkpt>
      <trkpt lat="65.99665" lon="12.57819">
        <ele>105</ele>
        <time>2019-06-23T01:52:19Z</time>
      </trkpt>
      <trkpt lat="65.99698" lon="12.5782">
        <ele>96</ele>
        <time>2019-06-23T01:52:50Z</time>
      </trkpt>
      <trkpt lat="65.99754" lon="12.58035">
        <ele>86</ele>
        <time>2019-06-23T01:52:58Z</time>
      </trkpt>
      <trkpt lat="66.00118" lon="12.59063">
        <ele>77</ele>
        <time>2019-06-23T01:53:06Z</time>
      </trkpt>
      <trkpt lat="66.00428" lon="12.60176">
        <ele>68</ele>
        <time>2019-06-23T01:53:26Z</time>
      </trkpt>
      <trkpt lat="66.00531" lon="12.60389">
        <ele>59</ele>
        <time>2019-06-23T01:54:05Z</time>
      </trkpt>
      <trkpt lat="66.00885" lon="12.60897">
        <ele>50</ele>
        <time>2019-06-23T01:54:12Z</time>
      </trkpt>
      <trkpt lat="66.00938" lon="12.61005">
        <ele>41</ele>
        <time>2019-06-23T01:54:37Z</time>
      </trkpt>
      <trkpt lat="66.01424" lon="12.62408">
        <ele>34</ele>
        <time>2019-06-23T01:54:49Z</time>
      </trkpt>
      <trkpt lat="66.01773" lon="12.6319">
        <ele>34</ele>
        <time>2019-06-23T01:55:02Z</time>
      </trkpt>
      <trkpt lat="66.01761" lon="12.63384">
        <ele>33</ele>
        <time>2019-06-23T01:55:12Z</time>
      </trkpt>
      <trkpt lat="66.01696" lon="12.63697">
        <ele>33</ele>
        <time>2019-06-23T01:55:20Z</time>
      </trkpt>
      <trkpt lat="66.01646" lon="12.63712">
        <ele>32</ele>
        <time>2019-06-23T01:55:56Z</time>
      </trkpt>
      <trkpt lat="66.0161" lon="12.64792">
        <ele>32</ele>
        <time>2019-06-23T01:56:10Z</time>
      </trkpt>
      <trkpt lat="66.01588" lon="12.64828">
        <ele>32</ele>
        <time>2019-06-23T01:56:23Z</time>
      </trkpt>
      <trkpt lat="66.01615" lon="12.64776">
        <ele>31</ele>
        <time>2019-06-23T01:57:03Z</time>
      </trkpt>
      <trkpt lat="66.01623" lon="12.64353">
        <ele>31</ele>
        <time>2019-06-23T01:57:23Z</time>
      </trkpt>
      <trkpt lat="66.01616" lon="12.64682">
        <ele>31</ele>
        <time>2019-06-23T01:57:36Z</time>
      </trkpt>
      <trkpt lat="66.01718" lon="12.65569">
        <ele>27</ele>
        <time>2019-06-23T01:57:48Z</time>
      </trkpt>
      <trkpt lat="66.02271" lon="12.67853">
        <ele>23</ele>
        <time>2019-06-23T01:59:20Z</time>
      </trkpt>
      <trkpt lat="66.02425" lon="12.68685">
        <ele>19</ele>
        <time>2019-06-23T01:59:37Z</time>
      </trkpt>
      <trkpt lat="66.02484" lon="12.69228">
        <ele>15</ele>
        <time>2019-06-23T01:59:42Z</time>
      </trkpt>
      <trkpt lat="66.02601" lon="12.69487">
        <ele>10</ele>
        <time>2019-06-23T01:59:50Z</time>
      </trkpt>
      <trkpt lat="66.02765" lon="12.69488">
        <ele>6</ele>
        <time>2019-06-23T01:59:52Z</time>
      </trkpt>
      <trkpt lat="66.02895" lon="12.69693">
        <ele>2</ele>
        <time>2019-06-23T01:59:54Z</time>
      </trkpt>
      <trkpt lat="66.02946" lon="12.69859">
        <ele>3.9</ele>
        <time>2019-06-23T02:00:05Z</time>
      </trkpt>
      <trkpt lat="66.03239" lon="12.71272">
        <ele>4</ele>
        <time>2019-06-23T02:00:10Z</time>
      </trkpt>
      <trkpt lat="66.03265" lon="12.7144">
        <ele>7</ele>
        <time>2019-06-23T02:00:15Z</time>
      </trkpt>
      <trkpt lat="66.03278" lon="12.71939">
        <ele>11</ele>
        <time>2019-06-23T02:00:24Z</time>
      </trkpt>
      <trkpt lat="66.03308" lon="12.72081">
        <ele>15</ele>
        <time>2019-06-23T02:01:04Z</time>
      </trkpt>
      <trkpt lat="66.03365" lon="12.72185">
        <ele>19</ele>
        <time>2019-06-23T02:01:13Z</time>
      </trkpt>
      <trkpt lat="66.03444" lon="12.72205">
        <ele>22</ele>
        <time>2019-06-23T02:01:24Z</time>
      </trkpt>
      <trkpt lat="66.04047" lon="12.71888">
        <ele>26</ele>
        <time>2019-06-23T02:01:31Z</time>
      </trkpt>
      <trkpt lat="66.04232" lon="12.71818">
        <ele>29</ele>
        <time>2019-06-23T02:01:55Z</time>
      </trkpt>
      <trkpt lat="66.04267" lon="12.71837">
        <ele>28</ele>
        <time>2019-06-23T02:02:29Z</time>
      </trkpt>
      <trkpt lat="66.04368" lon="12.71988">
        <ele>27</ele>
        <time>2019-06-23T02:02:37Z</time>
      </trkpt>
      <trkpt lat="66.04548" lon="12.73011">
        <ele>26</ele>
        <time>2019-06-23T02:03:02Z</time>
      </trkpt>
      <trkpt lat="66.04604" lon="12.73184">
        <ele>25</ele>
        <time>2019-06-23T02:03:15Z</time>
      </trkpt>
      <trkpt lat="66.04653" lon="12.73275">
        <ele>24</ele>
        <time>2019-06-23T02:03:29Z</time>
      </trkpt>
      <trkpt lat="66.04745" lon="12.73371">
        <ele>22</ele>
        <time>2019-06-23T02:04:18Z</time>
      </trkpt>
      <trkpt lat="66.04908" lon="12.73467">
        <ele>21</ele>
        <time>2019-06-23T02:04:27Z</time>
      </trkpt>
      <trkpt lat="66.05002" lon="12.73635">
        <ele>20</ele>
        <time>2019-06-23T02:04:42Z</time>
      </trkpt>
      <trkpt lat="66.05039" lon="12.73757">
        <ele>20</ele>
        <time>2019-06-23T02:04:57Z</time>
      </trkpt>
      <trkpt lat="66.05178" lon="12.74402">
        <ele>21</ele>
        <time>2019-06-23T02:05:31Z</time>
      </trkpt>
      <trkpt lat="66.05304" lon="12.75202">
        <ele>23</ele>
        <time>2019-06-23T02:06:03Z</time>
      </trkpt>
      <trkpt lat="66.05491" lon="12.76084">
        <ele>25</ele>
        <time>2019-06-23T02:06:09Z</time>
      </trkpt>
      <trkpt lat="66.05602" lon="12.76796">
        <ele>26</ele>
        <time>2019-06-23T02:06:30Z</time>
      </trkpt>
      <trkpt lat="66.05938" lon="12.7856">
        <ele>28</ele>
        <time>2019-06-23T02:06:48Z</time>
      </trkpt>
      <trkpt lat="66.06028" lon="12.79497">
        <ele>30</ele>
        <time>2019-06-23T02:07:03Z</time>
      </trkpt>
      <trkpt lat="66.062" lon="12.80472">
        <ele>31</ele>
        <time>2019-06-23T02:13:20Z</time>
      </trkpt>
      <trkpt lat="66.06333" lon="12.81544">
        <ele>32</ele>
        <time>2019-06-23T02:13:38Z</time>
      </trkpt>
      <trkpt lat="66.06543" lon="12.8268">
        <ele>30</ele>
        <time>2019-06-23T02:13:47Z</time>
      </trkpt>
      <trkpt lat="66.06593" lon="12.83596">
        <ele>28</ele>
        <time>2019-06-23T02:14:02Z</time>
      </trkpt>
      <trkpt lat="66.0683" lon="12.86679">
        <ele>26</ele>
        <time>2019-06-23T02:14:20Z</time>
      </trkpt>
      <trkpt lat="66.06828" lon="12.89715">
        <ele>24</ele>
        <time>2019-06-23T02:14:25Z</time>
      </trkpt>
      <trkpt lat="66.06761" lon="12.91138">
        <ele>22</ele>
        <time>2019-06-23T02:14:32Z</time>
      </trkpt>
      <trkpt lat="66.06655" lon="12.92887">
        <ele>20</ele>
        <time>2019-06-23T02:14:37Z</time>
      </trkpt>
      <trkpt lat="66.06425" lon="12.94068">
        <ele>18</ele>
        <time>2019-06-23T02:14:52Z</time>
      </trkpt>
      <trkpt lat="66.06407" lon="12.94553">
        <ele>16</ele>
        <time>2019-06-23T02:15:25Z</time>
      </trkpt>
      <trkpt lat="66.06742" lon="12.95988">
        <ele>16</ele>
        <time>2019-06-23T02:15:44Z</time>
      </trkpt>
      <trkpt lat="66.06869" lon="12.96796">
        <ele>19</ele>
        <time>2019-06-23T02:16:11Z</time>
      </trkpt>
      <trkpt lat="66.06946" lon="12.97639">
        <ele>21</ele>
        <time>2019-06-23T02:16:21Z</time>
      </trkpt>
      <trkpt lat="66.06998" lon="12.98777">
        <ele>23</ele>
        <time>2019-06-23T02:16:32Z</time>
      </trkpt>
      <trkpt lat="66.07117" lon="12.99484">
        <ele>25</ele>
        <time>2019-06-23T02:17:16Z</time>
      </trkpt>
      <trkpt lat="66.07225" lon="12.9991">
        <ele>28</ele>
        <time>2019-06-23T02:17:30Z</time>
      </trkpt>
      <trkpt lat="66.0744" lon="13.0106">
        <ele>30</ele>
        <time>2019-06-23T02:17:46Z</time>
      </trkpt>
      <trkpt lat="66.07484" lon="13.01459">
        <ele>32</ele>
        <time>2019-06-23T02:18:00Z</time>
      </trkpt>
      <trkpt lat="66.07584" lon="13.01741">
        <ele>33</ele>
        <time>2019-06-23T02:18:36Z</time>
      </trkpt>
      <trkpt lat="66.07915" lon="13.03013">
        <ele>38</ele>
        <time>2019-06-23T02:19:03Z</time>
      </trkpt>
      <trkpt lat="66.08047" lon="13.03895">
        <ele>44</ele>
        <time>2019-06-23T02:19:11Z</time>
      </trkpt>
      <trkpt lat="66.09054" lon="13.05498">
        <ele>49</ele>
        <time>2019-06-23T02:19:44Z</time>
      </trkpt>
      <trkpt lat="66.09267" lon="13.0575">
        <ele>54</ele>
        <time>2019-06-23T02:19:53Z</time>
      </trkpt>
      <trkpt lat="66.09984" lon="13.0624">
        <ele>60</ele>
        <time>2019-06-23T02:20:06Z</time>
      </trkpt>
      <trkpt lat="66.10534" lon="13.0701">
        <ele>65</ele>
        <time>2019-06-23T02:20:31Z</time>
      </trkpt>
      <trkpt lat="66.10698" lon="13.07199">
        <ele>70</ele>
        <time>2019-06-23T02:20:44Z</time>
      </trkpt>
      <trkpt lat="66.10906" lon="13.0727">
        <ele>74</ele>
        <time>2019-06-23T02:20:59Z</time>
      </trkpt>
      <trkpt lat="66.10987" lon="13.07341">
        <ele>78</ele>
        <time>2019-06-23T02:21:30Z</time>
      </trkpt>
      <trkpt lat="66.11116" lon="13.07515">
        <ele>81</ele>
        <time>2019-06-23T02:22:14Z</time>
      </trkpt>
      <trkpt lat="66.11315" lon="13.07677">
        <ele>85</ele>
        <time>2019-06-23T02:22:22Z</time>
      </trkpt>
      <trkpt lat="66.11376" lon="13.07677">
        <ele>88</ele>
        <time>2019-06-23T02:22:43Z</time>
      </trkpt>
      <trkpt lat="66.11406" lon="13.07624">
        <ele>91</ele>
        <time>2019-06-23T02:23:11Z</time>
      </trkpt>
      <trkpt lat="66.11444" lon="13.07137">
        <ele>95</ele>
        <time>2019-06-23T02:23:48Z</time>
      </trkpt>
      <trkpt lat="66.11526" lon="13.06921">
        <ele>98</ele>
        <time>2019-06-23T02:24:27Z</time>
      </trkpt>
      <trkpt lat="66.1174" lon="13.06528">
        <ele>102</ele>
        <time>2019-06-23T02:24:36Z</time>
      </trkpt>
      <trkpt lat="66.11839" lon="13.064">
        <ele>102</ele>
        <time>2019-06-23T02:25:13Z</time>
      </trkpt>
      <trkpt lat="66.11887" lon="13.06377">
        <ele>101</ele>
        <time>2019-06-23T02:25:26Z</time>
      </trkpt>
      <trkpt lat="66.12002" lon="13.06387">
        <ele>99</ele>
        <time>2019-06-23T02:25:54Z</time>
      </trkpt>
      <trkpt lat="66.12161" lon="13.06532">
        <ele>97</ele>
        <time>2019-06-23T02:26:29Z</time>
      </trkpt>
      <trkpt lat="66.12398" lon="13.06597">
        <ele>96</ele>
        <time>2019-06-23T02:26:36Z</time>
      </trkpt>
      <trkpt lat="66.12515" lon="13.06618">
        <ele>94</ele>
        <time>2019-06-23T02:26:50Z</time>
      </trkpt>
      <trkpt lat="66.1291" lon="13.06512">
        <ele>92</ele>
        <time>2019-06-23T02:26:57Z</time>
      </trkpt>
      <trkpt lat="66.13317" lon="13.06669">
        <ele>91</ele>
        <time>2019-06-23T02:27:14Z</time>
      </trkpt>
      <trkpt lat="66.13513" lon="13.06655">
        <ele>90</ele>
        <time>2019-06-23T02:27:30Z</time>
      </trkpt>
      <trkpt lat="66.13592" lon="13.06688">
        <ele>79</ele>
        <time>2019-06-23T02:27:42Z</time>
      </trkpt>
      <trkpt lat="66.13773" lon="13.07177">
        <ele>67</ele>
        <time>2019-06-23T02:28:24Z</time>
      </trkpt>
      <trkpt lat="66.13857" lon="13.08">
        <ele>56</ele>
        <time>2019-06-23T02:28:46Z</time>
      </trkpt>
      <trkpt lat="66.13885" lon="13.08046">
        <ele>45</ele>
        <time>2019-06-23T02:29:38Z</time>
      </trkpt>
      <trkpt lat="66.14131" lon="13.08204">
        <ele>33</ele>
        <time>2019-06-23T02:30:22Z</time>
      </trkpt>
      <trkpt lat="66.1417" lon="13.08253">
        <ele>22</ele>
        <time>2019-06-23T02:30:32Z</time>
      </trkpt>
      <trkpt lat="66.14433" lon="13.08932">
        <ele>11</ele>
        <time>2019-06-23T02:30:39Z</time>
      </trkpt>
      <trkpt lat="66.14485" lon="13.09001">
        <ele>1</ele>
        <time>2019-06-23T02:30:53Z</time>
      </trkpt>
      <trkpt lat="66.14669" lon="13.09158">
        <ele>1</ele>
        <time>2019-06-23T02:31:38Z</time>
      </trkpt>
      <trkpt lat="66.14883" lon="13.09253">
        <ele>1</ele>
        <time>2019-06-23T02:31:52Z</time>
      </trkpt>
      <trkpt lat="66.15014" lon="13.09394">
        <ele>16.6</ele>
        <time>2019-06-23T02:32:11Z</time>
      </trkpt>
      <trkpt lat="66.15366" lon="13.10147">
        <ele>14.3</ele>
        <time>2019-06-23T02:32:22Z</time>
      </trkpt>
      <trkpt lat="66.15412" lon="13.10125">
        <ele>16.9</ele>
        <time>2019-06-23T02:32:39Z</time>
      </trkpt>
      <trkpt lat="66.15487" lon="13.08999">
        <ele>10</ele>
        <time>2019-06-23T02:33:00Z</time>
      </trkpt>
      <trkpt lat="66.1531" lon="13.07858">
        <ele>1</ele>
        <time>2019-06-23T02:33:06Z</time>
      </trkpt>
      <trkpt lat="66.15328" lon="13.07694">
        <time>2019-06-23T02:33:23Z</time>
      </trkpt>
      <trkpt lat="66.15362" lon="13.07644">
        <time>2019-06-23T02:33:39Z</time>
      </trkpt>
      <trkpt lat="66.15774" lon="13.07754">
        <time>2019-06-23T02:33:57Z</time>
      </trkpt>
      <trkpt lat="66.15824" lon="13.07745">
        <time>2019-06-23T02:34:34Z</time>
      </trkpt>
      <trkpt lat="66.15911" lon="13.07673">
        <time>2019-06-23T02:34:41Z</time>
      </trkpt>
      <trkpt lat="66.15969" lon="13.07522">
        <time>2019-06-23T02:34:52Z</time>
      </trkpt>
      <trkpt lat="66.16361" lon="13.05524">
        <time>2019-06-23T02:34:59Z</time>
      </trkpt>
      <trkpt lat="66.16901" lon="13.02509">
        <time>2019-06-23T02:35:09Z</time>
      </trkpt>
      <trkpt lat="66.17299" lon="13.0066">
        <time>2019-06-23T02:35:19Z</time>
      </trkpt>
      <trkpt lat="66.1741" lon="13.0032">
        <time>2019-06-23T02:35:27Z</time>
      </trkpt>
      <trkpt lat="66.17504" lon="13.00203">
        <time>2019-06-23T02:35:54Z</time>
      </trkpt>
      <trkpt lat="66.18074" lon="12.99992">
        <time>2019-06-23T02:36:10Z</time>
      </trkpt>
      <trkpt lat="66.18757" lon="12.99896">
        <time>2019-06-23T02:36:18Z</time>
      </trkpt>
      <trkpt lat="66.18955" lon="12.99924">
        <time>2019-06-23T02:37:01Z</time>
      </trkpt>
      <trkpt lat="66.19435" lon="13.0019">
        <time>2019-06-23T02:37:06Z</time>
      </trkpt>
      <trkpt lat="66.19915" lon="13.00386">
        <time>2019-06-23T02:41:42Z</time>
      </trkpt>
      <trkpt lat="66.20069" lon="13.00591">
        <time>2019-06-23T02:41:56Z</time>
      </trkpt>
      <trkpt lat="66.2012" lon="13.00905">
        <time>2019-06-23T02:42:41Z</time>
      </trkpt>
      <trkpt lat="66.20122" lon="13.01022">
        <time>2019-06-23T02:42:56Z</time>
      </trkpt>
      <trkpt lat="66.20073" lon="13.01123">
        <ele>1.4</ele>
        <time>2019-06-23T02:43:20Z</time>
      </trkpt>
      <trkpt lat="66.19994" lon="13.01582">
        <ele>6.4</ele>
        <time>2019-06-23T02:43:30Z</time>
      </trkpt>
      <trkpt lat="66.20006" lon="13.01742">
        <ele>7.4</ele>
        <time>2019-06-23T02:45:14Z</time>
      </trkpt>
      <trkpt lat="66.20024" lon="13.01811">
        <ele>7.5</ele>
        <time>2019-06-23T02:45:53Z</time>
      </trkpt>
      <trkpt lat="66.20213" lon="13.02061">
        <ele>2</ele>
        <time>2019-06-23T02:45:59Z</time>
      </trkpt>
      <trkpt lat="66.20264" lon="13.02288">
        <ele>3.7</ele>
        <time>2019-06-23T02:46:16Z</time>
      </trkpt>
      <trkpt lat="66.20307" lon="13.02345">
        <ele>2.9</ele>
        <time>2019-06-23T02:46:29Z</time>
      </trkpt>
      <trkpt lat="66.2025" lon="13.02227">
        <ele>3</ele>
        <time>2019-06-23T02:46:49Z</time>
      </trkpt>
      <trkpt lat="66.20209" lon="13.02044">
        <ele>1.6</ele>
        <time>2019-06-23T02:48:21Z</time>
      </trkpt>
      <trkpt lat="66.20019" lon="13.01796">
        <ele>7.4</ele>
        <time>2019-06-23T02:48:35Z</time>
      </trkpt>
      <trkpt lat="66.1999" lon="13.0217">
        <ele>12.1</ele>
        <time>2019-06-24T08:13:48Z</time>
      </trkpt>
      <trkpt lat="66.20049" lon="13.03257">
        <ele>1</ele>
        <time>2019-06-24T08:14:05Z</time>
      </trkpt>
      <trkpt lat="66.20086" lon="13.03417">
        <ele>1</ele>
        <time>2019-06-24T08:14:32Z</time>
      </trkpt>
      <trkpt lat="66.20694" lon="13.04481">
        <ele>1</ele>
        <time>2019-06-24T08:14:59Z</time>
      </trkpt>
      <trkpt lat="66.20956" lon="13.0515">
        <ele>1</ele>
        <time>2019-06-24T08:15:14Z</time>
      </trkpt>
      <trkpt lat="66.21346" lon="13.05607">
        <ele>1</ele>
        <time>2019-06-24T08:15:39Z</time>
      </trkpt>
      <trkpt lat="66.21595" lon="13.06255">
        <ele>3</ele>
        <time>2019-06-24T08:15:51Z</time>
      </trkpt>
      <trkpt lat="66.21713" lon="13.0648">
        <ele>5</ele>
        <time>2019-06-24T08:15:59Z</time>
      </trkpt>
      <trkpt lat="66.21818" lon="13.06897">
        <ele>7</ele>
        <time>2019-06-24T08:16:51Z</time>
      </trkpt>
      <trkpt lat="66.21914" lon="13.07525">
        <ele>9</ele>
        <time>2019-06-24T08:17:09Z</time>
      </trkpt>
      <trkpt lat="66.22494" lon="13.09077">
        <ele>11</ele>
        <time>2019-06-24T08:17:20Z</time>
      </trkpt>
      <trkpt lat="66.22622" lon="13.09361">
        <ele>13</ele>
        <time>2019-06-24T08:17:35Z</time>
      </trkpt>
      <trkpt lat="66.23118" lon="13.1015">
        <ele>15</ele>
        <time>2019-06-24T08:18:09Z</time>
      </trkpt>
      <trkpt lat="66.23255" lon="13.10466">
        <ele>17</ele>
        <time>2019-06-24T08:18:16Z</time>
      </trkpt>
      <trkpt lat="66.23526" lon="13.10871">
        <ele>17</ele>
        <time>2019-06-24T08:18:29Z</time>
      </trkpt>
      <trkpt lat="66.23644" lon="13.11339">
        <ele>15</ele>
        <time>2019-06-24T08:18:36Z</time>
      </trkpt>
      <trkpt lat="66.23834" lon="13.11942">
        <ele>14</ele>
        <time>2019-06-24T08:18:55Z</time>
      </trkpt>
      <trkpt lat="66.23953" lon="13.12211">
        <ele>12</ele>
        <time>2019-06-24T08:19:16Z</time>
      </trkpt>
      <trkpt lat="66.24054" lon="13.1233">
        <ele>11</ele>
        <time>2019-06-24T08:19:19Z</time>
      </trkpt>
      <trkpt lat="66.24097" lon="13.12468">
        <ele>9</ele>
        <time>2019-06-24T08:19:28Z</time>
      </trkpt>
      <trkpt lat="66.24247" lon="13.13353">
        <ele>8</ele>
        <time>2019-06-24T08:19:33Z</time>
      </trkpt>
      <trkpt lat="66.24749" lon="13.14495">
        <ele>6</ele>
        <time>2019-06-24T08:59:17Z</time>
      </trkpt>
      <trkpt lat="66.25013" lon="13.15474">
        <ele>5</ele>
        <time>2019-06-24T08:59:51Z</time>
      </trkpt>
      <trkpt lat="66.25248" lon="13.15977">
        <ele>7</ele>
        <time>2019-06-24T09:00:06Z</time>
      </trkpt>
      <trkpt lat="66.2576" lon="13.17395">
        <ele>8</ele>
        <time>2019-06-24T09:00:22Z</time>
      </trkpt>
      <trkpt lat="66.2596" lon="13.17857">
        <ele>10</ele>
        <time>2019-06-24T09:00:46Z</time>
      </trkpt>
      <trkpt lat="66.25999" lon="13.17934">
        <ele>11</ele>
        <time>2019-06-24T09:01:09Z</time>
      </trkpt>
      <trkpt lat="66.26379" lon="13.1841">
        <ele>12</ele>
        <time>2019-06-24T09:01:35Z</time>
      </trkpt>
      <trkpt lat="66.26742" lon="13.19186">
        <ele>14</ele>
        <time>2019-06-24T09:01:46Z</time>
      </trkpt>
      <trkpt lat="66.26922" lon="13.19714">
        <ele>15</ele>
        <time>2019-06-24T09:02:08Z</time>
      </trkpt>
      <trkpt lat="66.27019" lon="13.20131">
        <ele>16</ele>
        <time>2019-06-24T09:02:26Z</time>
      </trkpt>
      <trkpt lat="66.27253" lon="13.20592">
        <ele>26</ele>
        <time>2019-06-24T09:02:35Z</time>
      </trkpt>
      <trkpt lat="66.27278" lon="13.20789">
        <ele>36</ele>
        <time>2019-06-24T09:03:23Z</time>
      </trkpt>
      <trkpt lat="66.27229" lon="13.21742">
        <ele>46</ele>
        <time>2019-06-24T09:03:44Z</time>
      </trkpt>
      <trkpt lat="66.27145" lon="13.22068">
        <ele>56</ele>
        <time>2019-06-24T09:03:54Z</time>
      </trkpt>
      <trkpt lat="66.27109" lon="13.22387">
        <ele>66</ele>
        <time>2019-06-24T09:04:03Z</time>
      </trkpt>
      <trkpt lat="66.27163" lon="13.22977">
        <ele>76</ele>
        <time>2019-06-24T09:04:35Z</time>
      </trkpt>
      <trkpt lat="66.27248" lon="13.2295">
        <ele>86</ele>
        <time>2019-06-24T09:04:48Z</time>
      </trkpt>
      <trkpt lat="66.27319" lon="13.22844">
        <ele>96</ele>
        <time>2019-06-24T09:04:57Z</time>
      </trkpt>
      <trkpt lat="66.27349" lon="13.22851">
        <ele>98</ele>
        <time>2019-06-24T09:05:01Z</time>
      </trkpt>
      <trkpt lat="66.27473" lon="13.23268">
        <ele>111</ele>
        <time>2019-06-24T09:05:10Z</time>
      </trkpt>
      <trkpt lat="66.27558" lon="13.23408">
        <ele>124</ele>
        <time>2019-06-24T09:05:16Z</time>
      </trkpt>
      <trkpt lat="66.27516" lon="13.23474">
        <ele>137</ele>
        <time>2019-06-24T09:05:18Z</time>
      </trkpt>
      <trkpt lat="66.27421" lon="13.23521">
        <ele>150</ele>
        <time>2019-06-24T09:05:25Z</time>
      </trkpt>
      <trkpt lat="66.27375" lon="13.23665">
        <ele>163</ele>
        <time>2019-06-24T09:05:29Z</time>
      </trkpt>
      <trkpt lat="66.27353" lon="13.24034">
        <ele>176</ele>
        <time>2019-06-24T09:05:38Z</time>
      </trkpt>
      <trkpt lat="66.27447" lon="13.24542">
        <ele>189</ele>
        <time>2019-06-24T09:06:19Z</time>
      </trkpt>
      <trkpt lat="66.27435" lon="13.24878">
        <ele>196</ele>
        <time>2019-06-24T09:06:38Z</time>
      </trkpt>
      <trkpt lat="66.27476" lon="13.24943">
        <ele>203</ele>
        <time>2019-06-24T09:06:48Z</time>
      </trkpt>
      <trkpt lat="66.27537" lon="13.24905">
        <ele>211</ele>
        <time>2019-06-24T09:07:05Z</time>
      </trkpt>
      <trkpt lat="66.27605" lon="13.249">
        <ele>218</ele>
        <time>2019-06-24T09:07:24Z</time>
      </trkpt>
      <trkpt lat="66.27719" lon="13.24952">
        <ele>225</ele>
        <time>2019-06-24T09:07:53Z</time>
      </trkpt>
      <trkpt lat="66.27771" lon="13.24901">
        <ele>232</ele>
        <time>2019-06-24T09:08:03Z</time>
      </trkpt>
      <trkpt lat="66.27831" lon="13.24613">
        <ele>239</ele>
        <time>2019-06-24T09:12:23Z</time>
      </trkpt>
      <trkpt lat="66.27864" lon="13.24594">
        <ele>246</ele>
        <time>2019-06-24T09:12:30Z</time>
      </trkpt>
      <trkpt lat="66.27868" lon="13.25318">
        <ele>253</ele>
        <time>2019-06-24T09:12:38Z</time>
      </trkpt>
      <trkpt lat="66.27968" lon="13.25751">
        <ele>252</ele>
        <time>2019-06-24T09:13:14Z</time>
      </trkpt>
      <trkpt lat="66.28149" lon="13.26143">
        <ele>252</ele>
        <time>2019-06-24T09:13:24Z</time>
      </trkpt>
      <trkpt lat="66.28172" lon="13.26497">
        <ele>251</ele>
        <time>2019-06-24T09:13:33Z</time>
      </trkpt>
      <trkpt lat="66.28083" lon="13.26856">
        <ele>250</ele>
        <time>2019-06-24T09:13:46Z</time>
      </trkpt>
      <trkpt lat="66.28091" lon="13.27035">
        <ele>250</ele>
        <time>2019-06-24T09:14:15Z</time>
      </trkpt>
      <trkpt lat="66.28296" lon="13.27675">
        <ele>249</ele>
        <time>2019-06-24T09:14:28Z</time>
      </trkpt>
      <trkpt lat="66.28526" lon="13.28656">
        <ele>248</ele>
        <time>2019-06-24T09:14:40Z</time>
      </trkpt>
      <trkpt lat="66.28705" lon="13.28944">
        <ele>248</ele>
        <time>2019-06-24T09:14:56Z</time>
      </trkpt>
      <trkpt lat="66.28738" lon="13.29041">
        <ele>248</ele>
        <time>2019-06-24T09:15:19Z</time>
      </trkpt>
      <trkpt lat="66.28779" lon="13.29265">
        <ele>239</ele>
        <time>2019-06-24T09:15:46Z</time>
      </trkpt>
      <trkpt lat="66.28784" lon="13.297">
        <ele>230</ele>
        <time>2019-06-24T09:15:51Z</time>
      </trkpt>
      <trkpt lat="66.29156" lon="13.31325">
        <ele>221</ele>
        <time>2019-06-24T09:16:26Z</time>
      </trkpt>
      <trkpt lat="66.29175" lon="13.31928">
        <ele>212</ele>
        <time>2019-06-24T09:16:40Z</time>
      </trkpt>
      <trkpt lat="66.295" lon="13.33843">
        <ele>203</ele>
        <time>2019-06-24T09:16:50Z</time>
      </trkpt>
      <trkpt lat="66.29781" lon="13.36336">
        <ele>194</ele>
        <time>2019-06-24T09:17:12Z</time>
      </trkpt>
      <trkpt lat="66.29774" lon="13.37344">
        <ele>185</ele>
        <time>2019-06-24T09:17:21Z</time>
      </trkpt>
      <trkpt lat="66.29816" lon="13.40284">
        <ele>179</ele>
        <time>2019-06-24T09:17:29Z</time>
      </trkpt>
      <trkpt lat="66.29861" lon="13.40546">
        <ele>170</ele>
        <time>2019-06-24T09:17:38Z</time>
      </trkpt>
      <trkpt lat="66.29962" lon="13.40868">
        <ele>162</ele>
        <time>2019-06-24T09:17:58Z</time>
      </trkpt>
      <trkpt lat="66.30004" lon="13.41135">
        <ele>153</ele>
        <time>2019-06-24T09:18:16Z</time>
      </trkpt>
      <trkpt lat="66.3001" lon="13.41614">
        <ele>145</ele>
        <time>2019-06-24T09:18:26Z</time>
      </trkpt>
      <trkpt lat="66.29953" lon="13.42145">
        <ele>136</ele>
        <time>2019-06-24T09:18:42Z</time>
      </trkpt>
      <trkpt lat="66.29874" lon="13.42523">
        <ele>128</ele>
        <time>2019-06-24T09:18:59Z</time>
      </trkpt>
      <trkpt lat="66.29828" lon="13.4261">
        <ele>119</ele>
        <time>2019-06-24T09:19:09Z</time>
      </trkpt>
      <trkpt lat="66.29758" lon="13.4266">
        <ele>111</ele>
        <time>2019-06-24T09:19:41Z</time>
      </trkpt>
      <trkpt lat="66.29658" lon="13.42679">
        <ele>111</ele>
        <time>2019-06-24T09:19:55Z</time>
      </trkpt>
      <trkpt lat="66.29593" lon="13.4274">
        <ele>99</ele>
        <time>2019-06-24T09:20:01Z</time>
      </trkpt>
      <trkpt lat="66.29491" lon="13.43017">
        <ele>88</ele>
        <time>2019-06-24T09:20:14Z</time>
      </trkpt>
      <trkpt lat="66.29605" lon="13.4388">
        <ele>77</ele>
        <time>2019-06-24T09:20:45Z</time>
      </trkpt>
      <trkpt lat="66.29572" lon="13.44146">
        <ele>66</ele>
        <time>2019-06-24T09:20:55Z</time>
      </trkpt>
      <trkpt lat="66.29519" lon="13.44325">
        <ele>54</ele>
        <time>2019-06-24T09:21:12Z</time>
      </trkpt>
      <trkpt lat="66.29518" lon="13.4463">
        <ele>43</ele>
        <time>2019-06-24T09:21:26Z</time>
      </trkpt>
      <trkpt lat="66.29602" lon="13.44824">
        <ele>32</ele>
        <time>2019-06-24T09:22:00Z</time>
      </trkpt>
      <trkpt lat="66.29708" lon="13.45309">
        <ele>27</ele>
        <time>2019-06-24T09:22:18Z</time>
      </trkpt>
      <trkpt lat="66.29757" lon="13.45379">
        <ele>26</ele>
        <time>2019-06-24T09:22:45Z</time>
      </trkpt>
      <trkpt lat="66.29917" lon="13.45412">
        <ele>24</ele>
        <time>2019-06-24T09:23:15Z</time>
      </trkpt>
      <trkpt lat="66.29984" lon="13.45567">
        <ele>23</ele>
        <time>2019-06-24T09:23:29Z</time>
      </trkpt>
      <trkpt lat="66.30049" lon="13.46662">
        <ele>21</ele>
        <time>2019-06-24T09:23:38Z</time>
      </trkpt>
      <trkpt lat="66.3025" lon="13.48127">
        <ele>20</ele>
        <time>2019-06-24T09:23:52Z</time>
      </trkpt>
      <trkpt lat="66.30415" lon="13.49995">
        <ele>18</ele>
        <time>2019-06-24T09:23:57Z</time>
      </trkpt>
      <trkpt lat="66.30301" lon="13.50586">
        <ele>17</ele>
        <time>2019-06-24T09:24:07Z</time>
      </trkpt>
      <trkpt lat="66.30199" lon="13.5133">
        <ele>15</ele>
        <time>2019-06-24T09:24:20Z</time>
      </trkpt>
      <trkpt lat="66.30021" lon="13.51839">
        <ele>15</ele>
        <time>2019-06-24T09:24:42Z</time>
      </trkpt>
      <trkpt lat="66.29802" lon="13.52756">
        <ele>14</ele>
        <time>2019-06-24T09:25:00Z</time>
      </trkpt>
      <trkpt lat="66.29776" lon="13.53485">
        <ele>14</ele>
        <time>2019-06-24T09:26:15Z</time>
      </trkpt>
      <trkpt lat="66.29579" lon="13.55021">
        <ele>13</ele>
        <time>2019-06-24T09:26:27Z</time>
      </trkpt>
      <trkpt lat="66.29618" lon="13.54928">
        <ele>12</ele>
        <time>2019-06-24T09:26:38Z</time>
      </trkpt>
      <trkpt lat="66.29851" lon="13.54958">
        <ele>12</ele>
        <time>2019-06-24T09:26:41Z</time>
      </trkpt>
      <trkpt lat="66.29987" lon="13.55087">
        <ele>11</ele>
        <time>2019-06-24T09:26:57Z</time>
      </trkpt>
      <trkpt lat="66.30347" lon="13.55521">
        <ele>11</ele>
        <time>2019-06-24T09:27:05Z</time>
      </trkpt>
      <trkpt lat="66.3038" lon="13.55688">
        <ele>10</ele>
        <time>2019-06-24T09:27:08Z</time>
      </trkpt>
      <trkpt lat="66.30372" lon="13.56449">
        <ele>11</ele>
        <time>2019-06-24T09:27:16Z</time>
      </trkpt>
      <trkpt lat="66.30407" lon="13.56644">
        <ele>11</ele>
        <time>2019-06-24T09:27:35Z</time>
      </trkpt>
      <trkpt lat="66.30492" lon="13.56728">
        <ele>12</ele>
        <time>2019-06-24T09:27:38Z</time>
      </trkpt>
      <trkpt lat="66.30597" lon="13.56662">
        <ele>13</ele>
        <time>2019-06-24T09:27:50Z</time>
      </trkpt>
      <trkpt lat="66.30791" lon="13.56473">
        <ele>13</ele>
        <time>2019-06-24T09:28:02Z</time>
      </trkpt>
      <trkpt lat="66.30857" lon="13.56315">
        <ele>14</ele>
        <time>2019-06-24T09:28:21Z</time>
      </trkpt>
      <trkpt lat="66.30962" lon="13.55625">
        <ele>14</ele>
        <time>2019-06-24T09:28:34Z</time>
      </trkpt>
      <trkpt lat="66.31204" lon="13.54569">
        <ele>14</ele>
        <time>2019-06-24T09:28:49Z</time>
      </trkpt>
      <trkpt lat="66.31337" lon="13.54255">
        <ele>19</ele>
        <time>2019-06-24T09:29:10Z</time>
      </trkpt>
      <trkpt lat="66.31398" lon="13.54044">
        <ele>24</ele>
        <time>2019-06-24T09:29:25Z</time>
      </trkpt>
      <trkpt lat="66.31456" lon="13.53731">
        <ele>29</ele>
        <time>2019-06-24T09:29:42Z</time>
      </trkpt>
      <trkpt lat="66.31501" lon="13.53276">
        <ele>34</ele>
        <time>2019-06-24T09:30:43Z</time>
      </trkpt>
      <trkpt lat="66.31613" lon="13.52751">
        <ele>39</ele>
        <time>2019-06-24T09:30:53Z</time>
      </trkpt>
      <trkpt lat="66.31685" lon="13.52576">
        <ele>44</ele>
        <time>2019-06-24T09:31:01Z</time>
      </trkpt>
      <trkpt lat="66.31869" lon="13.52339">
        <ele>49</ele>
        <time>2019-06-24T09:31:12Z</time>
      </trkpt>
      <trkpt lat="66.31988" lon="13.52087">
        <ele>53</ele>
        <time>2019-06-24T09:31:50Z</time>
      </trkpt>
      <trkpt lat="66.31973" lon="13.51505">
        <ele>50</ele>
        <time>2019-06-24T09:32:12Z</time>
      </trkpt>
      <trkpt lat="66.32096" lon="13.50777">
        <ele>47</ele>
        <time>2019-06-24T09:32:40Z</time>
      </trkpt>
      <trkpt lat="66.32117" lon="13.50087">
        <ele>44</ele>
        <time>2019-06-24T09:32:59Z</time>
      </trkpt>
      <trkpt lat="66.322" lon="13.49813">
        <ele>41</ele>
        <time>2019-06-24T09:33:24Z</time>
      </trkpt>
      <trkpt lat="66.34699" lon="13.49322">
        <ele>38</ele>
        <time>2019-06-24T09:33:33Z</time>
      </trkpt>
      <trkpt lat="66.34735" lon="13.49175">
        <ele>35</ele>
        <time>2019-06-24T09:34:03Z</time>
      </trkpt>
      <trkpt lat="66.34745" lon="13.48972">
        <ele>32</ele>
        <time>2019-06-24T09:34:09Z</time>
      </trkpt>
      <trkpt lat="66.34658" lon="13.48193">
        <ele>29</ele>
        <time>2019-06-24T09:34:19Z</time>
      </trkpt>
      <trkpt lat="66.34582" lon="13.47918">
        <ele>28</ele>
        <time>2019-06-24T09:34:42Z</time>
      </trkpt>
      <trkpt lat="66.34442" lon="13.47569">
        <ele>26</ele>
        <time>2019-06-24T09:35:04Z</time>
      </trkpt>
      <trkpt lat="66.34311" lon="13.46831">
        <ele>23</ele>
        <time>2019-06-24T09:35:09Z</time>
      </trkpt>
      <trkpt lat="66.34367" lon="13.46181">
        <ele>21</ele>
        <time>2019-06-24T09:35:16Z</time>
      </trkpt>
      <trkpt lat="66.34524" lon="13.45833">
        <ele>19</ele>
        <time>2019-06-24T09:35:27Z</time>
      </trkpt>
      <trkpt lat="66.34548" lon="13.45669">
        <ele>16</ele>
        <time>2019-06-24T09:35:47Z</time>
      </trkpt>
      <trkpt lat="66.3456" lon="13.45477">
        <ele>14</ele>
        <time>2019-06-24T09:36:10Z</time>
      </trkpt>
      <trkpt lat="66.34513" lon="13.45019">
        <ele>11</ele>
        <time>2019-06-24T09:36:24Z</time>
      </trkpt>
      <trkpt lat="66.34575" lon="13.44554">
        <ele>10</ele>
        <time>2019-06-24T09:36:45Z</time>
      </trkpt>
      <trkpt lat="66.34725" lon="13.44003">
        <ele>9</ele>
        <time>2019-06-24T09:36:50Z</time>
      </trkpt>
      <trkpt lat="66.34942" lon="13.43718">
        <ele>8</ele>
        <time>2019-06-24T09:37:00Z</time>
      </trkpt>
      <trkpt lat="66.3499" lon="13.43548">
        <ele>7</ele>
        <time>2019-06-24T09:37:37Z</time>
      </trkpt>
      <trkpt lat="66.35001" lon="13.43294">
        <ele>6</ele>
        <time>2019-06-24T09:37:45Z</time>
      </trkpt>
      <trkpt lat="66.34977" lon="13.43029">
        <ele>5</ele>
        <time>2019-06-24T09:37:58Z</time>
      </trkpt>
      <trkpt lat="66.34942" lon="13.42869">
        <ele>4</ele>
        <time>2019-06-24T09:38:14Z</time>
      </trkpt>
      <trkpt lat="66.3487" lon="13.42731">
        <ele>4</ele>
        <time>2019-06-24T09:38:43Z</time>
      </trkpt>
      <trkpt lat="66.34578" lon="13.42411">
        <ele>3</ele>
        <time>2019-06-24T09:39:21Z</time>
      </trkpt>
      <trkpt lat="66.34406" lon="13.42166">
        <ele>3</ele>
        <time>2019-06-24T09:39:38Z</time>
      </trkpt>
      <trkpt lat="66.34109" lon="13.41533">
        <ele>3</ele>
        <time>2019-06-24T09:40:11Z</time>
      </trkpt>
      <trkpt lat="66.33919" lon="13.41044">
        <ele>3</ele>
        <time>2019-06-24T09:40:37Z</time>
      </trkpt>
      <trkpt lat="66.33802" lon="13.40833">
        <ele>3</ele>
        <time>2019-06-24T09:40:44Z</time>
      </trkpt>
      <trkpt lat="66.33684" lon="13.40489">
        <ele>3</ele>
        <time>2019-06-24T09:41:29Z</time>
      </trkpt>
      <trkpt lat="66.33572" lon="13.39182">
        <ele>3</ele>
        <time>2019-06-24T09:41:44Z</time>
      </trkpt>
      <trkpt lat="66.33663" lon="13.383">
        <ele>3</ele>
        <time>2019-06-24T09:42:01Z</time>
      </trkpt>
      <trkpt lat="66.33641" lon="13.36936">
        <ele>3</ele>
        <time>2019-06-24T09:42:17Z</time>
      </trkpt>
      <trkpt lat="66.33612" lon="13.36787">
        <ele>3</ele>
        <time>2019-06-24T09:43:04Z</time>
      </trkpt>
      <trkpt lat="66.33515" lon="13.36619">
        <ele>8</ele>
        <time>2019-06-24T09:43:12Z</time>
      </trkpt>
      <trkpt lat="66.3313" lon="13.36222">
        <ele>13</ele>
        <time>2019-06-24T09:43:20Z</time>
      </trkpt>
      <trkpt lat="66.32996" lon="13.35961">
        <ele>18</ele>
        <time>2019-06-24T09:43:38Z</time>
      </trkpt>
      <trkpt lat="66.32881" lon="13.35663">
        <ele>24</ele>
        <time>2019-06-24T09:44:15Z</time>
      </trkpt>
      <trkpt lat="66.32754" lon="13.35056">
        <ele>29</ele>
        <time>2019-06-24T09:44:41Z</time>
      </trkpt>
      <trkpt lat="66.32469" lon="13.33398">
        <ele>34</ele>
        <time>2019-06-24T09:44:52Z</time>
      </trkpt>
      <trkpt lat="66.3234" lon="13.32906">
        <ele>39</ele>
        <time>2019-06-24T09:46:45Z</time>
      </trkpt>
      <trkpt lat="66.32207" lon="13.32643">
        <ele>43</ele>
        <time>2019-06-24T09:46:53Z</time>
      </trkpt>
      <trkpt lat="66.32117" lon="13.32356">
        <ele>38</ele>
        <time>2019-06-24T09:47:01Z</time>
      </trkpt>
      <trkpt lat="66.31825" lon="13.30505">
        <ele>33</ele>
        <time>2019-06-24T09:47:32Z</time>
      </trkpt>
      <trkpt lat="66.31572" lon="13.29393">
        <ele>28</ele>
        <time>2019-06-24T09:47:41Z</time>
      </trkpt>
      <trkpt lat="66.31319" lon="13.27936">
        <ele>23</ele>
        <time>2019-06-24T09:47:49Z</time>
      </trkpt>
      <trkpt lat="66.30742" lon="13.23849">
        <ele>18</ele>
        <time>2019-06-24T09:48:01Z</time>
      </trkpt>
      <trkpt lat="66.30618" lon="13.22519">
        <ele>13</ele>
        <time>2019-06-24T09:48:27Z</time>
      </trkpt>
      <trkpt lat="66.30567" lon="13.20699">
        <ele>8</ele>
        <time>2019-06-24T09:48:51Z</time>
      </trkpt>
      <trkpt lat="66.32512" lon="13.16182">
        <ele>3</ele>
        <time>2019-06-24T09:48:57Z</time>
      </trkpt>
      <trkpt lat="66.3277" lon="13.16427">
        <ele>2</ele>
        <time>2019-06-24T09:49:11Z</time>
      </trkpt>
      <trkpt lat="66.32898" lon="13.16331">
        <ele>4</ele>
        <time>2019-06-24T09:49:23Z</time>
      </trkpt>
      <trkpt lat="66.33137" lon="13.15868">
        <ele>6</ele>
        <time>2019-06-24T09:49:33Z</time>
      </trkpt>
      <trkpt lat="66.33245" lon="13.15579">
        <ele>8</ele>
        <time>2019-06-24T09:50:12Z</time>
      </trkpt>
      <trkpt lat="66.33356" lon="13.15027">
        <ele>10</ele>
        <time>2019-06-24T09:50:35Z</time>
      </trkpt>
      <trkpt lat="66.33366" lon="13.14679">
        <ele>12</ele>
        <time>2019-06-24T09:50:43Z</time>
      </trkpt>
      <trkpt lat="66.33343" lon="13.14485">
        <ele>14</ele>
        <time>2019-06-24T09:50:52Z</time>
      </trkpt>
      <trkpt lat="66.33279" lon="13.14306">
        <ele>16</ele>
        <time>2019-06-24T09:51:37Z</time>
      </trkpt>
      <trkpt lat="66.33281" lon="13.14381">
        <ele>17</ele>
        <time>2019-06-24T09:51:45Z</time>
      </trkpt>
      <trkpt lat="66.33202" lon="13.14148">
        <ele>18</ele>
        <time>2019-06-24T09:51:53Z</time>
      </trkpt>
      <trkpt lat="66.33012" lon="13.13784">
        <ele>18</ele>
        <time>2019-06-24T09:52:03Z</time>
      </trkpt>
      <trkpt lat="66.32671" lon="13.1299">
        <ele>19</ele>
        <time>2019-06-24T09:52:26Z</time>
      </trkpt>
      <trkpt lat="66.32565" lon="13.12615">
        <ele>20</ele>
        <time>2019-06-24T09:52:51Z</time>
      </trkpt>
      <trkpt lat="66.32531" lon="13.12208">
        <ele>20</ele>
        <time>2019-06-24T09:53:06Z</time>
      </trkpt>
      <trkpt lat="66.32441" lon="13.11626">
        <ele>21</ele>
        <time>2019-06-24T09:53:14Z</time>
      </trkpt>
      <trkpt lat="66.32355" lon="13.10696">
        <ele>21</ele>
        <time>2019-06-24T09:53:18Z</time>
      </trkpt>
      <trkpt lat="66.322" lon="13.10189">
        <ele>22</ele>
        <time>2019-06-24T09:53:32Z</time>
      </trkpt>
      <trkpt lat="66.31814" lon="13.08274">
        <ele>23</ele>
        <time>2019-06-24T09:54:19Z</time>
      </trkpt>
      <trkpt lat="66.31808" lon="13.08037">
        <ele>24</ele>
        <time>2019-06-24T09:54:43Z</time>
      </trkpt>
      <trkpt lat="66.31878" lon="13.06978">
        <ele>26</ele>
        <time>2019-06-24T09:54:48Z</time>
      </trkpt>
      <trkpt lat="66.31937" lon="13.06693">
        <ele>27</ele>
        <time>2019-06-24T09:54:57Z</time>
      </trkpt>
      <trkpt lat="66.32122" lon="13.0634">
        <ele>28</ele>
        <time>2019-06-24T09:55:30Z</time>
      </trkpt>
      <trkpt lat="66.32306" lon="13.06084">
        <ele>30</ele>
        <time>2019-06-24T09:56:05Z</time>
      </trkpt>
      <trkpt lat="66.32378" lon="13.05847">
        <ele>31</ele>
        <time>2019-06-24T09:56:19Z</time>
      </trkpt>
      <trkpt lat="66.32441" lon="13.05177">
        <ele>32</ele>
        <time>2019-06-24T09:56:54Z</time>
      </trkpt>
      <trkpt lat="66.32496" lon="13.04888">
        <ele>32</ele>
        <time>2019-06-24T09:57:17Z</time>
      </trkpt>
      <trkpt lat="66.32813" lon="13.04089">
        <ele>30</ele>
        <time>2019-06-24T09:57:28Z</time>
      </trkpt>
      <trkpt lat="66.33076" lon="13.0332">
        <ele>28</ele>
        <time>2019-06-24T09:58:09Z</time>
      </trkpt>
      <trkpt lat="66.33238" lon="13.03088">
        <ele>25</ele>
        <time>2019-06-24T09:58:26Z</time>
      </trkpt>
      <trkpt lat="66.33342" lon="13.02857">
        <ele>23</ele>
        <time>2019-06-24T09:58:43Z</time>
      </trkpt>
      <trkpt lat="66.33573" lon="13.02101">
        <ele>21</ele>
        <time>2019-06-24T09:58:59Z</time>
      </trkpt>
      <trkpt lat="66.33899" lon="13.01246">
        <ele>18</ele>
        <time>2019-06-24T10:00:00Z</time>
      </trkpt>
      <trkpt lat="66.33988" lon="13.00778">
        <ele>16</ele>
        <time>2019-06-24T10:00:10Z</time>
      </trkpt>
      <trkpt lat="66.34251" lon="13.00582">
        <ele>15</ele>
        <time>2019-06-24T10:00:27Z</time>
      </trkpt>
      <trkpt lat="66.34427" lon="13.00377">
        <ele>15</ele>
        <time>2019-06-24T10:00:43Z</time>
      </trkpt>
      <trkpt lat="66.34519" lon="13.00213">
        <ele>16</ele>
        <time>2019-06-24T10:04:51Z</time>
      </trkpt>
      <trkpt lat="66.34567" lon="13.00189">
        <ele>17</ele>
        <time>2019-06-24T10:05:19Z</time>
      </trkpt>
      <trkpt lat="66.34685" lon="13.00163">
        <ele>18</ele>
        <time>2019-06-24T10:05:33Z</time>
      </trkpt>
      <trkpt lat="66.35304" lon="13.003">
        <ele>19</ele>
        <time>2019-06-24T10:05:54Z</time>
      </trkpt>
      <trkpt lat="66.35463" lon="13.00192">
        <ele>19</ele>
        <time>2019-06-24T10:06:01Z</time>
      </trkpt>
      <trkpt lat="66.35517" lon="13.00185">
        <ele>20</ele>
        <time>2019-06-24T10:06:09Z</time>
      </trkpt>
      <trkpt lat="66.35641" lon="13.00338">
        <ele>21</ele>
        <time>2019-06-24T10:06:58Z</time>
      </trkpt>
      <trkpt lat="66.3572" lon="13.00542">
        <ele>20</ele>
        <time>2019-06-24T10:07:15Z</time>
      </trkpt>
      <trkpt lat="66.35751" lon="13.00555">
        <ele>19</ele>
        <time>2019-06-24T10:07:31Z</time>
      </trkpt>
      <trkpt lat="66.35781" lon="13.00628">
        <ele>19</ele>
        <time>2019-06-24T10:07:48Z</time>
      </trkpt>
      <trkpt lat="66.35881" lon="13.01688">
        <ele>18</ele>
        <time>2019-06-24T10:08:06Z</time>
      </trkpt>
      <trkpt lat="66.35993" lon="13.02101">
        <ele>17</ele>
        <time>2019-06-24T10:08:28Z</time>
      </trkpt>
      <trkpt lat="66.36106" lon="13.02339">
        <ele>16</ele>
        <time>2019-06-24T10:08:44Z</time>
      </trkpt>
      <trkpt lat="66.36217" lon="13.02465">
        <ele>15</ele>
        <time>2019-06-24T10:09:01Z</time>
      </trkpt>
      <trkpt lat="66.36381" lon="13.02742">
        <ele>14</ele>
        <time>2019-06-24T10:09:20Z</time>
      </trkpt>
      <trkpt lat="66.36733" lon="13.03869">
        <ele>14</ele>
        <time>2019-06-24T10:09:32Z</time>
      </trkpt>
      <trkpt lat="66.37414" lon="13.06764">
        <ele>12</ele>
        <time>2019-06-24T10:10:04Z</time>
      </trkpt>
      <trkpt lat="66.37601" lon="13.07796">
        <ele>11</ele>
        <time>2019-06-24T10:10:16Z</time>
      </trkpt>
      <trkpt lat="66.37932" lon="13.09158">
        <ele>9</ele>
        <time>2019-06-24T10:10:26Z</time>
      </trkpt>
      <trkpt lat="66.38118" lon="13.09559">
        <ele>8</ele>
        <time>2019-06-24T10:10:34Z</time>
      </trkpt>
      <trkpt lat="66.38528" lon="13.10291">
        <ele>6</ele>
        <time>2019-06-24T10:10:59Z</time>
      </trkpt>
      <trkpt lat="66.38728" lon="13.11483">
        <ele>4</ele>
        <time>2019-06-24T10:11:06Z</time>
      </trkpt>
      <trkpt lat="66.38807" lon="13.11803">
        <ele>3</ele>
        <time>2019-06-24T10:11:15Z</time>
      </trkpt>
      <trkpt lat="66.3892" lon="13.12102">
        <ele>2</ele>
        <time>2019-06-24T10:11:25Z</time>
      </trkpt>
      <trkpt lat="66.39101" lon="13.12402">
        <ele>2</ele>
        <time>2019-06-24T10:11:43Z</time>
      </trkpt>
      <trkpt lat="66.39286" lon="13.12603">
        <ele>3</ele>
        <time>2019-06-24T10:12:49Z</time>
      </trkpt>
      <trkpt lat="66.39706" lon="13.13198">
        <ele>3</ele>
        <time>2019-06-24T10:13:02Z</time>
      </trkpt>
      <trkpt lat="66.3977" lon="13.13339">
        <ele>4</ele>
        <time>2019-06-24T10:13:21Z</time>
      </trkpt>
      <trkpt lat="66.39851" lon="13.13596">
        <ele>5</ele>
        <time>2019-06-24T10:13:34Z</time>
      </trkpt>
      <trkpt lat="66.39847" lon="13.13683">
        <ele>5</ele>
        <time>2019-06-24T10:13:45Z</time>
      </trkpt>
      <trkpt lat="66.39817" lon="13.13572">
        <ele>6</ele>
        <time>2019-06-24T10:14:33Z</time>
      </trkpt>
      <trkpt lat="66.40013" lon="13.1458">
        <ele>6</ele>
        <time>2019-06-24T10:14:52Z</time>
      </trkpt>
      <trkpt lat="66.40073" lon="13.15345">
        <ele>6</ele>
        <time>2019-06-24T10:15:00Z</time>
      </trkpt>
      <trkpt lat="66.4021" lon="13.15747">
        <ele>6</ele>
        <time>2019-06-24T10:15:07Z</time>
      </trkpt>
      <trkpt lat="66.40687" lon="13.16051">
        <ele>5</ele>
        <time>2019-06-24T10:15:25Z</time>
      </trkpt>
      <trkpt lat="66.40753" lon="13.16043">
        <ele>4</ele>
        <time>2019-06-24T10:15:59Z</time>
      </trkpt>
      <trkpt lat="66.40863" lon="13.15885">
        <ele>3</ele>
        <time>2019-06-24T10:16:24Z</time>
      </trkpt>
      <trkpt lat="66.41097" lon="13.15867">
        <ele>2</ele>
        <time>2019-06-24T10:16:47Z</time>
      </trkpt>
      <trkpt lat="66.41166" lon="13.15837">
        <ele>2</ele>
        <time>2019-06-24T10:16:59Z</time>
      </trkpt>
      <trkpt lat="66.41505" lon="13.15348">
        <ele>1</ele>
        <time>2019-06-24T10:17:11Z</time>
      </trkpt>
      <trkpt lat="66.42025" lon="13.1513">
        <ele>9.7</ele>
        <time>2019-06-24T10:17:44Z</time>
      </trkpt>
      <trkpt lat="66.42123" lon="13.15138">
        <ele>11.6</ele>
        <time>2019-06-24T10:17:55Z</time>
      </trkpt>
      <trkpt lat="66.42275" lon="13.14947">
        <ele>10.5</ele>
        <time>2019-06-24T10:18:04Z</time>
      </trkpt>
      <trkpt lat="66.42324" lon="13.14836">
        <ele>1</ele>
        <time>2019-06-24T10:18:12Z</time>
      </trkpt>
      <trkpt lat="66.4247" lon="13.14679">
        <ele>1</ele>
        <time>2019-06-24T10:18:48Z</time>
      </trkpt>
      <trkpt lat="66.42734" lon="13.14316">
        <ele>1</ele>
        <time>2019-06-24T10:18:57Z</time>
      </trkpt>
      <trkpt lat="66.42905" lon="13.14227">
        <ele>1</ele>
        <time>2019-06-24T10:19:09Z</time>
      </trkpt>
      <trkpt lat="66.42967" lon="13.14217">
        <ele>1</ele>
        <time>2019-06-24T10:19:23Z</time>
      </trkpt>
      <trkpt lat="66.43148" lon="13.14407">
        <ele>1</ele>
        <time>2019-06-24T10:19:40Z</time>
      </trkpt>
      <trkpt lat="66.4333" lon="13.14741">
        <ele>14</ele>
        <time>2019-06-24T10:20:38Z</time>
      </trkpt>
      <trkpt lat="66.43469" lon="13.14935">
        <ele>28</ele>
        <time>2019-06-24T10:20:47Z</time>
      </trkpt>
      <trkpt lat="66.43822" lon="13.15387">
        <ele>42</ele>
        <time>2019-06-24T10:21:17Z</time>
      </trkpt>
      <trkpt lat="66.43942" lon="13.15505">
        <ele>55</ele>
        <time>2019-06-24T10:21:34Z</time>
      </trkpt>
      <trkpt lat="66.43979" lon="13.15507">
        <ele>69</ele>
        <time>2019-06-24T10:21:43Z</time>
      </trkpt>
      <trkpt lat="66.44036" lon="13.15463">
        <ele>83</ele>
        <time>2019-06-24T10:22:22Z</time>
      </trkpt>
      <trkpt lat="66.44284" lon="13.14927">
        <ele>96</ele>
        <time>2019-06-24T10:22:44Z</time>
      </trkpt>
      <trkpt lat="66.44354" lon="13.14897">
        <ele>110</ele>
        <time>2019-06-24T10:22:51Z</time>
      </trkpt>
      <trkpt lat="66.44407" lon="13.14957">
        <ele>112</ele>
        <time>2019-06-24T10:23:03Z</time>
      </trkpt>
      <trkpt lat="66.44496" lon="13.15204">
        <ele>116</ele>
        <time>2019-06-24T10:23:21Z</time>
      </trkpt>
      <trkpt lat="66.44609" lon="13.15407">
        <ele>119</ele>
        <time>2019-06-24T10:23:47Z</time>
      </trkpt>
      <trkpt lat="66.44797" lon="13.15987">
        <ele>122</ele>
        <time>2019-06-24T10:23:58Z</time>
      </trkpt>
      <trkpt lat="66.44874" lon="13.16764">
        <ele>125</ele>
        <time>2019-06-24T10:24:24Z</time>
      </trkpt>
      <trkpt lat="66.44813" lon="13.1699">
        <ele>128</ele>
        <time>2019-06-24T10:24:46Z</time>
      </trkpt>
      <trkpt lat="66.44811" lon="13.17344">
        <ele>132</ele>
        <time>2019-06-24T10:24:48Z</time>
      </trkpt>
      <trkpt lat="66.44993" lon="13.17894">
        <ele>135</ele>
        <time>2019-06-24T10:25:19Z</time>
      </trkpt>
      <trkpt lat="66.45202" lon="13.1949">
        <ele>136</ele>
        <time>2019-06-24T10:25:27Z</time>
      </trkpt>
      <trkpt lat="66.45378" lon="13.20353">
        <ele>122</ele>
        <time>2019-06-24T10:25:44Z</time>
      </trkpt>
      <trkpt lat="66.4574" lon="13.20723">
        <ele>108</ele>
        <time>2019-06-24T10:26:01Z</time>
      </trkpt>
      <trkpt lat="66.4582" lon="13.20743">
        <ele>94</ele>
        <time>2019-06-24T10:26:57Z</time>
      </trkpt>
      <trkpt lat="66.45837" lon="13.20783">
        <ele>80</ele>
        <time>2019-06-24T10:27:07Z</time>
      </trkpt>
      <trkpt lat="66.45819" lon="13.21247">
        <ele>66</ele>
        <time>2019-06-24T10:27:14Z</time>
      </trkpt>
      <trkpt lat="66.45863" lon="13.21545">
        <ele>52</ele>
        <time>2019-06-24T10:27:28Z</time>
      </trkpt>
      <trkpt lat="66.46077" lon="13.22225">
        <ele>38</ele>
        <time>2019-06-24T10:27:52Z</time>
      </trkpt>
      <trkpt lat="66.4632" lon="13.2283">
        <ele>24</ele>
        <time>2019-06-24T10:28:20Z</time>
      </trkpt>
      <trkpt lat="66.46451" lon="13.22874">
        <ele>24</ele>
        <time>2019-06-24T10:28:39Z</time>
      </trkpt>
      <trkpt lat="66.46654" lon="13.23156">
        <ele>24</ele>
        <time>2019-06-24T10:28:56Z</time>
      </trkpt>
      <trkpt lat="66.46842" lon="13.23256">
        <ele>24</ele>
        <time>2019-06-24T10:29:09Z</time>
      </trkpt>
      <trkpt lat="66.4691" lon="13.23318">
        <ele>23</ele>
        <time>2019-06-24T10:29:16Z</time>
      </trkpt>
      <trkpt lat="66.47203" lon="13.23768">
        <ele>23</ele>
        <time>2019-06-24T10:29:41Z</time>
      </trkpt>
      <trkpt lat="66.47326" lon="13.2378">
        <ele>23</ele>
        <time>2019-06-24T10:30:25Z</time>
      </trkpt>
      <trkpt lat="66.47427" lon="13.239">
        <ele>22</ele>
        <time>2019-06-24T10:30:34Z</time>
      </trkpt>
      <trkpt lat="66.47629" lon="13.24038">
        <ele>22</ele>
        <time>2019-06-24T10:30:57Z</time>
      </trkpt>
      <trkpt lat="66.47689" lon="13.24123">
        <ele>22</ele>
        <time>2019-06-24T10:31:25Z</time>
      </trkpt>
      <trkpt lat="66.47743" lon="13.2415">
        <ele>25</ele>
        <time>2019-06-24T10:32:01Z</time>
      </trkpt>
      <trkpt lat="66.47971" lon="13.24134">
        <ele>27</ele>
        <time>2019-06-24T10:32:16Z</time>
      </trkpt>
      <trkpt lat="66.48179" lon="13.24374">
        <ele>30</ele>
        <time>2019-06-24T10:32:53Z</time>
      </trkpt>
      <trkpt lat="66.48286" lon="13.24388">
        <ele>33</ele>
        <time>2019-06-24T10:33:12Z</time>
      </trkpt>
      <trkpt lat="66.4846" lon="13.2422">
        <ele>36</ele>
        <time>2019-06-24T10:33:25Z</time>
      </trkpt>
      <trkpt lat="66.48539" lon="13.24017">
        <ele>38</ele>
        <time>2019-06-24T10:34:10Z</time>
      </trkpt>
      <trkpt lat="66.48684" lon="13.23846">
        <ele>41</ele>
        <time>2019-06-24T10:34:37Z</time>
      </trkpt>
      <trkpt lat="66.48823" lon="13.23453">
        <ele>43</ele>
        <time>2019-06-24T10:34:44Z</time>
      </trkpt>
      <trkpt lat="66.48809" lon="13.2317">
        <ele>38</ele>
        <time>2019-06-24T10:34:56Z</time>
      </trkpt>
      <trkpt lat="66.48715" lon="13.23031">
        <ele>32</ele>
        <time>2019-06-24T10:35:52Z</time>
      </trkpt>
      <trkpt lat="66.48681" lon="13.22927">
        <ele>27</ele>
        <time>2019-06-24T10:36:01Z</time>
      </trkpt>
      <trkpt lat="66.48678" lon="13.22773">
        <ele>21</ele>
        <time>2019-06-24T10:36:11Z</time>
      </trkpt>
      <trkpt lat="66.48732" lon="13.22625">
        <ele>16</ele>
        <time>2019-06-24T10:36:23Z</time>
      </trkpt>
      <trkpt lat="66.4886" lon="13.22688">
        <ele>11</ele>
        <time>2019-06-24T10:36:51Z</time>
      </trkpt>
      <trkpt lat="66.49027" lon="13.2291">
        <ele>5</ele>
        <time>2019-06-24T10:37:30Z</time>
      </trkpt>
      <trkpt lat="66.49078" lon="13.22864">
        <time>2019-06-24T10:37:44Z</time>
      </trkpt>
      <trkpt lat="66.50205" lon="13.27389">
        <time>2019-06-24T10:38:15Z</time>
      </trkpt>
      <trkpt lat="66.50533" lon="13.29082">
        <time>2019-06-24T10:38:35Z</time>
      </trkpt>
      <trkpt lat="66.50599" lon="13.2951">
        <time>2019-06-24T10:38:46Z</time>
      </trkpt>
      <trkpt lat="66.50653" lon="13.30112">
        <time>2019-06-24T10:39:32Z</time>
      </trkpt>
      <trkpt lat="66.50581" lon="13.29432">
        <time>2019-06-24T10:39:55Z</time>
      </trkpt>
      <trkpt lat="66.5056" lon="13.28899">
        <time>2019-06-24T10:40:05Z</time>
      </trkpt>
      <trkpt lat="66.50672" lon="13.28129">
        <time>2019-06-24T10:40:20Z</time>
      </trkpt>
      <trkpt lat="66.50963" lon="13.27195">
        <time>2019-06-24T10:40:41Z</time>
      </trkpt>
      <trkpt lat="66.51485" lon="13.26094">
        <time>2019-06-24T10:41:19Z</time>
      </trkpt>
      <trkpt lat="66.52444" lon="13.24194">
        <time>2019-06-24T10:41:34Z</time>
      </trkpt>
      <trkpt lat="66.53628" lon="13.22015">
        <time>2019-06-24T10:42:13Z</time>
      </trkpt>
      <trkpt lat="66.55391" lon="13.19067">
        <time>2019-06-24T10:42:27Z</time>
      </trkpt>
      <trkpt lat="66.55965" lon="13.18211">
        <time>2019-06-24T10:42:43Z</time>
      </trkpt>
      <trkpt lat="66.56353" lon="13.1772">
        <time>2019-06-24T10:43:33Z</time>
      </trkpt>
      <trkpt lat="66.57075" lon="13.17106">
        <time>2019-06-24T10:43:47Z</time>
      </trkpt>
      <trkpt lat="66.57269" lon="13.17004">
        <time>2019-06-24T10:44:00Z</time>
      </trkpt>
      <trkpt lat="66.57354" lon="13.17026">
        <time>2019-06-24T10:44:15Z</time>
      </trkpt>
      <trkpt lat="66.58121" lon="13.17822">
        <time>2019-06-24T11:15:02Z</time>
      </trkpt>
      <trkpt lat="66.58751" lon="13.18424">
        <time>2019-06-24T11:15:22Z</time>
      </trkpt>
      <trkpt lat="66.5945" lon="13.19138">
        <time>2019-06-24T11:15:35Z</time>
      </trkpt>
      <trkpt lat="66.60284" lon="13.20033">
        <time>2019-06-24T11:15:50Z</time>
      </trkpt>
      <trkpt lat="66.60766" lon="13.20671">
        <time>2019-06-24T11:16:15Z</time>
      </trkpt>
      <trkpt lat="66.61211" lon="13.21414">
        <time>2019-06-24T11:16:44Z</time>
      </trkpt>
      <trkpt lat="66.61509" lon="13.22008">
        <time>2019-06-24T11:16:57Z</time>
      </trkpt>
      <trkpt lat="66.62422" lon="13.24472">
        <time>2019-06-24T11:17:27Z</time>
      </trkpt>
      <trkpt lat="66.62627" lon="13.25084">
        <time>2019-06-24T11:17:46Z</time>
      </trkpt>
      <trkpt lat="66.62727" lon="13.25519">
        <time>2019-06-24T11:17:59Z</time>
      </trkpt>
      <trkpt lat="66.62752" lon="13.25753">
        <ele>1</ele>
        <time>2019-06-24T11:18:35Z</time>
      </trkpt>
      <trkpt lat="66.62756" lon="13.26271">
        <ele>2</ele>
        <time>2019-06-24T11:18:46Z</time>
      </trkpt>
      <trkpt lat="66.62727" lon="13.26477">
        <ele>3</ele>
        <time>2019-06-24T11:18:53Z</time>
      </trkpt>
      <trkpt lat="66.62394" lon="13.28201">
        <ele>4</ele>
        <time>2019-06-24T11:19:00Z</time>
      </trkpt>
      <trkpt lat="66.62427" lon="13.28529">
        <ele>5</ele>
        <time>2019-06-24T11:19:18Z</time>
      </trkpt>
      <trkpt lat="66.62423" lon="13.28906">
        <ele>6</ele>
        <time>2019-06-24T11:19:27Z</time>
      </trkpt>
      <trkpt lat="66.6229" lon="13.28985">
        <ele>6</ele>
        <time>2019-06-24T11:20:26Z</time>
      </trkpt>
      <trkpt lat="66.62078" lon="13.29399">
        <ele>9</ele>
        <time>2019-06-24T11:20:50Z</time>
      </trkpt>
      <trkpt lat="66.62051" lon="13.29522">
        <ele>13</ele>
        <time>2019-06-24T11:21:04Z</time>
      </trkpt>
      <trkpt lat="66.6207" lon="13.29825">
        <ele>16</ele>
        <time>2019-06-24T11:21:10Z</time>
      </trkpt>
      <trkpt lat="66.62019" lon="13.29838">
        <ele>20</ele>
        <time>2019-06-24T11:21:48Z</time>
      </trkpt>
      <trkpt lat="66.6207" lon="13.29839">
        <ele>23</ele>
        <time>2019-06-24T11:21:57Z</time>
      </trkpt>
      <trkpt lat="66.62075" lon="13.29992">
        <ele>26</ele>
        <time>2019-06-24T11:22:01Z</time>
      </trkpt>
      <trkpt lat="66.61983" lon="13.30446">
        <ele>30</ele>
        <time>2019-06-24T11:22:11Z</time>
      </trkpt>
      <trkpt lat="66.62009" lon="13.30711">
        <ele>33</ele>
        <time>2019-06-24T11:22:34Z</time>
      </trkpt>
      <trkpt lat="66.62016" lon="13.31449">
        <ele>30</ele>
        <time>2019-06-24T11:22:50Z</time>
      </trkpt>
      <trkpt lat="66.62256" lon="13.32378">
        <ele>28</ele>
        <time>2019-06-24T11:22:57Z</time>
      </trkpt>
      <trkpt lat="66.62424" lon="13.32686">
        <ele>25</ele>
        <time>2019-06-24T11:23:13Z</time>
      </trkpt>
      <trkpt lat="66.625" lon="13.32734">
        <ele>23</ele>
        <time>2019-06-24T11:24:14Z</time>
      </trkpt>
      <trkpt lat="66.62621" lon="13.32746">
        <ele>20</ele>
        <time>2019-06-24T11:25:14Z</time>
      </trkpt>
      <trkpt lat="66.62743" lon="13.32659">
        <ele>18</ele>
        <time>2019-06-24T11:25:39Z</time>
      </trkpt>
      <trkpt lat="66.62859" lon="13.32496">
        <ele>15</ele>
        <time>2019-06-24T11:25:51Z</time>
      </trkpt>
      <trkpt lat="66.63071" lon="13.32387">
        <ele>13</ele>
        <time>2019-06-24T11:26:10Z</time>
      </trkpt>
      <trkpt lat="66.63115" lon="13.32406">
        <ele>12</ele>
        <time>2019-06-24T11:26:20Z</time>
      </trkpt>
      <trkpt lat="66.63244" lon="13.32556">
        <ele>12</ele>
        <time>2019-06-24T11:26:51Z</time>
      </trkpt>
      <trkpt lat="66.63315" lon="13.32732">
        <ele>12</ele>
        <time>2019-06-24T11:27:06Z</time>
      </trkpt>
      <trkpt lat="66.63333" lon="13.32878">
        <ele>11</ele>
        <time>2019-06-24T11:27:16Z</time>
      </trkpt>
      <trkpt lat="66.63265" lon="13.34082">
        <ele>11</ele>
        <time>2019-06-24T11:27:22Z</time>
      </trkpt>
      <trkpt lat="66.63341" lon="13.34555">
        <ele>11</ele>
        <time>2019-06-24T11:27:41Z</time>
      </trkpt>
      <trkpt lat="66.63241" lon="13.35346">
        <ele>11</ele>
        <time>2019-06-24T11:28:00Z</time>
      </trkpt>
      <trkpt lat="66.63239" lon="13.35587">
        <ele>11</ele>
        <time>2019-06-24T11:28:15Z</time>
      </trkpt>
      <trkpt lat="66.63261" lon="13.36248">
        <ele>11</ele>
        <time>2019-06-24T11:28:33Z</time>
      </trkpt>
      <trkpt lat="66.6338" lon="13.36953">
        <ele>13</ele>
        <time>2019-06-24T11:28:48Z</time>
      </trkpt>
      <trkpt lat="66.63381" lon="13.37128">
        <ele>16</ele>
        <time>2019-06-24T11:28:56Z</time>
      </trkpt>
      <trkpt lat="66.63341" lon="13.37292">
        <ele>19</ele>
        <time>2019-06-24T11:29:19Z</time>
      </trkpt>
      <trkpt lat="66.63249" lon="13.37468">
        <ele>21</ele>
        <time>2019-06-24T11:29:28Z</time>
      </trkpt>
      <trkpt lat="66.6325" lon="13.37766">
        <ele>24</ele>
        <time>2019-06-24T11:29:34Z</time>
      </trkpt>
      <trkpt lat="66.63296" lon="13.37953">
        <ele>27</ele>
        <time>2019-06-24T11:29:37Z</time>
      </trkpt>
      <trkpt lat="66.63399" lon="13.38139">
        <ele>29</ele>
        <time>2019-06-24T11:29:58Z</time>
      </trkpt>
      <trkpt lat="66.63495" lon="13.38391">
        <ele>32</ele>
        <time>2019-06-24T11:30:14Z</time>
      </trkpt>
      <trkpt lat="66.63547" lon="13.38742">
        <ele>32</ele>
        <time>2019-06-24T11:30:23Z</time>
      </trkpt>
      <trkpt lat="66.63545" lon="13.39022">
        <ele>37</ele>
        <time>2019-06-24T11:30:38Z</time>
      </trkpt>
      <trkpt lat="66.63474" lon="13.39668">
        <ele>42</ele>
        <time>2019-06-24T11:30:52Z</time>
      </trkpt>
      <trkpt lat="66.63338" lon="13.40219">
        <ele>47</ele>
        <time>2019-06-24T11:31:12Z</time>
      </trkpt>
      <trkpt lat="66.63297" lon="13.40309">
        <ele>53</ele>
        <time>2019-06-24T11:31:22Z</time>
      </trkpt>
      <trkpt lat="66.63217" lon="13.4038">
        <ele>58</ele>
        <time>2019-06-24T11:31:39Z</time>
      </trkpt>
      <trkpt lat="66.63058" lon="13.40388">
        <ele>63</ele>
        <time>2019-06-24T11:31:49Z</time>
      </trkpt>
      <trkpt lat="66.62994" lon="13.40455">
        <ele>68</ele>
        <time>2019-06-24T11:32:01Z</time>
      </trkpt>
      <trkpt lat="66.62784" lon="13.41383">
        <ele>70</ele>
        <time>2019-06-24T11:32:44Z</time>
      </trkpt>
      <trkpt lat="66.62718" lon="13.41923">
        <ele>68</ele>
        <time>2019-06-24T11:33:05Z</time>
      </trkpt>
      <trkpt lat="66.62503" lon="13.42799">
        <ele>66</ele>
        <time>2019-06-24T11:33:16Z</time>
      </trkpt>
      <trkpt lat="66.62451" lon="13.43257">
        <ele>64</ele>
        <time>2019-06-24T11:33:31Z</time>
      </trkpt>
      <trkpt lat="66.62396" lon="13.44423">
        <ele>62</ele>
        <time>2019-06-24T11:33:51Z</time>
      </trkpt>
      <trkpt lat="66.62241" lon="13.45199">
        <ele>60</ele>
        <time>2019-06-24T11:34:13Z</time>
      </trkpt>
      <trkpt lat="66.62185" lon="13.45644">
        <ele>58</ele>
        <time>2019-06-24T11:34:22Z</time>
      </trkpt>
      <trkpt lat="66.62213" lon="13.45888">
        <ele>56</ele>
        <time>2019-06-24T11:34:53Z</time>
      </trkpt>
      <trkpt lat="66.64116" lon="13.52098">
        <ele>55</ele>
        <time>2019-06-24T11:35:13Z</time>
      </trkpt>
      <trkpt lat="66.64219" lon="13.52282">
        <ele>51</ele>
        <time>2019-06-24T11:35:23Z</time>
      </trkpt>
      <trkpt lat="66.64453" lon="13.5242">
        <ele>48</ele>
        <time>2019-06-24T11:35:44Z</time>
      </trkpt>
      <trkpt lat="66.64554" lon="13.52619">
        <ele>44</ele>
        <time>2019-06-24T11:35:47Z</time>
      </trkpt>
      <trkpt lat="66.64651" lon="13.53181">
        <ele>41</ele>
        <time>2019-06-24T11:35:51Z</time>
      </trkpt>
      <trkpt lat="66.64644" lon="13.53468">
        <ele>37</ele>
        <time>2019-06-24T11:35:54Z</time>
      </trkpt>
      <trkpt lat="66.6449" lon="13.54025">
        <ele>33</ele>
        <time>2019-06-24T11:36:36Z</time>
      </trkpt>
      <trkpt lat="66.64441" lon="13.54531">
        <ele>30</ele>
        <time>2019-06-24T11:36:53Z</time>
      </trkpt>
      <trkpt lat="66.6444" lon="13.54772">
        <ele>26</ele>
        <time>2019-06-24T11:37:09Z</time>
      </trkpt>
      <trkpt lat="66.64484" lon="13.5528">
        <ele>26</ele>
        <time>2019-06-24T11:37:30Z</time>
      </trkpt>
      <trkpt lat="66.64673" lon="13.56489">
        <ele>23</ele>
        <time>2019-06-24T11:37:48Z</time>
      </trkpt>
      <trkpt lat="66.64723" lon="13.56631">
        <ele>21</ele>
        <time>2019-06-24T11:38:00Z</time>
      </trkpt>
      <trkpt lat="66.64821" lon="13.56742">
        <ele>18</ele>
        <time>2019-06-24T11:38:26Z</time>
      </trkpt>
      <trkpt lat="66.64999" lon="13.56581">
        <ele>15</ele>
        <time>2019-06-24T11:38:53Z</time>
      </trkpt>
      <trkpt lat="66.65039" lon="13.56514">
        <ele>12</ele>
        <time>2019-06-24T11:39:12Z</time>
      </trkpt>
      <trkpt lat="66.65099" lon="13.56358">
        <ele>10</ele>
        <time>2019-06-24T11:39:29Z</time>
      </trkpt>
      <trkpt lat="66.65168" lon="13.55745">
        <ele>7</ele>
        <time>2019-06-24T11:40:01Z</time>
      </trkpt>
      <trkpt lat="66.65251" lon="13.5538">
        <ele>6</ele>
        <time>2019-06-24T11:40:10Z</time>
      </trkpt>
      <trkpt lat="66.65296" lon="13.55267">
        <ele>5</ele>
        <time>2019-06-24T11:40:14Z</time>
      </trkpt>
      <trkpt lat="66.65752" lon="13.54498">
        <ele>5</ele>
        <time>2019-06-24T11:40:18Z</time>
      </trkpt>
      <trkpt lat="66.65947" lon="13.54352">
        <ele>4</ele>
        <time>2019-06-24T11:40:28Z</time>
      </trkpt>
      <trkpt lat="66.66177" lon="13.54053">
        <ele>4</ele>
        <time>2019-06-24T11:40:57Z</time>
      </trkpt>
      <trkpt lat="66.66402" lon="13.53958">
        <ele>4</ele>
        <time>2019-06-24T11:41:03Z</time>
      </trkpt>
      <trkpt lat="66.66599" lon="13.53984">
        <ele>3</ele>
        <time>2019-06-24T11:41:25Z</time>
      </trkpt>
      <trkpt lat="66.66745" lon="13.5389">
        <ele>3</ele>
        <time>2019-06-24T11:43:10Z</time>
      </trkpt>
      <trkpt lat="66.66945" lon="13.5366">
        <ele>3</ele>
        <time>2019-06-24T11:43:22Z</time>
      </trkpt>
      <trkpt lat="66.67093" lon="13.53321">
        <ele>6</ele>
        <time>2019-06-24T11:43:36Z</time>
      </trkpt>
      <trkpt lat="66.67177" lon="13.52983">
        <ele>9</ele>
        <time>2019-06-24T11:43:40Z</time>
      </trkpt>
      <trkpt lat="66.67199" lon="13.52776">
        <ele>12</ele>
        <time>2019-06-24T11:43:44Z</time>
      </trkpt>
      <trkpt lat="66.6721" lon="13.51861">
        <ele>15</ele>
        <time>2019-06-24T11:43:46Z</time>
      </trkpt>
      <trkpt lat="66.67245" lon="13.51547">
        <ele>18</ele>
        <time>2019-06-24T11:44:12Z</time>
      </trkpt>
      <trkpt lat="66.67325" lon="13.51277">
        <ele>21</ele>
        <time>2019-06-24T11:44:21Z</time>
      </trkpt>
      <trkpt lat="66.67518" lon="13.50849">
        <ele>24</ele>
        <time>2019-06-24T11:44:29Z</time>
      </trkpt>
      <trkpt lat="66.67619" lon="13.50348">
        <ele>27</ele>
        <time>2019-06-24T11:44:39Z</time>
      </trkpt>
      <trkpt lat="66.67781" lon="13.48207">
        <ele>27</ele>
        <time>2019-06-24T11:44:51Z</time>
      </trkpt>
      <trkpt lat="66.67781" lon="13.47855">
        <ele>25</ele>
        <time>2019-06-24T11:45:02Z</time>
      </trkpt>
      <trkpt lat="66.67741" lon="13.47375">
        <ele>22</ele>
        <time>2019-06-24T11:45:08Z</time>
      </trkpt>
      <trkpt lat="66.67758" lon="13.46829">
        <ele>19</ele>
        <time>2019-06-24T11:45:21Z</time>
      </trkpt>
      <trkpt lat="66.67823" lon="13.46496">
        <ele>16</ele>
        <time>2019-06-24T11:45:34Z</time>
      </trkpt>
      <trkpt lat="66.67871" lon="13.46399">
        <ele>13</ele>
        <time>2019-06-24T11:45:39Z</time>
      </trkpt>
      <trkpt lat="66.67906" lon="13.46369">
        <ele>10</ele>
        <time>2019-06-24T11:45:49Z</time>
      </trkpt>
      <trkpt lat="66.68071" lon="13.46371">
        <ele>7</ele>
        <time>2019-06-24T11:45:52Z</time>
      </trkpt>
      <trkpt lat="66.68193" lon="13.46168">
        <ele>5</ele>
        <time>2019-06-24T11:45:56Z</time>
      </trkpt>
      <trkpt lat="66.68243" lon="13.4615">
        <ele>9</ele>
        <time>2019-06-24T11:45:59Z</time>
      </trkpt>
      <trkpt lat="66.68316" lon="13.46272">
        <ele>12</ele>
        <time>2019-06-24T11:46:05Z</time>
      </trkpt>
      <trkpt lat="66.68422" lon="13.46586">
        <ele>16</ele>
        <time>2019-06-24T11:46:15Z</time>
      </trkpt>
      <trkpt lat="66.68521" lon="13.46688">
        <ele>19</ele>
        <time>2019-06-24T11:46:19Z</time>
      </trkpt>
      <trkpt lat="66.68916" lon="13.46746">
        <ele>23</ele>
        <time>2019-06-24T11:46:36Z</time>
      </trkpt>
      <trkpt lat="66.69072" lon="13.46867">
        <ele>26</ele>
        <time>2019-06-24T11:46:49Z</time>
      </trkpt>
      <trkpt lat="66.69127" lon="13.46881">
        <ele>30</ele>
        <time>2019-06-24T11:47:07Z</time>
      </trkpt>
      <trkpt lat="66.69546" lon="13.46587">
        <ele>33</ele>
        <time>2019-06-24T11:47:24Z</time>
      </trkpt>
      <trkpt lat="66.69861" lon="13.46543">
        <ele>33</ele>
        <time>2019-06-24T11:47:28Z</time>
      </trkpt>
      <trkpt lat="66.70153" lon="13.4672">
        <ele>33</ele>
        <time>2019-06-24T11:47:32Z</time>
      </trkpt>
      <trkpt lat="66.70257" lon="13.46815">
        <ele>33</ele>
        <time>2019-06-24T11:47:36Z</time>
      </trkpt>
      <trkpt lat="66.7036" lon="13.46976">
        <ele>33</ele>
        <time>2019-06-24T11:48:01Z</time>
      </trkpt>
      <trkpt lat="66.70498" lon="13.47074">
        <ele>33</ele>
        <time>2019-06-24T11:48:21Z</time>
      </trkpt>
      <trkpt lat="66.70598" lon="13.46981">
        <ele>33</ele>
        <time>2019-06-24T11:48:27Z</time>
      </trkpt>
      <trkpt lat="66.70719" lon="13.46667">
        <ele>33</ele>
        <time>2019-06-24T11:48:36Z</time>
      </trkpt>
      <trkpt lat="66.70761" lon="13.46632">
        <ele>33</ele>
        <time>2019-06-24T11:48:56Z</time>
      </trkpt>
      <trkpt lat="66.70842" lon="13.46643">
        <ele>33</ele>
        <time>2019-06-24T11:49:20Z</time>
      </trkpt>
      <trkpt lat="66.70911" lon="13.46684">
        <ele>30</ele>
        <time>2019-06-24T11:49:33Z</time>
      </trkpt>
      <trkpt lat="66.711" lon="13.46621">
        <ele>28</ele>
        <time>2019-06-24T11:50:02Z</time>
      </trkpt>
      <trkpt lat="66.7121" lon="13.4664">
        <ele>25</ele>
        <time>2019-06-24T11:50:21Z</time>
      </trkpt>
      <trkpt lat="66.71378" lon="13.46562">
        <ele>22</ele>
        <time>2019-06-24T11:50:30Z</time>
      </trkpt>
      <trkpt lat="66.71443" lon="13.4667">
        <ele>19</ele>
        <time>2019-06-24T11:50:58Z</time>
      </trkpt>
      <trkpt lat="66.71528" lon="13.46986">
        <ele>17</ele>
        <time>2019-06-24T11:51:10Z</time>
      </trkpt>
      <trkpt lat="66.7166" lon="13.47167">
        <ele>14</ele>
        <time>2019-06-24T11:51:25Z</time>
      </trkpt>
      <trkpt lat="66.7176" lon="13.47248">
        <ele>12</ele>
        <time>2019-06-24T11:51:33Z</time>
      </trkpt>
      <trkpt lat="66.71811" lon="13.47215">
        <ele>11</ele>
        <time>2019-06-24T11:51:59Z</time>
      </trkpt>
      <trkpt lat="66.71915" lon="13.47079">
        <ele>9</ele>
        <time>2019-06-24T11:52:11Z</time>
      </trkpt>
      <trkpt lat="66.71936" lon="13.47102">
        <ele>8</ele>
        <time>2019-06-24T11:52:15Z</time>
      </trkpt>
      <trkpt lat="66.71939" lon="13.4764">
        <ele>6</ele>
        <time>2019-06-24T11:52:22Z</time>
      </trkpt>
      <trkpt lat="66.71951" lon="13.47656">
        <ele>5</ele>
        <time>2019-06-24T11:52:26Z</time>
      </trkpt>
      <trkpt lat="66.71998" lon="13.4764">
        <ele>4</ele>
        <time>2019-06-24T11:52:43Z</time>
      </trkpt>
      <trkpt lat="66.71974" lon="13.47628">
        <ele>2</ele>
        <time>2019-06-24T11:53:17Z</time>
      </trkpt>
      <trkpt lat="66.71949" lon="13.47525">
        <ele>1</ele>
        <time>2019-06-24T11:53:28Z</time>
      </trkpt>
      <trkpt lat="66.71961" lon="13.47622">
        <ele>1</ele>
        <time>2019-06-24T11:53:50Z</time>
      </trkpt>
      <trkpt lat="66.72004" lon="13.47644">
        <ele>1</ele>
        <time>2019-06-24T11:53:54Z</time>
      </trkpt>
      <trkpt lat="66.72037" lon="13.47595">
        <ele>2</ele>
        <time>2019-06-24T11:54:59Z</time>
      </trkpt>
      <trkpt lat="66.73581" lon="13.50705">
        <ele>2</ele>
        <time>2019-06-24T11:55:15Z</time>
      </trkpt>
      <trkpt lat="66.73829" lon="13.51284">
        <ele>3</ele>
        <time>2019-06-24T11:55:30Z</time>
      </trkpt>
      <trkpt lat="66.73881" lon="13.5146">
        <ele>3</ele>
        <time>2019-06-24T11:55:38Z</time>
      </trkpt>
      <trkpt lat="66.73981" lon="13.52447">
        <ele>4</ele>
        <time>2019-06-24T11:56:10Z</time>
      </trkpt>
      <trkpt lat="66.73921" lon="13.53223">
        <ele>4</ele>
        <time>2019-06-24T11:56:31Z</time>
      </trkpt>
      <trkpt lat="66.73949" lon="13.5372">
        <ele>4</ele>
        <time>2019-06-24T11:56:42Z</time>
      </trkpt>
      <trkpt lat="66.73975" lon="13.5391">
        <ele>5</ele>
        <time>2019-06-24T11:57:09Z</time>
      </trkpt>
      <trkpt lat="66.74196" lon="13.54601">
        <ele>7</ele>
        <time>2019-06-24T11:57:16Z</time>
      </trkpt>
      <trkpt lat="66.74299" lon="13.55063">
        <ele>8</ele>
        <time>2019-06-24T11:57:22Z</time>
      </trkpt>
      <trkpt lat="66.74298" lon="13.55084">
        <ele>9</ele>
        <time>2019-06-24T11:57:40Z</time>
      </trkpt>
      <trkpt lat="66.74279" lon="13.55078">
        <ele>10</ele>
        <time>2019-06-24T11:57:47Z</time>
      </trkpt>
      <trkpt lat="66.74305" lon="13.55127">
        <ele>12</ele>
        <time>2019-06-24T11:57:52Z</time>
      </trkpt>
      <trkpt lat="66.74349" lon="13.55991">
        <ele>13</ele>
        <time>2019-06-24T11:58:03Z</time>
      </trkpt>
      <trkpt lat="66.74318" lon="13.56984">
        <ele>14</ele>
        <time>2019-06-24T11:58:39Z</time>
      </trkpt>
      <trkpt lat="66.7447" lon="13.58272">
        <ele>22</ele>
        <time>2019-06-24T11:59:09Z</time>
      </trkpt>
      <trkpt lat="66.74548" lon="13.58639">
        <ele>29</ele>
        <time>2019-06-24T11:59:17Z</time>
      </trkpt>
      <trkpt lat="66.74835" lon="13.5963">
        <ele>37</ele>
        <time>2019-06-24T11:59:43Z</time>
      </trkpt>
      <trkpt lat="66.7494" lon="13.59846">
        <ele>45</ele>
        <time>2019-06-24T11:59:59Z</time>
      </trkpt>
      <trkpt lat="66.75099" lon="13.60086">
        <ele>53</ele>
        <time>2019-06-24T12:00:23Z</time>
      </trkpt>
      <trkpt lat="66.75189" lon="13.60411">
        <ele>60</ele>
        <time>2019-06-24T12:00:46Z</time>
      </trkpt>
      <trkpt lat="66.75465" lon="13.63996">
        <ele>68</ele>
        <time>2019-06-24T12:00:49Z</time>
      </trkpt>
      <trkpt lat="66.75625" lon="13.67078">
        <ele>76</ele>
        <time>2019-06-24T12:00:53Z</time>
      </trkpt>
      <trkpt lat="66.75574" lon="13.6767">
        <ele>77</ele>
        <time>2019-06-24T12:00:58Z</time>
      </trkpt>
      <trkpt lat="66.75568" lon="13.68455">
        <ele>69</ele>
        <time>2019-06-24T12:01:16Z</time>
      </trkpt>
      <trkpt lat="66.75384" lon="13.69936">
        <ele>61</ele>
        <time>2019-06-24T12:01:30Z</time>
      </trkpt>
      <trkpt lat="66.75379" lon="13.70703">
        <ele>52</ele>
        <time>2019-06-24T12:01:36Z</time>
      </trkpt>
      <trkpt lat="66.75435" lon="13.71529">
        <ele>44</ele>
        <time>2019-06-24T12:01:49Z</time>
      </trkpt>
      <trkpt lat="66.75426" lon="13.72744">
        <ele>36</ele>
        <time>2019-06-24T12:02:20Z</time>
      </trkpt>
      <trkpt lat="66.75355" lon="13.73061">
        <ele>28</ele>
        <time>2019-06-24T12:02:38Z</time>
      </trkpt>
      <trkpt lat="66.75332" lon="13.7329">
        <ele>19</ele>
        <time>2019-06-24T12:02:45Z</time>
      </trkpt>
      <trkpt lat="66.75315" lon="13.74702">
        <ele>15</ele>
        <time>2019-06-24T12:03:37Z</time>
      </trkpt>
      <trkpt lat="66.75455" lon="13.75198">
        <ele>13</ele>
        <time>2019-06-24T12:03:56Z</time>
      </trkpt>
      <trkpt lat="66.75555" lon="13.75934">
        <ele>12</ele>
        <time>2019-06-24T12:04:08Z</time>
      </trkpt>
      <trkpt lat="66.75643" lon="13.76139">
        <ele>10</ele>
        <time>2019-06-24T12:04:43Z</time>
      </trkpt>
      <trkpt lat="66.75727" lon="13.76186">
        <ele>8</ele>
        <time>2019-06-24T12:05:00Z</time>
      </trkpt>
      <trkpt lat="66.75905" lon="13.76052">
        <ele>7</ele>
        <time>2019-06-24T12:05:10Z</time>
      </trkpt>
      <trkpt lat="66.75941" lon="13.7589">
        <ele>5</ele>
        <time>2019-06-24T12:05:20Z</time>
      </trkpt>
      <trkpt lat="66.76125" lon="13.71984">
        <ele>4</ele>
        <time>2019-06-24T12:05:47Z</time>
      </trkpt>
      <trkpt lat="66.76132" lon="13.70989">
        <ele>2</ele>
        <time>2019-06-24T12:06:11Z</time>
      </trkpt>
      <trkpt lat="66.76161" lon="13.70489">
        <ele>2</ele>
        <time>2019-06-24T12:06:19Z</time>
      </trkpt>
      <trkpt lat="66.76243" lon="13.70133">
        <ele>2</ele>
        <time>2019-06-24T12:06:44Z</time>
      </trkpt>
      <trkpt lat="66.76413" lon="13.69634">
        <ele>2</ele>
        <time>2019-06-24T12:06:51Z</time>
      </trkpt>
      <trkpt lat="66.76487" lon="13.68724">
        <ele>2</ele>
        <time>2019-06-24T12:07:13Z</time>
      </trkpt>
      <trkpt lat="66.76472" lon="13.68131">
        <ele>2</ele>
        <time>2019-06-24T12:08:22Z</time>
      </trkpt>
      <trkpt lat="66.76514" lon="13.67482">
        <ele>2</ele>
        <time>2019-06-24T12:08:30Z</time>
      </trkpt>
      <trkpt lat="66.76649" lon="13.66769">
        <ele>2</ele>
        <time>2019-06-24T12:08:37Z</time>
      </trkpt>
      <trkpt lat="66.76773" lon="13.66411">
        <ele>2</ele>
        <time>2019-06-24T12:08:41Z</time>
      </trkpt>
      <trkpt lat="66.76859" lon="13.65973">
        <ele>2</ele>
        <time>2019-06-24T12:09:10Z</time>
      </trkpt>
      <trkpt lat="66.76941" lon="13.64525">
        <ele>4</ele>
        <time>2019-06-24T12:09:23Z</time>
      </trkpt>
      <trkpt lat="66.77172" lon="13.62054">
        <ele>6</ele>
        <time>2019-06-24T12:09:28Z</time>
      </trkpt>
      <trkpt lat="66.7712" lon="13.60982">
        <ele>9</ele>
        <time>2019-06-24T12:09:31Z</time>
      </trkpt>
      <trkpt lat="66.77108" lon="13.59864">
        <ele>11</ele>
        <time>2019-06-24T12:09:48Z</time>
      </trkpt>
      <trkpt lat="66.76973" lon="13.58557">
        <ele>13</ele>
        <time>2019-06-24T12:10:08Z</time>
      </trkpt>
      <trkpt lat="66.76826" lon="13.55793">
        <ele>15</ele>
        <time>2019-06-24T12:10:13Z</time>
      </trkpt>
      <trkpt lat="66.76868" lon="13.55047">
        <ele>17</ele>
        <time>2019-06-24T12:12:09Z</time>
      </trkpt>
      <trkpt lat="66.76923" lon="13.54667">
        <ele>19</ele>
        <time>2019-06-24T12:12:24Z</time>
      </trkpt>
      <trkpt lat="66.77013" lon="13.54515">
        <ele>19</ele>
        <time>2019-06-24T12:12:40Z</time>
      </trkpt>
      <trkpt lat="66.77088" lon="13.54583">
        <ele>19</ele>
        <time>2019-06-24T12:13:15Z</time>
      </trkpt>
      <trkpt lat="66.77217" lon="13.54855">
        <ele>20</ele>
        <time>2019-06-24T12:13:22Z</time>
      </trkpt>
      <trkpt lat="66.77247" lon="13.54842">
        <ele>20</ele>
        <time>2019-06-24T12:13:36Z</time>
      </trkpt>
      <trkpt lat="66.77349" lon="13.54432">
        <ele>21</ele>
        <time>2019-06-24T12:13:44Z</time>
      </trkpt>
      <trkpt lat="66.77627" lon="13.53621">
        <ele>21</ele>
        <time>2019-06-24T12:14:06Z</time>
      </trkpt>
      <trkpt lat="66.77798" lon="13.5362">
        <ele>21</ele>
        <time>2019-06-24T12:14:26Z</time>
      </trkpt>
      <trkpt lat="66.78126" lon="13.53272">
        <ele>22</ele>
        <time>2019-06-24T12:14:34Z</time>
      </trkpt>
      <trkpt lat="66.7847" lon="13.53025">
        <ele>22</ele>
        <time>2019-06-24T12:14:54Z</time>
      </trkpt>
      <trkpt lat="66.78506" lon="13.52925">
        <ele>21</ele>
        <time>2019-06-24T12:15:04Z</time>
      </trkpt>
      <trkpt lat="66.78642" lon="13.51859">
        <ele>21</ele>
        <time>2019-06-24T12:15:15Z</time>
      </trkpt>
      <trkpt lat="66.78727" lon="13.51593">
        <ele>20</ele>
        <time>2019-06-24T12:15:42Z</time>
      </trkpt>
      <trkpt lat="66.7884" lon="13.51349">
        <ele>20</ele>
        <time>2019-06-24T12:15:48Z</time>
      </trkpt>
      <trkpt lat="66.78926" lon="13.50654">
        <ele>19</ele>
        <time>2019-06-24T12:16:01Z</time>
      </trkpt>
      <trkpt lat="66.79028" lon="13.50537">
        <ele>19</ele>
        <time>2019-06-24T12:16:19Z</time>
      </trkpt>
      <trkpt lat="66.79122" lon="13.50524">
        <ele>19</ele>
        <time>2019-06-24T12:17:01Z</time>
      </trkpt>
      <trkpt lat="66.79264" lon="13.50447">
        <ele>18</ele>
        <time>2019-06-24T12:17:15Z</time>
      </trkpt>
      <trkpt lat="66.79469" lon="13.5042">
        <ele>19</ele>
        <time>2019-06-24T12:17:31Z</time>
      </trkpt>
      <trkpt lat="66.79595" lon="13.50329">
        <ele>21</ele>
        <time>2019-06-24T12:17:39Z</time>
      </trkpt>
      <trkpt lat="66.79644" lon="13.50354">
        <ele>22</ele>
        <time>2019-06-24T12:18:07Z</time>
      </trkpt>
      <trkpt lat="66.80039" lon="13.50747">
        <ele>23</ele>
        <time>2019-06-24T12:18:41Z</time>
      </trkpt>
      <trkpt lat="66.80132" lon="13.50895">
        <ele>24</ele>
        <time>2019-06-24T12:18:52Z</time>
      </trkpt>
      <trkpt lat="66.80168" lon="13.51034">
        <ele>25</ele>
        <time>2019-06-24T12:19:23Z</time>
      </trkpt>
      <trkpt lat="66.80207" lon="13.5135">
        <ele>26</ele>
        <time>2019-06-24T12:19:39Z</time>
      </trkpt>
      <trkpt lat="66.80109" lon="13.52107">
        <ele>27</ele>
        <time>2019-06-24T12:19:55Z</time>
      </trkpt>
      <trkpt lat="66.80144" lon="13.52797">
        <ele>24</ele>
        <time>2019-06-24T12:20:46Z</time>
      </trkpt>
      <trkpt lat="66.80092" lon="13.53214">
        <ele>22</ele>
        <time>2019-06-24T12:20:59Z</time>
      </trkpt>
      <trkpt lat="66.80211" lon="13.54249">
        <ele>20</ele>
        <time>2019-06-24T12:21:22Z</time>
      </trkpt>
      <trkpt lat="66.80305" lon="13.54671">
        <ele>18</ele>
        <time>2019-06-24T12:21:30Z</time>
      </trkpt>
      <trkpt lat="66.80404" lon="13.5617">
        <ele>16</ele>
        <time>2019-06-24T12:21:54Z</time>
      </trkpt>
      <trkpt lat="66.80455" lon="13.58323">
        <ele>14</ele>
        <time>2019-06-24T12:22:09Z</time>
      </trkpt>
      <trkpt lat="66.80475" lon="13.58463">
        <ele>11</ele>
        <time>2019-06-24T12:22:13Z</time>
      </trkpt>
      <trkpt lat="66.8061" lon="13.58871">
        <ele>9</ele>
        <time>2019-06-24T12:22:22Z</time>
      </trkpt>
      <trkpt lat="66.80644" lon="13.58906">
        <ele>9</ele>
        <time>2019-06-24T12:22:28Z</time>
      </trkpt>
      <trkpt lat="66.80685" lon="13.58859">
        <ele>8</ele>
        <time>2019-06-24T12:22:53Z</time>
      </trkpt>
      <trkpt lat="66.80723" lon="13.58864">
        <ele>7</ele>
        <time>2019-06-24T12:23:27Z</time>
      </trkpt>
      <trkpt lat="66.80798" lon="13.58821">
        <ele>7</ele>
        <time>2019-06-24T12:23:34Z</time>
      </trkpt>
      <trkpt lat="66.82514" lon="13.56486">
        <ele>6</ele>
        <time>2019-06-24T12:23:47Z</time>
      </trkpt>
      <trkpt lat="66.82841" lon="13.56067">
        <ele>5</ele>
        <time>2019-06-24T12:23:55Z</time>
      </trkpt>
      <trkpt lat="66.83083" lon="13.55811">
        <ele>4</ele>
        <time>2019-06-24T12:24:41Z</time>
      </trkpt>
      <trkpt lat="66.83133" lon="13.55708">
        <ele>3</ele>
        <time>2019-06-24T12:24:52Z</time>
      </trkpt>
      <trkpt lat="66.83113" lon="13.55524">
        <ele>3</ele>
        <time>2019-06-24T12:24:56Z</time>
      </trkpt>
      <trkpt lat="66.83126" lon="13.55562">
        <ele>3</ele>
        <time>2019-06-24T12:24:59Z</time>
      </trkpt>
      <trkpt lat="66.8312" lon="13.55533">
        <ele>2</ele>
        <time>2019-06-24T12:25:06Z</time>
      </trkpt>
      <trkpt lat="66.83095" lon="13.55576">
        <ele>2</ele>
        <time>2019-06-24T12:25:16Z</time>
      </trkpt>
      <trkpt lat="66.83131" lon="13.55615">
        <ele>1</ele>
        <time>2019-06-24T12:25:20Z</time>
      </trkpt>
      <trkpt lat="66.83172" lon="13.55748">
        <ele>1</ele>
        <time>2019-06-24T12:25:30Z</time>
      </trkpt>
      <trkpt lat="66.83504" lon="13.57032">
        <time>2019-06-24T12:25:36Z</time>
      </trkpt>
      <trkpt lat="66.83813" lon="13.58065">
        <time>2019-06-24T12:25:42Z</time>
      </trkpt>
      <trkpt lat="66.83896" lon="13.5827">
        <time>2019-06-24T12:25:55Z</time>
      </trkpt>
      <trkpt lat="66.84102" lon="13.58749">
        <time>2019-06-24T12:25:59Z</time>
      </trkpt>
      <trkpt lat="66.84985" lon="13.60562">
        <time>2019-06-24T12:26:04Z</time>
      </trkpt>
      <trkpt lat="66.85167" lon="13.61001">
        <time>2019-06-24T12:26:08Z</time>
      </trkpt>
      <trkpt lat="66.86269" lon="13.63287">
        <time>2019-06-24T12:26:18Z</time>
      </trkpt>
      <trkpt lat="66.86547" lon="13.64232">
        <time>2019-06-24T12:26:29Z</time>
      </trkpt>
      <trkpt lat="66.87361" lon="13.67331">
        <time>2019-06-24T12:26:35Z</time>
      </trkpt>
      <trkpt lat="66.87419" lon="13.67779">
        <time>2019-06-24T12:26:48Z</time>
      </trkpt>
      <trkpt lat="66.87405" lon="13.67941">
        <time>2019-06-24T12:26:58Z</time>
      </trkpt>
      <trkpt lat="66.87302" lon="13.68317">
        <time>2019-06-24T12:27:04Z</time>
      </trkpt>
      <trkpt lat="66.86904" lon="13.69205">
        <time>2019-06-24T12:27:16Z</time>
      </trkpt>
      <trkpt lat="66.86706" lon="13.69592">
        <time>2019-06-24T12:27:21Z</time>
      </trkpt>
      <trkpt lat="66.86589" lon="13.69921">
        <time>2019-06-24T12:27:28Z</time>
      </trkpt>
      <trkpt lat="66.86573" lon="13.70084">
        <time>2019-06-24T12:27:32Z</time>
      </trkpt>
      <trkpt lat="66.86652" lon="13.7035">
        <time>2019-06-24T12:29:04Z</time>
      </trkpt>
      <trkpt lat="66.86747" lon="13.7039">
        <time>2019-06-24T12:29:17Z</time>
      </trkpt>
      <trkpt lat="66.86777" lon="13.70436">
        <ele>3</ele>
        <time>2019-06-24T12:29:30Z</time>
      </trkpt>
      <trkpt lat="66.86836" lon="13.70425">
        <ele>4.6</ele>
        <time>2019-06-24T12:29:44Z</time>
      </trkpt>
      <trkpt lat="66.86889" lon="13.70577">
        <ele>10</ele>
        <time>2019-06-24T12:30:07Z</time>
      </trkpt>
      <trkpt lat="66.87024" lon="13.70658">
        <ele>1</ele>
        <time>2019-06-24T12:30:20Z</time>
      </trkpt>
      <trkpt lat="66.8719" lon="13.70722">
        <ele>1</ele>
        <time>2019-06-24T12:30:34Z</time>
      </trkpt>
      <trkpt lat="66.87312" lon="13.70667">
        <ele>2</ele>
        <time>2019-06-24T12:30:58Z</time>
      </trkpt>
      <trkpt lat="66.87567" lon="13.70247">
        <ele>2</ele>
        <time>2019-06-24T12:31:14Z</time>
      </trkpt>
      <trkpt lat="66.87632" lon="13.69932">
        <ele>3</ele>
        <time>2019-06-24T12:31:21Z</time>
      </trkpt>
      <trkpt lat="66.87654" lon="13.68807">
        <ele>3</ele>
        <time>2019-06-24T12:31:44Z</time>
      </trkpt>
      <trkpt lat="66.87744" lon="13.68426">
        <ele>4</ele>
        <time>2019-06-24T12:31:49Z</time>
      </trkpt>
      <trkpt lat="66.87947" lon="13.68203">
        <ele>4</ele>
        <time>2019-06-24T12:31:52Z</time>
      </trkpt>
      <trkpt lat="66.88119" lon="13.67524">
        <ele>4</ele>
        <time>2019-06-24T12:31:56Z</time>
      </trkpt>
      <trkpt lat="66.88169" lon="13.66949">
        <ele>4</ele>
        <time>2019-06-24T12:32:06Z</time>
      </trkpt>
      <trkpt lat="66.88163" lon="13.66597">
        <ele>4</ele>
        <time>2019-06-24T12:32:21Z</time>
      </trkpt>
      <trkpt lat="66.88339" lon="13.65703">
        <ele>4</ele>
        <time>2019-06-24T12:32:24Z</time>
      </trkpt>
      <trkpt lat="66.88449" lon="13.65594">
        <ele>4</ele>
        <time>2019-06-24T12:32:32Z</time>
      </trkpt>
      <trkpt lat="66.88575" lon="13.6561">
        <ele>4</ele>
        <time>2019-06-24T12:32:44Z</time>
      </trkpt>
      <trkpt lat="66.8868" lon="13.65563">
        <ele>4</ele>
        <time>2019-06-24T12:33:03Z</time>
      </trkpt>
      <trkpt lat="66.89071" lon="13.65126">
        <ele>4</ele>
        <time>2019-06-24T12:33:49Z</time>
      </trkpt>
      <trkpt lat="66.89158" lon="13.65086">
        <ele>3</ele>
        <time>2019-06-24T12:33:58Z</time>
      </trkpt>
      <trkpt lat="66.89426" lon="13.65069">
        <ele>3</ele>
        <time>2019-06-24T12:34:10Z</time>
      </trkpt>
      <trkpt lat="66.89976" lon="13.64773">
        <ele>2</ele>
        <time>2019-06-24T12:34:17Z</time>
      </trkpt>
      <trkpt lat="66.90279" lon="13.64749">
        <ele>2</ele>
        <time>2019-06-24T12:34:56Z</time>
      </trkpt>
      <trkpt lat="66.90368" lon="13.64684">
        <ele>1</ele>
        <time>2019-06-24T12:35:16Z</time>
      </trkpt>
      <trkpt lat="66.9091" lon="13.63856">
        <ele>1</ele>
        <time>2019-06-24T12:35:28Z</time>
      </trkpt>
      <trkpt lat="66.90904" lon="13.63821">
        <ele>1</ele>
        <time>2019-06-24T12:35:39Z</time>
      </trkpt>
      <trkpt lat="66.90871" lon="13.63981">
        <ele>7</ele>
        <time>2019-06-24T12:35:56Z</time>
      </trkpt>
      <trkpt lat="66.90888" lon="13.63884">
        <ele>6</ele>
        <time>2019-06-24T12:38:26Z</time>
      </trkpt>
      <trkpt lat="66.90994" lon="13.63691">
        <ele>6.8</ele>
        <time>2019-06-24T12:38:29Z</time>
      </trkpt>
      <trkpt lat="66.9109" lon="13.63396">
        <ele>1</ele>
        <time>2019-06-24T12:39:01Z</time>
      </trkpt>
      <trkpt lat="66.91234" lon="13.63101">
        <ele>1</ele>
        <time>2019-06-24T12:39:14Z</time>
      </trkpt>
      <trkpt lat="66.91485" lon="13.62752">
        <ele>1</ele>
        <time>2019-06-24T12:39:30Z</time>
      </trkpt>
      <trkpt lat="66.91486" lon="13.6287">
        <ele>1</ele>
        <time>2019-06-24T12:40:14Z</time>
      </trkpt>
      <trkpt lat="66.9147" lon="13.62869">
        <ele>1</ele>
        <time>2019-06-24T12:40:20Z</time>
      </trkpt>
      <trkpt lat="66.91501" lon="13.62822">
        <ele>1</ele>
        <time>2019-06-24T12:40:36Z</time>
      </trkpt>
      <trkpt lat="66.91486" lon="13.62727">
        <ele>1</ele>
        <time>2019-06-24T12:40:47Z</time>
      </trkpt>
      <trkpt lat="66.91863" lon="13.62176">
        <ele>1</ele>
        <time>2019-06-24T12:41:39Z</time>
      </trkpt>
      <trkpt lat="66.91891" lon="13.62146">
        <ele>1</ele>
        <time>2019-06-24T12:42:11Z</time>
      </trkpt>
      <trkpt lat="66.91973" lon="13.62134">
        <ele>1</ele>
        <time>2019-06-24T12:42:31Z</time>
      </trkpt>
      <trkpt lat="66.92177" lon="13.62315">
        <ele>1</ele>
        <time>2019-06-24T12:42:54Z</time>
      </trkpt>
      <trkpt lat="66.92232" lon="13.62295">
        <ele>1</ele>
        <time>2019-06-24T12:43:01Z</time>
      </trkpt>
      <trkpt lat="66.92459" lon="13.62077">
        <ele>1</ele>
        <time>2019-06-24T12:43:09Z</time>
      </trkpt>
      <trkpt lat="66.94081" lon="13.59469">
        <ele>1</ele>
        <time>2019-06-24T12:44:05Z</time>
      </trkpt>
      <trkpt lat="66.94283" lon="13.59201">
        <ele>1</ele>
        <time>2019-06-24T12:44:16Z</time>
      </trkpt>
      <trkpt lat="66.94369" lon="13.59167">
        <ele>4</ele>
        <time>2019-06-24T12:44:42Z</time>
      </trkpt>
      <trkpt lat="66.94512" lon="13.59273">
        <ele>7</ele>
        <time>2019-06-24T12:45:01Z</time>
      </trkpt>
      <trkpt lat="66.94883" lon="13.59936">
        <ele>11</ele>
        <time>2019-06-24T12:45:54Z</time>
      </trkpt>
      <trkpt lat="66.95007" lon="13.6022">
        <ele>14</ele>
        <time>2019-06-24T12:46:21Z</time>
      </trkpt>
      <trkpt lat="66.95132" lon="13.6084">
        <ele>18</ele>
        <time>2019-06-24T12:46:32Z</time>
      </trkpt>
      <trkpt lat="66.95157" lon="13.61084">
        <ele>21</ele>
        <time>2019-06-24T12:46:39Z</time>
      </trkpt>
      <trkpt lat="66.95101" lon="13.62307">
        <ele>25</ele>
        <time>2019-06-24T12:47:06Z</time>
      </trkpt>
      <trkpt lat="66.94943" lon="13.64055">
        <ele>27</ele>
        <time>2019-06-24T12:47:31Z</time>
      </trkpt>
      <trkpt lat="66.94917" lon="13.64724">
        <ele>24</ele>
        <time>2019-06-24T12:47:49Z</time>
      </trkpt>
      <trkpt lat="66.94903" lon="13.65248">
        <ele>21</ele>
        <time>2019-06-24T12:48:09Z</time>
      </trkpt>
      <trkpt lat="66.94936" lon="13.66173">
        <ele>17</ele>
        <time>2019-06-24T12:48:24Z</time>
      </trkpt>
      <trkpt lat="66.94919" lon="13.67373">
        <ele>14</ele>
        <time>2019-06-24T12:48:50Z</time>
      </trkpt>
      <trkpt lat="66.94902" lon="13.67585">
        <ele>10</ele>
        <time>2019-06-24T12:49:40Z</time>
      </trkpt>
      <trkpt lat="66.9467" lon="13.68777">
        <ele>7</ele>
        <time>2019-06-24T12:50:01Z</time>
      </trkpt>
      <trkpt lat="66.94501" lon="13.70355">
        <ele>4</ele>
        <time>2019-06-24T12:50:26Z</time>
      </trkpt>
      <trkpt lat="66.94478" lon="13.70777">
        <ele>7.6</ele>
        <time>2019-06-24T12:50:42Z</time>
      </trkpt>
      <trkpt lat="66.94527" lon="13.73372">
        <ele>10.1</ele>
        <time>2019-06-24T12:51:19Z</time>
      </trkpt>
      <trkpt lat="66.94573" lon="13.73713">
        <ele>6</ele>
        <time>2019-06-24T12:51:45Z</time>
      </trkpt>
      <trkpt lat="66.95053" lon="13.75636">
        <ele>13</ele>
        <time>2019-06-24T12:52:01Z</time>
      </trkpt>
      <trkpt lat="66.95224" lon="13.76484">
        <ele>20</ele>
        <time>2019-06-24T12:52:40Z</time>
      </trkpt>
      <trkpt lat="66.95475" lon="13.77237">
        <ele>27</ele>
        <time>2019-06-24T12:52:59Z</time>
      </trkpt>
      <trkpt lat="66.9571" lon="13.78207">
        <ele>34</ele>
        <time>2019-06-24T12:53:31Z</time>
      </trkpt>
      <trkpt lat="66.95885" lon="13.79666">
        <ele>41</ele>
        <time>2019-06-24T12:54:34Z</time>
      </trkpt>
      <trkpt lat="66.95961" lon="13.80568">
        <ele>48</ele>
        <time>2019-06-24T12:54:52Z</time>
      </trkpt>
      <trkpt lat="66.95881" lon="13.8292">
        <ele>52</ele>
        <time>2019-06-24T12:55:15Z</time>
      </trkpt>
      <trkpt lat="66.95282" lon="13.89816">
        <ele>45</ele>
        <time>2019-06-24T12:55:22Z</time>
      </trkpt>
      <trkpt lat="66.95154" lon="13.90041">
        <ele>39</ele>
        <time>2019-06-24T12:56:33Z</time>
      </trkpt>
      <trkpt lat="66.94817" lon="13.90366">
        <ele>32</ele>
        <time>2019-06-24T12:56:54Z</time>
      </trkpt>
      <trkpt lat="66.9473" lon="13.90555">
        <ele>26</ele>
        <time>2019-06-24T12:57:21Z</time>
      </trkpt>
      <trkpt lat="66.94694" lon="13.90777">
        <ele>19</ele>
        <time>2019-06-24T12:57:38Z</time>
      </trkpt>
      <trkpt lat="66.94634" lon="13.91582">
        <ele>12</ele>
        <time>2019-06-24T12:58:13Z</time>
      </trkpt>
      <trkpt lat="66.94647" lon="13.91749">
        <ele>6</ele>
        <time>2019-06-24T12:58:48Z</time>
      </trkpt>
      <trkpt lat="66.95133" lon="13.93833">
        <ele>9.5</ele>
        <time>2019-06-24T12:58:53Z</time>
      </trkpt>
      <trkpt lat="66.95216" lon="13.94499">
        <ele>2</ele>
        <time>2019-06-24T12:59:22Z</time>
      </trkpt>
      <trkpt lat="66.95247" lon="13.94603">
        <ele>5</ele>
        <time>2019-06-24T12:59:42Z</time>
      </trkpt>
      <trkpt lat="66.95362" lon="13.94811">
        <ele>7</ele>
        <time>2019-06-24T12:59:55Z</time>
      </trkpt>
      <trkpt lat="66.95481" lon="13.95173">
        <ele>10</ele>
        <time>2019-06-24T01:00:38Z</time>
      </trkpt>
      <trkpt lat="66.95628" lon="13.95405">
        <ele>12</ele>
        <time>2019-06-24T01:00:48Z</time>
      </trkpt>
      <trkpt lat="66.95903" lon="13.95989">
        <ele>15</ele>
        <time>2019-06-24T01:01:01Z</time>
      </trkpt>
      <trkpt lat="66.95964" lon="13.96236">
        <ele>17</ele>
        <time>2019-06-24T01:01:16Z</time>
      </trkpt>
      <trkpt lat="66.96035" lon="13.973">
        <ele>20</ele>
        <time>2019-06-24T01:02:00Z</time>
      </trkpt>
      <trkpt lat="66.96174" lon="13.9854">
        <ele>20</ele>
        <time>2019-06-24T01:04:25Z</time>
      </trkpt>
      <trkpt lat="66.96279" lon="13.99372">
        <ele>18</ele>
        <time>2019-06-24T01:04:41Z</time>
      </trkpt>
      <trkpt lat="66.96373" lon="13.99728">
        <ele>15</ele>
        <time>2019-06-24T01:05:21Z</time>
      </trkpt>
      <trkpt lat="66.96418" lon="14.00081">
        <ele>13</ele>
        <time>2019-06-24T01:05:30Z</time>
      </trkpt>
      <trkpt lat="66.96365" lon="14.00817">
        <ele>10</ele>
        <time>2019-06-24T01:05:44Z</time>
      </trkpt>
      <trkpt lat="66.9618" lon="14.0124">
        <ele>8</ele>
        <time>2019-06-24T01:06:19Z</time>
      </trkpt>
      <trkpt lat="66.96196" lon="14.01417">
        <ele>5</ele>
        <time>2019-06-24T01:06:28Z</time>
      </trkpt>
      <trkpt lat="66.96377" lon="14.0157">
        <ele>3</ele>
        <time>2019-06-24T01:06:47Z</time>
      </trkpt>
      <trkpt lat="66.96493" lon="14.0158">
        <ele>1</ele>
        <time>2019-06-24T01:06:55Z</time>
      </trkpt>
      <trkpt lat="66.96709" lon="14.01463">
        <ele>5</ele>
        <time>2019-06-24T01:07:30Z</time>
      </trkpt>
      <trkpt lat="66.96781" lon="14.01491">
        <ele>8</ele>
        <time>2019-06-24T01:07:47Z</time>
      </trkpt>
      <trkpt lat="66.96862" lon="14.01563">
        <ele>11</ele>
        <time>2019-06-24T01:08:07Z</time>
      </trkpt>
      <trkpt lat="66.97055" lon="14.01539">
        <ele>15</ele>
        <time>2019-06-24T01:08:14Z</time>
      </trkpt>
      <trkpt lat="66.97255" lon="14.01686">
        <ele>18</ele>
        <time>2019-06-24T01:08:24Z</time>
      </trkpt>
      <trkpt lat="66.97351" lon="14.01652">
        <ele>21</ele>
        <time>2019-06-24T01:08:32Z</time>
      </trkpt>
      <trkpt lat="66.97571" lon="14.01851">
        <ele>25</ele>
        <time>2019-06-24T01:08:37Z</time>
      </trkpt>
      <trkpt lat="66.97668" lon="14.02009">
        <ele>28</ele>
        <time>2019-06-24T01:09:02Z</time>
      </trkpt>
      <trkpt lat="66.97748" lon="14.02591">
        <ele>28</ele>
        <time>2019-06-24T01:09:19Z</time>
      </trkpt>
      <trkpt lat="66.97929" lon="14.03203">
        <ele>35</ele>
        <time>2019-06-24T01:09:32Z</time>
      </trkpt>
      <trkpt lat="66.98169" lon="14.03654">
        <ele>41</ele>
        <time>2019-06-24T01:10:06Z</time>
      </trkpt>
      <trkpt lat="66.98514" lon="14.04037">
        <ele>48</ele>
        <time>2019-06-24T01:15:15Z</time>
      </trkpt>
      <trkpt lat="66.986" lon="14.04362">
        <ele>54</ele>
        <time>2019-06-24T01:15:30Z</time>
      </trkpt>
      <trkpt lat="66.98632" lon="14.05015">
        <ele>61</ele>
        <time>2019-06-24T01:15:40Z</time>
      </trkpt>
      <trkpt lat="66.98749" lon="14.05859">
        <ele>67</ele>
        <time>2019-06-24T01:16:05Z</time>
      </trkpt>
      <trkpt lat="66.98699" lon="14.06122">
        <ele>74</ele>
        <time>2019-06-24T01:16:41Z</time>
      </trkpt>
      <trkpt lat="66.98522" lon="14.06346">
        <ele>76</ele>
        <time>2019-06-24T01:17:00Z</time>
      </trkpt>
      <trkpt lat="66.9846" lon="14.06638">
        <ele>90</ele>
        <time>2019-06-24T01:17:40Z</time>
      </trkpt>
      <trkpt lat="66.98454" lon="14.07011">
        <ele>105</ele>
        <time>2019-06-24T01:17:56Z</time>
      </trkpt>
      <trkpt lat="66.98506" lon="14.07175">
        <ele>119</ele>
        <time>2019-06-24T01:18:15Z</time>
      </trkpt>
      <trkpt lat="66.98709" lon="14.07403">
        <ele>133</ele>
        <time>2019-06-24T01:19:04Z</time>
      </trkpt>
      <trkpt lat="66.98917" lon="14.07918">
        <ele>147</ele>
        <time>2019-06-24T01:19:19Z</time>
      </trkpt>
      <trkpt lat="66.99143" lon="14.08846">
        <ele>161</ele>
        <time>2019-06-24T01:19:27Z</time>
      </trkpt>
      <trkpt lat="66.99155" lon="14.09182">
        <ele>175</ele>
        <time>2019-06-24T01:19:43Z</time>
      </trkpt>
      <trkpt lat="66.9924" lon="14.09651">
        <ele>186</ele>
        <time>2019-06-24T01:20:07Z</time>
      </trkpt>
      <trkpt lat="66.99301" lon="14.10187">
        <ele>172</ele>
        <time>2019-06-24T01:20:22Z</time>
      </trkpt>
      <trkpt lat="66.99257" lon="14.12516">
        <ele>157</ele>
        <time>2019-06-24T01:20:36Z</time>
      </trkpt>
      <trkpt lat="66.99223" lon="14.12706">
        <ele>142</ele>
        <time>2019-06-24T01:20:49Z</time>
      </trkpt>
      <trkpt lat="66.99172" lon="14.12821">
        <ele>128</ele>
        <time>2019-06-24T01:21:13Z</time>
      </trkpt>
      <trkpt lat="66.99023" lon="14.12956">
        <ele>113</ele>
        <time>2019-06-24T01:21:35Z</time>
      </trkpt>
      <trkpt lat="66.9891" lon="14.13342">
        <ele>99</ele>
        <time>2019-06-24T01:21:47Z</time>
      </trkpt>
      <trkpt lat="66.98386" lon="14.14534">
        <ele>84</ele>
        <time>2019-06-24T01:22:12Z</time>
      </trkpt>
      <trkpt lat="66.98335" lon="14.14611">
        <ele>69</ele>
        <time>2019-06-24T01:22:25Z</time>
      </trkpt>
      <trkpt lat="66.98216" lon="14.14695">
        <ele>67</ele>
        <time>2019-06-24T01:22:36Z</time>
      </trkpt>
      <trkpt lat="66.9815" lon="14.14673">
        <ele>62</ele>
        <time>2019-06-24T01:23:25Z</time>
      </trkpt>
      <trkpt lat="66.97979" lon="14.14535">
        <ele>56</ele>
        <time>2019-06-24T01:23:35Z</time>
      </trkpt>
      <trkpt lat="66.97912" lon="14.14555">
        <ele>51</ele>
        <time>2019-06-24T01:23:42Z</time>
      </trkpt>
      <trkpt lat="66.97849" lon="14.14618">
        <ele>46</ele>
        <time>2019-06-24T01:23:47Z</time>
      </trkpt>
      <trkpt lat="66.97636" lon="14.14948">
        <ele>41</ele>
        <time>2019-06-24T01:23:56Z</time>
      </trkpt>
      <trkpt lat="66.97588" lon="14.15116">
        <ele>36</ele>
        <time>2019-06-24T01:24:20Z</time>
      </trkpt>
      <trkpt lat="66.97577" lon="14.15263">
        <ele>30</ele>
        <time>2019-06-24T01:24:28Z</time>
      </trkpt>
      <trkpt lat="66.97585" lon="14.15405">
        <ele>28</ele>
        <time>2019-06-24T01:24:51Z</time>
      </trkpt>
      <trkpt lat="66.97664" lon="14.15653">
        <ele>34</ele>
        <time>2019-06-24T01:24:59Z</time>
      </trkpt>
      <trkpt lat="66.97735" lon="14.15709">
        <ele>40</ele>
        <time>2019-06-24T01:25:11Z</time>
      </trkpt>
      <trkpt lat="66.97957" lon="14.1578">
        <ele>46</ele>
        <time>2019-06-24T01:25:43Z</time>
      </trkpt>
      <trkpt lat="66.98067" lon="14.15879">
        <ele>51</ele>
        <time>2019-06-24T01:25:54Z</time>
      </trkpt>
      <trkpt lat="66.98341" lon="14.16271">
        <ele>57</ele>
        <time>2019-06-24T01:26:06Z</time>
      </trkpt>
      <trkpt lat="66.98684" lon="14.16596">
        <ele>63</ele>
        <time>2019-06-24T01:26:24Z</time>
      </trkpt>
      <trkpt lat="66.9884" lon="14.16808">
        <ele>69</ele>
        <time>2019-06-24T01:27:00Z</time>
      </trkpt>
      <trkpt lat="66.99009" lon="14.17115">
        <ele>75</ele>
        <time>2019-06-24T01:27:14Z</time>
      </trkpt>
      <trkpt lat="66.99121" lon="14.17448">
        <ele>66</ele>
        <time>2019-06-24T01:27:23Z</time>
      </trkpt>
      <trkpt lat="66.99302" lon="14.18409">
        <ele>58</ele>
        <time>2019-06-24T01:27:33Z</time>
      </trkpt>
      <trkpt lat="66.99189" lon="14.20219">
        <ele>50</ele>
        <time>2019-06-24T01:28:00Z</time>
      </trkpt>
      <trkpt lat="66.99191" lon="14.2051">
        <ele>41</ele>
        <time>2019-06-24T01:28:24Z</time>
      </trkpt>
      <trkpt lat="66.99233" lon="14.20954">
        <ele>33</ele>
        <time>2019-06-24T01:28:33Z</time>
      </trkpt>
      <trkpt lat="66.99192" lon="14.21699">
        <ele>25</ele>
        <time>2019-06-24T01:28:59Z</time>
      </trkpt>
      <trkpt lat="66.99225" lon="14.21971">
        <ele>16</ele>
        <time>2019-06-24T01:29:08Z</time>
      </trkpt>
      <trkpt lat="66.99445" lon="14.22606">
        <ele>8</ele>
        <time>2019-06-24T01:29:26Z</time>
      </trkpt>
      <trkpt lat="66.99794" lon="14.23843">
        <ele>5</ele>
        <time>2019-06-24T01:30:05Z</time>
      </trkpt>
      <trkpt lat="66.99915" lon="14.24127">
        <ele>6</ele>
        <time>2019-06-24T01:30:19Z</time>
      </trkpt>
      <trkpt lat="66.99998" lon="14.24179">
        <ele>7</ele>
        <time>2019-06-24T01:30:31Z</time>
      </trkpt>
      <trkpt lat="67.001" lon="14.24159">
        <ele>8</ele>
        <time>2019-06-24T01:30:47Z</time>
      </trkpt>
      <trkpt lat="67.00215" lon="14.23992">
        <ele>8</ele>
        <time>2019-06-24T01:31:05Z</time>
      </trkpt>
      <trkpt lat="67.00562" lon="14.2319">
        <ele>9</ele>
        <time>2019-06-24T01:31:32Z</time>
      </trkpt>
      <trkpt lat="67.00602" lon="14.23135">
        <ele>10</ele>
        <time>2019-06-24T01:31:49Z</time>
      </trkpt>
      <trkpt lat="67.00672" lon="14.231">
        <ele>11</ele>
        <time>2019-06-24T01:32:22Z</time>
      </trkpt>
      <trkpt lat="67.00776" lon="14.23281">
        <ele>11</ele>
        <time>2019-06-24T01:32:36Z</time>
      </trkpt>
      <trkpt lat="67.00978" lon="14.23971">
        <ele>10</ele>
        <time>2019-06-24T01:32:54Z</time>
      </trkpt>
      <trkpt lat="67.01056" lon="14.24125">
        <ele>9</ele>
        <time>2019-06-24T01:33:53Z</time>
      </trkpt>
      <trkpt lat="67.01125" lon="14.24189">
        <ele>8</ele>
        <time>2019-06-24T01:34:12Z</time>
      </trkpt>
      <trkpt lat="67.01448" lon="14.24348">
        <ele>7</ele>
        <time>2019-06-24T01:34:28Z</time>
      </trkpt>
      <trkpt lat="67.01653" lon="14.24561">
        <ele>6</ele>
        <time>2019-06-24T01:34:38Z</time>
      </trkpt>
      <trkpt lat="67.02357" lon="14.25428">
        <ele>5</ele>
        <time>2019-06-24T01:35:25Z</time>
      </trkpt>
      <trkpt lat="67.02635" lon="14.25633">
        <ele>4</ele>
        <time>2019-06-24T01:35:33Z</time>
      </trkpt>
      <trkpt lat="67.02949" lon="14.25949">
        <ele>2</ele>
        <time>2019-06-24T01:35:47Z</time>
      </trkpt>
      <trkpt lat="67.03125" lon="14.2607">
        <ele>2</ele>
        <time>2019-06-24T01:35:56Z</time>
      </trkpt>
      <trkpt lat="67.03375" lon="14.264">
        <ele>4</ele>
        <time>2019-06-24T01:36:18Z</time>
      </trkpt>
      <trkpt lat="67.03588" lon="14.26873">
        <ele>6</ele>
        <time>2019-06-24T01:36:39Z</time>
      </trkpt>
      <trkpt lat="67.03718" lon="14.26959">
        <ele>8</ele>
        <time>2019-06-24T01:36:48Z</time>
      </trkpt>
      <trkpt lat="67.03859" lon="14.269">
        <ele>10</ele>
        <time>2019-06-24T01:37:09Z</time>
      </trkpt>
      <trkpt lat="67.04626" lon="14.27188">
        <ele>12</ele>
        <time>2019-06-24T01:37:20Z</time>
      </trkpt>
      <trkpt lat="67.04926" lon="14.27267">
        <ele>14</ele>
        <time>2019-06-24T01:37:33Z</time>
      </trkpt>
      <trkpt lat="67.05079" lon="14.27333">
        <ele>16</ele>
        <time>2019-06-24T01:38:09Z</time>
      </trkpt>
      <trkpt lat="67.05437" lon="14.27624">
        <ele>16</ele>
        <time>2019-06-24T01:38:26Z</time>
      </trkpt>
      <trkpt lat="67.05618" lon="14.27685">
        <ele>17</ele>
        <time>2019-06-24T01:39:42Z</time>
      </trkpt>
      <trkpt lat="67.05698" lon="14.2758">
        <ele>17</ele>
        <time>2019-06-24T01:39:54Z</time>
      </trkpt>
      <trkpt lat="67.0587" lon="14.2675">
        <ele>17</ele>
        <time>2019-06-24T01:40:07Z</time>
      </trkpt>
      <trkpt lat="67.05959" lon="14.26413">
        <ele>18</ele>
        <time>2019-06-24T01:40:18Z</time>
      </trkpt>
      <trkpt lat="67.06016" lon="14.26305">
        <ele>18</ele>
        <time>2019-06-24T01:40:24Z</time>
      </trkpt>
      <trkpt lat="67.06102" lon="14.26229">
        <ele>18</ele>
        <time>2019-06-24T01:40:36Z</time>
      </trkpt>
      <trkpt lat="67.06234" lon="14.26203">
        <ele>18</ele>
        <time>2019-06-24T01:40:46Z</time>
      </trkpt>
      <trkpt lat="67.06232" lon="14.26239">
        <ele>19</ele>
        <time>2019-06-24T01:40:51Z</time>
      </trkpt>
      <trkpt lat="67.06262" lon="14.26271">
        <ele>25</ele>
        <time>2019-06-24T01:41:23Z</time>
      </trkpt>
      <trkpt lat="67.06428" lon="14.26347">
        <ele>31</ele>
        <time>2019-06-24T01:41:32Z</time>
      </trkpt>
      <trkpt lat="67.06495" lon="14.26344">
        <ele>37</ele>
        <time>2019-06-24T01:41:38Z</time>
      </trkpt>
      <trkpt lat="67.06557" lon="14.26299">
        <ele>44</ele>
        <time>2019-06-24T01:41:42Z</time>
      </trkpt>
      <trkpt lat="67.06997" lon="14.25775">
        <ele>50</ele>
        <time>2019-06-24T01:41:59Z</time>
      </trkpt>
      <trkpt lat="67.07081" lon="14.25735">
        <ele>56</ele>
        <time>2019-06-24T01:42:05Z</time>
      </trkpt>
      <trkpt lat="67.07189" lon="14.2599">
        <ele>63</ele>
        <time>2019-06-24T01:42:24Z</time>
      </trkpt>
      <trkpt lat="67.0721" lon="14.26284">
        <ele>69</ele>
        <time>2019-06-24T01:42:31Z</time>
      </trkpt>
      <trkpt lat="67.07312" lon="14.26535">
        <ele>70</ele>
        <time>2019-06-24T01:43:10Z</time>
      </trkpt>
      <trkpt lat="67.07372" lon="14.26589">
        <ele>60</ele>
        <time>2019-06-24T01:43:29Z</time>
      </trkpt>
      <trkpt lat="67.07447" lon="14.26805">
        <ele>51</ele>
        <time>2019-06-24T01:43:33Z</time>
      </trkpt>
      <trkpt lat="67.07495" lon="14.27056">
        <ele>42</ele>
        <time>2019-06-24T01:43:45Z</time>
      </trkpt>
      <trkpt lat="67.07656" lon="14.27358">
        <ele>32</ele>
        <time>2019-06-24T01:43:56Z</time>
      </trkpt>
      <trkpt lat="67.07727" lon="14.27933">
        <ele>23</ele>
        <time>2019-06-24T01:44:21Z</time>
      </trkpt>
      <trkpt lat="67.07704" lon="14.28534">
        <ele>14</ele>
        <time>2019-06-24T01:44:59Z</time>
      </trkpt>
      <trkpt lat="67.07729" lon="14.29016">
        <ele>4</ele>
        <time>2019-06-24T01:45:07Z</time>
      </trkpt>
      <trkpt lat="67.07888" lon="14.30715">
        <ele>7.8</ele>
        <time>2019-06-24T01:46:25Z</time>
      </trkpt>
      <trkpt lat="67.07923" lon="14.31431">
        <ele>1</ele>
        <time>2019-06-24T01:46:41Z</time>
      </trkpt>
      <trkpt lat="67.08023" lon="14.32313">
        <ele>3</ele>
        <time>2019-06-24T01:47:10Z</time>
      </trkpt>
      <trkpt lat="67.08129" lon="14.32738">
        <ele>5</ele>
        <time>2019-06-24T01:47:28Z</time>
      </trkpt>
      <trkpt lat="67.08189" lon="14.32813">
        <ele>6</ele>
        <time>2019-06-24T01:47:44Z</time>
      </trkpt>
      <trkpt lat="67.08355" lon="14.32523">
        <ele>8</ele>
        <time>2019-06-24T01:48:02Z</time>
      </trkpt>
      <trkpt lat="67.08484" lon="14.31587">
        <ele>10</ele>
        <time>2019-06-24T01:48:12Z</time>
      </trkpt>
      <trkpt lat="67.08545" lon="14.31437">
        <ele>11</ele>
        <time>2019-06-24T01:48:22Z</time>
      </trkpt>
      <trkpt lat="67.08624" lon="14.31376">
        <ele>13</ele>
        <time>2019-06-24T01:49:12Z</time>
      </trkpt>
      <trkpt lat="67.09044" lon="14.31323">
        <ele>18</ele>
        <time>2019-06-24T01:49:27Z</time>
      </trkpt>
      <trkpt lat="67.09236" lon="14.31234">
        <ele>22</ele>
        <time>2019-06-24T01:49:41Z</time>
      </trkpt>
      <trkpt lat="67.09423" lon="14.31015">
        <ele>27</ele>
        <time>2019-06-24T01:49:56Z</time>
      </trkpt>
      <trkpt lat="67.09562" lon="14.30942">
        <ele>32</ele>
        <time>2019-06-24T01:50:26Z</time>
      </trkpt>
      <trkpt lat="67.10013" lon="14.30913">
        <ele>37</ele>
        <time>2019-06-24T01:50:33Z</time>
      </trkpt>
      <trkpt lat="67.10212" lon="14.30924">
        <ele>42</ele>
        <time>2019-06-24T01:50:57Z</time>
      </trkpt>
      <trkpt lat="67.10268" lon="14.30947">
        <ele>46</ele>
        <time>2019-06-24T01:51:12Z</time>
      </trkpt>
      <trkpt lat="67.1037" lon="14.31171">
        <ele>51</ele>
        <time>2019-06-24T01:51:52Z</time>
      </trkpt>
      <trkpt lat="67.10479" lon="14.3165">
        <ele>52</ele>
        <time>2019-06-24T01:52:19Z</time>
      </trkpt>
      <trkpt lat="67.10481" lon="14.31633">
        <ele>49</ele>
        <time>2019-06-24T01:52:33Z</time>
      </trkpt>
      <trkpt lat="67.10548" lon="14.31845">
        <ele>46</ele>
        <time>2019-06-24T01:53:08Z</time>
      </trkpt>
      <trkpt lat="67.10631" lon="14.31946">
        <ele>43</ele>
        <time>2019-06-24T01:53:19Z</time>
      </trkpt>
      <trkpt lat="67.10749" lon="14.31925">
        <ele>40</ele>
        <time>2019-06-24T01:53:30Z</time>
      </trkpt>
      <trkpt lat="67.11266" lon="14.3171">
        <ele>37</ele>
        <time>2019-06-24T01:54:16Z</time>
      </trkpt>
      <trkpt lat="67.11397" lon="14.3168">
        <ele>34</ele>
        <time>2019-06-24T01:54:24Z</time>
      </trkpt>
      <trkpt lat="67.1153" lon="14.31739">
        <ele>30</ele>
        <time>2019-06-24T01:54:33Z</time>
      </trkpt>
      <trkpt lat="67.119" lon="14.31969">
        <ele>29</ele>
        <time>2019-06-24T01:56:47Z</time>
      </trkpt>
      <trkpt lat="67.12014" lon="14.32093">
        <ele>41</ele>
        <time>2019-06-24T01:57:14Z</time>
      </trkpt>
      <trkpt lat="67.12177" lon="14.32492">
        <ele>54</ele>
        <time>2019-06-24T01:57:38Z</time>
      </trkpt>
      <trkpt lat="67.12386" lon="14.33233">
        <ele>67</ele>
        <time>2019-06-24T01:57:48Z</time>
      </trkpt>
      <trkpt lat="67.12399" lon="14.33921">
        <ele>80</ele>
        <time>2019-06-24T01:58:13Z</time>
      </trkpt>
      <trkpt lat="67.12529" lon="14.3442">
        <ele>93</ele>
        <time>2019-06-24T01:58:25Z</time>
      </trkpt>
      <trkpt lat="67.12593" lon="14.35016">
        <ele>105</ele>
        <time>2019-06-24T01:58:30Z</time>
      </trkpt>
      <trkpt lat="67.12648" lon="14.35209">
        <ele>118</ele>
        <time>2019-06-24T01:58:59Z</time>
      </trkpt>
      <trkpt lat="67.13006" lon="14.35865">
        <ele>131</ele>
        <time>2019-06-24T01:59:07Z</time>
      </trkpt>
      <trkpt lat="67.13266" lon="14.36639">
        <ele>138</ele>
        <time>2019-06-24T01:59:26Z</time>
      </trkpt>
      <trkpt lat="67.13744" lon="14.37575">
        <ele>146</ele>
        <time>2019-06-24T01:59:44Z</time>
      </trkpt>
      <trkpt lat="67.13928" lon="14.3778">
        <ele>154</ele>
        <time>2019-06-24T02:00:30Z</time>
      </trkpt>
      <trkpt lat="67.14212" lon="14.38474">
        <ele>162</ele>
        <time>2019-06-24T02:00:47Z</time>
      </trkpt>
      <trkpt lat="67.14398" lon="14.38807">
        <ele>169</ele>
        <time>2019-06-24T02:01:11Z</time>
      </trkpt>
      <trkpt lat="67.14519" lon="14.39252">
        <ele>177</ele>
        <time>2019-06-24T02:01:50Z</time>
      </trkpt>
      <trkpt lat="67.14684" lon="14.40024">
        <ele>185</ele>
        <time>2019-06-24T02:02:16Z</time>
      </trkpt>
      <trkpt lat="67.14746" lon="14.402">
        <ele>193</ele>
        <time>2019-06-24T02:02:51Z</time>
      </trkpt>
      <trkpt lat="67.14869" lon="14.4043">
        <ele>195</ele>
        <time>2019-06-24T02:02:59Z</time>
      </trkpt>
      <trkpt lat="67.14996" lon="14.40567">
        <ele>188</ele>
        <time>2019-06-24T02:03:26Z</time>
      </trkpt>
      <trkpt lat="67.15145" lon="14.40635">
        <ele>181</ele>
        <time>2019-06-24T02:03:31Z</time>
      </trkpt>
      <trkpt lat="67.15333" lon="14.40643">
        <ele>174</ele>
        <time>2019-06-24T02:03:45Z</time>
      </trkpt>
      <trkpt lat="67.15521" lon="14.40764">
        <ele>166</ele>
        <time>2019-06-24T02:04:23Z</time>
      </trkpt>
      <trkpt lat="67.16018" lon="14.41889">
        <ele>159</ele>
        <time>2019-06-24T02:04:37Z</time>
      </trkpt>
      <trkpt lat="67.16208" lon="14.42349">
        <ele>152</ele>
        <time>2019-06-24T02:07:03Z</time>
      </trkpt>
      <trkpt lat="67.16277" lon="14.42772">
        <ele>145</ele>
        <time>2019-06-24T02:07:21Z</time>
      </trkpt>
      <trkpt lat="67.16254" lon="14.43106">
        <ele>139</ele>
        <time>2019-06-24T02:07:38Z</time>
      </trkpt>
      <trkpt lat="67.16279" lon="14.43325">
        <ele>138</ele>
        <time>2019-06-24T02:07:57Z</time>
      </trkpt>
      <trkpt lat="67.16337" lon="14.43487">
        <ele>137</ele>
        <time>2019-06-24T02:08:49Z</time>
      </trkpt>
      <trkpt lat="67.16491" lon="14.43695">
        <ele>136</ele>
        <time>2019-06-24T02:09:28Z</time>
      </trkpt>
      <trkpt lat="67.16527" lon="14.43863">
        <ele>135</ele>
        <time>2019-06-24T02:09:33Z</time>
      </trkpt>
      <trkpt lat="67.16527" lon="14.44205">
        <ele>135</ele>
        <time>2019-06-24T02:09:37Z</time>
      </trkpt>
      <trkpt lat="67.16582" lon="14.44672">
        <ele>134</ele>
        <time>2019-06-24T02:10:05Z</time>
      </trkpt>
      <trkpt lat="67.16615" lon="14.44762">
        <ele>133</ele>
        <time>2019-06-24T02:10:11Z</time>
      </trkpt>
      <trkpt lat="67.16671" lon="14.44851">
        <ele>132</ele>
        <time>2019-06-24T02:10:28Z</time>
      </trkpt>
      <trkpt lat="67.16871" lon="14.44882">
        <ele>132</ele>
        <time>2019-06-24T02:10:50Z</time>
      </trkpt>
      <trkpt lat="67.17035" lon="14.44827">
        <ele>124</ele>
        <time>2019-06-24T02:11:39Z</time>
      </trkpt>
      <trkpt lat="67.17154" lon="14.44868">
        <ele>116</ele>
        <time>2019-06-24T02:11:54Z</time>
      </trkpt>
      <trkpt lat="67.17268" lon="14.45044">
        <ele>107</ele>
        <time>2019-06-24T02:12:11Z</time>
      </trkpt>
      <trkpt lat="67.17526" lon="14.45595">
        <ele>99</ele>
        <time>2019-06-24T02:12:19Z</time>
      </trkpt>
      <trkpt lat="67.17797" lon="14.46012">
        <ele>91</ele>
        <time>2019-06-24T02:12:36Z</time>
      </trkpt>
      <trkpt lat="67.17988" lon="14.46483">
        <ele>83</ele>
        <time>2019-06-24T02:13:07Z</time>
      </trkpt>
      <trkpt lat="67.18039" lon="14.46793">
        <ele>75</ele>
        <time>2019-06-24T02:13:14Z</time>
      </trkpt>
      <trkpt lat="67.18045" lon="14.47483">
        <ele>72</ele>
        <time>2019-06-24T02:13:36Z</time>
      </trkpt>
      <trkpt lat="67.18232" lon="14.49046">
        <ele>65</ele>
        <time>2019-06-24T02:13:45Z</time>
      </trkpt>
      <trkpt lat="67.18299" lon="14.4935">
        <ele>58</ele>
        <time>2019-06-24T02:14:07Z</time>
      </trkpt>
      <trkpt lat="67.18312" lon="14.49607">
        <ele>52</ele>
        <time>2019-06-24T02:14:40Z</time>
      </trkpt>
      <trkpt lat="67.1823" lon="14.50727">
        <ele>45</ele>
        <time>2019-06-24T02:14:42Z</time>
      </trkpt>
      <trkpt lat="67.18076" lon="14.51341">
        <ele>39</ele>
        <time>2019-06-24T02:14:49Z</time>
      </trkpt>
      <trkpt lat="67.18078" lon="14.52048">
        <ele>32</ele>
        <time>2019-06-24T02:15:05Z</time>
      </trkpt>
      <trkpt lat="67.17981" lon="14.52777">
        <ele>25</ele>
        <time>2019-06-24T02:15:32Z</time>
      </trkpt>
      <trkpt lat="67.17881" lon="14.54638">
        <ele>20</ele>
        <time>2019-06-24T02:15:49Z</time>
      </trkpt>
      <trkpt lat="67.17879" lon="14.55455">
        <ele>25</ele>
        <time>2019-06-24T02:16:16Z</time>
      </trkpt>
      <trkpt lat="67.17788" lon="14.56811">
        <ele>29</ele>
        <time>2019-06-24T02:17:09Z</time>
      </trkpt>
      <trkpt lat="67.17793" lon="14.57322">
        <ele>34</ele>
        <time>2019-06-24T02:17:19Z</time>
      </trkpt>
      <trkpt lat="67.17835" lon="14.57506">
        <ele>39</ele>
        <time>2019-06-24T02:17:29Z</time>
      </trkpt>
      <trkpt lat="67.1806" lon="14.58135">
        <ele>44</ele>
        <time>2019-06-24T02:18:20Z</time>
      </trkpt>
      <trkpt lat="67.18101" lon="14.58377">
        <ele>48</ele>
        <time>2019-06-24T02:18:28Z</time>
      </trkpt>
      <trkpt lat="67.18013" lon="14.59362">
        <ele>53</ele>
        <time>2019-06-24T02:18:35Z</time>
      </trkpt>
      <trkpt lat="67.18047" lon="14.59862">
        <ele>58</ele>
        <time>2019-06-24T02:18:50Z</time>
      </trkpt>
      <trkpt lat="67.18053" lon="14.59836">
        <ele>59</ele>
        <time>2019-06-24T02:19:21Z</time>
      </trkpt>
      <trkpt lat="67.18159" lon="14.60097">
        <ele>59</ele>
        <time>2019-06-24T02:19:31Z</time>
      </trkpt>
      <trkpt lat="67.18269" lon="14.60169">
        <ele>58</ele>
        <time>2019-06-24T02:19:45Z</time>
      </trkpt>
      <trkpt lat="67.18486" lon="14.60097">
        <ele>58</ele>
        <time>2019-06-24T02:19:57Z</time>
      </trkpt>
      <trkpt lat="67.18875" lon="14.60388">
        <ele>58</ele>
        <time>2019-06-24T02:20:26Z</time>
      </trkpt>
      <trkpt lat="67.19399" lon="14.6044">
        <ele>58</ele>
        <time>2019-06-24T02:20:49Z</time>
      </trkpt>
      <trkpt lat="67.19589" lon="14.60763">
        <ele>57</ele>
        <time>2019-06-24T02:26:08Z</time>
      </trkpt>
      <trkpt lat="67.19635" lon="14.61072">
        <ele>57</ele>
        <time>2019-06-24T02:26:47Z</time>
      </trkpt>
      <trkpt lat="67.1964" lon="14.61533">
        <ele>57</ele>
        <time>2019-06-24T02:27:05Z</time>
      </trkpt>
      <trkpt lat="67.197" lon="14.62038">
        <ele>50</ele>
        <time>2019-06-24T02:27:31Z</time>
      </trkpt>
      <trkpt lat="67.19634" lon="14.62599">
        <ele>43</ele>
        <time>2019-06-24T02:28:15Z</time>
      </trkpt>
      <trkpt lat="67.1965" lon="14.62842">
        <ele>36</ele>
        <time>2019-06-24T02:28:26Z</time>
      </trkpt>
      <trkpt lat="67.19718" lon="14.63035">
        <ele>30</ele>
        <time>2019-06-24T02:28:37Z</time>
      </trkpt>
      <trkpt lat="67.19973" lon="14.6343">
        <ele>23</ele>
        <time>2019-06-24T02:28:54Z</time>
      </trkpt>
      <trkpt lat="67.20024" lon="14.6343">
        <ele>16</ele>
        <time>2019-06-24T02:29:42Z</time>
      </trkpt>
      <trkpt lat="67.20107" lon="14.63334">
        <ele>9</ele>
        <time>2019-06-24T02:30:09Z</time>
      </trkpt>
      <trkpt lat="67.20327" lon="14.62554">
        <ele>2</ele>
        <time>2019-06-24T02:30:29Z</time>
      </trkpt>
      <trkpt lat="67.20585" lon="14.61454">
        <ele>15</ele>
        <time>2019-06-24T02:31:08Z</time>
      </trkpt>
      <trkpt lat="67.20627" lon="14.60894">
        <ele>27</ele>
        <time>2019-06-24T02:31:18Z</time>
      </trkpt>
      <trkpt lat="67.20652" lon="14.6079">
        <ele>39</ele>
        <time>2019-06-24T02:31:37Z</time>
      </trkpt>
      <trkpt lat="67.20701" lon="14.60711">
        <ele>51</ele>
        <time>2019-06-24T02:32:13Z</time>
      </trkpt>
      <trkpt lat="67.20807" lon="14.60719">
        <ele>63</ele>
        <time>2019-06-24T02:32:29Z</time>
      </trkpt>
      <trkpt lat="67.21042" lon="14.61059">
        <ele>75</ele>
        <time>2019-06-24T02:32:38Z</time>
      </trkpt>
      <trkpt lat="67.21084" lon="14.61202">
        <ele>87</ele>
        <time>2019-06-24T02:32:52Z</time>
      </trkpt>
      <trkpt lat="67.21186" lon="14.61839">
        <ele>99</ele>
        <time>2019-06-24T02:33:36Z</time>
      </trkpt>
      <trkpt lat="67.21265" lon="14.62128">
        <ele>103</ele>
        <time>2019-06-24T02:33:47Z</time>
      </trkpt>
      <trkpt lat="67.21431" lon="14.62476">
        <ele>94</ele>
        <time>2019-06-24T02:34:02Z</time>
      </trkpt>
      <trkpt lat="67.21554" lon="14.62609">
        <ele>84</ele>
        <time>2019-06-24T02:34:09Z</time>
      </trkpt>
      <trkpt lat="67.21625" lon="14.62623">
        <ele>75</ele>
        <time>2019-06-24T02:34:56Z</time>
      </trkpt>
      <trkpt lat="67.21662" lon="14.62603">
        <ele>65</ele>
        <time>2019-06-24T02:35:24Z</time>
      </trkpt>
      <trkpt lat="67.21753" lon="14.62458">
        <ele>55</ele>
        <time>2019-06-24T02:35:35Z</time>
      </trkpt>
      <trkpt lat="67.21952" lon="14.62003">
        <ele>46</ele>
        <time>2019-06-24T02:35:54Z</time>
      </trkpt>
      <trkpt lat="67.2212" lon="14.61417">
        <ele>36</ele>
        <time>2019-06-24T02:36:07Z</time>
      </trkpt>
      <trkpt lat="67.22582" lon="14.60917">
        <ele>30</ele>
        <time>2019-06-24T02:36:18Z</time>
      </trkpt>
      <trkpt lat="67.22633" lon="14.60823">
        <ele>29</ele>
        <time>2019-06-24T02:36:49Z</time>
      </trkpt>
      <trkpt lat="67.22733" lon="14.60467">
        <ele>28</ele>
        <time>2019-06-24T02:37:03Z</time>
      </trkpt>
      <trkpt lat="67.22802" lon="14.60374">
        <ele>27</ele>
        <time>2019-06-24T02:37:20Z</time>
      </trkpt>
      <trkpt lat="67.22872" lon="14.60372">
        <ele>25</ele>
        <time>2019-06-24T02:37:35Z</time>
      </trkpt>
      <trkpt lat="67.22865" lon="14.6027">
        <ele>24</ele>
        <time>2019-06-24T02:38:03Z</time>
      </trkpt>
      <trkpt lat="67.22846" lon="14.60336">
        <ele>23</ele>
        <time>2019-06-24T02:38:18Z</time>
      </trkpt>
      <trkpt lat="67.22844" lon="14.60223">
        <ele>22</ele>
        <time>2019-06-24T02:38:29Z</time>
      </trkpt>
      <trkpt lat="67.22837" lon="14.60292">
        <ele>21</ele>
        <time>2019-06-24T02:38:52Z</time>
      </trkpt>
      <trkpt lat="67.2281" lon="14.60282">
        <ele>21</ele>
        <time>2019-06-24T02:39:08Z</time>
      </trkpt>
      <trkpt lat="67.22832" lon="14.60208">
        <ele>20</ele>
        <time>2019-06-24T02:39:21Z</time>
      </trkpt>
      <trkpt lat="67.22847" lon="14.60261">
        <ele>19</ele>
        <time>2019-06-24T02:40:17Z</time>
      </trkpt>
      <trkpt lat="67.22867" lon="14.60247">
        <ele>18</ele>
        <time>2019-06-24T02:40:36Z</time>
      </trkpt>
      <trkpt lat="67.22869" lon="14.60328">
        <ele>17</ele>
        <time>2019-06-24T02:40:45Z</time>
      </trkpt>
      <trkpt lat="67.22965" lon="14.60562">
        <ele>16</ele>
        <time>2019-06-24T02:41:03Z</time>
      </trkpt>
      <trkpt lat="67.23361" lon="14.62218">
        <ele>15</ele>
        <time>2019-06-24T02:41:44Z</time>
      </trkpt>
      <trkpt lat="67.2337" lon="14.62204">
        <ele>14</ele>
        <time>2019-06-24T02:41:52Z</time>
      </trkpt>
      <trkpt lat="67.2341" lon="14.62249">
        <ele>14</ele>
        <time>2019-06-24T02:42:07Z</time>
      </trkpt>
      <trkpt lat="67.23537" lon="14.61943">
        <ele>14</ele>
        <time>2019-06-24T02:42:16Z</time>
      </trkpt>
      <trkpt lat="67.23555" lon="14.61985">
        <ele>14</ele>
        <time>2019-06-24T02:42:51Z</time>
      </trkpt>
      <trkpt lat="67.23575" lon="14.61924">
        <ele>14</ele>
        <time>2019-06-24T02:43:21Z</time>
      </trkpt>
      <trkpt lat="67.2359" lon="14.6193">
        <ele>14</ele>
        <time>2019-06-24T02:43:38Z</time>
      </trkpt>
      <trkpt lat="67.23543" lon="14.62066">
        <ele>14</ele>
        <time>2019-06-24T02:48:46Z</time>
      </trkpt>
      <trkpt lat="67.23559" lon="14.62099">
        <ele>14</ele>
        <time>2019-06-24T02:48:57Z</time>
      </trkpt>
      <trkpt lat="67.23522" lon="14.62096">
        <ele>14</ele>
        <time>2019-06-24T02:49:05Z</time>
      </trkpt>
      <trkpt lat="67.23383" lon="14.62317">
        <ele>14</ele>
        <time>2019-06-24T02:50:04Z</time>
      </trkpt>
      <trkpt lat="67.23423" lon="14.62729">
        <ele>13</ele>
        <time>2019-06-24T02:50:24Z</time>
      </trkpt>
      <trkpt lat="67.23457" lon="14.63638">
        <ele>12</ele>
        <time>2019-06-24T02:50:40Z</time>
      </trkpt>
      <trkpt lat="67.23676" lon="14.65013">
        <ele>11</ele>
        <time>2019-06-24T02:50:52Z</time>
      </trkpt>
      <trkpt lat="67.23626" lon="14.65903">
        <ele>10</ele>
        <time>2019-06-24T02:51:15Z</time>
      </trkpt>
      <trkpt lat="67.23646" lon="14.66499">
        <ele>9</ele>
        <time>2019-06-24T02:51:41Z</time>
      </trkpt>
      <trkpt lat="67.23583" lon="14.67241">
        <ele>9</ele>
        <time>2019-06-24T02:51:59Z</time>
      </trkpt>
      <trkpt lat="67.23576" lon="14.67778">
        <ele>8</ele>
        <time>2019-06-24T02:52:15Z</time>
      </trkpt>
      <trkpt lat="67.23736" lon="14.70207">
        <ele>7</ele>
        <time>2019-06-24T02:52:32Z</time>
      </trkpt>
      <trkpt lat="67.2377" lon="14.70554">
        <ele>7</ele>
        <time>2019-06-24T02:52:49Z</time>
      </trkpt>
      <trkpt lat="67.23874" lon="14.70988">
        <ele>6</ele>
        <time>2019-06-24T02:53:20Z</time>
      </trkpt>
      <trkpt lat="67.23991" lon="14.71151">
        <ele>6</ele>
        <time>2019-06-24T02:53:26Z</time>
      </trkpt>
      <trkpt lat="67.24035" lon="14.71268">
        <ele>6</ele>
        <time>2019-06-24T02:53:30Z</time>
      </trkpt>
      <trkpt lat="67.24165" lon="14.71478">
        <ele>6</ele>
        <time>2019-06-24T02:53:42Z</time>
      </trkpt>
      <trkpt lat="67.24227" lon="14.71545">
        <ele>5</ele>
        <time>2019-06-24T02:54:14Z</time>
      </trkpt>
      <trkpt lat="67.24379" lon="14.72152">
        <ele>5</ele>
        <time>2019-06-24T02:54:28Z</time>
      </trkpt>
      <trkpt lat="67.24406" lon="14.72177">
        <ele>5</ele>
        <time>2019-06-24T02:54:42Z</time>
      </trkpt>
      <trkpt lat="67.24507" lon="14.72171">
        <ele>5</ele>
        <time>2019-06-24T02:58:11Z</time>
      </trkpt>
      <trkpt lat="67.24547" lon="14.7215">
        <ele>10</ele>
        <time>2019-06-24T02:58:30Z</time>
      </trkpt>
      <trkpt lat="67.24601" lon="14.72025">
        <ele>15</ele>
        <time>2019-06-24T02:58:41Z</time>
      </trkpt>
      <trkpt lat="67.24642" lon="14.71511">
        <ele>20</ele>
        <time>2019-06-24T02:58:49Z</time>
      </trkpt>
      <trkpt lat="67.24755" lon="14.7078">
        <ele>25</ele>
        <time>2019-06-24T02:59:09Z</time>
      </trkpt>
      <trkpt lat="67.2482" lon="14.70657">
        <ele>30</ele>
        <time>2019-06-24T02:59:13Z</time>
      </trkpt>
      <trkpt lat="67.24961" lon="14.70617">
        <ele>35</ele>
        <time>2019-06-24T02:59:17Z</time>
      </trkpt>
      <trkpt lat="67.25184" lon="14.70812">
        <ele>40</ele>
        <time>2019-06-24T02:59:32Z</time>
      </trkpt>
      <trkpt lat="67.25255" lon="14.70778">
        <ele>44</ele>
        <time>2019-06-24T02:59:34Z</time>
      </trkpt>
      <trkpt lat="67.25358" lon="14.71202">
        <ele>41</ele>
        <time>2019-06-24T02:59:36Z</time>
      </trkpt>
      <trkpt lat="67.25508" lon="14.71299">
        <ele>37</ele>
        <time>2019-06-24T02:59:40Z</time>
      </trkpt>
      <trkpt lat="67.25546" lon="14.71351">
        <ele>34</ele>
        <time>2019-06-24T02:59:48Z</time>
      </trkpt>
      <trkpt lat="67.25686" lon="14.72089">
        <ele>30</ele>
        <time>2019-06-24T03:00:03Z</time>
      </trkpt>
      <trkpt lat="67.25979" lon="14.7285">
        <ele>27</ele>
        <time>2019-06-24T03:00:16Z</time>
      </trkpt>
      <trkpt lat="67.26119" lon="14.73113">
        <ele>23</ele>
        <time>2019-06-24T03:00:31Z</time>
      </trkpt>
      <trkpt lat="67.26186" lon="14.73383">
        <ele>20</ele>
        <time>2019-06-24T03:00:40Z</time>
      </trkpt>
      <trkpt lat="67.26328" lon="14.73649">
        <ele>17</ele>
        <time>2019-06-24T03:00:50Z</time>
      </trkpt>
      <trkpt lat="67.26428" lon="14.73777">
        <ele>16</ele>
        <time>2019-06-24T03:01:22Z</time>
      </trkpt>
      <trkpt lat="67.26484" lon="14.73809">
        <ele>16</ele>
        <time>2019-06-24T03:01:46Z</time>
      </trkpt>
      <trkpt lat="67.26717" lon="14.73771">
        <ele>16</ele>
        <time>2019-06-24T03:02:01Z</time>
      </trkpt>
      <trkpt lat="67.26953" lon="14.73623">
        <ele>16</ele>
        <time>2019-06-24T03:02:17Z</time>
      </trkpt>
      <trkpt lat="67.27089" lon="14.73292">
        <ele>16</ele>
        <time>2019-06-24T03:02:39Z</time>
      </trkpt>
      <trkpt lat="67.27246" lon="14.72747">
        <ele>16</ele>
        <time>2019-06-24T03:02:56Z</time>
      </trkpt>
      <trkpt lat="67.27328" lon="14.72563">
        <ele>16</ele>
        <time>2019-06-24T03:03:12Z</time>
      </trkpt>
      <trkpt lat="67.27376" lon="14.7254">
        <ele>16</ele>
        <time>2019-06-24T03:03:19Z</time>
      </trkpt>
      <trkpt lat="67.27453" lon="14.72623">
        <ele>16</ele>
        <time>2019-06-24T03:03:52Z</time>
      </trkpt>
      <trkpt lat="67.27562" lon="14.73019">
        <ele>15</ele>
        <time>2019-06-24T03:04:23Z</time>
      </trkpt>
      <trkpt lat="67.27597" lon="14.73004">
        <ele>14</ele>
        <time>2019-06-24T03:04:34Z</time>
      </trkpt>
      <trkpt lat="67.27898" lon="14.72526">
        <ele>14</ele>
        <time>2019-06-24T03:04:58Z</time>
      </trkpt>
      <trkpt lat="67.27965" lon="14.72467">
        <ele>13</ele>
        <time>2019-06-24T03:05:08Z</time>
      </trkpt>
      <trkpt lat="67.28041" lon="14.72549">
        <ele>12</ele>
        <time>2019-06-24T03:05:18Z</time>
      </trkpt>
      <trkpt lat="67.28116" lon="14.72829">
        <ele>12</ele>
        <time>2019-06-24T03:06:20Z</time>
      </trkpt>
      <trkpt lat="67.28224" lon="14.73101">
        <ele>11</ele>
        <time>2019-06-24T03:06:33Z</time>
      </trkpt>
      <trkpt lat="67.28248" lon="14.73322">
        <ele>10</ele>
        <time>2019-06-24T03:06:43Z</time>
      </trkpt>
      <trkpt lat="67.28284" lon="14.73403">
        <ele>10</ele>
        <time>2019-06-24T03:06:48Z</time>
      </trkpt>
      <trkpt lat="67.28322" lon="14.73418">
        <ele>10</ele>
        <time>2019-06-24T03:06:54Z</time>
      </trkpt>
      <trkpt lat="67.28365" lon="14.73391">
        <ele>10</ele>
        <time>2019-06-24T03:07:08Z</time>
      </trkpt>
      <trkpt lat="67.28443" lon="14.7308">
        <ele>10</ele>
        <time>2019-06-24T03:07:20Z</time>
      </trkpt>
      <trkpt lat="67.285" lon="14.73075">
        <ele>9</ele>
        <time>2019-06-24T03:07:31Z</time>
      </trkpt>
      <trkpt lat="67.28707" lon="14.72893">
        <ele>9</ele>
        <time>2019-06-24T03:07:37Z</time>
      </trkpt>
      <trkpt lat="67.28912" lon="14.72627">
        <ele>9</ele>
        <time>2019-06-24T03:07:43Z</time>
      </trkpt>
      <trkpt lat="67.29061" lon="14.72615">
        <ele>9</ele>
        <time>2019-06-24T03:07:57Z</time>
      </trkpt>
      <trkpt lat="67.29292" lon="14.72773">
        <ele>9</ele>
        <time>2019-06-24T03:08:03Z</time>
      </trkpt>
      <trkpt lat="67.29573" lon="14.72873">
        <ele>8</ele>
        <time>2019-06-24T03:08:06Z</time>
      </trkpt>
      <trkpt lat="67.29785" lon="14.72984">
        <ele>7</ele>
        <time>2019-06-24T03:08:11Z</time>
      </trkpt>
      <trkpt lat="67.29856" lon="14.73148">
        <ele>6</ele>
        <time>2019-06-24T03:08:20Z</time>
      </trkpt>
      <trkpt lat="67.30059" lon="14.73824">
        <ele>5</ele>
        <time>2019-06-24T03:08:23Z</time>
      </trkpt>
      <trkpt lat="67.30043" lon="14.73933">
        <ele>4</ele>
        <time>2019-06-24T03:11:52Z</time>
      </trkpt>
      <trkpt lat="67.29947" lon="14.74018">
        <ele>4</ele>
        <time>2019-06-24T03:11:59Z</time>
      </trkpt>
      <trkpt lat="67.30104" lon="14.73846">
        <ele>3</ele>
        <time>2019-06-24T03:12:10Z</time>
      </trkpt>
      <trkpt lat="67.30153" lon="14.73838">
        <ele>2</ele>
        <time>2019-06-24T03:12:17Z</time>
      </trkpt>
      <trkpt lat="67.30224" lon="14.73766">
        <ele>4</ele>
        <time>2019-06-24T03:12:25Z</time>
      </trkpt>
      <trkpt lat="67.30202" lon="14.73783">
        <ele>7</ele>
        <time>2019-06-24T03:13:20Z</time>
      </trkpt>
      <trkpt lat="67.30139" lon="14.7373">
        <ele>9</ele>
        <time>2019-06-24T03:13:27Z</time>
      </trkpt>
      <trkpt lat="67.30093" lon="14.73793">
        <ele>11</ele>
        <time>2019-06-24T03:13:40Z</time>
      </trkpt>
      <trkpt lat="67.30179" lon="14.73712">
        <ele>14</ele>
        <time>2019-06-24T03:14:33Z</time>
      </trkpt>
      <trkpt lat="67.30345" lon="14.73467">
        <ele>16</ele>
        <time>2019-06-24T03:14:42Z</time>
      </trkpt>
      <trkpt lat="67.30407" lon="14.73059">
        <ele>18</ele>
        <time>2019-06-24T03:14:47Z</time>
      </trkpt>
      <trkpt lat="67.3051" lon="14.71567">
        <ele>21</ele>
        <time>2019-06-24T03:14:54Z</time>
      </trkpt>
      <trkpt lat="67.30471" lon="14.71123">
        <ele>21</ele>
        <time>2019-06-24T03:15:16Z</time>
      </trkpt>
      <trkpt lat="67.30343" lon="14.70527">
        <ele>22</ele>
        <time>2019-06-24T03:15:37Z</time>
      </trkpt>
      <trkpt lat="67.30077" lon="14.69795">
        <ele>24</ele>
        <time>2019-06-24T03:15:50Z</time>
      </trkpt>
      <trkpt lat="67.30023" lon="14.69567">
        <ele>26</ele>
        <time>2019-06-24T03:16:08Z</time>
      </trkpt>
      <trkpt lat="67.30009" lon="14.69134">
        <ele>27</ele>
        <time>2019-06-24T03:16:17Z</time>
      </trkpt>
      <trkpt lat="67.29915" lon="14.68604">
        <ele>29</ele>
        <time>2019-06-24T03:16:28Z</time>
      </trkpt>
      <trkpt lat="67.29867" lon="14.68405">
        <ele>31</ele>
        <time>2019-06-24T03:17:40Z</time>
      </trkpt>
      <trkpt lat="67.29734" lon="14.68129">
        <ele>32</ele>
        <time>2019-06-24T03:17:47Z</time>
      </trkpt>
      <trkpt lat="67.2963" lon="14.67842">
        <ele>33</ele>
        <time>2019-06-24T03:17:54Z</time>
      </trkpt>
      <trkpt lat="67.29513" lon="14.67413">
        <ele>31</ele>
        <time>2019-06-24T03:18:06Z</time>
      </trkpt>
      <trkpt lat="67.29482" lon="14.67191">
        <ele>30</ele>
        <time>2019-06-24T03:18:29Z</time>
      </trkpt>
      <trkpt lat="67.2942" lon="14.65856">
        <ele>28</ele>
        <time>2019-06-24T03:18:34Z</time>
      </trkpt>
      <trkpt lat="67.29252" lon="14.64025">
        <ele>26</ele>
        <time>2019-06-24T03:18:38Z</time>
      </trkpt>
      <trkpt lat="67.29021" lon="14.62526">
        <ele>25</ele>
        <time>2019-06-24T03:18:44Z</time>
      </trkpt>
      <trkpt lat="67.28963" lon="14.61333">
        <ele>23</ele>
        <time>2019-06-24T03:18:57Z</time>
      </trkpt>
      <trkpt lat="67.28986" lon="14.6093">
        <ele>21</ele>
        <time>2019-06-24T03:19:06Z</time>
      </trkpt>
      <trkpt lat="67.28909" lon="14.6047">
        <ele>20</ele>
        <time>2019-06-24T03:19:14Z</time>
      </trkpt>
      <trkpt lat="67.28889" lon="14.60114">
        <ele>22</ele>
        <time>2019-06-24T03:19:44Z</time>
      </trkpt>
      <trkpt lat="67.28818" lon="14.59561">
        <ele>25</ele>
        <time>2019-06-24T03:19:58Z</time>
      </trkpt>
      <trkpt lat="67.28759" lon="14.59305">
        <ele>27</ele>
        <time>2019-06-24T03:20:06Z</time>
      </trkpt>
      <trkpt lat="67.28731" lon="14.59301">
        <ele>29</ele>
        <time>2019-06-24T03:20:55Z</time>
      </trkpt>
      <trkpt lat="67.28709" lon="14.59092">
        <ele>32</ele>
        <time>2019-06-24T03:21:16Z</time>
      </trkpt>
      <trkpt lat="67.28616" lon="14.59015">
        <ele>34</ele>
        <time>2019-06-24T03:21:27Z</time>
      </trkpt>
      <trkpt lat="67.28582" lon="14.58888">
        <ele>36</ele>
        <time>2019-06-24T03:21:44Z</time>
      </trkpt>
      <trkpt lat="67.28583" lon="14.58462">
        <ele>39</ele>
        <time>2019-06-24T03:22:13Z</time>
      </trkpt>
      <trkpt lat="67.28596" lon="14.58431">
        <ele>39</ele>
        <time>2019-06-24T03:22:57Z</time>
      </trkpt>
      <trkpt lat="67.28623" lon="14.58443">
        <ele>37</ele>
        <time>2019-06-24T03:23:19Z</time>
      </trkpt>
      <trkpt lat="67.28672" lon="14.58409">
        <ele>34</ele>
        <time>2019-06-24T03:23:49Z</time>
      </trkpt>
      <trkpt lat="67.28337" lon="14.55526">
        <ele>32</ele>
        <time>2019-06-24T03:24:09Z</time>
      </trkpt>
      <trkpt lat="67.28028" lon="14.53799">
        <ele>29</ele>
        <time>2019-06-24T03:24:23Z</time>
      </trkpt>
      <trkpt lat="67.27814" lon="14.51642">
        <ele>27</ele>
        <time>2019-06-24T03:25:14Z</time>
      </trkpt>
      <trkpt lat="67.27819" lon="14.51718">
        <ele>25</ele>
        <time>2019-06-24T03:25:37Z</time>
      </trkpt>
      <trkpt lat="67.27769" lon="14.51698">
        <ele>22</ele>
        <time>2019-06-24T03:25:55Z</time>
      </trkpt>
      <trkpt lat="67.27666" lon="14.50844">
        <ele>21</ele>
        <time>2019-06-24T03:26:12Z</time>
      </trkpt>
      <trkpt lat="67.27672" lon="14.50559">
        <ele>22</ele>
        <time>2019-06-24T03:26:55Z</time>
      </trkpt>
      <trkpt lat="67.27518" lon="14.49853">
        <ele>23</ele>
        <time>2019-06-24T03:27:06Z</time>
      </trkpt>
      <trkpt lat="67.27538" lon="14.49809">
        <ele>24</ele>
        <time>2019-06-24T03:27:14Z</time>
      </trkpt>
      <trkpt lat="67.27644" lon="14.50062">
        <ele>25</ele>
        <time>2019-06-24T03:27:23Z</time>
      </trkpt>
      <trkpt lat="67.27676" lon="14.50017">
        <ele>26</ele>
        <time>2019-06-24T03:27:53Z</time>
      </trkpt>
      <trkpt lat="67.27649" lon="14.49487">
        <ele>27</ele>
        <time>2019-06-24T03:28:19Z</time>
      </trkpt>
      <trkpt lat="67.27681" lon="14.494">
        <ele>28</ele>
        <time>2019-06-24T03:28:32Z</time>
      </trkpt>
      <trkpt lat="67.27699" lon="14.49021">
        <ele>28</ele>
        <time>2019-06-24T03:29:04Z</time>
      </trkpt>
      <trkpt lat="67.27778" lon="14.49025">
        <ele>29</ele>
        <time>2019-06-24T03:29:16Z</time>
      </trkpt>
      <trkpt lat="67.27772" lon="14.48836">
        <ele>30</ele>
        <time>2019-06-24T03:29:28Z</time>
      </trkpt>
      <trkpt lat="67.27717" lon="14.48671">
        <ele>31</ele>
        <time>2019-06-24T03:30:05Z</time>
      </trkpt>
      <trkpt lat="67.27698" lon="14.48393">
        <ele>32</ele>
        <time>2019-06-24T03:30:17Z</time>
      </trkpt>
      <trkpt lat="67.27603" lon="14.47846">
        <ele>33</ele>
        <time>2019-06-24T03:30:25Z</time>
      </trkpt>
      <trkpt lat="67.27603" lon="14.47709">
        <ele>34</ele>
        <time>2019-06-24T03:30:36Z</time>
      </trkpt>
      <trkpt lat="67.2763" lon="14.47632">
        <ele>35</ele>
        <time>2019-06-24T03:30:56Z</time>
      </trkpt>
      <trkpt lat="67.277" lon="14.47689">
        <ele>35</ele>
        <time>2019-06-24T03:31:25Z</time>
      </trkpt>
      <trkpt lat="67.27757" lon="14.47784">
        <ele>36</ele>
        <time>2019-06-24T03:31:44Z</time>
      </trkpt>
      <trkpt lat="67.27775" lon="14.47753">
        <ele>33</ele>
        <time>2019-06-24T03:32:02Z</time>
      </trkpt>
      <trkpt lat="67.27745" lon="14.47523">
        <ele>31</ele>
        <time>2019-06-24T03:32:27Z</time>
      </trkpt>
      <trkpt lat="67.27724" lon="14.46627">
        <ele>29</ele>
        <time>2019-06-24T03:32:41Z</time>
      </trkpt>
      <trkpt lat="67.27664" lon="14.46102">
        <ele>26</ele>
        <time>2019-06-24T03:33:07Z</time>
      </trkpt>
      <trkpt lat="67.27681" lon="14.45982">
        <ele>24</ele>
        <time>2019-06-24T03:33:16Z</time>
      </trkpt>
      <trkpt lat="67.27589" lon="14.44765">
        <ele>21</ele>
        <time>2019-06-24T03:33:21Z</time>
      </trkpt>
      <trkpt lat="67.27541" lon="14.44515">
        <ele>19</ele>
        <time>2019-06-24T03:33:24Z</time>
      </trkpt>
      <trkpt lat="67.27415" lon="14.43343">
        <ele>17</ele>
        <time>2019-06-24T03:34:20Z</time>
      </trkpt>
      <trkpt lat="67.27334" lon="14.42858">
        <ele>16</ele>
        <time>2019-06-24T03:34:36Z</time>
      </trkpt>
      <trkpt lat="67.27411" lon="14.42486">
        <ele>15</ele>
        <time>2019-06-24T03:34:53Z</time>
      </trkpt>
      <trkpt lat="67.27518" lon="14.42301">
        <ele>14</ele>
        <time>2019-06-24T03:35:16Z</time>
      </trkpt>
      <trkpt lat="67.27563" lon="14.42109">
        <ele>13</ele>
        <time>2019-06-24T03:35:48Z</time>
      </trkpt>
      <trkpt lat="67.27547" lon="14.41971">
        <ele>12</ele>
        <time>2019-06-24T03:36:10Z</time>
      </trkpt>
      <trkpt lat="67.2761" lon="14.41376">
        <ele>11</ele>
        <time>2019-06-24T03:36:17Z</time>
      </trkpt>
      <trkpt lat="67.27465" lon="14.39608">
        <ele>10</ele>
        <time>2019-06-24T03:36:45Z</time>
      </trkpt>
      <trkpt lat="67.27517" lon="14.39389">
        <ele>9</ele>
        <time>2019-06-24T03:36:59Z</time>
      </trkpt>
      <trkpt lat="67.27886" lon="14.39202">
        <ele>9</ele>
        <time>2019-06-24T03:37:03Z</time>
      </trkpt>
      <trkpt lat="67.28439" lon="14.38766">
        <ele>7</ele>
        <time>2019-06-24T03:37:21Z</time>
      </trkpt>
      <trkpt lat="67.2836" lon="14.38262">
        <ele>6</ele>
        <time>2019-06-24T03:37:45Z</time>
      </trkpt>
      <trkpt lat="67.28361" lon="14.38207">
        <ele>5</ele>
        <time>2019-06-24T03:37:58Z</time>
      </trkpt>
      <trkpt lat="67.28407" lon="14.38127">
        <ele>4</ele>
        <time>2019-06-24T03:38:17Z</time>
      </trkpt>
      <trkpt lat="67.28426" lon="14.38162">
        <ele>3</ele>
        <time>2019-06-24T03:38:34Z</time>
      </trkpt>
      <trkpt lat="67.28419" lon="14.38098">
        <ele>2</ele>
        <time>2019-06-24T03:38:49Z</time>
      </trkpt>
      <trkpt lat="67.28461" lon="14.37979">
        <ele>4</ele>
        <time>2019-06-24T03:49:34Z</time>
      </trkpt>
      <trkpt lat="67.28448" lon="14.37802">
        <ele>3.9</ele>
        <time>2019-06-24T03:50:02Z</time>
      </trkpt>
      <trkpt lat="67.28513" lon="14.38395">
        <ele>7.7</ele>
        <time>2019-06-24T03:50:16Z</time>
      </trkpt>
      <trkpt lat="67.28555" lon="14.38517">
        <ele>4.1</ele>
        <time>2019-06-24T03:52:15Z</time>
      </trkpt>
      <trkpt lat="67.28597" lon="14.3885">
        <ele>6.5</ele>
        <time>2019-06-24T03:54:18Z</time>
      </trkpt>
      <trkpt lat="67.28716" lon="14.38949">
        <ele>3.4</ele>
        <time>2019-06-24T03:54:32Z</time>
      </trkpt>
      <trkpt lat="67.28797" lon="14.3949">
        <ele>3.3</ele>
        <time>2019-06-24T03:54:36Z</time>
      </trkpt>
      <trkpt lat="67.28848" lon="14.39592">
        <ele>3</ele>
        <time>2019-06-24T03:59:47Z</time>
      </trkpt>
      <trkpt lat="67.28791" lon="14.39444">
        <ele>3.5</ele>
        <time>2019-06-25T08:14:02Z</time>
      </trkpt>
      <trkpt lat="67.28721" lon="14.38983">
        <ele>4</ele>
        <time>2019-06-25T08:14:12Z</time>
      </trkpt>
      <trkpt lat="67.28698" lon="14.38927">
        <ele>3.9</ele>
        <time>2019-06-25T08:15:35Z</time>
      </trkpt>
      <trkpt lat="67.28592" lon="14.38841">
        <ele>6.7</ele>
        <time>2019-06-25T08:15:56Z</time>
      </trkpt>
      <trkpt lat="67.28581" lon="14.38861">
        <ele>7.3</ele>
        <time>2019-06-25T08:16:33Z</time>
      </trkpt>
      <trkpt lat="67.28549" lon="14.38681">
        <ele>10.3</ele>
        <time>2019-06-25T08:16:47Z</time>
      </trkpt>
      <trkpt lat="67.28521" lon="14.38688">
        <ele>13.2</ele>
        <time>2019-06-25T08:16:57Z</time>
      </trkpt>
      <trkpt lat="67.2848" lon="14.38534">
        <ele>12.9</ele>
        <time>2019-06-25T08:17:07Z</time>
      </trkpt>
      <trkpt lat="67.28416" lon="14.38077">
        <ele>8</ele>
        <time>2019-06-25T08:17:27Z</time>
      </trkpt>
      <trkpt lat="67.28351" lon="14.37823">
        <ele>5.2</ele>
        <time>2019-06-25T08:17:42Z</time>
      </trkpt>
      <trkpt lat="67.2841" lon="14.37743">
        <ele>3.2</ele>
        <time>2019-06-25T08:18:07Z</time>
      </trkpt>
      <trkpt lat="67.28515" lon="14.38377">
        <ele>7</ele>
        <time>2019-06-25T08:18:19Z</time>
      </trkpt>
      <trkpt lat="67.28561" lon="14.38537">
        <ele>4.1</ele>
        <time>2019-06-25T08:18:29Z</time>
      </trkpt>
      <trkpt lat="67.2858" lon="14.38789">
        <ele>7.3</ele>
        <time>2019-06-25T08:18:57Z</time>
      </trkpt>
      <trkpt lat="67.286" lon="14.38855">
        <ele>6.4</ele>
        <time>2019-06-25T08:19:07Z</time>
      </trkpt>
      <trkpt lat="67.28718" lon="14.38987">
        <ele>4.1</ele>
        <time>2019-06-25T08:19:34Z</time>
      </trkpt>
      <trkpt lat="67.28784" lon="14.39409">
        <ele>3.8</ele>
        <time>2019-06-25T08:19:51Z</time>
      </trkpt>
      <trkpt lat="67.2884" lon="14.39569">
        <ele>3</ele>
        <time>2019-06-25T08:20:20Z</time>
      </trkpt>
      <trkpt lat="67.28836" lon="14.39392">
        <ele>1</ele>
        <time>2019-06-25T08:20:40Z</time>
      </trkpt>
      <trkpt lat="67.28886" lon="14.39373">
        <time>2019-06-25T08:20:49Z</time>
      </trkpt>
      <trkpt lat="67.28859" lon="14.39381">
        <time>2019-06-25T08:21:27Z</time>
      </trkpt>
      <trkpt lat="67.28837" lon="14.39337">
        <time>2019-06-25T08:21:41Z</time>
      </trkpt>
      <trkpt lat="67.28827" lon="14.39505">
        <ele>3</ele>
        <time>2019-06-25T08:21:43Z</time>
      </trkpt>
      <trkpt lat="67.28877" lon="14.39033">
        <time>2019-06-25T08:21:51Z</time>
      </trkpt>
      <trkpt lat="67.2883" lon="14.38387">
        <time>2019-06-25T08:22:21Z</time>
      </trkpt>
      <trkpt lat="67.28561" lon="14.36543">
        <time>2019-06-25T08:22:29Z</time>
      </trkpt>
      <trkpt lat="67.28143" lon="14.34301">
        <time>2019-06-25T08:22:38Z</time>
      </trkpt>
      <trkpt lat="67.27902" lon="14.32874">
        <time>2019-06-25T08:23:01Z</time>
      </trkpt>
      <trkpt lat="67.27783" lon="14.31823">
        <time>2019-06-25T08:23:27Z</time>
      </trkpt>
      <trkpt lat="67.27618" lon="14.28912">
        <time>2019-06-25T08:23:39Z</time>
      </trkpt>
      <trkpt lat="67.27629" lon="14.2846">
        <time>2019-06-25T08:23:54Z</time>
      </trkpt>
      <trkpt lat="67.27705" lon="14.27828">
        <time>2019-06-25T08:24:23Z</time>
      </trkpt>
      <trkpt lat="67.27846" lon="14.27354">
        <time>2019-06-25T08:24:28Z</time>
      </trkpt>
      <trkpt lat="67.28033" lon="14.27005">
        <time>2019-06-25T08:24:31Z</time>
      </trkpt>
      <trkpt lat="67.28272" lon="14.26743">
        <time>2019-06-25T08:24:56Z</time>
      </trkpt>
      <trkpt lat="67.31421" lon="14.24755">
        <time>2019-06-25T08:25:09Z</time>
      </trkpt>
      <trkpt lat="67.32237" lon="14.2431">
        <time>2019-06-25T08:25:14Z</time>
      </trkpt>
      <trkpt lat="67.32525" lon="14.24108">
        <time>2019-06-25T08:25:24Z</time>
      </trkpt>
      <trkpt lat="67.33041" lon="14.23642">
        <time>2019-06-25T08:25:44Z</time>
      </trkpt>
      <trkpt lat="67.33681" lon="14.23131">
        <time>2019-06-25T08:26:17Z</time>
      </trkpt>
      <trkpt lat="67.33891" lon="14.22831">
        <time>2019-06-25T08:26:34Z</time>
      </trkpt>
      <trkpt lat="67.34001" lon="14.22537">
        <time>2019-06-25T08:27:00Z</time>
      </trkpt>
      <trkpt lat="67.34523" lon="14.20664">
        <time>2019-06-25T08:27:17Z</time>
      </trkpt>
      <trkpt lat="67.35759" lon="14.16595">
        <time>2019-06-25T08:27:25Z</time>
      </trkpt>
      <trkpt lat="67.35978" lon="14.15705">
        <time>2019-06-25T08:27:52Z</time>
      </trkpt>
      <trkpt lat="67.3753" lon="14.08832">
        <time>2019-06-25T08:28:03Z</time>
      </trkpt>
      <trkpt lat="67.39456" lon="14.00932">
        <time>2019-06-25T08:28:11Z</time>
      </trkpt>
      <trkpt lat="67.39636" lon="14.00355">
        <time>2019-06-25T08:28:21Z</time>
      </trkpt>
      <trkpt lat="67.39716" lon="14.00199">
        <time>2019-06-25T08:28:52Z</time>
      </trkpt>
      <trkpt lat="67.39973" lon="13.99973">
        <time>2019-06-25T08:29:00Z</time>
      </trkpt>
      <trkpt lat="67.40075" lon="13.99966">
        <time>2019-06-25T08:29:09Z</time>
      </trkpt>
      <trkpt lat="67.40297" lon="14.00047">
        <time>2019-06-25T08:29:25Z</time>
      </trkpt>
      <trkpt lat="67.41675" lon="14.00894">
        <time>2019-06-25T08:29:38Z</time>
      </trkpt>
      <trkpt lat="67.41997" lon="14.01077">
        <time>2019-06-25T08:29:51Z</time>
      </trkpt>
      <trkpt lat="67.42238" lon="14.01173">
        <time>2019-06-25T08:30:45Z</time>
      </trkpt>
      <trkpt lat="67.42703" lon="14.01288">
        <time>2019-06-25T08:31:07Z</time>
      </trkpt>
      <trkpt lat="67.43104" lon="14.01352">
        <time>2019-06-25T08:31:20Z</time>
      </trkpt>
      <trkpt lat="67.43366" lon="14.01165">
        <time>2019-06-25T08:31:26Z</time>
      </trkpt>
      <trkpt lat="67.43455" lon="14.01046">
        <time>2019-06-25T08:31:36Z</time>
      </trkpt>
      <trkpt lat="67.43593" lon="14.00716">
        <time>2019-06-25T08:31:40Z</time>
      </trkpt>
      <trkpt lat="67.43738" lon="13.99831">
        <time>2019-06-25T08:31:44Z</time>
      </trkpt>
      <trkpt lat="67.43827" lon="13.99525">
        <time>2019-06-25T08:31:48Z</time>
      </trkpt>
      <trkpt lat="67.44132" lon="13.98953">
        <time>2019-06-25T08:31:55Z</time>
      </trkpt>
      <trkpt lat="67.45189" lon="13.96573">
        <time>2019-06-25T08:32:04Z</time>
      </trkpt>
      <trkpt lat="67.45911" lon="13.95061">
        <time>2019-06-25T08:32:08Z</time>
      </trkpt>
      <trkpt lat="67.46955" lon="13.92987">
        <time>2019-06-25T08:32:23Z</time>
      </trkpt>
      <trkpt lat="67.48255" lon="13.90189">
        <time>2019-06-25T08:32:42Z</time>
      </trkpt>
      <trkpt lat="67.48992" lon="13.88521">
        <time>2019-06-25T08:32:59Z</time>
      </trkpt>
      <trkpt lat="67.49956" lon="13.86644">
        <time>2019-06-25T08:33:41Z</time>
      </trkpt>
      <trkpt lat="67.51245" lon="13.83958">
        <time>2019-06-25T08:34:04Z</time>
      </trkpt>
      <trkpt lat="67.51901" lon="13.82707">
        <time>2019-06-25T08:34:11Z</time>
      </trkpt>
      <trkpt lat="67.52639" lon="13.81034">
        <time>2019-06-25T08:34:23Z</time>
      </trkpt>
      <trkpt lat="67.53451" lon="13.7938">
        <time>2019-06-25T08:35:19Z</time>
      </trkpt>
      <trkpt lat="67.54137" lon="13.7789">
        <time>2019-06-25T08:35:24Z</time>
      </trkpt>
      <trkpt lat="67.55096" lon="13.7601">
        <time>2019-06-25T08:35:36Z</time>
      </trkpt>
      <trkpt lat="67.55551" lon="13.7502">
        <time>2019-06-25T08:35:52Z</time>
      </trkpt>
      <trkpt lat="67.58199" lon="13.69562">
        <time>2019-06-25T08:36:20Z</time>
      </trkpt>
      <trkpt lat="67.59986" lon="13.65756">
        <time>2019-06-25T08:36:59Z</time>
      </trkpt>
      <trkpt lat="67.61724" lon="13.62328">
        <time>2019-06-25T08:37:18Z</time>
      </trkpt>
      <trkpt lat="67.62806" lon="13.5995">
        <time>2019-06-25T08:37:24Z</time>
      </trkpt>
      <trkpt lat="67.64036" lon="13.57468">
        <time>2019-06-25T08:37:37Z</time>
      </trkpt>
      <trkpt lat="67.65122" lon="13.55195">
        <time>2019-06-25T08:37:43Z</time>
      </trkpt>
      <trkpt lat="67.65807" lon="13.53843">
        <time>2019-06-25T08:41:18Z</time>
      </trkpt>
      <trkpt lat="67.66508" lon="13.52246">
        <time>2019-06-25T08:41:23Z</time>
      </trkpt>
      <trkpt lat="67.66874" lon="13.51491">
        <time>2019-06-25T08:41:34Z</time>
      </trkpt>
      <trkpt lat="67.67483" lon="13.50345">
        <time>2019-06-25T08:41:45Z</time>
      </trkpt>
      <trkpt lat="67.68759" lon="13.47526">
        <time>2019-06-25T08:42:14Z</time>
      </trkpt>
      <trkpt lat="67.704" lon="13.44277">
        <time>2019-06-25T08:42:32Z</time>
      </trkpt>
      <trkpt lat="67.71215" lon="13.42525">
        <time>2019-06-25T08:42:37Z</time>
      </trkpt>
      <trkpt lat="67.72711" lon="13.39506">
        <time>2019-06-25T08:42:56Z</time>
      </trkpt>
      <trkpt lat="67.7386" lon="13.37114">
        <time>2019-06-25T08:43:02Z</time>
      </trkpt>
      <trkpt lat="67.74916" lon="13.34814">
        <time>2019-06-25T08:43:14Z</time>
      </trkpt>
      <trkpt lat="67.76124" lon="13.3239">
        <time>2019-06-25T08:43:51Z</time>
      </trkpt>
      <trkpt lat="67.77068" lon="13.30281">
        <time>2019-06-25T08:44:00Z</time>
      </trkpt>
      <trkpt lat="67.77531" lon="13.29292">
        <time>2019-06-25T08:44:04Z</time>
      </trkpt>
      <trkpt lat="67.78167" lon="13.2803">
        <time>2019-06-25T08:44:12Z</time>
      </trkpt>
      <trkpt lat="67.78933" lon="13.26329">
        <time>2019-06-25T08:44:48Z</time>
      </trkpt>
      <trkpt lat="67.8004" lon="13.24067">
        <time>2019-06-25T08:45:07Z</time>
      </trkpt>
      <trkpt lat="67.81358" lon="13.21277">
        <time>2019-06-25T08:45:23Z</time>
      </trkpt>
      <trkpt lat="67.82913" lon="13.18117">
        <time>2019-06-25T08:45:34Z</time>
      </trkpt>
      <trkpt lat="67.83956" lon="13.15902">
        <time>2019-06-25T08:45:49Z</time>
      </trkpt>
      <trkpt lat="67.84474" lon="13.14906">
        <time>2019-06-25T08:46:13Z</time>
      </trkpt>
      <trkpt lat="67.85344" lon="13.12959">
        <time>2019-06-25T08:46:23Z</time>
      </trkpt>
      <trkpt lat="67.86648" lon="13.10223">
        <time>2019-06-25T08:46:40Z</time>
      </trkpt>
      <trkpt lat="67.87268" lon="13.08977">
        <ele>1</ele>
        <time>2019-06-25T08:47:30Z</time>
      </trkpt>
      <trkpt lat="67.88095" lon="13.07117">
        <ele>2</ele>
        <time>2019-06-25T08:47:48Z</time>
      </trkpt>
      <trkpt lat="67.88651" lon="13.05984">
        <ele>3</ele>
        <time>2019-06-25T08:50:25Z</time>
      </trkpt>
      <trkpt lat="67.89098" lon="13.04982">
        <ele>4</ele>
        <time>2019-06-25T08:51:12Z</time>
      </trkpt>
      <trkpt lat="67.90018" lon="13.04252">
        <ele>5</ele>
        <time>2019-06-25T08:55:55Z</time>
      </trkpt>
      <trkpt lat="67.90029" lon="13.04174">
        <ele>6</ele>
        <time>2019-06-25T09:04:00Z</time>
      </trkpt>
      <trkpt lat="67.8996" lon="13.04372">
        <ele>6</ele>
        <time>2019-06-25T09:04:59Z</time>
      </trkpt>
      <trkpt lat="67.89938" lon="13.04385">
        <ele>8</ele>
        <time>2019-06-25T09:05:23Z</time>
      </trkpt>
      <trkpt lat="67.89977" lon="13.04329">
        <ele>9</ele>
        <time>2019-06-25T09:10:18Z</time>
      </trkpt>
      <trkpt lat="67.89986" lon="13.04412">
        <ele>10</ele>
        <time>2019-06-25T09:10:50Z</time>
      </trkpt>
      <trkpt lat="67.89953" lon="13.04621">
        <ele>12</ele>
        <time>2019-06-25T09:11:10Z</time>
      </trkpt>
      <trkpt lat="67.90034" lon="13.04738">
        <ele>13</ele>
        <time>2019-06-25T09:11:22Z</time>
      </trkpt>
      <trkpt lat="67.90043" lon="13.04808">
        <ele>15</ele>
        <time>2019-06-25T09:11:52Z</time>
      </trkpt>
      <trkpt lat="67.90028" lon="13.05212">
        <ele>17</ele>
        <time>2019-06-25T09:12:09Z</time>
      </trkpt>
    </trkseg>
  </trk>
</gpx>